<?xml version='1.0' encoding='UTF-8'?><gpx version="1.1" creator="JPX - https://github.com/jenetics/jpx" xmlns="http://www.topografix.com/GPX/1/1"><trk><trkseg><trkpt lat="40.6513311" lon="14.4095525"><ele>132.0</ele><time>2026-04-13T08:34:10.866Z</time></trkpt><trkpt lat="40.651265" lon="14.4096372"><ele>132.0</ele><time>2026-04-13T08:34:12.855Z</time></trkpt><trkpt lat="40.6511754" lon="14.4097547"><ele>132.0</ele><time>2026-04-13T08:34:14.858Z</time></trkpt><trkpt lat="40.6511375" lon="14.409829"><ele>132.0</ele><time>2026-04-13T08:34:15.85Z</time></trkpt><trkpt lat="40.6511093" lon="14.4099113"><ele>132.0</ele><time>2026-04-13T08:34:16.849Z</time></trkpt><trkpt lat="40.6510885" lon="14.4099924"><ele>132.0</ele><time>2026-04-13T08:34:17.861Z</time></trkpt><trkpt lat="40.6510418" lon="14.4101388"><ele>133.0</ele><time>2026-04-13T08:34:19.862Z</time></trkpt><trkpt lat="40.6509691" lon="14.4102454"><ele>134.0</ele><time>2026-04-13T08:34:21.857Z</time></trkpt><trkpt lat="40.6508891" lon="14.4103549"><ele>135.0</ele><time>2026-04-13T08:34:23.841Z</time></trkpt><trkpt lat="40.6508456" lon="14.4104208"><ele>136.0</ele><time>2026-04-13T08:34:24.852Z</time></trkpt><trkpt lat="40.6508017" lon="14.4104921"><ele>137.0</ele><time>2026-04-13T08:34:25.838Z</time></trkpt><trkpt lat="40.6507572" lon="14.4105676"><ele>138.0</ele><time>2026-04-13T08:34:26.861Z</time></trkpt><trkpt lat="40.6507116" lon="14.4106429"><ele>139.4</ele><time>2026-04-13T08:34:27.849Z</time></trkpt><trkpt lat="40.6506628" lon="14.4107025"><ele>140.8</ele><time>2026-04-13T08:34:28.867Z</time></trkpt><trkpt lat="40.6505572" lon="14.4107635"><ele>142.2</ele><time>2026-04-13T08:34:30.855Z</time></trkpt><trkpt lat="40.6504772" lon="14.4107002"><ele>143.6</ele><time>2026-04-13T08:34:32.861Z</time></trkpt><trkpt lat="40.6503867" lon="14.4106485"><ele>145.0</ele><time>2026-04-13T08:34:34.855Z</time></trkpt><trkpt lat="40.6502784" lon="14.4106345"><ele>145.0</ele><time>2026-04-13T08:34:36.865Z</time></trkpt><trkpt lat="40.6501574" lon="14.410656"><ele>145.0</ele><time>2026-04-13T08:34:38.84Z</time></trkpt><trkpt lat="40.6500891" lon="14.4106829"><ele>145.0</ele><time>2026-04-13T08:34:39.862Z</time></trkpt><trkpt lat="40.6500201" lon="14.4107106"><ele>145.0</ele><time>2026-04-13T08:34:40.854Z</time></trkpt><trkpt lat="40.649947" lon="14.410765"><ele>145.0</ele><time>2026-04-13T08:34:41.873Z</time></trkpt><trkpt lat="40.6498834" lon="14.4108174"><ele>145.0</ele><time>2026-04-13T08:34:42.848Z</time></trkpt><trkpt lat="40.6497729" lon="14.4108752"><ele>145.0</ele><time>2026-04-13T08:34:44.853Z</time></trkpt><trkpt lat="40.6496687" lon="14.4108603"><ele>145.0</ele><time>2026-04-13T08:34:46.853Z</time></trkpt><trkpt lat="40.6495364" lon="14.410854"><ele>145.0</ele><time>2026-04-13T08:34:48.863Z</time></trkpt><trkpt lat="40.6494571" lon="14.4108687"><ele>145.0</ele><time>2026-04-13T08:34:49.862Z</time></trkpt><trkpt lat="40.6493706" lon="14.4109068"><ele>145.0</ele><time>2026-04-13T08:34:50.849Z</time></trkpt><trkpt lat="40.6492852" lon="14.4109673"><ele>144.75</ele><time>2026-04-13T08:34:51.863Z</time></trkpt><trkpt lat="40.6491963" lon="14.4110515"><ele>144.5</ele><time>2026-04-13T08:34:52.86Z</time></trkpt><trkpt lat="40.6490965" lon="14.4111578"><ele>144.25</ele><time>2026-04-13T08:34:53.855Z</time></trkpt><trkpt lat="40.6489939" lon="14.4112564"><ele>144.0</ele><time>2026-04-13T08:34:54.858Z</time></trkpt><trkpt lat="40.6488968" lon="14.4113332"><ele>144.0</ele><time>2026-04-13T08:34:55.842Z</time></trkpt><trkpt lat="40.6488047" lon="14.4114103"><ele>144.0</ele><time>2026-04-13T08:34:56.875Z</time></trkpt><trkpt lat="40.6487057" lon="14.4115117"><ele>144.0</ele><time>2026-04-13T08:34:57.853Z</time></trkpt><trkpt lat="40.6486073" lon="14.4116211"><ele>144.0</ele><time>2026-04-13T08:34:58.852Z</time></trkpt><trkpt lat="40.6485171" lon="14.411727"><ele>139.4</ele><time>2026-04-13T08:34:59.872Z</time></trkpt><trkpt lat="40.6484256" lon="14.4118293"><ele>134.8</ele><time>2026-04-13T08:35:00.852Z</time></trkpt><trkpt lat="40.648337" lon="14.4119168"><ele>130.2</ele><time>2026-04-13T08:35:01.86Z</time></trkpt><trkpt lat="40.6482607" lon="14.4119904"><ele>125.6</ele><time>2026-04-13T08:35:02.861Z</time></trkpt><trkpt lat="40.6481991" lon="14.4120575"><ele>121.0</ele><time>2026-04-13T08:35:03.854Z</time></trkpt><trkpt lat="40.6481555" lon="14.4121215"><ele>122.33333333333334</ele><time>2026-04-13T08:35:04.845Z</time></trkpt><trkpt lat="40.6480723" lon="14.4122086"><ele>123.66666666666667</ele><time>2026-04-13T08:35:06.856Z</time></trkpt><trkpt lat="40.6479545" lon="14.4122237"><ele>125.0</ele><time>2026-04-13T08:35:08.854Z</time></trkpt><trkpt lat="40.6478843" lon="14.4122216"><ele>126.33333333333334</ele><time>2026-04-13T08:35:09.855Z</time></trkpt><trkpt lat="40.647816" lon="14.4122292"><ele>127.66666666666667</ele><time>2026-04-13T08:35:10.856Z</time></trkpt><trkpt lat="40.6477488" lon="14.412243"><ele>129.0</ele><time>2026-04-13T08:35:11.856Z</time></trkpt><trkpt lat="40.6476827" lon="14.4122564"><ele>129.0</ele><time>2026-04-13T08:35:12.85Z</time></trkpt><trkpt lat="40.6476053" lon="14.4123007"><ele>129.0</ele><time>2026-04-13T08:35:13.841Z</time></trkpt><trkpt lat="40.6475161" lon="14.4123678"><ele>129.0</ele><time>2026-04-13T08:35:14.846Z</time></trkpt><trkpt lat="40.6474225" lon="14.4124491"><ele>129.0</ele><time>2026-04-13T08:35:15.857Z</time></trkpt><trkpt lat="40.6473331" lon="14.4125311"><ele>129.0</ele><time>2026-04-13T08:35:16.849Z</time></trkpt><trkpt lat="40.647248" lon="14.4126054"><ele>129.0</ele><time>2026-04-13T08:35:17.869Z</time></trkpt><trkpt lat="40.6471689" lon="14.4126706"><ele>129.0</ele><time>2026-04-13T08:35:18.848Z</time></trkpt><trkpt lat="40.6470955" lon="14.4127229"><ele>129.0</ele><time>2026-04-13T08:35:19.858Z</time></trkpt><trkpt lat="40.6470218" lon="14.4127688"><ele>129.0</ele><time>2026-04-13T08:35:20.845Z</time></trkpt><trkpt lat="40.646927" lon="14.4128318"><ele>129.0</ele><time>2026-04-13T08:35:21.85Z</time></trkpt><trkpt lat="40.6468175" lon="14.4129114"><ele>131.5</ele><time>2026-04-13T08:35:22.85Z</time></trkpt><trkpt lat="40.6466973" lon="14.4130076"><ele>134.0</ele><time>2026-04-13T08:35:23.858Z</time></trkpt><trkpt lat="40.6465707" lon="14.4131153"><ele>136.5</ele><time>2026-04-13T08:35:24.864Z</time></trkpt><trkpt lat="40.646445" lon="14.4132186"><ele>139.0</ele><time>2026-04-13T08:35:25.861Z</time></trkpt><trkpt lat="40.6463193" lon="14.4133185"><ele>139.0</ele><time>2026-04-13T08:35:26.846Z</time></trkpt><trkpt lat="40.6461909" lon="14.4134216"><ele>139.0</ele><time>2026-04-13T08:35:27.86Z</time></trkpt><trkpt lat="40.6460576" lon="14.4135242"><ele>139.0</ele><time>2026-04-13T08:35:28.856Z</time></trkpt><trkpt lat="40.645923" lon="14.4136228"><ele>142.66666666666669</ele><time>2026-04-13T08:35:29.866Z</time></trkpt><trkpt lat="40.6457902" lon="14.4137285"><ele>146.33333333333334</ele><time>2026-04-13T08:35:30.846Z</time></trkpt><trkpt lat="40.6456602" lon="14.4138445"><ele>150.0</ele><time>2026-04-13T08:35:31.86Z</time></trkpt><trkpt lat="40.645535" lon="14.4139641"><ele>150.0</ele><time>2026-04-13T08:35:32.869Z</time></trkpt><trkpt lat="40.6454106" lon="14.4140882"><ele>150.0</ele><time>2026-04-13T08:35:33.867Z</time></trkpt><trkpt lat="40.6452906" lon="14.4142164"><ele>150.0</ele><time>2026-04-13T08:35:34.856Z</time></trkpt><trkpt lat="40.6451845" lon="14.4143478"><ele>145.25</ele><time>2026-04-13T08:35:35.859Z</time></trkpt><trkpt lat="40.6450893" lon="14.4144805"><ele>140.5</ele><time>2026-04-13T08:35:36.863Z</time></trkpt><trkpt lat="40.6450036" lon="14.4146155"><ele>135.75</ele><time>2026-04-13T08:35:37.861Z</time></trkpt><trkpt lat="40.6449142" lon="14.4147609"><ele>131.0</ele><time>2026-04-13T08:35:38.86Z</time></trkpt><trkpt lat="40.6448061" lon="14.4149162"><ele>131.0</ele><time>2026-04-13T08:35:39.846Z</time></trkpt><trkpt lat="40.6446776" lon="14.4150786"><ele>131.0</ele><time>2026-04-13T08:35:40.868Z</time></trkpt><trkpt lat="40.6445342" lon="14.4152462"><ele>131.0</ele><time>2026-04-13T08:35:41.866Z</time></trkpt><trkpt lat="40.6443857" lon="14.4154102"><ele>126.33333333333333</ele><time>2026-04-13T08:35:42.858Z</time></trkpt><trkpt lat="40.6442253" lon="14.4155691"><ele>121.66666666666666</ele><time>2026-04-13T08:35:43.845Z</time></trkpt><trkpt lat="40.6440728" lon="14.4157192"><ele>117.0</ele><time>2026-04-13T08:35:44.848Z</time></trkpt><trkpt lat="40.6439335" lon="14.4158545"><ele>117.0</ele><time>2026-04-13T08:35:45.86Z</time></trkpt><trkpt lat="40.6438102" lon="14.4159847"><ele>117.0</ele><time>2026-04-13T08:35:46.859Z</time></trkpt><trkpt lat="40.643711" lon="14.4161194"><ele>117.0</ele><time>2026-04-13T08:35:47.847Z</time></trkpt><trkpt lat="40.6436272" lon="14.416256"><ele>117.0</ele><time>2026-04-13T08:35:48.849Z</time></trkpt><trkpt lat="40.6435559" lon="14.4163878"><ele>116.0</ele><time>2026-04-13T08:35:49.846Z</time></trkpt><trkpt lat="40.6434934" lon="14.4165074"><ele>114.99999999999999</ele><time>2026-04-13T08:35:50.856Z</time></trkpt><trkpt lat="40.6434331" lon="14.4166261"><ele>113.99999999999999</ele><time>2026-04-13T08:35:51.838Z</time></trkpt><trkpt lat="40.6433726" lon="14.4167455"><ele>113.0</ele><time>2026-04-13T08:35:52.86Z</time></trkpt><trkpt lat="40.6433152" lon="14.4168537"><ele>112.0</ele><time>2026-04-13T08:35:53.846Z</time></trkpt><trkpt lat="40.6432616" lon="14.4169539"><ele>112.00000000000001</ele><time>2026-04-13T08:35:54.855Z</time></trkpt><trkpt lat="40.6432046" lon="14.4170496"><ele>112.0</ele><time>2026-04-13T08:35:55.848Z</time></trkpt><trkpt lat="40.643143" lon="14.4171326"><ele>112.0</ele><time>2026-04-13T08:35:56.854Z</time></trkpt><trkpt lat="40.6430812" lon="14.4172027"><ele>112.0</ele><time>2026-04-13T08:35:57.847Z</time></trkpt><trkpt lat="40.6430238" lon="14.4172637"><ele>112.00000000000001</ele><time>2026-04-13T08:35:58.866Z</time></trkpt><trkpt lat="40.6429678" lon="14.4173146"><ele>112.0</ele><time>2026-04-13T08:35:59.843Z</time></trkpt><trkpt lat="40.6429099" lon="14.4173584"><ele>111.8</ele><time>2026-04-13T08:36:00.859Z</time></trkpt><trkpt lat="40.6428046" lon="14.4174357"><ele>111.6</ele><time>2026-04-13T08:36:02.864Z</time></trkpt><trkpt lat="40.6427103" lon="14.4175121"><ele>111.39999999999999</ele><time>2026-04-13T08:36:04.855Z</time></trkpt><trkpt lat="40.6426328" lon="14.4175867"><ele>111.19999999999999</ele><time>2026-04-13T08:36:06.86Z</time></trkpt><trkpt lat="40.6425538" lon="14.4176431"><ele>111.0</ele><time>2026-04-13T08:36:08.847Z</time></trkpt><trkpt lat="40.6424488" lon="14.4176655"><ele>111.0</ele><time>2026-04-13T08:36:10.855Z</time></trkpt><trkpt lat="40.642384" lon="14.4176614"><ele>111.0</ele><time>2026-04-13T08:36:11.864Z</time></trkpt><trkpt lat="40.6423157" lon="14.4176456"><ele>111.0</ele><time>2026-04-13T08:36:12.859Z</time></trkpt><trkpt lat="40.642246" lon="14.4176305"><ele>111.0</ele><time>2026-04-13T08:36:13.846Z</time></trkpt><trkpt lat="40.6421698" lon="14.4176232"><ele>111.0</ele><time>2026-04-13T08:36:14.861Z</time></trkpt><trkpt lat="40.6420934" lon="14.417624"><ele>111.0</ele><time>2026-04-13T08:36:15.861Z</time></trkpt><trkpt lat="40.6420236" lon="14.4176333"><ele>111.0</ele><time>2026-04-13T08:36:16.842Z</time></trkpt><trkpt lat="40.6419568" lon="14.4176554"><ele>111.16666666666667</ele><time>2026-04-13T08:36:17.844Z</time></trkpt><trkpt lat="40.641887" lon="14.4176801"><ele>111.33333333333334</ele><time>2026-04-13T08:36:18.857Z</time></trkpt><trkpt lat="40.6418211" lon="14.4177227"><ele>111.5</ele><time>2026-04-13T08:36:19.845Z</time></trkpt><trkpt lat="40.6417514" lon="14.4177712"><ele>111.66666666666667</ele><time>2026-04-13T08:36:20.857Z</time></trkpt><trkpt lat="40.6416911" lon="14.4178379"><ele>111.83333333333334</ele><time>2026-04-13T08:36:21.858Z</time></trkpt><trkpt lat="40.6416344" lon="14.4179178"><ele>112.0</ele><time>2026-04-13T08:36:22.859Z</time></trkpt><trkpt lat="40.6415787" lon="14.4179982"><ele>112.0</ele><time>2026-04-13T08:36:23.863Z</time></trkpt><trkpt lat="40.6415366" lon="14.4180614"><ele>111.99999999999999</ele><time>2026-04-13T08:36:24.841Z</time></trkpt><trkpt lat="40.6414563" lon="14.418183"><ele>111.99999999999999</ele><time>2026-04-13T08:36:26.85Z</time></trkpt><trkpt lat="40.6414001" lon="14.4182617"><ele>112.0</ele><time>2026-04-13T08:36:27.847Z</time></trkpt><trkpt lat="40.6413209" lon="14.4183469"><ele>112.0</ele><time>2026-04-13T08:36:28.86Z</time></trkpt><trkpt lat="40.6412299" lon="14.418431"><ele>112.0</ele><time>2026-04-13T08:36:29.846Z</time></trkpt><trkpt lat="40.6411399" lon="14.4185025"><ele>112.0</ele><time>2026-04-13T08:36:30.86Z</time></trkpt><trkpt lat="40.64104" lon="14.4185695"><ele>112.0</ele><time>2026-04-13T08:36:31.865Z</time></trkpt><trkpt lat="40.6409283" lon="14.4186437"><ele>112.0</ele><time>2026-04-13T08:36:32.844Z</time></trkpt><trkpt lat="40.6408133" lon="14.4187158"><ele>110.75</ele><time>2026-04-13T08:36:33.859Z</time></trkpt><trkpt lat="40.6407028" lon="14.4187844"><ele>109.5</ele><time>2026-04-13T08:36:34.857Z</time></trkpt><trkpt lat="40.6405922" lon="14.41885"><ele>108.25</ele><time>2026-04-13T08:36:35.853Z</time></trkpt><trkpt lat="40.6404865" lon="14.4189137"><ele>107.0</ele><time>2026-04-13T08:36:36.868Z</time></trkpt><trkpt lat="40.6403843" lon="14.4189651"><ele>108.8</ele><time>2026-04-13T08:36:37.867Z</time></trkpt><trkpt lat="40.6402809" lon="14.4189986"><ele>110.6</ele><time>2026-04-13T08:36:38.865Z</time></trkpt><trkpt lat="40.6401751" lon="14.4190105"><ele>112.39999999999999</ele><time>2026-04-13T08:36:39.85Z</time></trkpt><trkpt lat="40.6400658" lon="14.4190061"><ele>114.19999999999999</ele><time>2026-04-13T08:36:40.855Z</time></trkpt><trkpt lat="40.6399422" lon="14.418988"><ele>116.0</ele><time>2026-04-13T08:36:41.842Z</time></trkpt><trkpt lat="40.6398009" lon="14.418961"><ele>116.0</ele><time>2026-04-13T08:36:42.858Z</time></trkpt><trkpt lat="40.6396462" lon="14.4189252"><ele>116.0</ele><time>2026-04-13T08:36:43.848Z</time></trkpt><trkpt lat="40.6394807" lon="14.4188877"><ele>116.0</ele><time>2026-04-13T08:36:44.86Z</time></trkpt><trkpt lat="40.6393343" lon="14.4188509"><ele>115.5</ele><time>2026-04-13T08:36:45.855Z</time></trkpt><trkpt lat="40.6391941" lon="14.4188194"><ele>115.0</ele><time>2026-04-13T08:36:46.851Z</time></trkpt><trkpt lat="40.6390597" lon="14.4187972"><ele>114.5</ele><time>2026-04-13T08:36:47.856Z</time></trkpt><trkpt lat="40.6389424" lon="14.4187771"><ele>114.0</ele><time>2026-04-13T08:36:48.845Z</time></trkpt><trkpt lat="40.638843" lon="14.4187574"><ele>113.16666666666667</ele><time>2026-04-13T08:36:49.845Z</time></trkpt><trkpt lat="40.6387543" lon="14.4187435"><ele>112.33333333333334</ele><time>2026-04-13T08:36:50.877Z</time></trkpt><trkpt lat="40.638682" lon="14.4187319"><ele>111.5</ele><time>2026-04-13T08:36:51.855Z</time></trkpt><trkpt lat="40.6385519" lon="14.4187302"><ele>110.66666666666667</ele><time>2026-04-13T08:36:53.841Z</time></trkpt><trkpt lat="40.6384828" lon="14.4187445"><ele>109.83333333333334</ele><time>2026-04-13T08:36:54.845Z</time></trkpt><trkpt lat="40.6384074" lon="14.4187657"><ele>109.0</ele><time>2026-04-13T08:36:55.845Z</time></trkpt><trkpt lat="40.6383436" lon="14.4187842"><ele>108.83333333333334</ele><time>2026-04-13T08:36:56.846Z</time></trkpt><trkpt lat="40.6382649" lon="14.418803"><ele>108.66666666666667</ele><time>2026-04-13T08:36:58.84Z</time></trkpt><trkpt lat="40.6382021" lon="14.4188294"><ele>108.5</ele><time>2026-04-13T08:37:01.869Z</time></trkpt><trkpt lat="40.6381248" lon="14.4188453"><ele>108.33333333333334</ele><time>2026-04-13T08:37:06.854Z</time></trkpt><trkpt lat="40.6380309" lon="14.4189222"><ele>108.16666666666667</ele><time>2026-04-13T08:37:08.859Z</time></trkpt><trkpt lat="40.6379691" lon="14.4189683"><ele>108.0</ele><time>2026-04-13T08:37:09.849Z</time></trkpt><trkpt lat="40.6378904" lon="14.4190496"><ele>109.16666666666667</ele><time>2026-04-13T08:37:11.863Z</time></trkpt><trkpt lat="40.63782" lon="14.4191245"><ele>110.33333333333334</ele><time>2026-04-13T08:37:13.865Z</time></trkpt><trkpt lat="40.6377487" lon="14.4191912"><ele>111.5</ele><time>2026-04-13T08:37:15.849Z</time></trkpt><trkpt lat="40.637689" lon="14.4192335"><ele>112.66666666666667</ele><time>2026-04-13T08:37:17.853Z</time></trkpt><trkpt lat="40.6375981" lon="14.4193002"><ele>113.83333333333334</ele><time>2026-04-13T08:37:19.859Z</time></trkpt><trkpt lat="40.6375167" lon="14.4193708"><ele>115.0</ele><time>2026-04-13T08:37:20.855Z</time></trkpt><trkpt lat="40.6374361" lon="14.419445"><ele>115.16666666666667</ele><time>2026-04-13T08:37:21.858Z</time></trkpt><trkpt lat="40.6373614" lon="14.4194993"><ele>115.33333333333334</ele><time>2026-04-13T08:37:22.861Z</time></trkpt><trkpt lat="40.6372857" lon="14.4195402"><ele>115.5</ele><time>2026-04-13T08:37:23.844Z</time></trkpt><trkpt lat="40.6372058" lon="14.4195729"><ele>115.66666666666666</ele><time>2026-04-13T08:37:24.858Z</time></trkpt><trkpt lat="40.6371362" lon="14.4195946"><ele>115.83333333333333</ele><time>2026-04-13T08:37:25.86Z</time></trkpt><trkpt lat="40.6370643" lon="14.4196062"><ele>116.0</ele><time>2026-04-13T08:37:26.847Z</time></trkpt><trkpt lat="40.6369996" lon="14.4196128"><ele>116.19999999999999</ele><time>2026-04-13T08:37:27.836Z</time></trkpt><trkpt lat="40.6369368" lon="14.4195978"><ele>116.39999999999999</ele><time>2026-04-13T08:37:28.866Z</time></trkpt><trkpt lat="40.6368165" lon="14.4195019"><ele>116.6</ele><time>2026-04-13T08:37:30.861Z</time></trkpt><trkpt lat="40.6367334" lon="14.4194171"><ele>116.8</ele><time>2026-04-13T08:37:31.858Z</time></trkpt><trkpt lat="40.6366438" lon="14.4193237"><ele>117.0</ele><time>2026-04-13T08:37:32.854Z</time></trkpt><trkpt lat="40.636551" lon="14.419229"><ele>117.0</ele><time>2026-04-13T08:37:33.858Z</time></trkpt><trkpt lat="40.6364497" lon="14.4191362"><ele>117.0</ele><time>2026-04-13T08:37:34.852Z</time></trkpt><trkpt lat="40.6363628" lon="14.4190451"><ele>117.0</ele><time>2026-04-13T08:37:35.869Z</time></trkpt><trkpt lat="40.6362789" lon="14.4189405"><ele>117.0</ele><time>2026-04-13T08:37:36.862Z</time></trkpt><trkpt lat="40.63619" lon="14.4188272"><ele>116.19999999999999</ele><time>2026-04-13T08:37:37.845Z</time></trkpt><trkpt lat="40.6361125" lon="14.4187136"><ele>115.39999999999999</ele><time>2026-04-13T08:37:38.862Z</time></trkpt><trkpt lat="40.6360453" lon="14.4186052"><ele>114.60000000000001</ele><time>2026-04-13T08:37:39.848Z</time></trkpt><trkpt lat="40.6359815" lon="14.4185018"><ele>113.80000000000001</ele><time>2026-04-13T08:37:40.855Z</time></trkpt><trkpt lat="40.635919" lon="14.4184015"><ele>113.0</ele><time>2026-04-13T08:37:41.855Z</time></trkpt><trkpt lat="40.6358535" lon="14.4183199"><ele>112.99999999999999</ele><time>2026-04-13T08:37:42.861Z</time></trkpt><trkpt lat="40.6357864" lon="14.418259"><ele>113.0</ele><time>2026-04-13T08:37:43.846Z</time></trkpt><trkpt lat="40.6357161" lon="14.4182087"><ele>113.0</ele><time>2026-04-13T08:37:44.858Z</time></trkpt><trkpt lat="40.6356587" lon="14.4181569"><ele>113.0</ele><time>2026-04-13T08:37:45.87Z</time></trkpt><trkpt lat="40.6355985" lon="14.4180859"><ele>112.99999999999999</ele><time>2026-04-13T08:37:46.867Z</time></trkpt><trkpt lat="40.6355399" lon="14.4180043"><ele>113.0</ele><time>2026-04-13T08:37:47.862Z</time></trkpt><trkpt lat="40.6354763" lon="14.4179001"><ele>113.5</ele><time>2026-04-13T08:37:48.845Z</time></trkpt><trkpt lat="40.6354092" lon="14.4177675"><ele>114.0</ele><time>2026-04-13T08:37:49.854Z</time></trkpt><trkpt lat="40.6353404" lon="14.417627"><ele>114.5</ele><time>2026-04-13T08:37:50.847Z</time></trkpt><trkpt lat="40.6352727" lon="14.4174896"><ele>115.0</ele><time>2026-04-13T08:37:51.859Z</time></trkpt><trkpt lat="40.6352083" lon="14.4173639"><ele>115.0</ele><time>2026-04-13T08:37:52.854Z</time></trkpt><trkpt lat="40.6351495" lon="14.4172486"><ele>115.0</ele><time>2026-04-13T08:37:53.846Z</time></trkpt><trkpt lat="40.6350989" lon="14.4171477"><ele>115.0</ele><time>2026-04-13T08:37:54.857Z</time></trkpt><trkpt lat="40.635051" lon="14.417054"><ele>115.0</ele><time>2026-04-13T08:37:55.84Z</time></trkpt><trkpt lat="40.635009" lon="14.4169735"><ele>115.0</ele><time>2026-04-13T08:37:56.852Z</time></trkpt><trkpt lat="40.634929" lon="14.4168657"><ele>114.2</ele><time>2026-04-13T08:37:58.844Z</time></trkpt><trkpt lat="40.6348321" lon="14.4168533"><ele>113.4</ele><time>2026-04-13T08:38:00.857Z</time></trkpt><trkpt lat="40.6347282" lon="14.416923"><ele>112.6</ele><time>2026-04-13T08:38:02.837Z</time></trkpt><trkpt lat="40.6346587" lon="14.4169791"><ele>111.8</ele><time>2026-04-13T08:38:03.845Z</time></trkpt><trkpt lat="40.6345779" lon="14.4170493"><ele>111.0</ele><time>2026-04-13T08:38:04.862Z</time></trkpt><trkpt lat="40.6344962" lon="14.4171235"><ele>113.0</ele><time>2026-04-13T08:38:05.86Z</time></trkpt><trkpt lat="40.6344094" lon="14.417201"><ele>115.0</ele><time>2026-04-13T08:38:06.858Z</time></trkpt><trkpt lat="40.6343182" lon="14.4172709"><ele>117.0</ele><time>2026-04-13T08:38:07.843Z</time></trkpt><trkpt lat="40.634229" lon="14.4173423"><ele>119.0</ele><time>2026-04-13T08:38:08.849Z</time></trkpt><trkpt lat="40.6341452" lon="14.4174111"><ele>121.0</ele><time>2026-04-13T08:38:09.851Z</time></trkpt><trkpt lat="40.6340614" lon="14.4174846"><ele>121.0</ele><time>2026-04-13T08:38:10.857Z</time></trkpt><trkpt lat="40.6339765" lon="14.4175608"><ele>121.0</ele><time>2026-04-13T08:38:11.854Z</time></trkpt><trkpt lat="40.6338902" lon="14.4176376"><ele>121.0</ele><time>2026-04-13T08:38:12.846Z</time></trkpt><trkpt lat="40.6338134" lon="14.4176994"><ele>121.0</ele><time>2026-04-13T08:38:13.867Z</time></trkpt><trkpt lat="40.6337472" lon="14.417752"><ele>121.0</ele><time>2026-04-13T08:38:14.848Z</time></trkpt><trkpt lat="40.6336821" lon="14.4178068"><ele>122.19999999999999</ele><time>2026-04-13T08:38:15.854Z</time></trkpt><trkpt lat="40.633616" lon="14.417863"><ele>123.39999999999999</ele><time>2026-04-13T08:38:16.844Z</time></trkpt><trkpt lat="40.6335599" lon="14.4179066"><ele>124.6</ele><time>2026-04-13T08:38:17.862Z</time></trkpt><trkpt lat="40.6334617" lon="14.417982"><ele>125.8</ele><time>2026-04-13T08:38:19.854Z</time></trkpt><trkpt lat="40.6333593" lon="14.4180761"><ele>127.0</ele><time>2026-04-13T08:38:21.859Z</time></trkpt><trkpt lat="40.6332959" lon="14.4181354"><ele>128.0</ele><time>2026-04-13T08:38:22.846Z</time></trkpt><trkpt lat="40.6332143" lon="14.4182095"><ele>129.0</ele><time>2026-04-13T08:38:23.859Z</time></trkpt><trkpt lat="40.6331171" lon="14.4182904"><ele>130.0</ele><time>2026-04-13T08:38:24.848Z</time></trkpt><trkpt lat="40.6330119" lon="14.4183752"><ele>131.0</ele><time>2026-04-13T08:38:25.848Z</time></trkpt><trkpt lat="40.6329088" lon="14.4184584"><ele>131.0</ele><time>2026-04-13T08:38:26.853Z</time></trkpt><trkpt lat="40.6328075" lon="14.4185436"><ele>131.0</ele><time>2026-04-13T08:38:27.861Z</time></trkpt><trkpt lat="40.6327014" lon="14.4186345"><ele>131.0</ele><time>2026-04-13T08:38:28.845Z</time></trkpt><trkpt lat="40.6325904" lon="14.418725"><ele>131.0</ele><time>2026-04-13T08:38:29.861Z</time></trkpt><trkpt lat="40.6324785" lon="14.4188159"><ele>134.0</ele><time>2026-04-13T08:38:30.841Z</time></trkpt><trkpt lat="40.6323645" lon="14.4189079"><ele>137.0</ele><time>2026-04-13T08:38:31.863Z</time></trkpt><trkpt lat="40.6322506" lon="14.4190036"><ele>140.0</ele><time>2026-04-13T08:38:32.856Z</time></trkpt><trkpt lat="40.6321371" lon="14.4191006"><ele>143.0</ele><time>2026-04-13T08:38:33.854Z</time></trkpt><trkpt lat="40.6320275" lon="14.4191953"><ele>144.0</ele><time>2026-04-13T08:38:34.863Z</time></trkpt><trkpt lat="40.6319215" lon="14.4192853"><ele>145.0</ele><time>2026-04-13T08:38:35.863Z</time></trkpt><trkpt lat="40.6318173" lon="14.4193743"><ele>146.0</ele><time>2026-04-13T08:38:36.855Z</time></trkpt><trkpt lat="40.6317099" lon="14.4194626"><ele>147.0</ele><time>2026-04-13T08:38:37.846Z</time></trkpt><trkpt lat="40.6316072" lon="14.4195474"><ele>147.0</ele><time>2026-04-13T08:38:38.853Z</time></trkpt><trkpt lat="40.6315149" lon="14.4196236"><ele>147.0</ele><time>2026-04-13T08:38:39.856Z</time></trkpt><trkpt lat="40.6314291" lon="14.4196937"><ele>147.0</ele><time>2026-04-13T08:38:40.849Z</time></trkpt><trkpt lat="40.6313428" lon="14.4197645"><ele>147.0</ele><time>2026-04-13T08:38:41.851Z</time></trkpt><trkpt lat="40.6312486" lon="14.4198424"><ele>147.0</ele><time>2026-04-13T08:38:42.86Z</time></trkpt><trkpt lat="40.6311501" lon="14.4199264"><ele>149.0</ele><time>2026-04-13T08:38:43.847Z</time></trkpt><trkpt lat="40.6310451" lon="14.4200163"><ele>151.0</ele><time>2026-04-13T08:38:44.874Z</time></trkpt><trkpt lat="40.6309359" lon="14.4201049"><ele>153.0</ele><time>2026-04-13T08:38:45.86Z</time></trkpt><trkpt lat="40.6308198" lon="14.4201943"><ele>155.0</ele><time>2026-04-13T08:38:46.845Z</time></trkpt><trkpt lat="40.6307014" lon="14.4202837"><ele>155.0</ele><time>2026-04-13T08:38:47.847Z</time></trkpt><trkpt lat="40.6305847" lon="14.4203695"><ele>155.0</ele><time>2026-04-13T08:38:48.858Z</time></trkpt><trkpt lat="40.6304635" lon="14.4204579"><ele>155.0</ele><time>2026-04-13T08:38:49.859Z</time></trkpt><trkpt lat="40.6303431" lon="14.4205484"><ele>155.0</ele><time>2026-04-13T08:38:50.851Z</time></trkpt><trkpt lat="40.6302301" lon="14.4206358"><ele>157.8</ele><time>2026-04-13T08:38:51.862Z</time></trkpt><trkpt lat="40.6301228" lon="14.4207226"><ele>160.6</ele><time>2026-04-13T08:38:52.863Z</time></trkpt><trkpt lat="40.6300244" lon="14.4208001"><ele>163.39999999999998</ele><time>2026-04-13T08:38:53.862Z</time></trkpt><trkpt lat="40.6299376" lon="14.4208654"><ele>166.2</ele><time>2026-04-13T08:38:54.843Z</time></trkpt><trkpt lat="40.6298545" lon="14.4209297"><ele>169.0</ele><time>2026-04-13T08:38:55.857Z</time></trkpt><trkpt lat="40.629777" lon="14.4209906"><ele>169.0</ele><time>2026-04-13T08:38:56.862Z</time></trkpt><trkpt lat="40.6297063" lon="14.4210616"><ele>169.0</ele><time>2026-04-13T08:38:57.857Z</time></trkpt><trkpt lat="40.629632" lon="14.4211272"><ele>169.0</ele><time>2026-04-13T08:38:58.861Z</time></trkpt><trkpt lat="40.6295434" lon="14.4212117"><ele>169.0</ele><time>2026-04-13T08:38:59.85Z</time></trkpt><trkpt lat="40.6294347" lon="14.4213152"><ele>169.0</ele><time>2026-04-13T08:39:00.848Z</time></trkpt><trkpt lat="40.6293379" lon="14.4213956"><ele>171.2</ele><time>2026-04-13T08:39:01.845Z</time></trkpt><trkpt lat="40.6292484" lon="14.4214627"><ele>173.39999999999998</ele><time>2026-04-13T08:39:02.845Z</time></trkpt><trkpt lat="40.6291571" lon="14.421533"><ele>175.6</ele><time>2026-04-13T08:39:03.845Z</time></trkpt><trkpt lat="40.6290605" lon="14.4216148"><ele>177.8</ele><time>2026-04-13T08:39:04.856Z</time></trkpt><trkpt lat="40.6289889" lon="14.4216919"><ele>180.0</ele><time>2026-04-13T08:39:05.863Z</time></trkpt><trkpt lat="40.6289375" lon="14.4217726"><ele>180.0</ele><time>2026-04-13T08:39:06.862Z</time></trkpt><trkpt lat="40.6289004" lon="14.4218574"><ele>180.0</ele><time>2026-04-13T08:39:07.864Z</time></trkpt><trkpt lat="40.628875" lon="14.4219348"><ele>180.0</ele><time>2026-04-13T08:39:08.844Z</time></trkpt><trkpt lat="40.6288662" lon="14.4220827"><ele>180.0</ele><time>2026-04-13T08:39:10.844Z</time></trkpt><trkpt lat="40.6288726" lon="14.422167"><ele>180.0</ele><time>2026-04-13T08:39:11.861Z</time></trkpt><trkpt lat="40.6289097" lon="14.4222491"><ele>180.0</ele><time>2026-04-13T08:39:12.851Z</time></trkpt><trkpt lat="40.6289541" lon="14.4223354"><ele>181.16666666666666</ele><time>2026-04-13T08:39:13.849Z</time></trkpt><trkpt lat="40.6289956" lon="14.4224212"><ele>182.33333333333334</ele><time>2026-04-13T08:39:14.854Z</time></trkpt><trkpt lat="40.6290377" lon="14.4225121"><ele>183.5</ele><time>2026-04-13T08:39:15.864Z</time></trkpt><trkpt lat="40.629063" lon="14.422627"><ele>184.66666666666669</ele><time>2026-04-13T08:39:16.844Z</time></trkpt><trkpt lat="40.6290713" lon="14.4227525"><ele>185.83333333333334</ele><time>2026-04-13T08:39:17.864Z</time></trkpt><trkpt lat="40.6290677" lon="14.4228878"><ele>187.0</ele><time>2026-04-13T08:39:18.849Z</time></trkpt><trkpt lat="40.6290544" lon="14.4230255"><ele>188.0</ele><time>2026-04-13T08:39:19.864Z</time></trkpt><trkpt lat="40.6290325" lon="14.4231721"><ele>189.0</ele><time>2026-04-13T08:39:20.875Z</time></trkpt><trkpt lat="40.6290127" lon="14.4233289"><ele>190.0</ele><time>2026-04-13T08:39:21.861Z</time></trkpt><trkpt lat="40.6290015" lon="14.4234775"><ele>191.0</ele><time>2026-04-13T08:39:22.863Z</time></trkpt><trkpt lat="40.6289926" lon="14.4235935"><ele>192.0</ele><time>2026-04-13T08:39:23.842Z</time></trkpt><trkpt lat="40.6289756" lon="14.4236734"><ele>192.0</ele><time>2026-04-13T08:39:24.847Z</time></trkpt><trkpt lat="40.6289229" lon="14.4237626"><ele>192.0</ele><time>2026-04-13T08:39:26.858Z</time></trkpt><trkpt lat="40.6288031" lon="14.4238273"><ele>192.0</ele><time>2026-04-13T08:39:28.865Z</time></trkpt><trkpt lat="40.628712" lon="14.4238764"><ele>192.0</ele><time>2026-04-13T08:39:29.857Z</time></trkpt><trkpt lat="40.6286114" lon="14.4239377"><ele>192.0</ele><time>2026-04-13T08:39:30.857Z</time></trkpt><trkpt lat="40.6285124" lon="14.4239974"><ele>193.8</ele><time>2026-04-13T08:39:31.859Z</time></trkpt><trkpt lat="40.6284197" lon="14.4240407"><ele>195.6</ele><time>2026-04-13T08:39:32.853Z</time></trkpt><trkpt lat="40.6283226" lon="14.4240723"><ele>197.4</ele><time>2026-04-13T08:39:33.859Z</time></trkpt><trkpt lat="40.6282317" lon="14.4240272"><ele>199.20000000000002</ele><time>2026-04-13T08:39:34.851Z</time></trkpt><trkpt lat="40.628128" lon="14.4239934"><ele>201.0</ele><time>2026-04-13T08:39:35.868Z</time></trkpt><trkpt lat="40.6280106" lon="14.4239795"><ele>201.0</ele><time>2026-04-13T08:39:36.865Z</time></trkpt><trkpt lat="40.6278838" lon="14.4239959"><ele>201.0</ele><time>2026-04-13T08:39:37.858Z</time></trkpt><trkpt lat="40.6277624" lon="14.4240362"><ele>201.0</ele><time>2026-04-13T08:39:38.854Z</time></trkpt><trkpt lat="40.6276445" lon="14.4240981"><ele>201.0</ele><time>2026-04-13T08:39:39.849Z</time></trkpt><trkpt lat="40.6275116" lon="14.424183"><ele>200.25</ele><time>2026-04-13T08:39:40.856Z</time></trkpt><trkpt lat="40.6273705" lon="14.4242757"><ele>199.5</ele><time>2026-04-13T08:39:41.853Z</time></trkpt><trkpt lat="40.6272374" lon="14.4243626"><ele>198.75</ele><time>2026-04-13T08:39:42.862Z</time></trkpt><trkpt lat="40.6271226" lon="14.4244453"><ele>198.0</ele><time>2026-04-13T08:39:43.846Z</time></trkpt><trkpt lat="40.6270184" lon="14.4245233"><ele>198.5</ele><time>2026-04-13T08:39:44.859Z</time></trkpt><trkpt lat="40.6269246" lon="14.4245859"><ele>199.0</ele><time>2026-04-13T08:39:45.853Z</time></trkpt><trkpt lat="40.6268463" lon="14.4246201"><ele>199.5</ele><time>2026-04-13T08:39:46.859Z</time></trkpt><trkpt lat="40.6267714" lon="14.4246165"><ele>200.0</ele><time>2026-04-13T08:39:47.853Z</time></trkpt><trkpt lat="40.6267001" lon="14.4245772"><ele>200.5</ele><time>2026-04-13T08:39:48.858Z</time></trkpt><trkpt lat="40.6266344" lon="14.4245028"><ele>201.0</ele><time>2026-04-13T08:39:49.859Z</time></trkpt><trkpt lat="40.6265569" lon="14.4244123"><ele>201.0</ele><time>2026-04-13T08:39:50.856Z</time></trkpt><trkpt lat="40.6264662" lon="14.424293"><ele>201.0</ele><time>2026-04-13T08:39:51.861Z</time></trkpt><trkpt lat="40.6263641" lon="14.424163"><ele>201.0</ele><time>2026-04-13T08:39:52.86Z</time></trkpt><trkpt lat="40.62625" lon="14.4240326"><ele>201.0</ele><time>2026-04-13T08:39:53.85Z</time></trkpt><trkpt lat="40.6261296" lon="14.4239189"><ele>202.0</ele><time>2026-04-13T08:39:54.861Z</time></trkpt><trkpt lat="40.6260053" lon="14.4238297"><ele>203.0</ele><time>2026-04-13T08:39:55.859Z</time></trkpt><trkpt lat="40.625877" lon="14.4237692"><ele>204.0</ele><time>2026-04-13T08:39:56.857Z</time></trkpt><trkpt lat="40.6257376" lon="14.423731"><ele>205.0</ele><time>2026-04-13T08:39:57.846Z</time></trkpt><trkpt lat="40.6255817" lon="14.4237065"><ele>205.0</ele><time>2026-04-13T08:39:58.852Z</time></trkpt><trkpt lat="40.6254095" lon="14.423695"><ele>205.0</ele><time>2026-04-13T08:39:59.866Z</time></trkpt><trkpt lat="40.625213" lon="14.4236934"><ele>205.0</ele><time>2026-04-13T08:40:00.862Z</time></trkpt><trkpt lat="40.6249984" lon="14.4236977"><ele>206.66666666666666</ele><time>2026-04-13T08:40:01.856Z</time></trkpt><trkpt lat="40.6247821" lon="14.4237044"><ele>208.33333333333331</ele><time>2026-04-13T08:40:02.873Z</time></trkpt><trkpt lat="40.6245755" lon="14.4237082"><ele>210.0</ele><time>2026-04-13T08:40:03.843Z</time></trkpt><trkpt lat="40.6243833" lon="14.4237115"><ele>210.33333333333331</ele><time>2026-04-13T08:40:04.857Z</time></trkpt><trkpt lat="40.6241955" lon="14.4237239"><ele>210.66666666666666</ele><time>2026-04-13T08:40:05.85Z</time></trkpt><trkpt lat="40.6240033" lon="14.4237517"><ele>211.0</ele><time>2026-04-13T08:40:06.859Z</time></trkpt><trkpt lat="40.6238077" lon="14.4237859"><ele>215.0</ele><time>2026-04-13T08:40:07.853Z</time></trkpt><trkpt lat="40.6236228" lon="14.4238156"><ele>219.0</ele><time>2026-04-13T08:40:08.862Z</time></trkpt><trkpt lat="40.6234494" lon="14.4238432"><ele>223.0</ele><time>2026-04-13T08:40:09.847Z</time></trkpt><trkpt lat="40.6232821" lon="14.4238769"><ele>223.0</ele><time>2026-04-13T08:40:10.864Z</time></trkpt><trkpt lat="40.6231206" lon="14.4239203"><ele>223.0</ele><time>2026-04-13T08:40:11.844Z</time></trkpt><trkpt lat="40.6229766" lon="14.4239641"><ele>223.0</ele><time>2026-04-13T08:40:12.865Z</time></trkpt><trkpt lat="40.6228552" lon="14.4239952"><ele>223.0</ele><time>2026-04-13T08:40:13.864Z</time></trkpt><trkpt lat="40.6227475" lon="14.4239922"><ele>223.25</ele><time>2026-04-13T08:40:14.847Z</time></trkpt><trkpt lat="40.6226414" lon="14.4239504"><ele>223.5</ele><time>2026-04-13T08:40:15.847Z</time></trkpt><trkpt lat="40.6225263" lon="14.4238793"><ele>223.75</ele><time>2026-04-13T08:40:16.866Z</time></trkpt><trkpt lat="40.6224032" lon="14.4238165"><ele>224.0</ele><time>2026-04-13T08:40:17.854Z</time></trkpt><trkpt lat="40.6222759" lon="14.4237867"><ele>224.0</ele><time>2026-04-13T08:40:18.864Z</time></trkpt><trkpt lat="40.6221531" lon="14.4237971"><ele>224.0</ele><time>2026-04-13T08:40:19.869Z</time></trkpt><trkpt lat="40.622038" lon="14.4238427"><ele>224.0</ele><time>2026-04-13T08:40:20.844Z</time></trkpt><trkpt lat="40.6219174" lon="14.4238911"><ele>224.0</ele><time>2026-04-13T08:40:21.855Z</time></trkpt><trkpt lat="40.621813" lon="14.4239877"><ele>224.83333333333334</ele><time>2026-04-13T08:40:22.863Z</time></trkpt><trkpt lat="40.6217198" lon="14.4240712"><ele>225.66666666666669</ele><time>2026-04-13T08:40:23.862Z</time></trkpt><trkpt lat="40.6216391" lon="14.4241223"><ele>226.5</ele><time>2026-04-13T08:40:24.859Z</time></trkpt><trkpt lat="40.6215649" lon="14.424127"><ele>227.33333333333331</ele><time>2026-04-13T08:40:25.86Z</time></trkpt><trkpt lat="40.6215043" lon="14.4240889"><ele>228.16666666666666</ele><time>2026-04-13T08:40:26.846Z</time></trkpt><trkpt lat="40.6214658" lon="14.4240211"><ele>229.0</ele><time>2026-04-13T08:40:27.858Z</time></trkpt><trkpt lat="40.6214316" lon="14.4239467"><ele>229.0</ele><time>2026-04-13T08:40:28.857Z</time></trkpt><trkpt lat="40.6214457" lon="14.4238146"><ele>229.0</ele><time>2026-04-13T08:40:29.847Z</time></trkpt><trkpt lat="40.6214798" lon="14.4236529"><ele>229.0</ele><time>2026-04-13T08:40:30.858Z</time></trkpt><trkpt lat="40.6215161" lon="14.4234497"><ele>229.0</ele><time>2026-04-13T08:40:31.851Z</time></trkpt><trkpt lat="40.6215587" lon="14.4232182"><ele>228.33333333333331</ele><time>2026-04-13T08:40:32.854Z</time></trkpt><trkpt lat="40.6215926" lon="14.4229637"><ele>227.66666666666669</ele><time>2026-04-13T08:40:33.861Z</time></trkpt><trkpt lat="40.621613" lon="14.4227392"><ele>227.0</ele><time>2026-04-13T08:40:34.841Z</time></trkpt><trkpt lat="40.6216053" lon="14.4225222"><ele>227.0</ele><time>2026-04-13T08:40:35.843Z</time></trkpt><trkpt lat="40.6215868" lon="14.4222988"><ele>227.0</ele><time>2026-04-13T08:40:36.858Z</time></trkpt><trkpt lat="40.6215853" lon="14.422069"><ele>227.0</ele><time>2026-04-13T08:40:37.853Z</time></trkpt><trkpt lat="40.6216073" lon="14.4218202"><ele>229.33333333333334</ele><time>2026-04-13T08:40:38.852Z</time></trkpt><trkpt lat="40.6216383" lon="14.4215477"><ele>231.66666666666669</ele><time>2026-04-13T08:40:39.849Z</time></trkpt><trkpt lat="40.6216772" lon="14.421285"><ele>234.0</ele><time>2026-04-13T08:40:40.857Z</time></trkpt><trkpt lat="40.621726" lon="14.4210266"><ele>237.0</ele><time>2026-04-13T08:40:41.857Z</time></trkpt><trkpt lat="40.6217914" lon="14.4207783"><ele>240.0</ele><time>2026-04-13T08:40:42.853Z</time></trkpt><trkpt lat="40.6218652" lon="14.4205489"><ele>243.0</ele><time>2026-04-13T08:40:43.86Z</time></trkpt><trkpt lat="40.6219245" lon="14.4203342"><ele>244.66666666666669</ele><time>2026-04-13T08:40:44.848Z</time></trkpt><trkpt lat="40.6219556" lon="14.42013"><ele>246.33333333333334</ele><time>2026-04-13T08:40:45.856Z</time></trkpt><trkpt lat="40.6219528" lon="14.4199258"><ele>248.0</ele><time>2026-04-13T08:40:46.845Z</time></trkpt><trkpt lat="40.6219182" lon="14.4197213"><ele>245.33333333333334</ele><time>2026-04-13T08:40:47.868Z</time></trkpt><trkpt lat="40.6218526" lon="14.4195181"><ele>242.66666666666669</ele><time>2026-04-13T08:40:48.857Z</time></trkpt><trkpt lat="40.621776" lon="14.4193186"><ele>240.0</ele><time>2026-04-13T08:40:49.868Z</time></trkpt><trkpt lat="40.6217142" lon="14.4191199"><ele>240.0</ele><time>2026-04-13T08:40:50.843Z</time></trkpt><trkpt lat="40.6216661" lon="14.41892"><ele>240.0</ele><time>2026-04-13T08:40:51.857Z</time></trkpt><trkpt lat="40.6216203" lon="14.4187277"><ele>240.0</ele><time>2026-04-13T08:40:52.854Z</time></trkpt><trkpt lat="40.6215654" lon="14.4185414"><ele>238.33333333333331</ele><time>2026-04-13T08:40:53.845Z</time></trkpt><trkpt lat="40.621493" lon="14.4183642"><ele>236.66666666666666</ele><time>2026-04-13T08:40:54.863Z</time></trkpt><trkpt lat="40.6214111" lon="14.4181872"><ele>235.0</ele><time>2026-04-13T08:40:55.845Z</time></trkpt><trkpt lat="40.621338" lon="14.4180085"><ele>233.0</ele><time>2026-04-13T08:40:56.861Z</time></trkpt><trkpt lat="40.6212833" lon="14.417828"><ele>231.0</ele><time>2026-04-13T08:40:57.845Z</time></trkpt><trkpt lat="40.6212428" lon="14.4176382"><ele>229.0</ele><time>2026-04-13T08:40:58.865Z</time></trkpt><trkpt lat="40.6212053" lon="14.4174288"><ele>229.0</ele><time>2026-04-13T08:40:59.853Z</time></trkpt><trkpt lat="40.6211686" lon="14.4171924"><ele>229.0</ele><time>2026-04-13T08:41:00.859Z</time></trkpt><trkpt lat="40.6211426" lon="14.4169616"><ele>229.0</ele><time>2026-04-13T08:41:01.868Z</time></trkpt><trkpt lat="40.6211435" lon="14.4167512"><ele>229.0</ele><time>2026-04-13T08:41:02.849Z</time></trkpt><trkpt lat="40.6211797" lon="14.4165609"><ele>229.0</ele><time>2026-04-13T08:41:03.866Z</time></trkpt><trkpt lat="40.6212429" lon="14.4163628"><ele>229.0</ele><time>2026-04-13T08:41:04.86Z</time></trkpt><trkpt lat="40.6213209" lon="14.4161488"><ele>232.33333333333331</ele><time>2026-04-13T08:41:05.856Z</time></trkpt><trkpt lat="40.6214006" lon="14.4159324"><ele>235.66666666666669</ele><time>2026-04-13T08:41:06.845Z</time></trkpt><trkpt lat="40.6214704" lon="14.4157392"><ele>239.0</ele><time>2026-04-13T08:41:07.878Z</time></trkpt><trkpt lat="40.6215283" lon="14.41558"><ele>240.00000000000003</ele><time>2026-04-13T08:41:08.837Z</time></trkpt><trkpt lat="40.6215665" lon="14.4154496"><ele>241.0</ele><time>2026-04-13T08:41:09.84Z</time></trkpt><trkpt lat="40.6215756" lon="14.4153363"><ele>242.0</ele><time>2026-04-13T08:41:10.843Z</time></trkpt><trkpt lat="40.6215492" lon="14.4152451"><ele>243.0</ele><time>2026-04-13T08:41:11.855Z</time></trkpt><trkpt lat="40.621495" lon="14.4151896"><ele>244.00000000000003</ele><time>2026-04-13T08:41:12.849Z</time></trkpt><trkpt lat="40.6214297" lon="14.4151743"><ele>245.0</ele><time>2026-04-13T08:41:13.861Z</time></trkpt><trkpt lat="40.62135" lon="14.4152156"><ele>245.0</ele><time>2026-04-13T08:41:14.85Z</time></trkpt><trkpt lat="40.621289" lon="14.4153093"><ele>245.0</ele><time>2026-04-13T08:41:15.847Z</time></trkpt><trkpt lat="40.6212421" lon="14.4154358"><ele>245.0</ele><time>2026-04-13T08:41:16.845Z</time></trkpt><trkpt lat="40.6211973" lon="14.4156067"><ele>245.0</ele><time>2026-04-13T08:41:17.86Z</time></trkpt><trkpt lat="40.6211422" lon="14.4158029"><ele>249.66666666666669</ele><time>2026-04-13T08:41:18.847Z</time></trkpt><trkpt lat="40.6210862" lon="14.4159937"><ele>254.33333333333331</ele><time>2026-04-13T08:41:19.843Z</time></trkpt><trkpt lat="40.6210287" lon="14.4161826"><ele>259.0</ele><time>2026-04-13T08:41:20.842Z</time></trkpt><trkpt lat="40.6209683" lon="14.4163765"><ele>259.0</ele><time>2026-04-13T08:41:21.846Z</time></trkpt><trkpt lat="40.6209067" lon="14.4165604"><ele>259.0</ele><time>2026-04-13T08:41:22.864Z</time></trkpt><trkpt lat="40.6208374" lon="14.4167378"><ele>259.0</ele><time>2026-04-13T08:41:23.857Z</time></trkpt><trkpt lat="40.6207508" lon="14.416914"><ele>259.0</ele><time>2026-04-13T08:41:24.862Z</time></trkpt><trkpt lat="40.6206471" lon="14.4171068"><ele>259.0</ele><time>2026-04-13T08:41:25.86Z</time></trkpt><trkpt lat="40.6205416" lon="14.4172979"><ele>259.0</ele><time>2026-04-13T08:41:26.848Z</time></trkpt><trkpt lat="40.6204543" lon="14.4174722"><ele>258.5</ele><time>2026-04-13T08:41:27.864Z</time></trkpt><trkpt lat="40.6204071" lon="14.4176426"><ele>258.0</ele><time>2026-04-13T08:41:28.85Z</time></trkpt><trkpt lat="40.6203673" lon="14.4178022"><ele>257.5</ele><time>2026-04-13T08:41:29.86Z</time></trkpt><trkpt lat="40.6203976" lon="14.417955"><ele>257.0</ele><time>2026-04-13T08:41:30.86Z</time></trkpt><trkpt lat="40.6204551" lon="14.4181188"><ele>257.0</ele><time>2026-04-13T08:41:31.861Z</time></trkpt><trkpt lat="40.6205241" lon="14.4183066"><ele>257.0</ele><time>2026-04-13T08:41:32.851Z</time></trkpt><trkpt lat="40.6205893" lon="14.418495"><ele>257.0</ele><time>2026-04-13T08:41:33.863Z</time></trkpt><trkpt lat="40.6206357" lon="14.4186805"><ele>259.0</ele><time>2026-04-13T08:41:34.851Z</time></trkpt><trkpt lat="40.6206489" lon="14.4188684"><ele>261.0</ele><time>2026-04-13T08:41:35.866Z</time></trkpt><trkpt lat="40.6206359" lon="14.4190638"><ele>263.0</ele><time>2026-04-13T08:41:36.846Z</time></trkpt><trkpt lat="40.6206209" lon="14.4192554"><ele>265.0</ele><time>2026-04-13T08:41:37.858Z</time></trkpt><trkpt lat="40.6206211" lon="14.4194347"><ele>265.0</ele><time>2026-04-13T08:41:38.843Z</time></trkpt><trkpt lat="40.6206401" lon="14.4196118"><ele>265.0</ele><time>2026-04-13T08:41:39.856Z</time></trkpt><trkpt lat="40.6206779" lon="14.419808"><ele>265.0</ele><time>2026-04-13T08:41:40.847Z</time></trkpt><trkpt lat="40.6207247" lon="14.4200276"><ele>268.0</ele><time>2026-04-13T08:41:41.859Z</time></trkpt><trkpt lat="40.6207958" lon="14.4202641"><ele>271.0</ele><time>2026-04-13T08:41:42.846Z</time></trkpt><trkpt lat="40.6208746" lon="14.4204778"><ele>274.0</ele><time>2026-04-13T08:41:43.866Z</time></trkpt><trkpt lat="40.6209488" lon="14.4206678"><ele>274.25</ele><time>2026-04-13T08:41:44.846Z</time></trkpt><trkpt lat="40.6210029" lon="14.4208508"><ele>274.5</ele><time>2026-04-13T08:41:45.864Z</time></trkpt><trkpt lat="40.6210254" lon="14.4210288"><ele>274.75</ele><time>2026-04-13T08:41:46.844Z</time></trkpt><trkpt lat="40.6210233" lon="14.4212047"><ele>275.0</ele><time>2026-04-13T08:41:47.862Z</time></trkpt><trkpt lat="40.6209991" lon="14.4213707"><ele>275.0</ele><time>2026-04-13T08:41:48.847Z</time></trkpt><trkpt lat="40.6209547" lon="14.4215226"><ele>275.0</ele><time>2026-04-13T08:41:49.854Z</time></trkpt><trkpt lat="40.6208862" lon="14.4216633"><ele>275.0</ele><time>2026-04-13T08:41:50.853Z</time></trkpt><trkpt lat="40.6207962" lon="14.4217938"><ele>275.0</ele><time>2026-04-13T08:41:51.858Z</time></trkpt><trkpt lat="40.6206781" lon="14.4219269"><ele>275.0</ele><time>2026-04-13T08:41:52.853Z</time></trkpt><trkpt lat="40.6205449" lon="14.4220698"><ele>275.0</ele><time>2026-04-13T08:41:53.849Z</time></trkpt><trkpt lat="40.6204171" lon="14.4222285"><ele>275.0</ele><time>2026-04-13T08:41:54.852Z</time></trkpt><trkpt lat="40.6203018" lon="14.4223957"><ele>278.5</ele><time>2026-04-13T08:41:55.853Z</time></trkpt><trkpt lat="40.620198" lon="14.4225513"><ele>282.0</ele><time>2026-04-13T08:41:56.864Z</time></trkpt><trkpt lat="40.6200953" lon="14.4226853"><ele>285.5</ele><time>2026-04-13T08:41:57.856Z</time></trkpt><trkpt lat="40.6199802" lon="14.4227997"><ele>289.0</ele><time>2026-04-13T08:41:58.861Z</time></trkpt><trkpt lat="40.6198464" lon="14.4229027"><ele>291.3333333333333</ele><time>2026-04-13T08:41:59.848Z</time></trkpt><trkpt lat="40.6197004" lon="14.4230011"><ele>293.6666666666667</ele><time>2026-04-13T08:42:00.844Z</time></trkpt><trkpt lat="40.6195653" lon="14.4230956"><ele>296.0</ele><time>2026-04-13T08:42:01.841Z</time></trkpt><trkpt lat="40.6194485" lon="14.4231959"><ele>296.0</ele><time>2026-04-13T08:42:02.864Z</time></trkpt><trkpt lat="40.6193596" lon="14.42332"><ele>296.0</ele><time>2026-04-13T08:42:03.862Z</time></trkpt><trkpt lat="40.6192945" lon="14.4234697"><ele>296.0</ele><time>2026-04-13T08:42:04.846Z</time></trkpt><trkpt lat="40.6192391" lon="14.4236457"><ele>296.0</ele><time>2026-04-13T08:42:05.865Z</time></trkpt><trkpt lat="40.6191821" lon="14.4238232"><ele>294.25</ele><time>2026-04-13T08:42:06.854Z</time></trkpt><trkpt lat="40.6191258" lon="14.4239778"><ele>292.5</ele><time>2026-04-13T08:42:07.864Z</time></trkpt><trkpt lat="40.6190526" lon="14.4241073"><ele>290.75</ele><time>2026-04-13T08:42:08.86Z</time></trkpt><trkpt lat="40.618963" lon="14.4242187"><ele>289.0</ele><time>2026-04-13T08:42:09.844Z</time></trkpt><trkpt lat="40.6188556" lon="14.4243368"><ele>289.0</ele><time>2026-04-13T08:42:10.868Z</time></trkpt><trkpt lat="40.6187308" lon="14.4244654"><ele>289.0</ele><time>2026-04-13T08:42:11.846Z</time></trkpt><trkpt lat="40.6186085" lon="14.4245949"><ele>289.0</ele><time>2026-04-13T08:42:12.862Z</time></trkpt><trkpt lat="40.6185002" lon="14.424743"><ele>293.66666666666663</ele><time>2026-04-13T08:42:13.86Z</time></trkpt><trkpt lat="40.6183971" lon="14.42492"><ele>298.3333333333333</ele><time>2026-04-13T08:42:14.864Z</time></trkpt><trkpt lat="40.6182939" lon="14.4251091"><ele>303.0</ele><time>2026-04-13T08:42:15.854Z</time></trkpt><trkpt lat="40.6182057" lon="14.4252854"><ele>303.0</ele><time>2026-04-13T08:42:16.836Z</time></trkpt><trkpt lat="40.6181362" lon="14.4254627"><ele>303.0</ele><time>2026-04-13T08:42:17.868Z</time></trkpt><trkpt lat="40.6180901" lon="14.4256514"><ele>303.0</ele><time>2026-04-13T08:42:18.855Z</time></trkpt><trkpt lat="40.6180601" lon="14.4258511"><ele>301.0</ele><time>2026-04-13T08:42:19.867Z</time></trkpt><trkpt lat="40.6180281" lon="14.4260618"><ele>299.0</ele><time>2026-04-13T08:42:20.845Z</time></trkpt><trkpt lat="40.6179839" lon="14.4262709"><ele>297.0</ele><time>2026-04-13T08:42:21.866Z</time></trkpt><trkpt lat="40.6179266" lon="14.426491"><ele>296.3333333333333</ele><time>2026-04-13T08:42:22.863Z</time></trkpt><trkpt lat="40.6178571" lon="14.426734"><ele>295.66666666666663</ele><time>2026-04-13T08:42:23.869Z</time></trkpt><trkpt lat="40.6177872" lon="14.4269746"><ele>295.0</ele><time>2026-04-13T08:42:24.86Z</time></trkpt><trkpt lat="40.6177176" lon="14.4271874"><ele>300.66666666666663</ele><time>2026-04-13T08:42:25.847Z</time></trkpt><trkpt lat="40.617649" lon="14.4273895"><ele>306.3333333333333</ele><time>2026-04-13T08:42:26.856Z</time></trkpt><trkpt lat="40.6175827" lon="14.4275843"><ele>312.0</ele><time>2026-04-13T08:42:27.853Z</time></trkpt><trkpt lat="40.617519" lon="14.4277929"><ele>311.3333333333333</ele><time>2026-04-13T08:42:28.861Z</time></trkpt><trkpt lat="40.6174642" lon="14.4279901"><ele>310.66666666666663</ele><time>2026-04-13T08:42:29.845Z</time></trkpt><trkpt lat="40.6174071" lon="14.4281858"><ele>310.0</ele><time>2026-04-13T08:42:30.856Z</time></trkpt><trkpt lat="40.6173475" lon="14.4284011"><ele>310.0</ele><time>2026-04-13T08:42:31.859Z</time></trkpt><trkpt lat="40.6172839" lon="14.4286081"><ele>310.0</ele><time>2026-04-13T08:42:32.858Z</time></trkpt><trkpt lat="40.6172214" lon="14.4287943"><ele>310.0</ele><time>2026-04-13T08:42:33.857Z</time></trkpt><trkpt lat="40.6171415" lon="14.4289511"><ele>311.0</ele><time>2026-04-13T08:42:34.865Z</time></trkpt><trkpt lat="40.6170337" lon="14.4290949"><ele>312.0</ele><time>2026-04-13T08:42:35.848Z</time></trkpt><trkpt lat="40.6169001" lon="14.4292385"><ele>313.0</ele><time>2026-04-13T08:42:36.858Z</time></trkpt><trkpt lat="40.6167467" lon="14.4293874"><ele>310.66666666666663</ele><time>2026-04-13T08:42:37.852Z</time></trkpt><trkpt lat="40.61658" lon="14.4295284"><ele>308.3333333333333</ele><time>2026-04-13T08:42:38.852Z</time></trkpt><trkpt lat="40.6164159" lon="14.4296634"><ele>306.0</ele><time>2026-04-13T08:42:39.856Z</time></trkpt><trkpt lat="40.6162687" lon="14.4297951"><ele>301.0</ele><time>2026-04-13T08:42:40.859Z</time></trkpt><trkpt lat="40.6161461" lon="14.4299275"><ele>296.0</ele><time>2026-04-13T08:42:41.861Z</time></trkpt><trkpt lat="40.6160504" lon="14.4300701"><ele>291.0</ele><time>2026-04-13T08:42:42.862Z</time></trkpt><trkpt lat="40.6159735" lon="14.4302356"><ele>291.0</ele><time>2026-04-13T08:42:43.86Z</time></trkpt><trkpt lat="40.6159127" lon="14.4304085"><ele>291.0</ele><time>2026-04-13T08:42:44.859Z</time></trkpt><trkpt lat="40.6159008" lon="14.4306043"><ele>291.0</ele><time>2026-04-13T08:42:45.839Z</time></trkpt><trkpt lat="40.6159215" lon="14.4308002"><ele>291.0</ele><time>2026-04-13T08:42:46.86Z</time></trkpt><trkpt lat="40.6159734" lon="14.4309929"><ele>291.0</ele><time>2026-04-13T08:42:47.864Z</time></trkpt><trkpt lat="40.6160508" lon="14.4311789"><ele>291.0</ele><time>2026-04-13T08:42:48.867Z</time></trkpt><trkpt lat="40.6161458" lon="14.4313497"><ele>291.0</ele><time>2026-04-13T08:42:49.838Z</time></trkpt><trkpt lat="40.6162323" lon="14.4314975"><ele>292.6</ele><time>2026-04-13T08:42:50.849Z</time></trkpt><trkpt lat="40.6162934" lon="14.4316266"><ele>294.20000000000005</ele><time>2026-04-13T08:42:51.852Z</time></trkpt><trkpt lat="40.6163181" lon="14.4317553"><ele>295.79999999999995</ele><time>2026-04-13T08:42:52.867Z</time></trkpt><trkpt lat="40.6163025" lon="14.4318812"><ele>297.4</ele><time>2026-04-13T08:42:53.852Z</time></trkpt><trkpt lat="40.6162472" lon="14.4319981"><ele>299.0</ele><time>2026-04-13T08:42:54.863Z</time></trkpt><trkpt lat="40.6161656" lon="14.4321096"><ele>295.4</ele><time>2026-04-13T08:42:55.852Z</time></trkpt><trkpt lat="40.6160943" lon="14.4322267"><ele>291.79999999999995</ele><time>2026-04-13T08:42:56.862Z</time></trkpt><trkpt lat="40.6160556" lon="14.4323504"><ele>288.20000000000005</ele><time>2026-04-13T08:42:57.845Z</time></trkpt><trkpt lat="40.6160524" lon="14.4324758"><ele>284.6</ele><time>2026-04-13T08:42:58.86Z</time></trkpt><trkpt lat="40.6160821" lon="14.4326028"><ele>281.0</ele><time>2026-04-13T08:42:59.855Z</time></trkpt><trkpt lat="40.6161413" lon="14.4327259"><ele>281.75</ele><time>2026-04-13T08:43:00.863Z</time></trkpt><trkpt lat="40.6162267" lon="14.4328499"><ele>282.5</ele><time>2026-04-13T08:43:01.841Z</time></trkpt><trkpt lat="40.6163349" lon="14.4329852"><ele>283.25</ele><time>2026-04-13T08:43:02.852Z</time></trkpt><trkpt lat="40.6164534" lon="14.4331295"><ele>284.0</ele><time>2026-04-13T08:43:03.852Z</time></trkpt><trkpt lat="40.6165656" lon="14.4332698"><ele>284.0</ele><time>2026-04-13T08:43:04.863Z</time></trkpt><trkpt lat="40.6166671" lon="14.4334009"><ele>284.0</ele><time>2026-04-13T08:43:05.853Z</time></trkpt><trkpt lat="40.616755" lon="14.4335305"><ele>284.0</ele><time>2026-04-13T08:43:06.857Z</time></trkpt><trkpt lat="40.6168215" lon="14.433676"><ele>284.0</ele><time>2026-04-13T08:43:07.841Z</time></trkpt><trkpt lat="40.61686" lon="14.4338365"><ele>280.6666666666667</ele><time>2026-04-13T08:43:08.86Z</time></trkpt><trkpt lat="40.6168756" lon="14.4340169"><ele>277.3333333333333</ele><time>2026-04-13T08:43:09.85Z</time></trkpt><trkpt lat="40.6168819" lon="14.4342245"><ele>274.0</ele><time>2026-04-13T08:43:10.869Z</time></trkpt><trkpt lat="40.6168857" lon="14.4344523"><ele>275.25</ele><time>2026-04-13T08:43:11.861Z</time></trkpt><trkpt lat="40.6168873" lon="14.4346715"><ele>276.5</ele><time>2026-04-13T08:43:12.865Z</time></trkpt><trkpt lat="40.6168849" lon="14.4348665"><ele>277.75</ele><time>2026-04-13T08:43:13.869Z</time></trkpt><trkpt lat="40.6168794" lon="14.4350235"><ele>279.0</ele><time>2026-04-13T08:43:14.851Z</time></trkpt><trkpt lat="40.6168671" lon="14.4351525"><ele>279.0</ele><time>2026-04-13T08:43:15.859Z</time></trkpt><trkpt lat="40.6168251" lon="14.4352417"><ele>279.0</ele><time>2026-04-13T08:43:16.859Z</time></trkpt><trkpt lat="40.6167785" lon="14.435307"><ele>279.0</ele><time>2026-04-13T08:43:17.865Z</time></trkpt><trkpt lat="40.6167083" lon="14.4352975"><ele>279.0</ele><time>2026-04-13T08:43:18.857Z</time></trkpt><trkpt lat="40.616644" lon="14.4352131"><ele>279.0</ele><time>2026-04-13T08:43:19.857Z</time></trkpt><trkpt lat="40.6166249" lon="14.4350843"><ele>279.0</ele><time>2026-04-13T08:43:20.869Z</time></trkpt><trkpt lat="40.6166302" lon="14.4349305"><ele>279.0</ele><time>2026-04-13T08:43:21.853Z</time></trkpt><trkpt lat="40.6166517" lon="14.4347424"><ele>279.0</ele><time>2026-04-13T08:43:22.857Z</time></trkpt><trkpt lat="40.6166619" lon="14.434552"><ele>279.0</ele><time>2026-04-13T08:43:23.841Z</time></trkpt><trkpt lat="40.6166737" lon="14.4343638"><ele>279.0</ele><time>2026-04-13T08:43:24.867Z</time></trkpt><trkpt lat="40.61667" lon="14.4341985"><ele>278.0</ele><time>2026-04-13T08:43:25.861Z</time></trkpt><trkpt lat="40.6166389" lon="14.4340659"><ele>277.0</ele><time>2026-04-13T08:43:26.865Z</time></trkpt><trkpt lat="40.6166091" lon="14.4339416"><ele>276.0</ele><time>2026-04-13T08:43:27.859Z</time></trkpt><trkpt lat="40.6165307" lon="14.4338522"><ele>275.0</ele><time>2026-04-13T08:43:28.86Z</time></trkpt><trkpt lat="40.6164298" lon="14.4337985"><ele>274.0</ele><time>2026-04-13T08:43:29.846Z</time></trkpt><trkpt lat="40.6162761" lon="14.4337771"><ele>273.25</ele><time>2026-04-13T08:43:30.857Z</time></trkpt><trkpt lat="40.616131" lon="14.4337711"><ele>272.5</ele><time>2026-04-13T08:43:31.855Z</time></trkpt><trkpt lat="40.6159935" lon="14.433765"><ele>271.75</ele><time>2026-04-13T08:43:32.857Z</time></trkpt><trkpt lat="40.6158798" lon="14.4337216"><ele>271.0</ele><time>2026-04-13T08:43:33.845Z</time></trkpt><trkpt lat="40.6157848" lon="14.4336427"><ele>271.0</ele><time>2026-04-13T08:43:34.853Z</time></trkpt><trkpt lat="40.6156905" lon="14.4335349"><ele>271.0</ele><time>2026-04-13T08:43:35.843Z</time></trkpt><trkpt lat="40.6155753" lon="14.4333894"><ele>271.0</ele><time>2026-04-13T08:43:36.844Z</time></trkpt><trkpt lat="40.6154483" lon="14.4332406"><ele>271.0</ele><time>2026-04-13T08:43:37.863Z</time></trkpt><trkpt lat="40.6153273" lon="14.4331099"><ele>271.0</ele><time>2026-04-13T08:43:38.859Z</time></trkpt><trkpt lat="40.6152135" lon="14.4329977"><ele>271.0</ele><time>2026-04-13T08:43:39.847Z</time></trkpt><trkpt lat="40.6151191" lon="14.4329093"><ele>271.0</ele><time>2026-04-13T08:43:40.865Z</time></trkpt><trkpt lat="40.6150321" lon="14.4328708"><ele>268.66666666666663</ele><time>2026-04-13T08:43:41.861Z</time></trkpt><trkpt lat="40.6149565" lon="14.432872"><ele>266.3333333333333</ele><time>2026-04-13T08:43:42.863Z</time></trkpt><trkpt lat="40.6148763" lon="14.4328823"><ele>264.0</ele><time>2026-04-13T08:43:43.849Z</time></trkpt><trkpt lat="40.6148301" lon="14.4329625"><ele>261.6666666666667</ele><time>2026-04-13T08:43:44.858Z</time></trkpt><trkpt lat="40.6148331" lon="14.433068"><ele>259.33333333333337</ele><time>2026-04-13T08:43:45.862Z</time></trkpt><trkpt lat="40.6148747" lon="14.4331645"><ele>257.0</ele><time>2026-04-13T08:43:46.862Z</time></trkpt><trkpt lat="40.614946" lon="14.4332361"><ele>256.5</ele><time>2026-04-13T08:43:47.861Z</time></trkpt><trkpt lat="40.6150391" lon="14.4332894"><ele>256.0</ele><time>2026-04-13T08:43:48.85Z</time></trkpt><trkpt lat="40.6151623" lon="14.4333512"><ele>255.5</ele><time>2026-04-13T08:43:49.866Z</time></trkpt><trkpt lat="40.6152932" lon="14.4334371"><ele>255.0</ele><time>2026-04-13T08:43:50.842Z</time></trkpt><trkpt lat="40.6154129" lon="14.4335521"><ele>255.66666666666669</ele><time>2026-04-13T08:43:51.856Z</time></trkpt><trkpt lat="40.6155169" lon="14.4336964"><ele>256.33333333333337</ele><time>2026-04-13T08:43:52.852Z</time></trkpt><trkpt lat="40.6156258" lon="14.4338536"><ele>257.0</ele><time>2026-04-13T08:43:53.868Z</time></trkpt><trkpt lat="40.6157361" lon="14.4339944"><ele>257.0</ele><time>2026-04-13T08:43:54.858Z</time></trkpt><trkpt lat="40.6158397" lon="14.4341185"><ele>257.0</ele><time>2026-04-13T08:43:55.855Z</time></trkpt><trkpt lat="40.615942" lon="14.4341979"><ele>257.0</ele><time>2026-04-13T08:43:56.856Z</time></trkpt><trkpt lat="40.616027" lon="14.4342768"><ele>257.0</ele><time>2026-04-13T08:43:57.852Z</time></trkpt><trkpt lat="40.616097" lon="14.43438"><ele>257.0</ele><time>2026-04-13T08:43:58.866Z</time></trkpt><trkpt lat="40.6161415" lon="14.4344796"><ele>257.0</ele><time>2026-04-13T08:43:59.858Z</time></trkpt><trkpt lat="40.6161551" lon="14.4345935"><ele>257.0</ele><time>2026-04-13T08:44:00.842Z</time></trkpt><trkpt lat="40.6161636" lon="14.4347277"><ele>257.0</ele><time>2026-04-13T08:44:01.853Z</time></trkpt><trkpt lat="40.6161296" lon="14.4349168"><ele>257.0</ele><time>2026-04-13T08:44:02.858Z</time></trkpt><trkpt lat="40.6160905" lon="14.4351081"><ele>255.0</ele><time>2026-04-13T08:44:03.861Z</time></trkpt><trkpt lat="40.6160558" lon="14.4352897"><ele>253.0</ele><time>2026-04-13T08:44:04.861Z</time></trkpt><trkpt lat="40.6160229" lon="14.4354561"><ele>251.0</ele><time>2026-04-13T08:44:05.843Z</time></trkpt><trkpt lat="40.6159832" lon="14.4355868"><ele>249.0</ele><time>2026-04-13T08:44:06.857Z</time></trkpt><trkpt lat="40.6159355" lon="14.4357156"><ele>249.0</ele><time>2026-04-13T08:44:07.844Z</time></trkpt><trkpt lat="40.615862" lon="14.4358349"><ele>249.0</ele><time>2026-04-13T08:44:08.854Z</time></trkpt><trkpt lat="40.615743" lon="14.4359424"><ele>249.0</ele><time>2026-04-13T08:44:09.841Z</time></trkpt><trkpt lat="40.6156084" lon="14.4360487"><ele>249.0</ele><time>2026-04-13T08:44:10.845Z</time></trkpt><trkpt lat="40.6154549" lon="14.436147"><ele>249.0</ele><time>2026-04-13T08:44:11.852Z</time></trkpt><trkpt lat="40.6153578" lon="14.4362277"><ele>249.0</ele><time>2026-04-13T08:44:12.844Z</time></trkpt><trkpt lat="40.6152932" lon="14.4363169"><ele>249.0</ele><time>2026-04-13T08:44:13.854Z</time></trkpt><trkpt lat="40.6152924" lon="14.4364103"><ele>249.0</ele><time>2026-04-13T08:44:14.853Z</time></trkpt><trkpt lat="40.6153315" lon="14.4364968"><ele>249.0</ele><time>2026-04-13T08:44:15.856Z</time></trkpt><trkpt lat="40.6153719" lon="14.4365792"><ele>249.0</ele><time>2026-04-13T08:44:16.841Z</time></trkpt><trkpt lat="40.6154517" lon="14.4365957"><ele>246.25</ele><time>2026-04-13T08:44:17.863Z</time></trkpt><trkpt lat="40.6155562" lon="14.4365673"><ele>243.5</ele><time>2026-04-13T08:44:18.855Z</time></trkpt><trkpt lat="40.6156948" lon="14.4365167"><ele>240.75</ele><time>2026-04-13T08:44:19.845Z</time></trkpt><trkpt lat="40.6158707" lon="14.4364815"><ele>238.0</ele><time>2026-04-13T08:44:20.852Z</time></trkpt><trkpt lat="40.6160323" lon="14.4364673"><ele>246.25</ele><time>2026-04-13T08:44:21.86Z</time></trkpt><trkpt lat="40.6161915" lon="14.4364571"><ele>254.5</ele><time>2026-04-13T08:44:22.861Z</time></trkpt><trkpt lat="40.6163329" lon="14.4365039"><ele>262.75</ele><time>2026-04-13T08:44:23.857Z</time></trkpt><trkpt lat="40.616461" lon="14.4365753"><ele>271.0</ele><time>2026-04-13T08:44:24.858Z</time></trkpt><trkpt lat="40.616567" lon="14.4366769"><ele>271.0</ele><time>2026-04-13T08:44:25.845Z</time></trkpt><trkpt lat="40.616639" lon="14.4367964"><ele>271.0</ele><time>2026-04-13T08:44:26.855Z</time></trkpt><trkpt lat="40.616707" lon="14.4369066"><ele>271.0</ele><time>2026-04-13T08:44:27.853Z</time></trkpt><trkpt lat="40.6167061" lon="14.437045"><ele>271.0</ele><time>2026-04-13T08:44:28.854Z</time></trkpt><trkpt lat="40.6166886" lon="14.4372083"><ele>263.5</ele><time>2026-04-13T08:44:29.834Z</time></trkpt><trkpt lat="40.6166732" lon="14.43738"><ele>256.0</ele><time>2026-04-13T08:44:30.841Z</time></trkpt><trkpt lat="40.6166699" lon="14.4375554"><ele>248.5</ele><time>2026-04-13T08:44:31.854Z</time></trkpt><trkpt lat="40.6166645" lon="14.4377304"><ele>241.0</ele><time>2026-04-13T08:44:32.851Z</time></trkpt><trkpt lat="40.6166285" lon="14.4378841"><ele>235.0</ele><time>2026-04-13T08:44:33.854Z</time></trkpt><trkpt lat="40.6165865" lon="14.438037"><ele>229.00000000000003</ele><time>2026-04-13T08:44:34.845Z</time></trkpt><trkpt lat="40.6165607" lon="14.4381711"><ele>223.0</ele><time>2026-04-13T08:44:35.87Z</time></trkpt><trkpt lat="40.6165718" lon="14.4382983"><ele>217.0</ele><time>2026-04-13T08:44:36.844Z</time></trkpt><trkpt lat="40.6166155" lon="14.4384364"><ele>211.0</ele><time>2026-04-13T08:44:37.864Z</time></trkpt><trkpt lat="40.6166823" lon="14.4385887"><ele>211.0</ele><time>2026-04-13T08:44:38.854Z</time></trkpt><trkpt lat="40.6167625" lon="14.4387177"><ele>211.0</ele><time>2026-04-13T08:44:39.861Z</time></trkpt><trkpt lat="40.6168553" lon="14.4388139"><ele>211.0</ele><time>2026-04-13T08:44:40.843Z</time></trkpt><trkpt lat="40.6169696" lon="14.4388934"><ele>211.0</ele><time>2026-04-13T08:44:41.856Z</time></trkpt><trkpt lat="40.6170785" lon="14.4389696"><ele>224.25</ele><time>2026-04-13T08:44:42.846Z</time></trkpt><trkpt lat="40.6171616" lon="14.4390535"><ele>237.5</ele><time>2026-04-13T08:44:43.855Z</time></trkpt><trkpt lat="40.6172216" lon="14.4391727"><ele>250.75</ele><time>2026-04-13T08:44:44.845Z</time></trkpt><trkpt lat="40.6172655" lon="14.4393319"><ele>264.0</ele><time>2026-04-13T08:44:45.857Z</time></trkpt><trkpt lat="40.6172889" lon="14.4395141"><ele>255.0</ele><time>2026-04-13T08:44:46.868Z</time></trkpt><trkpt lat="40.6172859" lon="14.4397121"><ele>246.0</ele><time>2026-04-13T08:44:47.863Z</time></trkpt><trkpt lat="40.617268" lon="14.4399152"><ele>237.0</ele><time>2026-04-13T08:44:48.869Z</time></trkpt><trkpt lat="40.6172537" lon="14.4400868"><ele>228.0</ele><time>2026-04-13T08:44:49.861Z</time></trkpt><trkpt lat="40.6172466" lon="14.440233"><ele>228.0</ele><time>2026-04-13T08:44:50.867Z</time></trkpt><trkpt lat="40.617275" lon="14.4403328"><ele>228.0</ele><time>2026-04-13T08:44:51.862Z</time></trkpt><trkpt lat="40.6173319" lon="14.4403924"><ele>228.0</ele><time>2026-04-13T08:44:52.856Z</time></trkpt><trkpt lat="40.6174223" lon="14.4404413"><ele>228.0</ele><time>2026-04-13T08:44:53.856Z</time></trkpt><trkpt lat="40.6175425" lon="14.4404999"><ele>228.0</ele><time>2026-04-13T08:44:54.845Z</time></trkpt><trkpt lat="40.6176625" lon="14.4405618"><ele>226.0</ele><time>2026-04-13T08:44:55.847Z</time></trkpt><trkpt lat="40.6177651" lon="14.44062"><ele>224.0</ele><time>2026-04-13T08:44:56.867Z</time></trkpt><trkpt lat="40.6178377" lon="14.4406789"><ele>222.0</ele><time>2026-04-13T08:44:57.859Z</time></trkpt><trkpt lat="40.6178832" lon="14.4407588"><ele>220.0</ele><time>2026-04-13T08:44:58.861Z</time></trkpt><trkpt lat="40.6178906" lon="14.4408482"><ele>218.0</ele><time>2026-04-13T08:44:59.838Z</time></trkpt><trkpt lat="40.6178684" lon="14.440933"><ele>216.0</ele><time>2026-04-13T08:45:00.865Z</time></trkpt><trkpt lat="40.617829" lon="14.4410182"><ele>216.0</ele><time>2026-04-13T08:45:01.859Z</time></trkpt><trkpt lat="40.617796" lon="14.4411147"><ele>216.0</ele><time>2026-04-13T08:45:02.864Z</time></trkpt><trkpt lat="40.6177934" lon="14.4412153"><ele>216.0</ele><time>2026-04-13T08:45:03.85Z</time></trkpt><trkpt lat="40.6178206" lon="14.4413061"><ele>216.0</ele><time>2026-04-13T08:45:04.859Z</time></trkpt><trkpt lat="40.6178687" lon="14.4413868"><ele>216.0</ele><time>2026-04-13T08:45:05.848Z</time></trkpt><trkpt lat="40.6179197" lon="14.441462"><ele>216.0</ele><time>2026-04-13T08:45:06.845Z</time></trkpt><trkpt lat="40.6179586" lon="14.4415495"><ele>219.16666666666666</ele><time>2026-04-13T08:45:07.84Z</time></trkpt><trkpt lat="40.6179721" lon="14.4416443"><ele>222.33333333333331</ele><time>2026-04-13T08:45:08.849Z</time></trkpt><trkpt lat="40.6179565" lon="14.4417366"><ele>225.5</ele><time>2026-04-13T08:45:09.857Z</time></trkpt><trkpt lat="40.6179189" lon="14.4418366"><ele>228.66666666666666</ele><time>2026-04-13T08:45:10.859Z</time></trkpt><trkpt lat="40.6178805" lon="14.4419361"><ele>231.83333333333331</ele><time>2026-04-13T08:45:11.859Z</time></trkpt><trkpt lat="40.6178266" lon="14.4420141"><ele>235.0</ele><time>2026-04-13T08:45:12.855Z</time></trkpt><trkpt lat="40.6177758" lon="14.4420932"><ele>222.83333333333331</ele><time>2026-04-13T08:45:13.865Z</time></trkpt><trkpt lat="40.6177429" lon="14.4421813"><ele>210.66666666666666</ele><time>2026-04-13T08:45:14.863Z</time></trkpt><trkpt lat="40.6177356" lon="14.4422833"><ele>198.5</ele><time>2026-04-13T08:45:15.861Z</time></trkpt><trkpt lat="40.6177529" lon="14.4423999"><ele>186.33333333333331</ele><time>2026-04-13T08:45:16.859Z</time></trkpt><trkpt lat="40.6177739" lon="14.4425301"><ele>174.16666666666666</ele><time>2026-04-13T08:45:17.855Z</time></trkpt><trkpt lat="40.6177728" lon="14.4426588"><ele>162.0</ele><time>2026-04-13T08:45:18.86Z</time></trkpt><trkpt lat="40.6177594" lon="14.44278"><ele>162.0</ele><time>2026-04-13T08:45:19.851Z</time></trkpt><trkpt lat="40.6177469" lon="14.4428901"><ele>162.0</ele><time>2026-04-13T08:45:20.86Z</time></trkpt><trkpt lat="40.6177397" lon="14.4429859"><ele>162.0</ele><time>2026-04-13T08:45:21.857Z</time></trkpt><trkpt lat="40.6177499" lon="14.4430759"><ele>162.0</ele><time>2026-04-13T08:45:22.848Z</time></trkpt><trkpt lat="40.617789" lon="14.4431593"><ele>162.0</ele><time>2026-04-13T08:45:23.856Z</time></trkpt><trkpt lat="40.6178549" lon="14.4432324"><ele>162.0</ele><time>2026-04-13T08:45:24.868Z</time></trkpt><trkpt lat="40.6179333" lon="14.4433212"><ele>175.75</ele><time>2026-04-13T08:45:25.847Z</time></trkpt><trkpt lat="40.6180347" lon="14.4434294"><ele>189.5</ele><time>2026-04-13T08:45:26.863Z</time></trkpt><trkpt lat="40.6181273" lon="14.4435343"><ele>203.25</ele><time>2026-04-13T08:45:27.846Z</time></trkpt><trkpt lat="40.6182043" lon="14.4436349"><ele>217.0</ele><time>2026-04-13T08:45:28.86Z</time></trkpt><trkpt lat="40.6182618" lon="14.4437433"><ele>211.49999999999997</ele><time>2026-04-13T08:45:29.854Z</time></trkpt><trkpt lat="40.6182899" lon="14.4438607"><ele>206.0</ele><time>2026-04-13T08:45:30.862Z</time></trkpt><trkpt lat="40.6183094" lon="14.4439599"><ele>200.5</ele><time>2026-04-13T08:45:31.859Z</time></trkpt><trkpt lat="40.618287" lon="14.4440668"><ele>195.0</ele><time>2026-04-13T08:45:32.85Z</time></trkpt><trkpt lat="40.6182723" lon="14.4441874"><ele>189.5</ele><time>2026-04-13T08:45:33.858Z</time></trkpt><trkpt lat="40.618269" lon="14.4443172"><ele>184.0</ele><time>2026-04-13T08:45:34.844Z</time></trkpt><trkpt lat="40.6182776" lon="14.4444521"><ele>184.0</ele><time>2026-04-13T08:45:35.87Z</time></trkpt><trkpt lat="40.6182951" lon="14.4445872"><ele>184.0</ele><time>2026-04-13T08:45:36.847Z</time></trkpt><trkpt lat="40.618324" lon="14.4447155"><ele>184.0</ele><time>2026-04-13T08:45:37.867Z</time></trkpt><trkpt lat="40.6183604" lon="14.4448283"><ele>184.0</ele><time>2026-04-13T08:45:38.85Z</time></trkpt><trkpt lat="40.6184032" lon="14.4449282"><ele>184.0</ele><time>2026-04-13T08:45:39.855Z</time></trkpt><trkpt lat="40.6184511" lon="14.4450181"><ele>179.16666666666669</ele><time>2026-04-13T08:45:40.843Z</time></trkpt><trkpt lat="40.6185015" lon="14.4450967"><ele>174.33333333333334</ele><time>2026-04-13T08:45:41.843Z</time></trkpt><trkpt lat="40.6185511" lon="14.4451735"><ele>169.5</ele><time>2026-04-13T08:45:42.851Z</time></trkpt><trkpt lat="40.6186027" lon="14.4452523"><ele>164.66666666666666</ele><time>2026-04-13T08:45:43.85Z</time></trkpt><trkpt lat="40.6186521" lon="14.4453304"><ele>159.83333333333331</ele><time>2026-04-13T08:45:44.842Z</time></trkpt><trkpt lat="40.6186991" lon="14.4454054"><ele>155.0</ele><time>2026-04-13T08:45:45.86Z</time></trkpt><trkpt lat="40.6187487" lon="14.4454822"><ele>155.0</ele><time>2026-04-13T08:45:46.862Z</time></trkpt><trkpt lat="40.6188013" lon="14.4455688"><ele>155.0</ele><time>2026-04-13T08:45:47.856Z</time></trkpt><trkpt lat="40.6188468" lon="14.445669"><ele>155.0</ele><time>2026-04-13T08:45:48.845Z</time></trkpt><trkpt lat="40.6188752" lon="14.4457827"><ele>155.0</ele><time>2026-04-13T08:45:49.865Z</time></trkpt><trkpt lat="40.61889" lon="14.445905"><ele>155.0</ele><time>2026-04-13T08:45:50.846Z</time></trkpt><trkpt lat="40.6188979" lon="14.4460259"><ele>155.0</ele><time>2026-04-13T08:45:51.858Z</time></trkpt><trkpt lat="40.6189027" lon="14.4461451"><ele>155.0</ele><time>2026-04-13T08:45:52.84Z</time></trkpt><trkpt lat="40.6189062" lon="14.4462636"><ele>155.0</ele><time>2026-04-13T08:45:53.846Z</time></trkpt><trkpt lat="40.6189035" lon="14.446386"><ele>155.0</ele><time>2026-04-13T08:45:54.848Z</time></trkpt><trkpt lat="40.6188965" lon="14.4465119"><ele>155.0</ele><time>2026-04-13T08:45:55.852Z</time></trkpt><trkpt lat="40.6188853" lon="14.4466431"><ele>170.0</ele><time>2026-04-13T08:45:56.858Z</time></trkpt><trkpt lat="40.6188729" lon="14.4467776"><ele>185.0</ele><time>2026-04-13T08:45:57.862Z</time></trkpt><trkpt lat="40.6188588" lon="14.4469119"><ele>200.0</ele><time>2026-04-13T08:45:58.863Z</time></trkpt><trkpt lat="40.618846" lon="14.447039"><ele>215.0</ele><time>2026-04-13T08:45:59.853Z</time></trkpt><trkpt lat="40.6188345" lon="14.447158"><ele>230.0</ele><time>2026-04-13T08:46:00.862Z</time></trkpt><trkpt lat="40.6188356" lon="14.4472706"><ele>230.00000000000003</ele><time>2026-04-13T08:46:01.858Z</time></trkpt><trkpt lat="40.6188599" lon="14.4473754"><ele>230.0</ele><time>2026-04-13T08:46:02.86Z</time></trkpt><trkpt lat="40.6189107" lon="14.447466"><ele>230.0</ele><time>2026-04-13T08:46:03.85Z</time></trkpt><trkpt lat="40.6189799" lon="14.4475312"><ele>230.0</ele><time>2026-04-13T08:46:04.86Z</time></trkpt><trkpt lat="40.6190569" lon="14.4475926"><ele>230.00000000000003</ele><time>2026-04-13T08:46:05.853Z</time></trkpt><trkpt lat="40.6191218" lon="14.4476649"><ele>230.0</ele><time>2026-04-13T08:46:06.858Z</time></trkpt><trkpt lat="40.6191642" lon="14.4477535"><ele>229.99999999999997</ele><time>2026-04-13T08:46:07.849Z</time></trkpt><trkpt lat="40.6191804" lon="14.4478556"><ele>230.0</ele><time>2026-04-13T08:46:08.846Z</time></trkpt><trkpt lat="40.6191797" lon="14.4479462"><ele>229.99999999999997</ele><time>2026-04-13T08:46:09.86Z</time></trkpt><trkpt lat="40.6191778" lon="14.4480297"><ele>229.99999999999997</ele><time>2026-04-13T08:46:10.856Z</time></trkpt><trkpt lat="40.6191845" lon="14.448117"><ele>230.0</ele><time>2026-04-13T08:46:11.853Z</time></trkpt><trkpt lat="40.6191924" lon="14.4482043"><ele>229.99999999999997</ele><time>2026-04-13T08:46:12.853Z</time></trkpt><trkpt lat="40.6192221" lon="14.4482986"><ele>229.99999999999997</ele><time>2026-04-13T08:46:13.855Z</time></trkpt><trkpt lat="40.6192548" lon="14.4483905"><ele>233.16666666666669</ele><time>2026-04-13T08:46:14.85Z</time></trkpt><trkpt lat="40.6193039" lon="14.4484623"><ele>236.33333333333334</ele><time>2026-04-13T08:46:15.859Z</time></trkpt><trkpt lat="40.6193749" lon="14.448514"><ele>239.5</ele><time>2026-04-13T08:46:16.848Z</time></trkpt><trkpt lat="40.6194487" lon="14.4485689"><ele>242.66666666666669</ele><time>2026-04-13T08:46:17.852Z</time></trkpt><trkpt lat="40.6195194" lon="14.4486328"><ele>245.83333333333334</ele><time>2026-04-13T08:46:18.862Z</time></trkpt><trkpt lat="40.6195875" lon="14.4486966"><ele>249.0</ele><time>2026-04-13T08:46:19.834Z</time></trkpt><trkpt lat="40.6196302" lon="14.4487956"><ele>241.16666666666666</ele><time>2026-04-13T08:46:20.861Z</time></trkpt><trkpt lat="40.6196577" lon="14.4489058"><ele>233.33333333333331</ele><time>2026-04-13T08:46:21.855Z</time></trkpt><trkpt lat="40.6196608" lon="14.4490213"><ele>225.5</ele><time>2026-04-13T08:46:22.857Z</time></trkpt><trkpt lat="40.619651" lon="14.4491397"><ele>217.66666666666666</ele><time>2026-04-13T08:46:23.841Z</time></trkpt><trkpt lat="40.6196343" lon="14.4492528"><ele>209.83333333333331</ele><time>2026-04-13T08:46:24.854Z</time></trkpt><trkpt lat="40.6196195" lon="14.4493618"><ele>202.0</ele><time>2026-04-13T08:46:25.84Z</time></trkpt><trkpt lat="40.6196071" lon="14.4494681"><ele>201.99999999999997</ele><time>2026-04-13T08:46:26.845Z</time></trkpt><trkpt lat="40.6196134" lon="14.4495754"><ele>202.0</ele><time>2026-04-13T08:46:27.858Z</time></trkpt><trkpt lat="40.619635" lon="14.4496766"><ele>202.0</ele><time>2026-04-13T08:46:28.853Z</time></trkpt><trkpt lat="40.6196823" lon="14.4497731"><ele>202.0</ele><time>2026-04-13T08:46:29.858Z</time></trkpt><trkpt lat="40.6197472" lon="14.4498593"><ele>201.99999999999997</ele><time>2026-04-13T08:46:30.847Z</time></trkpt><trkpt lat="40.619833" lon="14.4499268"><ele>202.0</ele><time>2026-04-13T08:46:31.847Z</time></trkpt><trkpt lat="40.6199416" lon="14.4499906"><ele>196.39999999999998</ele><time>2026-04-13T08:46:32.859Z</time></trkpt><trkpt lat="40.6200484" lon="14.4500594"><ele>190.79999999999998</ele><time>2026-04-13T08:46:33.852Z</time></trkpt><trkpt lat="40.6201394" lon="14.4501278"><ele>185.2</ele><time>2026-04-13T08:46:34.864Z</time></trkpt><trkpt lat="40.6202088" lon="14.4502087"><ele>179.6</ele><time>2026-04-13T08:46:35.861Z</time></trkpt><trkpt lat="40.6202545" lon="14.450309"><ele>174.0</ele><time>2026-04-13T08:46:36.86Z</time></trkpt><trkpt lat="40.620276" lon="14.4504385"><ele>165.5</ele><time>2026-04-13T08:46:37.855Z</time></trkpt><trkpt lat="40.6202825" lon="14.4506021"><ele>157.0</ele><time>2026-04-13T08:46:38.853Z</time></trkpt><trkpt lat="40.6202829" lon="14.4507659"><ele>148.5</ele><time>2026-04-13T08:46:39.842Z</time></trkpt><trkpt lat="40.6202897" lon="14.4509065"><ele>140.0</ele><time>2026-04-13T08:46:40.857Z</time></trkpt><trkpt lat="40.6203163" lon="14.4510269"><ele>147.6</ele><time>2026-04-13T08:46:41.852Z</time></trkpt><trkpt lat="40.6203715" lon="14.4511182"><ele>155.2</ele><time>2026-04-13T08:46:42.86Z</time></trkpt><trkpt lat="40.6204506" lon="14.4511836"><ele>162.8</ele><time>2026-04-13T08:46:43.847Z</time></trkpt><trkpt lat="40.6205365" lon="14.4512348"><ele>170.4</ele><time>2026-04-13T08:46:44.854Z</time></trkpt><trkpt lat="40.6206188" lon="14.4512844"><ele>178.0</ele><time>2026-04-13T08:46:45.833Z</time></trkpt><trkpt lat="40.6206971" lon="14.4513297"><ele>178.0</ele><time>2026-04-13T08:46:46.853Z</time></trkpt><trkpt lat="40.620767" lon="14.4513776"><ele>178.0</ele><time>2026-04-13T08:46:47.845Z</time></trkpt><trkpt lat="40.6208224" lon="14.4514371"><ele>178.0</ele><time>2026-04-13T08:46:48.857Z</time></trkpt><trkpt lat="40.6208632" lon="14.4515178"><ele>178.0</ele><time>2026-04-13T08:46:49.849Z</time></trkpt><trkpt lat="40.6208999" lon="14.4516217"><ele>178.0</ele><time>2026-04-13T08:46:50.855Z</time></trkpt><trkpt lat="40.6209414" lon="14.4517396"><ele>178.0</ele><time>2026-04-13T08:46:51.848Z</time></trkpt><trkpt lat="40.621013" lon="14.4519496"><ele>181.33333333333334</ele><time>2026-04-13T08:46:52.854Z</time></trkpt><trkpt lat="40.6210828" lon="14.4521533"><ele>184.66666666666666</ele><time>2026-04-13T08:46:53.85Z</time></trkpt><trkpt lat="40.62115" lon="14.4523404"><ele>188.0</ele><time>2026-04-13T08:46:54.844Z</time></trkpt><trkpt lat="40.6211969" lon="14.4525317"><ele>188.0</ele><time>2026-04-13T08:46:55.855Z</time></trkpt><trkpt lat="40.6212074" lon="14.4527186"><ele>188.0</ele><time>2026-04-13T08:46:56.862Z</time></trkpt><trkpt lat="40.621229" lon="14.4528445"><ele>188.0</ele><time>2026-04-13T08:46:57.851Z</time></trkpt><trkpt lat="40.6212809" lon="14.4529235"><ele>188.0</ele><time>2026-04-13T08:46:58.861Z</time></trkpt><trkpt lat="40.6213607" lon="14.4529557"><ele>188.0</ele><time>2026-04-13T08:46:59.856Z</time></trkpt><trkpt lat="40.6214396" lon="14.4529859"><ele>188.0</ele><time>2026-04-13T08:47:00.843Z</time></trkpt><trkpt lat="40.6215366" lon="14.4529693"><ele>188.0</ele><time>2026-04-13T08:47:01.851Z</time></trkpt><trkpt lat="40.6216608" lon="14.4529187"><ele>188.0</ele><time>2026-04-13T08:47:02.855Z</time></trkpt><trkpt lat="40.6217785" lon="14.4528699"><ele>188.0</ele><time>2026-04-13T08:47:03.853Z</time></trkpt><trkpt lat="40.6218687" lon="14.4528437"><ele>188.0</ele><time>2026-04-13T08:47:04.856Z</time></trkpt><trkpt lat="40.621955" lon="14.4528176"><ele>192.8</ele><time>2026-04-13T08:47:05.856Z</time></trkpt><trkpt lat="40.6220408" lon="14.4528848"><ele>197.60000000000002</ele><time>2026-04-13T08:47:07.854Z</time></trkpt><trkpt lat="40.6220066" lon="14.4529629"><ele>202.39999999999998</ele><time>2026-04-13T08:47:08.848Z</time></trkpt><trkpt lat="40.6219486" lon="14.4530591"><ele>207.2</ele><time>2026-04-13T08:47:09.844Z</time></trkpt><trkpt lat="40.6218698" lon="14.4531763"><ele>212.0</ele><time>2026-04-13T08:47:10.854Z</time></trkpt><trkpt lat="40.621801" lon="14.4532994"><ele>199.5</ele><time>2026-04-13T08:47:11.858Z</time></trkpt><trkpt lat="40.6217278" lon="14.4534175"><ele>187.0</ele><time>2026-04-13T08:47:12.852Z</time></trkpt><trkpt lat="40.6216867" lon="14.4535653"><ele>174.5</ele><time>2026-04-13T08:47:13.857Z</time></trkpt><trkpt lat="40.621653" lon="14.4537718"><ele>162.0</ele><time>2026-04-13T08:47:14.853Z</time></trkpt><trkpt lat="40.6216133" lon="14.4540211"><ele>160.33333333333334</ele><time>2026-04-13T08:47:15.854Z</time></trkpt><trkpt lat="40.621564" lon="14.4542662"><ele>158.66666666666669</ele><time>2026-04-13T08:47:16.843Z</time></trkpt><trkpt lat="40.6214984" lon="14.4544884"><ele>157.0</ele><time>2026-04-13T08:47:17.87Z</time></trkpt><trkpt lat="40.6214071" lon="14.4547042"><ele>165.0</ele><time>2026-04-13T08:47:18.848Z</time></trkpt><trkpt lat="40.6213012" lon="14.4549099"><ele>173.0</ele><time>2026-04-13T08:47:19.851Z</time></trkpt><trkpt lat="40.6211804" lon="14.4550895"><ele>181.0</ele><time>2026-04-13T08:47:20.846Z</time></trkpt><trkpt lat="40.6210685" lon="14.4552655"><ele>181.0</ele><time>2026-04-13T08:47:21.848Z</time></trkpt><trkpt lat="40.6209818" lon="14.4554622"><ele>181.0</ele><time>2026-04-13T08:47:22.835Z</time></trkpt><trkpt lat="40.6209145" lon="14.4556982"><ele>181.0</ele><time>2026-04-13T08:47:23.852Z</time></trkpt><trkpt lat="40.620853" lon="14.4559556"><ele>172.66666666666669</ele><time>2026-04-13T08:47:24.843Z</time></trkpt><trkpt lat="40.6207987" lon="14.4561968"><ele>164.33333333333334</ele><time>2026-04-13T08:47:25.845Z</time></trkpt><trkpt lat="40.6207588" lon="14.4564079"><ele>156.0</ele><time>2026-04-13T08:47:26.858Z</time></trkpt><trkpt lat="40.6207259" lon="14.4566083"><ele>156.0</ele><time>2026-04-13T08:47:27.839Z</time></trkpt><trkpt lat="40.6207424" lon="14.4568077"><ele>156.0</ele><time>2026-04-13T08:47:28.843Z</time></trkpt><trkpt lat="40.620771" lon="14.4570119"><ele>156.0</ele><time>2026-04-13T08:47:29.857Z</time></trkpt><trkpt lat="40.6207994" lon="14.4571936"><ele>158.0</ele><time>2026-04-13T08:47:30.854Z</time></trkpt><trkpt lat="40.6208552" lon="14.4573261"><ele>160.0</ele><time>2026-04-13T08:47:31.857Z</time></trkpt><trkpt lat="40.6209299" lon="14.4574109"><ele>162.0</ele><time>2026-04-13T08:47:32.858Z</time></trkpt><trkpt lat="40.6210209" lon="14.4574675"><ele>164.0</ele><time>2026-04-13T08:47:33.853Z</time></trkpt><trkpt lat="40.6211307" lon="14.4574976"><ele>166.0</ele><time>2026-04-13T08:47:34.86Z</time></trkpt><trkpt lat="40.6212514" lon="14.4575116"><ele>166.0</ele><time>2026-04-13T08:47:35.86Z</time></trkpt><trkpt lat="40.6213488" lon="14.4575338"><ele>166.0</ele><time>2026-04-13T08:47:36.858Z</time></trkpt><trkpt lat="40.6214388" lon="14.4575559"><ele>166.0</ele><time>2026-04-13T08:47:37.855Z</time></trkpt><trkpt lat="40.6214921" lon="14.4576224"><ele>166.0</ele><time>2026-04-13T08:47:38.845Z</time></trkpt><trkpt lat="40.6214975" lon="14.4577246"><ele>166.0</ele><time>2026-04-13T08:47:39.85Z</time></trkpt><trkpt lat="40.6214661" lon="14.4578348"><ele>166.0</ele><time>2026-04-13T08:47:40.846Z</time></trkpt><trkpt lat="40.6214001" lon="14.4579301"><ele>171.0</ele><time>2026-04-13T08:47:41.863Z</time></trkpt><trkpt lat="40.6213042" lon="14.4580076"><ele>176.0</ele><time>2026-04-13T08:47:42.844Z</time></trkpt><trkpt lat="40.621191" lon="14.4580791"><ele>181.0</ele><time>2026-04-13T08:47:43.859Z</time></trkpt><trkpt lat="40.6210785" lon="14.4581859"><ele>186.0</ele><time>2026-04-13T08:47:44.845Z</time></trkpt><trkpt lat="40.6209641" lon="14.4583312"><ele>177.0</ele><time>2026-04-13T08:47:45.861Z</time></trkpt><trkpt lat="40.6208422" lon="14.4585125"><ele>168.0</ele><time>2026-04-13T08:47:46.875Z</time></trkpt><trkpt lat="40.6207227" lon="14.4586924"><ele>159.0</ele><time>2026-04-13T08:47:47.861Z</time></trkpt><trkpt lat="40.6206068" lon="14.4588646"><ele>159.0</ele><time>2026-04-13T08:47:48.851Z</time></trkpt><trkpt lat="40.6205017" lon="14.4590229"><ele>159.0</ele><time>2026-04-13T08:47:49.845Z</time></trkpt><trkpt lat="40.6203921" lon="14.4591886"><ele>159.0</ele><time>2026-04-13T08:47:50.851Z</time></trkpt><trkpt lat="40.6202926" lon="14.4593453"><ele>156.8</ele><time>2026-04-13T08:47:51.855Z</time></trkpt><trkpt lat="40.6202125" lon="14.4594712"><ele>154.60000000000002</ele><time>2026-04-13T08:47:52.851Z</time></trkpt><trkpt lat="40.6201458" lon="14.4595586"><ele>152.4</ele><time>2026-04-13T08:47:53.865Z</time></trkpt><trkpt lat="40.6200836" lon="14.4596145"><ele>150.20000000000002</ele><time>2026-04-13T08:47:54.85Z</time></trkpt><trkpt lat="40.6200053" lon="14.4596621"><ele>148.0</ele><time>2026-04-13T08:47:55.852Z</time></trkpt><trkpt lat="40.6198988" lon="14.459707"><ele>148.0</ele><time>2026-04-13T08:47:56.847Z</time></trkpt><trkpt lat="40.619784" lon="14.4597525"><ele>148.0</ele><time>2026-04-13T08:47:57.857Z</time></trkpt><trkpt lat="40.6196743" lon="14.4598247"><ele>148.0</ele><time>2026-04-13T08:47:58.862Z</time></trkpt><trkpt lat="40.6195855" lon="14.4599381"><ele>148.0</ele><time>2026-04-13T08:47:59.857Z</time></trkpt><trkpt lat="40.6195194" lon="14.4600831"><ele>148.0</ele><time>2026-04-13T08:48:00.858Z</time></trkpt><trkpt lat="40.6194654" lon="14.4602385"><ele>148.0</ele><time>2026-04-13T08:48:01.851Z</time></trkpt><trkpt lat="40.6194162" lon="14.4603686"><ele>148.0</ele><time>2026-04-13T08:48:02.849Z</time></trkpt><trkpt lat="40.6193622" lon="14.4604612"><ele>148.0</ele><time>2026-04-13T08:48:03.854Z</time></trkpt><trkpt lat="40.6192977" lon="14.4605302"><ele>148.0</ele><time>2026-04-13T08:48:04.868Z</time></trkpt><trkpt lat="40.6192194" lon="14.4605868"><ele>148.0</ele><time>2026-04-13T08:48:05.862Z</time></trkpt><trkpt lat="40.6191149" lon="14.4606438"><ele>148.0</ele><time>2026-04-13T08:48:06.856Z</time></trkpt><trkpt lat="40.619003" lon="14.4607025"><ele>148.0</ele><time>2026-04-13T08:48:07.844Z</time></trkpt><trkpt lat="40.6189116" lon="14.4607798"><ele>148.0</ele><time>2026-04-13T08:48:08.843Z</time></trkpt><trkpt lat="40.6188577" lon="14.4608871"><ele>148.0</ele><time>2026-04-13T08:48:09.858Z</time></trkpt><trkpt lat="40.6188302" lon="14.4610237"><ele>148.0</ele><time>2026-04-13T08:48:10.841Z</time></trkpt><trkpt lat="40.6188212" lon="14.4612017"><ele>148.0</ele><time>2026-04-13T08:48:11.86Z</time></trkpt><trkpt lat="40.6188112" lon="14.4614187"><ele>148.0</ele><time>2026-04-13T08:48:12.858Z</time></trkpt><trkpt lat="40.6187987" lon="14.4616359"><ele>148.0</ele><time>2026-04-13T08:48:13.857Z</time></trkpt><trkpt lat="40.6187833" lon="14.4618334"><ele>148.0</ele><time>2026-04-13T08:48:14.859Z</time></trkpt><trkpt lat="40.6187616" lon="14.4620094"><ele>148.0</ele><time>2026-04-13T08:48:15.849Z</time></trkpt><trkpt lat="40.6187257" lon="14.4621633"><ele>148.0</ele><time>2026-04-13T08:48:16.846Z</time></trkpt><trkpt lat="40.618676" lon="14.4622936"><ele>148.0</ele><time>2026-04-13T08:48:17.853Z</time></trkpt><trkpt lat="40.6186122" lon="14.4624067"><ele>148.0</ele><time>2026-04-13T08:48:18.84Z</time></trkpt><trkpt lat="40.6185413" lon="14.4625086"><ele>148.0</ele><time>2026-04-13T08:48:19.851Z</time></trkpt><trkpt lat="40.6184784" lon="14.4625952"><ele>148.0</ele><time>2026-04-13T08:48:20.852Z</time></trkpt><trkpt lat="40.6184248" lon="14.4626724"><ele>148.0</ele><time>2026-04-13T08:48:21.855Z</time></trkpt><trkpt lat="40.6183799" lon="14.4627454"><ele>148.0</ele><time>2026-04-13T08:48:22.865Z</time></trkpt><trkpt lat="40.6183467" lon="14.4628216"><ele>148.0</ele><time>2026-04-13T08:48:23.858Z</time></trkpt><trkpt lat="40.6183297" lon="14.4629061"><ele>148.0</ele><time>2026-04-13T08:48:24.844Z</time></trkpt><trkpt lat="40.6183403" lon="14.462996"><ele>148.0</ele><time>2026-04-13T08:48:25.854Z</time></trkpt><trkpt lat="40.6183826" lon="14.4630785"><ele>148.0</ele><time>2026-04-13T08:48:26.865Z</time></trkpt><trkpt lat="40.6184343" lon="14.4631632"><ele>148.0</ele><time>2026-04-13T08:48:27.862Z</time></trkpt><trkpt lat="40.6185392" lon="14.4632185"><ele>148.0</ele><time>2026-04-13T08:48:28.867Z</time></trkpt><trkpt lat="40.6186602" lon="14.4632693"><ele>148.0</ele><time>2026-04-13T08:48:29.86Z</time></trkpt><trkpt lat="40.6187741" lon="14.4633133"><ele>148.0</ele><time>2026-04-13T08:48:30.847Z</time></trkpt><trkpt lat="40.6188707" lon="14.4633492"><ele>148.0</ele><time>2026-04-13T08:48:31.854Z</time></trkpt><trkpt lat="40.6189578" lon="14.4633793"><ele>148.0</ele><time>2026-04-13T08:48:32.846Z</time></trkpt><trkpt lat="40.6190432" lon="14.4634177"><ele>144.4</ele><time>2026-04-13T08:48:33.86Z</time></trkpt><trkpt lat="40.6191278" lon="14.4634776"><ele>140.8</ele><time>2026-04-13T08:48:34.844Z</time></trkpt><trkpt lat="40.6192042" lon="14.4635582"><ele>137.2</ele><time>2026-04-13T08:48:35.855Z</time></trkpt><trkpt lat="40.619265" lon="14.4636577"><ele>133.6</ele><time>2026-04-13T08:48:36.866Z</time></trkpt><trkpt lat="40.6193246" lon="14.4637594"><ele>130.0</ele><time>2026-04-13T08:48:37.866Z</time></trkpt><trkpt lat="40.6193695" lon="14.4638636"><ele>130.0</ele><time>2026-04-13T08:48:38.857Z</time></trkpt><trkpt lat="40.6194235" lon="14.4639537"><ele>130.0</ele><time>2026-04-13T08:48:39.852Z</time></trkpt><trkpt lat="40.6194817" lon="14.4640255"><ele>130.0</ele><time>2026-04-13T08:48:40.855Z</time></trkpt><trkpt lat="40.6195366" lon="14.4640863"><ele>130.0</ele><time>2026-04-13T08:48:41.859Z</time></trkpt><trkpt lat="40.6195854" lon="14.4641422"><ele>130.0</ele><time>2026-04-13T08:48:42.858Z</time></trkpt><trkpt lat="40.6196489" lon="14.4642754"><ele>130.0</ele><time>2026-04-13T08:48:44.847Z</time></trkpt><trkpt lat="40.6196603" lon="14.46436"><ele>142.0</ele><time>2026-04-13T08:48:45.855Z</time></trkpt><trkpt lat="40.6196519" lon="14.464471"><ele>154.0</ele><time>2026-04-13T08:48:46.851Z</time></trkpt><trkpt lat="40.6196205" lon="14.4646211"><ele>166.0</ele><time>2026-04-13T08:48:47.853Z</time></trkpt><trkpt lat="40.6195689" lon="14.4648019"><ele>178.0</ele><time>2026-04-13T08:48:48.847Z</time></trkpt><trkpt lat="40.6195165" lon="14.4649704"><ele>180.0</ele><time>2026-04-13T08:48:49.853Z</time></trkpt><trkpt lat="40.6194733" lon="14.4651157"><ele>182.0</ele><time>2026-04-13T08:48:50.846Z</time></trkpt><trkpt lat="40.6194611" lon="14.4652611"><ele>184.0</ele><time>2026-04-13T08:48:51.861Z</time></trkpt><trkpt lat="40.6194772" lon="14.4654287"><ele>186.0</ele><time>2026-04-13T08:48:52.845Z</time></trkpt><trkpt lat="40.6195024" lon="14.4656291"><ele>186.0</ele><time>2026-04-13T08:48:53.85Z</time></trkpt><trkpt lat="40.6195345" lon="14.4658474"><ele>186.0</ele><time>2026-04-13T08:48:54.839Z</time></trkpt><trkpt lat="40.6195768" lon="14.4660484"><ele>186.0</ele><time>2026-04-13T08:48:55.854Z</time></trkpt><trkpt lat="40.6196356" lon="14.4662115"><ele>173.5</ele><time>2026-04-13T08:48:56.844Z</time></trkpt><trkpt lat="40.6197141" lon="14.4663384"><ele>161.0</ele><time>2026-04-13T08:48:57.857Z</time></trkpt><trkpt lat="40.6198158" lon="14.4664436"><ele>148.5</ele><time>2026-04-13T08:48:58.845Z</time></trkpt><trkpt lat="40.6199396" lon="14.4665489"><ele>136.0</ele><time>2026-04-13T08:48:59.857Z</time></trkpt><trkpt lat="40.6200606" lon="14.4666401"><ele>136.0</ele><time>2026-04-13T08:49:00.853Z</time></trkpt><trkpt lat="40.6201646" lon="14.466709"><ele>136.0</ele><time>2026-04-13T08:49:01.855Z</time></trkpt><trkpt lat="40.6202535" lon="14.466765"><ele>136.0</ele><time>2026-04-13T08:49:02.866Z</time></trkpt><trkpt lat="40.6203395" lon="14.4667479"><ele>136.0</ele><time>2026-04-13T08:49:03.853Z</time></trkpt><trkpt lat="40.6204327" lon="14.4667073"><ele>136.0</ele><time>2026-04-13T08:49:04.861Z</time></trkpt><trkpt lat="40.6204989" lon="14.4665926"><ele>136.0</ele><time>2026-04-13T08:49:05.852Z</time></trkpt><trkpt lat="40.62058" lon="14.4664442"><ele>136.0</ele><time>2026-04-13T08:49:06.844Z</time></trkpt><trkpt lat="40.6206847" lon="14.4662805"><ele>136.0</ele><time>2026-04-13T08:49:07.844Z</time></trkpt><trkpt lat="40.6208159" lon="14.4661138"><ele>136.33333333333334</ele><time>2026-04-13T08:49:08.86Z</time></trkpt><trkpt lat="40.6209493" lon="14.4659637"><ele>136.66666666666666</ele><time>2026-04-13T08:49:09.856Z</time></trkpt><trkpt lat="40.6210923" lon="14.4658417"><ele>137.0</ele><time>2026-04-13T08:49:10.865Z</time></trkpt><trkpt lat="40.6212479" lon="14.4657518"><ele>137.0</ele><time>2026-04-13T08:49:11.858Z</time></trkpt><trkpt lat="40.6214001" lon="14.4656861"><ele>137.0</ele><time>2026-04-13T08:49:12.848Z</time></trkpt><trkpt lat="40.6215272" lon="14.4656389"><ele>137.0</ele><time>2026-04-13T08:49:13.847Z</time></trkpt><trkpt lat="40.6216294" lon="14.4656221"><ele>137.0</ele><time>2026-04-13T08:49:14.849Z</time></trkpt><trkpt lat="40.6217106" lon="14.4656546"><ele>137.0</ele><time>2026-04-13T08:49:15.851Z</time></trkpt><trkpt lat="40.6217796" lon="14.465729"><ele>137.0</ele><time>2026-04-13T08:49:16.869Z</time></trkpt><trkpt lat="40.6218476" lon="14.4658312"><ele>137.0</ele><time>2026-04-13T08:49:17.845Z</time></trkpt><trkpt lat="40.6218945" lon="14.4659486"><ele>137.0</ele><time>2026-04-13T08:49:18.857Z</time></trkpt><trkpt lat="40.6218974" lon="14.4660657"><ele>137.0</ele><time>2026-04-13T08:49:19.852Z</time></trkpt><trkpt lat="40.6218623" lon="14.4661836"><ele>140.5</ele><time>2026-04-13T08:49:20.849Z</time></trkpt><trkpt lat="40.6218097" lon="14.4663278"><ele>144.0</ele><time>2026-04-13T08:49:21.854Z</time></trkpt><trkpt lat="40.6217615" lon="14.4665118"><ele>147.5</ele><time>2026-04-13T08:49:22.846Z</time></trkpt><trkpt lat="40.6217202" lon="14.4667052"><ele>151.0</ele><time>2026-04-13T08:49:23.857Z</time></trkpt><trkpt lat="40.6216898" lon="14.4668719"><ele>151.0</ele><time>2026-04-13T08:49:24.85Z</time></trkpt><trkpt lat="40.6216807" lon="14.4670161"><ele>151.0</ele><time>2026-04-13T08:49:25.865Z</time></trkpt><trkpt lat="40.6217038" lon="14.4671543"><ele>151.0</ele><time>2026-04-13T08:49:26.873Z</time></trkpt><trkpt lat="40.6217386" lon="14.4673034"><ele>151.0</ele><time>2026-04-13T08:49:27.855Z</time></trkpt><trkpt lat="40.6218195" lon="14.4674755"><ele>151.0</ele><time>2026-04-13T08:49:28.861Z</time></trkpt><trkpt lat="40.6218883" lon="14.4676564"><ele>151.0</ele><time>2026-04-13T08:49:29.859Z</time></trkpt><trkpt lat="40.6219361" lon="14.4678238"><ele>151.0</ele><time>2026-04-13T08:49:30.859Z</time></trkpt><trkpt lat="40.6219706" lon="14.4679725"><ele>151.0</ele><time>2026-04-13T08:49:31.856Z</time></trkpt><trkpt lat="40.6219296" lon="14.4680983"><ele>151.0</ele><time>2026-04-13T08:49:32.863Z</time></trkpt><trkpt lat="40.621865" lon="14.4682209"><ele>151.0</ele><time>2026-04-13T08:49:33.854Z</time></trkpt><trkpt lat="40.6218048" lon="14.4683644"><ele>151.0</ele><time>2026-04-13T08:49:34.852Z</time></trkpt><trkpt lat="40.6217621" lon="14.4684964"><ele>151.0</ele><time>2026-04-13T08:49:35.845Z</time></trkpt><trkpt lat="40.6217501" lon="14.4686153"><ele>151.0</ele><time>2026-04-13T08:49:36.858Z</time></trkpt><trkpt lat="40.6217687" lon="14.4687275"><ele>151.0</ele><time>2026-04-13T08:49:37.854Z</time></trkpt><trkpt lat="40.6217931" lon="14.4688483"><ele>151.0</ele><time>2026-04-13T08:49:38.86Z</time></trkpt><trkpt lat="40.6218376" lon="14.4689734"><ele>151.0</ele><time>2026-04-13T08:49:39.839Z</time></trkpt><trkpt lat="40.6218607" lon="14.4691085"><ele>151.0</ele><time>2026-04-13T08:49:40.863Z</time></trkpt><trkpt lat="40.6218554" lon="14.4692447"><ele>151.0</ele><time>2026-04-13T08:49:41.86Z</time></trkpt><trkpt lat="40.6218342" lon="14.4693757"><ele>141.0</ele><time>2026-04-13T08:49:42.853Z</time></trkpt><trkpt lat="40.6218124" lon="14.4694897"><ele>131.0</ele><time>2026-04-13T08:49:43.85Z</time></trkpt><trkpt lat="40.6217993" lon="14.4695885"><ele>121.0</ele><time>2026-04-13T08:49:44.858Z</time></trkpt><trkpt lat="40.6218008" lon="14.4696788"><ele>111.0</ele><time>2026-04-13T08:49:45.864Z</time></trkpt><trkpt lat="40.6218256" lon="14.469765"><ele>101.0</ele><time>2026-04-13T08:49:46.859Z</time></trkpt><trkpt lat="40.6218724" lon="14.4698407"><ele>91.0</ele><time>2026-04-13T08:49:47.857Z</time></trkpt><trkpt lat="40.621933" lon="14.4698935"><ele>111.16666666666666</ele><time>2026-04-13T08:49:48.86Z</time></trkpt><trkpt lat="40.6220012" lon="14.4699172"><ele>131.33333333333334</ele><time>2026-04-13T08:49:49.878Z</time></trkpt><trkpt lat="40.6220755" lon="14.4699116"><ele>151.5</ele><time>2026-04-13T08:49:50.852Z</time></trkpt><trkpt lat="40.6221511" lon="14.4698996"><ele>171.66666666666669</ele><time>2026-04-13T08:49:51.859Z</time></trkpt><trkpt lat="40.6222209" lon="14.4699189"><ele>191.83333333333334</ele><time>2026-04-13T08:49:52.849Z</time></trkpt><trkpt lat="40.6222922" lon="14.4699464"><ele>212.0</ele><time>2026-04-13T08:49:53.852Z</time></trkpt><trkpt lat="40.6223392" lon="14.4700389"><ele>212.0</ele><time>2026-04-13T08:49:54.847Z</time></trkpt><trkpt lat="40.6223669" lon="14.4701505"><ele>212.0</ele><time>2026-04-13T08:49:55.858Z</time></trkpt><trkpt lat="40.6223944" lon="14.4702851"><ele>212.0</ele><time>2026-04-13T08:49:56.86Z</time></trkpt><trkpt lat="40.6224221" lon="14.4704683"><ele>212.0</ele><time>2026-04-13T08:49:57.862Z</time></trkpt><trkpt lat="40.6224514" lon="14.4706667"><ele>197.5</ele><time>2026-04-13T08:49:58.846Z</time></trkpt><trkpt lat="40.6224872" lon="14.4708297"><ele>183.0</ele><time>2026-04-13T08:49:59.862Z</time></trkpt><trkpt lat="40.6225515" lon="14.4709586"><ele>168.5</ele><time>2026-04-13T08:50:00.857Z</time></trkpt><trkpt lat="40.6226171" lon="14.4710821"><ele>154.0</ele><time>2026-04-13T08:50:01.854Z</time></trkpt><trkpt lat="40.6227294" lon="14.4711723"><ele>140.25</ele><time>2026-04-13T08:50:02.856Z</time></trkpt><trkpt lat="40.6228659" lon="14.4712496"><ele>126.5</ele><time>2026-04-13T08:50:03.858Z</time></trkpt><trkpt lat="40.6230118" lon="14.4713029"><ele>112.75</ele><time>2026-04-13T08:50:04.855Z</time></trkpt><trkpt lat="40.6231489" lon="14.4713472"><ele>99.0</ele><time>2026-04-13T08:50:05.858Z</time></trkpt><trkpt lat="40.6232608" lon="14.4713567"><ele>99.0</ele><time>2026-04-13T08:50:06.85Z</time></trkpt><trkpt lat="40.6233674" lon="14.4713891"><ele>99.0</ele><time>2026-04-13T08:50:07.861Z</time></trkpt><trkpt lat="40.6234581" lon="14.471463"><ele>99.0</ele><time>2026-04-13T08:50:08.857Z</time></trkpt><trkpt lat="40.6235335" lon="14.4715411"><ele>99.0</ele><time>2026-04-13T08:50:09.853Z</time></trkpt><trkpt lat="40.6236095" lon="14.4715718"><ele>99.0</ele><time>2026-04-13T08:50:10.853Z</time></trkpt><trkpt lat="40.623676" lon="14.4715909"><ele>129.0</ele><time>2026-04-13T08:50:11.85Z</time></trkpt><trkpt lat="40.6237505" lon="14.4715293"><ele>159.0</ele><time>2026-04-13T08:50:12.85Z</time></trkpt><trkpt lat="40.6238317" lon="14.4713941"><ele>189.0</ele><time>2026-04-13T08:50:13.85Z</time></trkpt><trkpt lat="40.6239091" lon="14.471274"><ele>219.0</ele><time>2026-04-13T08:50:14.851Z</time></trkpt><trkpt lat="40.6239885" lon="14.4711675"><ele>219.0</ele><time>2026-04-13T08:50:15.851Z</time></trkpt><trkpt lat="40.6240683" lon="14.4711056"><ele>219.0</ele><time>2026-04-13T08:50:16.863Z</time></trkpt><trkpt lat="40.6241451" lon="14.4710595"><ele>219.0</ele><time>2026-04-13T08:50:17.848Z</time></trkpt><trkpt lat="40.6242182" lon="14.4711051"><ele>219.0</ele><time>2026-04-13T08:50:18.856Z</time></trkpt><trkpt lat="40.6242835" lon="14.4711852"><ele>219.0</ele><time>2026-04-13T08:50:19.864Z</time></trkpt><trkpt lat="40.6243372" lon="14.4712829"><ele>219.0</ele><time>2026-04-13T08:50:20.857Z</time></trkpt><trkpt lat="40.6243791" lon="14.4713825"><ele>219.0</ele><time>2026-04-13T08:50:21.858Z</time></trkpt><trkpt lat="40.6244163" lon="14.4714841"><ele>219.0</ele><time>2026-04-13T08:50:22.843Z</time></trkpt><trkpt lat="40.6244422" lon="14.4715866"><ele>219.0</ele><time>2026-04-13T08:50:23.859Z</time></trkpt><trkpt lat="40.624443" lon="14.4716806"><ele>219.0</ele><time>2026-04-13T08:50:24.86Z</time></trkpt><trkpt lat="40.6244319" lon="14.4717731"><ele>219.0</ele><time>2026-04-13T08:50:25.863Z</time></trkpt><trkpt lat="40.6244346" lon="14.4718575"><ele>219.0</ele><time>2026-04-13T08:50:26.852Z</time></trkpt><trkpt lat="40.6244418" lon="14.4719435"><ele>219.0</ele><time>2026-04-13T08:50:27.86Z</time></trkpt><trkpt lat="40.6244885" lon="14.4720044"><ele>217.5</ele><time>2026-04-13T08:50:28.852Z</time></trkpt><trkpt lat="40.6245561" lon="14.4720377"><ele>216.0</ele><time>2026-04-13T08:50:29.85Z</time></trkpt><trkpt lat="40.6246302" lon="14.4720573"><ele>214.5</ele><time>2026-04-13T08:50:30.844Z</time></trkpt><trkpt lat="40.6246999" lon="14.4720768"><ele>213.0</ele><time>2026-04-13T08:50:31.857Z</time></trkpt><trkpt lat="40.6248042" lon="14.4721559"><ele>211.5</ele><time>2026-04-13T08:50:33.863Z</time></trkpt><trkpt lat="40.6248548" lon="14.4722153"><ele>210.0</ele><time>2026-04-13T08:50:34.857Z</time></trkpt><trkpt lat="40.6248738" lon="14.4723072"><ele>210.0</ele><time>2026-04-13T08:50:35.862Z</time></trkpt><trkpt lat="40.6248649" lon="14.4724077"><ele>210.0</ele><time>2026-04-13T08:50:36.858Z</time></trkpt><trkpt lat="40.6248354" lon="14.4724978"><ele>210.0</ele><time>2026-04-13T08:50:37.85Z</time></trkpt><trkpt lat="40.6247984" lon="14.4725829"><ele>210.0</ele><time>2026-04-13T08:50:38.843Z</time></trkpt><trkpt lat="40.6247671" lon="14.4726627"><ele>210.0</ele><time>2026-04-13T08:50:39.855Z</time></trkpt><trkpt lat="40.6247459" lon="14.4727499"><ele>210.0</ele><time>2026-04-13T08:50:40.844Z</time></trkpt><trkpt lat="40.6247521" lon="14.4728435"><ele>210.0</ele><time>2026-04-13T08:50:41.858Z</time></trkpt><trkpt lat="40.624782" lon="14.4729375"><ele>203.25</ele><time>2026-04-13T08:50:42.851Z</time></trkpt><trkpt lat="40.6248289" lon="14.4730481"><ele>196.5</ele><time>2026-04-13T08:50:43.847Z</time></trkpt><trkpt lat="40.6248938" lon="14.4732"><ele>189.75</ele><time>2026-04-13T08:50:44.856Z</time></trkpt><trkpt lat="40.6249498" lon="14.4733466"><ele>183.0</ele><time>2026-04-13T08:50:45.843Z</time></trkpt><trkpt lat="40.6250068" lon="14.4734658"><ele>183.0</ele><time>2026-04-13T08:50:46.851Z</time></trkpt><trkpt lat="40.6250779" lon="14.473535"><ele>183.0</ele><time>2026-04-13T08:50:47.846Z</time></trkpt><trkpt lat="40.6251568" lon="14.4735532"><ele>183.0</ele><time>2026-04-13T08:50:48.85Z</time></trkpt><trkpt lat="40.6252364" lon="14.4735683"><ele>183.0</ele><time>2026-04-13T08:50:49.857Z</time></trkpt><trkpt lat="40.6253171" lon="14.4735948"><ele>183.0</ele><time>2026-04-13T08:50:50.858Z</time></trkpt><trkpt lat="40.6253936" lon="14.4736266"><ele>183.0</ele><time>2026-04-13T08:50:51.855Z</time></trkpt><trkpt lat="40.6254428" lon="14.4737387"><ele>205.5</ele><time>2026-04-13T08:50:52.862Z</time></trkpt><trkpt lat="40.6254821" lon="14.4738885"><ele>228.0</ele><time>2026-04-13T08:50:53.842Z</time></trkpt><trkpt lat="40.6255202" lon="14.4740785"><ele>250.5</ele><time>2026-04-13T08:50:54.851Z</time></trkpt><trkpt lat="40.625558" lon="14.474267"><ele>273.0</ele><time>2026-04-13T08:50:55.855Z</time></trkpt><trkpt lat="40.625579" lon="14.4744187"><ele>273.0</ele><time>2026-04-13T08:50:56.845Z</time></trkpt><trkpt lat="40.6255455" lon="14.4745254"><ele>273.0</ele><time>2026-04-13T08:50:57.84Z</time></trkpt><trkpt lat="40.6254687" lon="14.4746245"><ele>273.0</ele><time>2026-04-13T08:50:58.857Z</time></trkpt><trkpt lat="40.6253567" lon="14.4747293"><ele>273.0</ele><time>2026-04-13T08:50:59.853Z</time></trkpt><trkpt lat="40.6252397" lon="14.4748551"><ele>273.0</ele><time>2026-04-13T08:51:00.842Z</time></trkpt><trkpt lat="40.6251456" lon="14.4749852"><ele>273.0</ele><time>2026-04-13T08:51:01.852Z</time></trkpt><trkpt lat="40.6250956" lon="14.4751157"><ele>273.0</ele><time>2026-04-13T08:51:02.852Z</time></trkpt><trkpt lat="40.6250886" lon="14.4752571"><ele>273.0</ele><time>2026-04-13T08:51:03.847Z</time></trkpt><trkpt lat="40.6250859" lon="14.4754092"><ele>273.0</ele><time>2026-04-13T08:51:04.862Z</time></trkpt><trkpt lat="40.6251259" lon="14.4756061"><ele>273.0</ele><time>2026-04-13T08:51:05.856Z</time></trkpt><trkpt lat="40.6252011" lon="14.4758556"><ele>273.0</ele><time>2026-04-13T08:51:06.858Z</time></trkpt><trkpt lat="40.6252778" lon="14.4761077"><ele>273.0</ele><time>2026-04-13T08:51:07.843Z</time></trkpt><trkpt lat="40.6253403" lon="14.4763309"><ele>273.0</ele><time>2026-04-13T08:51:08.845Z</time></trkpt><trkpt lat="40.625386" lon="14.4765277"><ele>273.0</ele><time>2026-04-13T08:51:09.842Z</time></trkpt><trkpt lat="40.6254155" lon="14.4767031"><ele>258.6</ele><time>2026-04-13T08:51:10.852Z</time></trkpt><trkpt lat="40.6254463" lon="14.4768528"><ele>244.20000000000002</ele><time>2026-04-13T08:51:11.845Z</time></trkpt><trkpt lat="40.6255059" lon="14.4769606"><ele>229.8</ele><time>2026-04-13T08:51:12.855Z</time></trkpt><trkpt lat="40.6255784" lon="14.4770591"><ele>215.4</ele><time>2026-04-13T08:51:13.859Z</time></trkpt><trkpt lat="40.6256473" lon="14.4771499"><ele>201.0</ele><time>2026-04-13T08:51:14.857Z</time></trkpt><trkpt lat="40.625699" lon="14.4772406"><ele>201.0</ele><time>2026-04-13T08:51:15.858Z</time></trkpt><trkpt lat="40.6257415" lon="14.4773416"><ele>201.0</ele><time>2026-04-13T08:51:16.855Z</time></trkpt><trkpt lat="40.6257808" lon="14.4774451"><ele>201.0</ele><time>2026-04-13T08:51:17.861Z</time></trkpt><trkpt lat="40.6258236" lon="14.4775451"><ele>201.0</ele><time>2026-04-13T08:51:18.859Z</time></trkpt><trkpt lat="40.6258813" lon="14.4776508"><ele>201.0</ele><time>2026-04-13T08:51:19.855Z</time></trkpt><trkpt lat="40.6259526" lon="14.4777725"><ele>201.0</ele><time>2026-04-13T08:51:20.854Z</time></trkpt><trkpt lat="40.6260594" lon="14.4779298"><ele>201.0</ele><time>2026-04-13T08:51:21.865Z</time></trkpt><trkpt lat="40.6261573" lon="14.4780738"><ele>201.0</ele><time>2026-04-13T08:51:22.867Z</time></trkpt><trkpt lat="40.6262578" lon="14.4781959"><ele>201.0</ele><time>2026-04-13T08:51:23.852Z</time></trkpt><trkpt lat="40.6263595" lon="14.4782858"><ele>203.5</ele><time>2026-04-13T08:51:24.849Z</time></trkpt><trkpt lat="40.6264634" lon="14.4783747"><ele>206.0</ele><time>2026-04-13T08:51:25.858Z</time></trkpt><trkpt lat="40.6265553" lon="14.4784731"><ele>208.5</ele><time>2026-04-13T08:51:26.847Z</time></trkpt><trkpt lat="40.6266499" lon="14.4785761"><ele>211.0</ele><time>2026-04-13T08:51:27.857Z</time></trkpt><trkpt lat="40.6267248" lon="14.4786892"><ele>208.4</ele><time>2026-04-13T08:51:28.851Z</time></trkpt><trkpt lat="40.6267999" lon="14.4787895"><ele>205.8</ele><time>2026-04-13T08:51:29.853Z</time></trkpt><trkpt lat="40.6268827" lon="14.4788604"><ele>203.20000000000002</ele><time>2026-04-13T08:51:30.853Z</time></trkpt><trkpt lat="40.6269751" lon="14.4788973"><ele>200.60000000000002</ele><time>2026-04-13T08:51:31.868Z</time></trkpt><trkpt lat="40.6270759" lon="14.4789269"><ele>198.0</ele><time>2026-04-13T08:51:32.864Z</time></trkpt><trkpt lat="40.6271708" lon="14.4789706"><ele>198.0</ele><time>2026-04-13T08:51:33.858Z</time></trkpt><trkpt lat="40.6272552" lon="14.479023"><ele>198.0</ele><time>2026-04-13T08:51:34.854Z</time></trkpt><trkpt lat="40.6273382" lon="14.479076"><ele>198.0</ele><time>2026-04-13T08:51:35.86Z</time></trkpt><trkpt lat="40.6274121" lon="14.4791181"><ele>198.0</ele><time>2026-04-13T08:51:36.852Z</time></trkpt><trkpt lat="40.6274911" lon="14.4791431"><ele>198.0</ele><time>2026-04-13T08:51:37.85Z</time></trkpt><trkpt lat="40.6275878" lon="14.4791538"><ele>198.0</ele><time>2026-04-13T08:51:38.845Z</time></trkpt><trkpt lat="40.6277097" lon="14.47916"><ele>193.0</ele><time>2026-04-13T08:51:39.858Z</time></trkpt><trkpt lat="40.6278134" lon="14.4791625"><ele>188.0</ele><time>2026-04-13T08:51:40.862Z</time></trkpt><trkpt lat="40.6278949" lon="14.4791491"><ele>183.0</ele><time>2026-04-13T08:51:41.852Z</time></trkpt><trkpt lat="40.6279766" lon="14.4791108"><ele>178.0</ele><time>2026-04-13T08:51:42.846Z</time></trkpt><trkpt lat="40.6280712" lon="14.4790423"><ele>173.0</ele><time>2026-04-13T08:51:43.861Z</time></trkpt><trkpt lat="40.6281871" lon="14.4789414"><ele>173.0</ele><time>2026-04-13T08:51:44.863Z</time></trkpt><trkpt lat="40.62832" lon="14.4788263"><ele>173.0</ele><time>2026-04-13T08:51:45.849Z</time></trkpt><trkpt lat="40.6284473" lon="14.4787159"><ele>173.0</ele><time>2026-04-13T08:51:46.85Z</time></trkpt><trkpt lat="40.6285653" lon="14.4786273"><ele>173.0</ele><time>2026-04-13T08:51:47.862Z</time></trkpt><trkpt lat="40.6286693" lon="14.4785379"><ele>169.25</ele><time>2026-04-13T08:51:48.842Z</time></trkpt><trkpt lat="40.6287588" lon="14.4784197"><ele>165.5</ele><time>2026-04-13T08:51:49.859Z</time></trkpt><trkpt lat="40.6288409" lon="14.4782776"><ele>161.75</ele><time>2026-04-13T08:51:50.857Z</time></trkpt><trkpt lat="40.6289253" lon="14.4781168"><ele>158.0</ele><time>2026-04-13T08:51:51.861Z</time></trkpt><trkpt lat="40.6290171" lon="14.4779573"><ele>161.5</ele><time>2026-04-13T08:51:52.842Z</time></trkpt><trkpt lat="40.6291152" lon="14.4778103"><ele>165.0</ele><time>2026-04-13T08:51:53.847Z</time></trkpt><trkpt lat="40.6292249" lon="14.4776882"><ele>168.5</ele><time>2026-04-13T08:51:54.849Z</time></trkpt><trkpt lat="40.6293357" lon="14.477584"><ele>172.0</ele><time>2026-04-13T08:51:55.862Z</time></trkpt><trkpt lat="40.6294392" lon="14.4774921"><ele>176.8</ele><time>2026-04-13T08:51:56.852Z</time></trkpt><trkpt lat="40.6295367" lon="14.4774165"><ele>181.6</ele><time>2026-04-13T08:51:57.846Z</time></trkpt><trkpt lat="40.6296359" lon="14.4773649"><ele>186.4</ele><time>2026-04-13T08:51:58.858Z</time></trkpt><trkpt lat="40.6297365" lon="14.4773412"><ele>191.20000000000002</ele><time>2026-04-13T08:51:59.856Z</time></trkpt><trkpt lat="40.6298326" lon="14.4773332"><ele>196.0</ele><time>2026-04-13T08:52:00.843Z</time></trkpt><trkpt lat="40.6299326" lon="14.4773481"><ele>195.99999999999997</ele><time>2026-04-13T08:52:01.858Z</time></trkpt><trkpt lat="40.6300154" lon="14.4773729"><ele>196.0</ele><time>2026-04-13T08:52:02.849Z</time></trkpt><trkpt lat="40.6300802" lon="14.4774009"><ele>196.0</ele><time>2026-04-13T08:52:03.861Z</time></trkpt><trkpt lat="40.630158" lon="14.4774999"><ele>196.0</ele><time>2026-04-13T08:52:05.859Z</time></trkpt><trkpt lat="40.6301497" lon="14.4776376"><ele>195.99999999999997</ele><time>2026-04-13T08:52:07.855Z</time></trkpt><trkpt lat="40.6301128" lon="14.4777209"><ele>196.0</ele><time>2026-04-13T08:52:08.85Z</time></trkpt><trkpt lat="40.6300494" lon="14.4778214"><ele>196.0</ele><time>2026-04-13T08:52:09.848Z</time></trkpt><trkpt lat="40.6299849" lon="14.4779249"><ele>196.0</ele><time>2026-04-13T08:52:10.846Z</time></trkpt><trkpt lat="40.629918" lon="14.4780259"><ele>196.0</ele><time>2026-04-13T08:52:11.851Z</time></trkpt><trkpt lat="40.6298728" lon="14.4781267"><ele>196.0</ele><time>2026-04-13T08:52:12.845Z</time></trkpt><trkpt lat="40.6298363" lon="14.4782437"><ele>196.0</ele><time>2026-04-13T08:52:13.859Z</time></trkpt><trkpt lat="40.6298209" lon="14.4783636"><ele>194.60000000000002</ele><time>2026-04-13T08:52:14.858Z</time></trkpt><trkpt lat="40.6298211" lon="14.4784987"><ele>193.2</ele><time>2026-04-13T08:52:15.854Z</time></trkpt><trkpt lat="40.6298261" lon="14.478652"><ele>191.8</ele><time>2026-04-13T08:52:16.854Z</time></trkpt><trkpt lat="40.6298329" lon="14.4788016"><ele>190.39999999999998</ele><time>2026-04-13T08:52:17.851Z</time></trkpt><trkpt lat="40.6298454" lon="14.4789451"><ele>189.0</ele><time>2026-04-13T08:52:18.845Z</time></trkpt><trkpt lat="40.6298636" lon="14.4791134"><ele>189.0</ele><time>2026-04-13T08:52:19.851Z</time></trkpt><trkpt lat="40.6298815" lon="14.4792912"><ele>189.0</ele><time>2026-04-13T08:52:20.846Z</time></trkpt><trkpt lat="40.6299035" lon="14.479455"><ele>189.0</ele><time>2026-04-13T08:52:21.861Z</time></trkpt><trkpt lat="40.6299226" lon="14.4796034"><ele>189.0</ele><time>2026-04-13T08:52:22.847Z</time></trkpt><trkpt lat="40.6299405" lon="14.4797285"><ele>187.5</ele><time>2026-04-13T08:52:23.859Z</time></trkpt><trkpt lat="40.6299554" lon="14.4798362"><ele>186.0</ele><time>2026-04-13T08:52:24.839Z</time></trkpt><trkpt lat="40.6299701" lon="14.4799313"><ele>184.5</ele><time>2026-04-13T08:52:25.866Z</time></trkpt><trkpt lat="40.6299744" lon="14.4800198"><ele>183.0</ele><time>2026-04-13T08:52:26.853Z</time></trkpt><trkpt lat="40.6299508" lon="14.4801841"><ele>181.5</ele><time>2026-04-13T08:52:28.846Z</time></trkpt><trkpt lat="40.6299162" lon="14.4802875"><ele>180.0</ele><time>2026-04-13T08:52:29.869Z</time></trkpt><trkpt lat="40.6298713" lon="14.4804186"><ele>181.25</ele><time>2026-04-13T08:52:30.842Z</time></trkpt><trkpt lat="40.6298119" lon="14.4805647"><ele>182.5</ele><time>2026-04-13T08:52:31.862Z</time></trkpt><trkpt lat="40.6297476" lon="14.4806966"><ele>183.75</ele><time>2026-04-13T08:52:32.839Z</time></trkpt><trkpt lat="40.6296892" lon="14.4808175"><ele>185.0</ele><time>2026-04-13T08:52:33.86Z</time></trkpt><trkpt lat="40.62963" lon="14.4809205"><ele>185.0</ele><time>2026-04-13T08:52:34.861Z</time></trkpt><trkpt lat="40.6295837" lon="14.4810243"><ele>185.0</ele><time>2026-04-13T08:52:35.85Z</time></trkpt><trkpt lat="40.6295625" lon="14.4811388"><ele>185.0</ele><time>2026-04-13T08:52:36.856Z</time></trkpt><trkpt lat="40.6295544" lon="14.4812713"><ele>185.0</ele><time>2026-04-13T08:52:37.872Z</time></trkpt><trkpt lat="40.6295479" lon="14.4813957"><ele>185.0</ele><time>2026-04-13T08:52:38.858Z</time></trkpt><trkpt lat="40.6295303" lon="14.4814917"><ele>176.6</ele><time>2026-04-13T08:52:39.865Z</time></trkpt><trkpt lat="40.6294549" lon="14.4816298"><ele>168.2</ele><time>2026-04-13T08:52:41.862Z</time></trkpt><trkpt lat="40.6294081" lon="14.4817199"><ele>159.8</ele><time>2026-04-13T08:52:42.844Z</time></trkpt><trkpt lat="40.6293799" lon="14.4818353"><ele>151.4</ele><time>2026-04-13T08:52:43.86Z</time></trkpt><trkpt lat="40.6293554" lon="14.4819368"><ele>143.0</ele><time>2026-04-13T08:52:44.843Z</time></trkpt><trkpt lat="40.6293363" lon="14.4820235"><ele>143.33333333333331</ele><time>2026-04-13T08:52:45.861Z</time></trkpt><trkpt lat="40.6293166" lon="14.4821537"><ele>143.66666666666666</ele><time>2026-04-13T08:52:47.854Z</time></trkpt><trkpt lat="40.6293471" lon="14.4822474"><ele>144.0</ele><time>2026-04-13T08:52:51.845Z</time></trkpt><trkpt lat="40.6294078" lon="14.4823037"><ele>144.33333333333334</ele><time>2026-04-13T08:52:53.847Z</time></trkpt><trkpt lat="40.6294667" lon="14.4823379"><ele>144.66666666666669</ele><time>2026-04-13T08:52:55.856Z</time></trkpt><trkpt lat="40.6295508" lon="14.4823381"><ele>145.0</ele><time>2026-04-13T08:52:57.84Z</time></trkpt><trkpt lat="40.629609" lon="14.4822999"><ele>143.75</ele><time>2026-04-13T08:52:58.852Z</time></trkpt><trkpt lat="40.6296889" lon="14.4822327"><ele>142.5</ele><time>2026-04-13T08:52:59.849Z</time></trkpt><trkpt lat="40.6297969" lon="14.4821515"><ele>141.25</ele><time>2026-04-13T08:53:00.857Z</time></trkpt><trkpt lat="40.6299199" lon="14.4820677"><ele>140.0</ele><time>2026-04-13T08:53:01.861Z</time></trkpt><trkpt lat="40.6300534" lon="14.4819864"><ele>144.6</ele><time>2026-04-13T08:53:02.861Z</time></trkpt><trkpt lat="40.6301746" lon="14.4819143"><ele>149.2</ele><time>2026-04-13T08:53:03.848Z</time></trkpt><trkpt lat="40.6302787" lon="14.4818591"><ele>153.8</ele><time>2026-04-13T08:53:04.869Z</time></trkpt><trkpt lat="40.6303674" lon="14.481826"><ele>158.4</ele><time>2026-04-13T08:53:05.867Z</time></trkpt><trkpt lat="40.6304394" lon="14.48182"><ele>163.0</ele><time>2026-04-13T08:53:06.858Z</time></trkpt><trkpt lat="40.6305432" lon="14.4819033"><ele>163.0</ele><time>2026-04-13T08:53:08.867Z</time></trkpt><trkpt lat="40.6306187" lon="14.4819716"><ele>163.0</ele><time>2026-04-13T08:53:10.86Z</time></trkpt><trkpt lat="40.6307192" lon="14.4818933"><ele>163.0</ele><time>2026-04-13T08:53:12.865Z</time></trkpt><trkpt lat="40.6307816" lon="14.4817945"><ele>163.0</ele><time>2026-04-13T08:53:13.856Z</time></trkpt><trkpt lat="40.6308571" lon="14.481701"><ele>163.0</ele><time>2026-04-13T08:53:14.841Z</time></trkpt><trkpt lat="40.6309352" lon="14.4816334"><ele>163.0</ele><time>2026-04-13T08:53:15.845Z</time></trkpt><trkpt lat="40.6310141" lon="14.4816062"><ele>163.0</ele><time>2026-04-13T08:53:16.859Z</time></trkpt><trkpt lat="40.6310927" lon="14.4816237"><ele>163.0</ele><time>2026-04-13T08:53:17.842Z</time></trkpt><trkpt lat="40.6311836" lon="14.4816482"><ele>163.0</ele><time>2026-04-13T08:53:18.863Z</time></trkpt><trkpt lat="40.6312699" lon="14.4817225"><ele>163.0</ele><time>2026-04-13T08:53:19.853Z</time></trkpt><trkpt lat="40.6313399" lon="14.4818201"><ele>165.4</ele><time>2026-04-13T08:53:20.863Z</time></trkpt><trkpt lat="40.6313877" lon="14.4819428"><ele>167.8</ele><time>2026-04-13T08:53:21.846Z</time></trkpt><trkpt lat="40.6314333" lon="14.4820635"><ele>170.2</ele><time>2026-04-13T08:53:22.867Z</time></trkpt><trkpt lat="40.6315013" lon="14.4821553"><ele>172.6</ele><time>2026-04-13T08:53:23.842Z</time></trkpt><trkpt lat="40.6315894" lon="14.4822211"><ele>175.0</ele><time>2026-04-13T08:53:24.864Z</time></trkpt><trkpt lat="40.631672" lon="14.4822809"><ele>170.5</ele><time>2026-04-13T08:53:25.849Z</time></trkpt><trkpt lat="40.6317462" lon="14.4823378"><ele>166.0</ele><time>2026-04-13T08:53:26.858Z</time></trkpt><trkpt lat="40.6317789" lon="14.4824177"><ele>161.5</ele><time>2026-04-13T08:53:27.848Z</time></trkpt><trkpt lat="40.6317659" lon="14.4825161"><ele>157.0</ele><time>2026-04-13T08:53:28.859Z</time></trkpt><trkpt lat="40.6317499" lon="14.4826188"><ele>152.5</ele><time>2026-04-13T08:53:29.851Z</time></trkpt><trkpt lat="40.6316895" lon="14.4827379"><ele>148.0</ele><time>2026-04-13T08:53:30.852Z</time></trkpt><trkpt lat="40.6316287" lon="14.4828697"><ele>144.5</ele><time>2026-04-13T08:53:31.86Z</time></trkpt><trkpt lat="40.6315855" lon="14.4829937"><ele>141.0</ele><time>2026-04-13T08:53:32.85Z</time></trkpt><trkpt lat="40.6315704" lon="14.4830999"><ele>137.5</ele><time>2026-04-13T08:53:33.857Z</time></trkpt><trkpt lat="40.631588" lon="14.4831825"><ele>134.0</ele><time>2026-04-13T08:53:34.845Z</time></trkpt><trkpt lat="40.6316634" lon="14.4832462"><ele>130.5</ele><time>2026-04-13T08:53:36.848Z</time></trkpt><trkpt lat="40.6317328" lon="14.4832129"><ele>127.0</ele><time>2026-04-13T08:53:37.862Z</time></trkpt><trkpt lat="40.6318212" lon="14.4831612"><ele>127.0</ele><time>2026-04-13T08:53:38.848Z</time></trkpt><trkpt lat="40.6319317" lon="14.4831094"><ele>126.99999999999999</ele><time>2026-04-13T08:53:39.858Z</time></trkpt><trkpt lat="40.6320461" lon="14.4830825"><ele>126.99999999999999</ele><time>2026-04-13T08:53:40.864Z</time></trkpt><trkpt lat="40.6321504" lon="14.4830565"><ele>127.0</ele><time>2026-04-13T08:53:41.864Z</time></trkpt><trkpt lat="40.6322507" lon="14.483028"><ele>127.0</ele><time>2026-04-13T08:53:42.854Z</time></trkpt><trkpt lat="40.6323129" lon="14.4829415"><ele>136.8</ele><time>2026-04-13T08:53:43.866Z</time></trkpt><trkpt lat="40.6323762" lon="14.4828538"><ele>146.6</ele><time>2026-04-13T08:53:44.852Z</time></trkpt><trkpt lat="40.6324448" lon="14.482791"><ele>156.4</ele><time>2026-04-13T08:53:45.844Z</time></trkpt><trkpt lat="40.6325293" lon="14.482778"><ele>166.20000000000002</ele><time>2026-04-13T08:53:46.866Z</time></trkpt><trkpt lat="40.6326441" lon="14.4828093"><ele>176.0</ele><time>2026-04-13T08:53:47.861Z</time></trkpt><trkpt lat="40.6327677" lon="14.4828531"><ele>179.33333333333331</ele><time>2026-04-13T08:53:48.856Z</time></trkpt><trkpt lat="40.6328689" lon="14.4828978"><ele>182.66666666666666</ele><time>2026-04-13T08:53:49.85Z</time></trkpt><trkpt lat="40.6329486" lon="14.4829448"><ele>186.0</ele><time>2026-04-13T08:53:50.864Z</time></trkpt><trkpt lat="40.6330168" lon="14.4829948"><ele>189.33333333333331</ele><time>2026-04-13T08:53:51.844Z</time></trkpt><trkpt lat="40.6330628" lon="14.4830778"><ele>192.66666666666666</ele><time>2026-04-13T08:53:52.863Z</time></trkpt><trkpt lat="40.6331168" lon="14.4831733"><ele>196.0</ele><time>2026-04-13T08:53:53.863Z</time></trkpt><trkpt lat="40.6331837" lon="14.4832505"><ele>191.60000000000002</ele><time>2026-04-13T08:53:54.858Z</time></trkpt><trkpt lat="40.6332714" lon="14.4833022"><ele>187.2</ele><time>2026-04-13T08:53:55.859Z</time></trkpt><trkpt lat="40.6333663" lon="14.4833538"><ele>182.8</ele><time>2026-04-13T08:53:56.849Z</time></trkpt><trkpt lat="40.6334881" lon="14.4833822"><ele>178.39999999999998</ele><time>2026-04-13T08:53:57.859Z</time></trkpt><trkpt lat="40.6335899" lon="14.4834083"><ele>174.0</ele><time>2026-04-13T08:53:58.866Z</time></trkpt><trkpt lat="40.6336725" lon="14.483443"><ele>174.0</ele><time>2026-04-13T08:53:59.867Z</time></trkpt><trkpt lat="40.6337285" lon="14.4835068"><ele>174.0</ele><time>2026-04-13T08:54:00.861Z</time></trkpt><trkpt lat="40.6337646" lon="14.4836041"><ele>174.0</ele><time>2026-04-13T08:54:01.862Z</time></trkpt><trkpt lat="40.6338103" lon="14.4837561"><ele>174.0</ele><time>2026-04-13T08:54:02.846Z</time></trkpt><trkpt lat="40.63386" lon="14.4839237"><ele>174.0</ele><time>2026-04-13T08:54:03.861Z</time></trkpt><trkpt lat="40.6339381" lon="14.4841466"><ele>172.0</ele><time>2026-04-13T08:54:04.848Z</time></trkpt><trkpt lat="40.6340203" lon="14.4843707"><ele>170.0</ele><time>2026-04-13T08:54:05.86Z</time></trkpt><trkpt lat="40.6340937" lon="14.4845721"><ele>168.0</ele><time>2026-04-13T08:54:06.848Z</time></trkpt><trkpt lat="40.6341569" lon="14.484744"><ele>168.0</ele><time>2026-04-13T08:54:07.863Z</time></trkpt><trkpt lat="40.6342061" lon="14.4848814"><ele>168.0</ele><time>2026-04-13T08:54:08.846Z</time></trkpt><trkpt lat="40.634229" lon="14.484983"><ele>168.0</ele><time>2026-04-13T08:54:09.863Z</time></trkpt><trkpt lat="40.6341747" lon="14.4851246"><ele>168.0</ele><time>2026-04-13T08:54:11.861Z</time></trkpt><trkpt lat="40.6341134" lon="14.4851443"><ele>168.0</ele><time>2026-04-13T08:54:12.855Z</time></trkpt><trkpt lat="40.6340475" lon="14.4851134"><ele>168.0</ele><time>2026-04-13T08:54:13.863Z</time></trkpt><trkpt lat="40.6339844" lon="14.4850381"><ele>168.0</ele><time>2026-04-13T08:54:14.859Z</time></trkpt><trkpt lat="40.6339045" lon="14.484945"><ele>168.0</ele><time>2026-04-13T08:54:15.852Z</time></trkpt><trkpt lat="40.6338201" lon="14.484848"><ele>168.0</ele><time>2026-04-13T08:54:16.852Z</time></trkpt><trkpt lat="40.6336976" lon="14.4847571"><ele>168.0</ele><time>2026-04-13T08:54:17.852Z</time></trkpt><trkpt lat="40.6335869" lon="14.4846727"><ele>166.0</ele><time>2026-04-13T08:54:18.857Z</time></trkpt><trkpt lat="40.633484" lon="14.4846225"><ele>164.0</ele><time>2026-04-13T08:54:19.86Z</time></trkpt><trkpt lat="40.6333879" lon="14.4846022"><ele>162.0</ele><time>2026-04-13T08:54:20.843Z</time></trkpt><trkpt lat="40.6333034" lon="14.4846615"><ele>160.0</ele><time>2026-04-13T08:54:21.856Z</time></trkpt><trkpt lat="40.633227" lon="14.4847584"><ele>158.0</ele><time>2026-04-13T08:54:22.86Z</time></trkpt><trkpt lat="40.6331227" lon="14.4848089"><ele>158.0</ele><time>2026-04-13T08:54:23.854Z</time></trkpt><trkpt lat="40.6330088" lon="14.4848164"><ele>158.0</ele><time>2026-04-13T08:54:24.857Z</time></trkpt><trkpt lat="40.6328799" lon="14.4848118"><ele>158.0</ele><time>2026-04-13T08:54:25.861Z</time></trkpt><trkpt lat="40.632732" lon="14.4848587"><ele>158.0</ele><time>2026-04-13T08:54:26.859Z</time></trkpt><trkpt lat="40.6325944" lon="14.4849116"><ele>149.75</ele><time>2026-04-13T08:54:27.847Z</time></trkpt><trkpt lat="40.6324629" lon="14.4849694"><ele>141.5</ele><time>2026-04-13T08:54:28.858Z</time></trkpt><trkpt lat="40.6323172" lon="14.4849961"><ele>133.25</ele><time>2026-04-13T08:54:29.845Z</time></trkpt><trkpt lat="40.6321554" lon="14.4850182"><ele>125.0</ele><time>2026-04-13T08:54:30.862Z</time></trkpt><trkpt lat="40.6320061" lon="14.4850548"><ele>118.0</ele><time>2026-04-13T08:54:31.847Z</time></trkpt><trkpt lat="40.631877" lon="14.4851027"><ele>111.0</ele><time>2026-04-13T08:54:32.855Z</time></trkpt><trkpt lat="40.6317676" lon="14.4851723"><ele>104.0</ele><time>2026-04-13T08:54:33.864Z</time></trkpt><trkpt lat="40.631664" lon="14.4852561"><ele>97.0</ele><time>2026-04-13T08:54:34.862Z</time></trkpt><trkpt lat="40.6315693" lon="14.4853488"><ele>93.00000000000001</ele><time>2026-04-13T08:54:35.856Z</time></trkpt><trkpt lat="40.6314871" lon="14.4854377"><ele>89.0</ele><time>2026-04-13T08:54:36.854Z</time></trkpt><trkpt lat="40.6314118" lon="14.4855199"><ele>85.0</ele><time>2026-04-13T08:54:37.854Z</time></trkpt><trkpt lat="40.6313433" lon="14.485595"><ele>81.0</ele><time>2026-04-13T08:54:38.848Z</time></trkpt><trkpt lat="40.6312736" lon="14.4856476"><ele>77.0</ele><time>2026-04-13T08:54:39.856Z</time></trkpt><trkpt lat="40.6312056" lon="14.4856885"><ele>73.0</ele><time>2026-04-13T08:54:40.842Z</time></trkpt><trkpt lat="40.6311267" lon="14.4857338"><ele>73.0</ele><time>2026-04-13T08:54:41.864Z</time></trkpt><trkpt lat="40.6310185" lon="14.4857665"><ele>73.0</ele><time>2026-04-13T08:54:42.863Z</time></trkpt><trkpt lat="40.6309188" lon="14.4857976"><ele>73.0</ele><time>2026-04-13T08:54:43.863Z</time></trkpt><trkpt lat="40.6308326" lon="14.4858537"><ele>73.0</ele><time>2026-04-13T08:54:44.844Z</time></trkpt><trkpt lat="40.6307502" lon="14.4859089"><ele>73.0</ele><time>2026-04-13T08:54:45.851Z</time></trkpt><trkpt lat="40.6306917" lon="14.4860086"><ele>73.0</ele><time>2026-04-13T08:54:46.857Z</time></trkpt><trkpt lat="40.6306801" lon="14.4861316"><ele>73.0</ele><time>2026-04-13T08:54:47.85Z</time></trkpt><trkpt lat="40.6306719" lon="14.4862529"><ele>73.0</ele><time>2026-04-13T08:54:48.858Z</time></trkpt><trkpt lat="40.6307233" lon="14.4863787"><ele>73.0</ele><time>2026-04-13T08:54:49.847Z</time></trkpt><trkpt lat="40.6307886" lon="14.4864868"><ele>73.0</ele><time>2026-04-13T08:54:50.863Z</time></trkpt><trkpt lat="40.6308591" lon="14.4865504"><ele>77.0</ele><time>2026-04-13T08:54:51.872Z</time></trkpt><trkpt lat="40.6309319" lon="14.4865666"><ele>81.0</ele><time>2026-04-13T08:54:52.854Z</time></trkpt><trkpt lat="40.631016" lon="14.4865858"><ele>85.0</ele><time>2026-04-13T08:54:53.846Z</time></trkpt><trkpt lat="40.6311125" lon="14.4865696"><ele>89.0</ele><time>2026-04-13T08:54:54.844Z</time></trkpt><trkpt lat="40.6312124" lon="14.486561"><ele>93.00000000000001</ele><time>2026-04-13T08:54:55.858Z</time></trkpt><trkpt lat="40.6312958" lon="14.4865741"><ele>97.0</ele><time>2026-04-13T08:54:56.849Z</time></trkpt><trkpt lat="40.6313613" lon="14.4866135"><ele>102.50000000000001</ele><time>2026-04-13T08:54:57.847Z</time></trkpt><trkpt lat="40.6314324" lon="14.4866722"><ele>108.0</ele><time>2026-04-13T08:54:59.844Z</time></trkpt><trkpt lat="40.6314757" lon="14.4867738"><ele>113.5</ele><time>2026-04-13T08:55:02.854Z</time></trkpt><trkpt lat="40.6314698" lon="14.486898"><ele>119.0</ele><time>2026-04-13T08:55:04.851Z</time></trkpt><trkpt lat="40.6313856" lon="14.4869436"><ele>124.50000000000001</ele><time>2026-04-13T08:55:06.859Z</time></trkpt><trkpt lat="40.6313149" lon="14.4869456"><ele>130.0</ele><time>2026-04-13T08:55:07.855Z</time></trkpt><trkpt lat="40.6312433" lon="14.4869738"><ele>130.0</ele><time>2026-04-13T08:55:08.846Z</time></trkpt><trkpt lat="40.6311713" lon="14.48704"><ele>130.0</ele><time>2026-04-13T08:55:09.857Z</time></trkpt><trkpt lat="40.6310956" lon="14.4871157"><ele>130.0</ele><time>2026-04-13T08:55:10.844Z</time></trkpt><trkpt lat="40.6310081" lon="14.4872035"><ele>130.0</ele><time>2026-04-13T08:55:11.867Z</time></trkpt><trkpt lat="40.6309267" lon="14.4872809"><ele>130.0</ele><time>2026-04-13T08:55:12.867Z</time></trkpt><trkpt lat="40.6308428" lon="14.4873267"><ele>126.16666666666667</ele><time>2026-04-13T08:55:13.857Z</time></trkpt><trkpt lat="40.6307536" lon="14.4873397"><ele>122.33333333333334</ele><time>2026-04-13T08:55:14.851Z</time></trkpt><trkpt lat="40.6306567" lon="14.4873319"><ele>118.5</ele><time>2026-04-13T08:55:15.854Z</time></trkpt><trkpt lat="40.6305606" lon="14.4873315"><ele>114.66666666666666</ele><time>2026-04-13T08:55:16.841Z</time></trkpt><trkpt lat="40.6304804" lon="14.4873566"><ele>110.83333333333333</ele><time>2026-04-13T08:55:17.857Z</time></trkpt><trkpt lat="40.6304089" lon="14.4874095"><ele>107.0</ele><time>2026-04-13T08:55:18.863Z</time></trkpt><trkpt lat="40.6303289" lon="14.4874762"><ele>101.6</ele><time>2026-04-13T08:55:19.855Z</time></trkpt><trkpt lat="40.6302376" lon="14.4875384"><ele>96.19999999999999</ele><time>2026-04-13T08:55:20.859Z</time></trkpt><trkpt lat="40.6301438" lon="14.4875803"><ele>90.8</ele><time>2026-04-13T08:55:21.849Z</time></trkpt><trkpt lat="40.6300436" lon="14.4875981"><ele>85.4</ele><time>2026-04-13T08:55:22.866Z</time></trkpt><trkpt lat="40.6299426" lon="14.4876035"><ele>80.0</ele><time>2026-04-13T08:55:23.849Z</time></trkpt><trkpt lat="40.6298415" lon="14.4876094"><ele>80.0</ele><time>2026-04-13T08:55:24.862Z</time></trkpt><trkpt lat="40.6297591" lon="14.4876636"><ele>80.0</ele><time>2026-04-13T08:55:25.847Z</time></trkpt><trkpt lat="40.6296851" lon="14.4877455"><ele>80.0</ele><time>2026-04-13T08:55:26.856Z</time></trkpt><trkpt lat="40.6296091" lon="14.4878269"><ele>80.0</ele><time>2026-04-13T08:55:27.849Z</time></trkpt><trkpt lat="40.6295109" lon="14.4878961"><ele>80.0</ele><time>2026-04-13T08:55:28.855Z</time></trkpt><trkpt lat="40.6294079" lon="14.4879597"><ele>81.4</ele><time>2026-04-13T08:55:29.847Z</time></trkpt><trkpt lat="40.6293115" lon="14.4880365"><ele>82.8</ele><time>2026-04-13T08:55:30.843Z</time></trkpt><trkpt lat="40.6292229" lon="14.488114"><ele>84.19999999999999</ele><time>2026-04-13T08:55:31.861Z</time></trkpt><trkpt lat="40.6291459" lon="14.488188"><ele>85.6</ele><time>2026-04-13T08:55:32.845Z</time></trkpt><trkpt lat="40.6290733" lon="14.4882572"><ele>87.0</ele><time>2026-04-13T08:55:33.867Z</time></trkpt><trkpt lat="40.6290006" lon="14.4883264"><ele>87.0</ele><time>2026-04-13T08:55:34.839Z</time></trkpt><trkpt lat="40.6289516" lon="14.4883949"><ele>87.0</ele><time>2026-04-13T08:55:35.854Z</time></trkpt><trkpt lat="40.6288906" lon="14.4885256"><ele>87.0</ele><time>2026-04-13T08:55:37.86Z</time></trkpt><trkpt lat="40.6288381" lon="14.4886197"><ele>87.0</ele><time>2026-04-13T08:55:39.861Z</time></trkpt><trkpt lat="40.6287881" lon="14.488697"><ele>87.0</ele><time>2026-04-13T08:55:41.864Z</time></trkpt><trkpt lat="40.6287033" lon="14.4888262"><ele>83.5</ele><time>2026-04-13T08:55:43.867Z</time></trkpt><trkpt lat="40.6286405" lon="14.4889298"><ele>80.0</ele><time>2026-04-13T08:55:44.869Z</time></trkpt><trkpt lat="40.6285599" lon="14.4890789"><ele>76.5</ele><time>2026-04-13T08:55:45.85Z</time></trkpt><trkpt lat="40.628478" lon="14.4892067"><ele>73.0</ele><time>2026-04-13T08:55:46.86Z</time></trkpt><trkpt lat="40.6283906" lon="14.4893097"><ele>73.0</ele><time>2026-04-13T08:55:47.862Z</time></trkpt><trkpt lat="40.6283097" lon="14.4894155"><ele>73.0</ele><time>2026-04-13T08:55:48.868Z</time></trkpt><trkpt lat="40.6282379" lon="14.4895349"><ele>73.0</ele><time>2026-04-13T08:55:49.859Z</time></trkpt><trkpt lat="40.6281722" lon="14.4896687"><ele>73.0</ele><time>2026-04-13T08:55:50.858Z</time></trkpt><trkpt lat="40.6281143" lon="14.4898152"><ele>79.6</ele><time>2026-04-13T08:55:51.858Z</time></trkpt><trkpt lat="40.6280662" lon="14.4899597"><ele>86.19999999999999</ele><time>2026-04-13T08:55:52.861Z</time></trkpt><trkpt lat="40.628021" lon="14.4900922"><ele>92.8</ele><time>2026-04-13T08:55:53.858Z</time></trkpt><trkpt lat="40.6279707" lon="14.4902041"><ele>99.39999999999999</ele><time>2026-04-13T08:55:54.859Z</time></trkpt><trkpt lat="40.6279249" lon="14.4903053"><ele>106.0</ele><time>2026-04-13T08:55:55.847Z</time></trkpt><trkpt lat="40.6278766" lon="14.4903864"><ele>88.6</ele><time>2026-04-13T08:55:56.869Z</time></trkpt><trkpt lat="40.627831" lon="14.4904735"><ele>71.19999999999999</ele><time>2026-04-13T08:55:57.851Z</time></trkpt><trkpt lat="40.6277846" lon="14.4906093"><ele>53.8</ele><time>2026-04-13T08:55:58.863Z</time></trkpt><trkpt lat="40.627724" lon="14.4907655"><ele>36.4</ele><time>2026-04-13T08:55:59.843Z</time></trkpt><trkpt lat="40.6276637" lon="14.4908935"><ele>19.0</ele><time>2026-04-13T08:56:00.857Z</time></trkpt><trkpt lat="40.6276164" lon="14.4909846"><ele>19.0</ele><time>2026-04-13T08:56:01.842Z</time></trkpt><trkpt lat="40.6275861" lon="14.4910895"><ele>19.0</ele><time>2026-04-13T08:56:02.861Z</time></trkpt><trkpt lat="40.627569" lon="14.4912149"><ele>19.0</ele><time>2026-04-13T08:56:03.859Z</time></trkpt><trkpt lat="40.6275587" lon="14.4913403"><ele>19.0</ele><time>2026-04-13T08:56:04.863Z</time></trkpt><trkpt lat="40.6275577" lon="14.4914559"><ele>19.0</ele><time>2026-04-13T08:56:05.841Z</time></trkpt><trkpt lat="40.6275738" lon="14.4915483"><ele>19.0</ele><time>2026-04-13T08:56:06.862Z</time></trkpt><trkpt lat="40.6276497" lon="14.4916567"><ele>19.0</ele><time>2026-04-13T08:56:08.859Z</time></trkpt><trkpt lat="40.6277066" lon="14.4917047"><ele>19.0</ele><time>2026-04-13T08:56:09.846Z</time></trkpt><trkpt lat="40.6277787" lon="14.4917664"><ele>19.0</ele><time>2026-04-13T08:56:10.864Z</time></trkpt><trkpt lat="40.6278596" lon="14.4918383"><ele>19.0</ele><time>2026-04-13T08:56:11.849Z</time></trkpt><trkpt lat="40.6279395" lon="14.4919009"><ele>19.0</ele><time>2026-04-13T08:56:12.857Z</time></trkpt><trkpt lat="40.6280225" lon="14.4919507"><ele>19.0</ele><time>2026-04-13T08:56:13.856Z</time></trkpt><trkpt lat="40.6281036" lon="14.4919964"><ele>19.0</ele><time>2026-04-13T08:56:14.852Z</time></trkpt><trkpt lat="40.6281741" lon="14.4920593"><ele>19.0</ele><time>2026-04-13T08:56:15.853Z</time></trkpt><trkpt lat="40.6282215" lon="14.4921516"><ele>19.0</ele><time>2026-04-13T08:56:16.848Z</time></trkpt><trkpt lat="40.6282397" lon="14.4922606"><ele>19.0</ele><time>2026-04-13T08:56:17.859Z</time></trkpt><trkpt lat="40.6282574" lon="14.4923762"><ele>19.0</ele><time>2026-04-13T08:56:18.865Z</time></trkpt><trkpt lat="40.6282248" lon="14.4924961"><ele>19.0</ele><time>2026-04-13T08:56:19.854Z</time></trkpt><trkpt lat="40.6281528" lon="14.4925829"><ele>35.0</ele><time>2026-04-13T08:56:20.866Z</time></trkpt><trkpt lat="40.6280634" lon="14.4926687"><ele>51.0</ele><time>2026-04-13T08:56:21.843Z</time></trkpt><trkpt lat="40.6279905" lon="14.4927705"><ele>67.0</ele><time>2026-04-13T08:56:22.859Z</time></trkpt><trkpt lat="40.627923" lon="14.4929041"><ele>83.0</ele><time>2026-04-13T08:56:23.857Z</time></trkpt><trkpt lat="40.6278556" lon="14.4930678"><ele>71.75</ele><time>2026-04-13T08:56:24.86Z</time></trkpt><trkpt lat="40.6277873" lon="14.4932271"><ele>60.5</ele><time>2026-04-13T08:56:25.843Z</time></trkpt><trkpt lat="40.6277311" lon="14.4933717"><ele>49.25</ele><time>2026-04-13T08:56:26.844Z</time></trkpt><trkpt lat="40.6276787" lon="14.4935085"><ele>38.0</ele><time>2026-04-13T08:56:27.852Z</time></trkpt><trkpt lat="40.62766" lon="14.493635"><ele>38.199999999999996</ele><time>2026-04-13T08:56:28.854Z</time></trkpt><trkpt lat="40.6276599" lon="14.4937593"><ele>38.4</ele><time>2026-04-13T08:56:29.861Z</time></trkpt><trkpt lat="40.6276737" lon="14.4938881"><ele>38.599999999999994</ele><time>2026-04-13T08:56:30.844Z</time></trkpt><trkpt lat="40.6277047" lon="14.4940039"><ele>38.8</ele><time>2026-04-13T08:56:31.859Z</time></trkpt><trkpt lat="40.6277579" lon="14.4940948"><ele>39.0</ele><time>2026-04-13T08:56:32.866Z</time></trkpt><trkpt lat="40.6278119" lon="14.4941833"><ele>49.4</ele><time>2026-04-13T08:56:33.853Z</time></trkpt><trkpt lat="40.6279009" lon="14.4942383"><ele>59.8</ele><time>2026-04-13T08:56:34.842Z</time></trkpt><trkpt lat="40.6280073" lon="14.4942733"><ele>70.19999999999999</ele><time>2026-04-13T08:56:35.856Z</time></trkpt><trkpt lat="40.6281103" lon="14.4943077"><ele>80.6</ele><time>2026-04-13T08:56:36.861Z</time></trkpt><trkpt lat="40.6281926" lon="14.4943552"><ele>91.0</ele><time>2026-04-13T08:56:37.846Z</time></trkpt><trkpt lat="40.628252" lon="14.4944344"><ele>91.0</ele><time>2026-04-13T08:56:38.863Z</time></trkpt><trkpt lat="40.6282677" lon="14.4945413"><ele>91.0</ele><time>2026-04-13T08:56:39.843Z</time></trkpt><trkpt lat="40.6282436" lon="14.4946486"><ele>91.0</ele><time>2026-04-13T08:56:40.858Z</time></trkpt><trkpt lat="40.6282196" lon="14.4947516"><ele>91.0</ele><time>2026-04-13T08:56:41.861Z</time></trkpt><trkpt lat="40.6281422" lon="14.4948198"><ele>91.0</ele><time>2026-04-13T08:56:42.857Z</time></trkpt><trkpt lat="40.6280352" lon="14.4948653"><ele>93.19999999999999</ele><time>2026-04-13T08:56:43.862Z</time></trkpt><trkpt lat="40.6279125" lon="14.4948829"><ele>95.39999999999999</ele><time>2026-04-13T08:56:44.847Z</time></trkpt><trkpt lat="40.6277894" lon="14.4948956"><ele>97.6</ele><time>2026-04-13T08:56:45.857Z</time></trkpt><trkpt lat="40.6276874" lon="14.494878"><ele>99.8</ele><time>2026-04-13T08:56:46.856Z</time></trkpt><trkpt lat="40.6276186" lon="14.4949253"><ele>102.0</ele><time>2026-04-13T08:56:47.851Z</time></trkpt><trkpt lat="40.6275748" lon="14.4949977"><ele>92.8</ele><time>2026-04-13T08:56:48.855Z</time></trkpt><trkpt lat="40.627544" lon="14.4950967"><ele>83.6</ele><time>2026-04-13T08:56:49.855Z</time></trkpt><trkpt lat="40.6275145" lon="14.4952256"><ele>74.39999999999999</ele><time>2026-04-13T08:56:50.862Z</time></trkpt><trkpt lat="40.6274925" lon="14.4953855"><ele>65.19999999999999</ele><time>2026-04-13T08:56:51.841Z</time></trkpt><trkpt lat="40.6274811" lon="14.4955724"><ele>56.0</ele><time>2026-04-13T08:56:52.854Z</time></trkpt><trkpt lat="40.6274727" lon="14.4957669"><ele>56.0</ele><time>2026-04-13T08:56:53.846Z</time></trkpt><trkpt lat="40.6274665" lon="14.4959363"><ele>55.99999999999999</ele><time>2026-04-13T08:56:54.858Z</time></trkpt><trkpt lat="40.6274653" lon="14.4960727"><ele>55.99999999999999</ele><time>2026-04-13T08:56:55.864Z</time></trkpt><trkpt lat="40.6274857" lon="14.4961819"><ele>56.0</ele><time>2026-04-13T08:56:56.855Z</time></trkpt><trkpt lat="40.6275293" lon="14.4962659"><ele>56.0</ele><time>2026-04-13T08:56:57.854Z</time></trkpt><trkpt lat="40.6275923" lon="14.4963389"><ele>60.0</ele><time>2026-04-13T08:56:58.861Z</time></trkpt><trkpt lat="40.6276657" lon="14.496422"><ele>64.0</ele><time>2026-04-13T08:56:59.862Z</time></trkpt><trkpt lat="40.6277738" lon="14.4964932"><ele>68.0</ele><time>2026-04-13T08:57:00.855Z</time></trkpt><trkpt lat="40.6278862" lon="14.4965671"><ele>72.0</ele><time>2026-04-13T08:57:01.845Z</time></trkpt><trkpt lat="40.6279977" lon="14.4966206"><ele>76.8</ele><time>2026-04-13T08:57:02.853Z</time></trkpt><trkpt lat="40.6280885" lon="14.4966925"><ele>81.6</ele><time>2026-04-13T08:57:03.856Z</time></trkpt><trkpt lat="40.6281517" lon="14.4967953"><ele>86.39999999999999</ele><time>2026-04-13T08:57:04.859Z</time></trkpt><trkpt lat="40.6281929" lon="14.4969158"><ele>91.2</ele><time>2026-04-13T08:57:05.856Z</time></trkpt><trkpt lat="40.6282062" lon="14.4970345"><ele>96.0</ele><time>2026-04-13T08:57:06.863Z</time></trkpt><trkpt lat="40.6282164" lon="14.4971442"><ele>97.5</ele><time>2026-04-13T08:57:07.851Z</time></trkpt><trkpt lat="40.6281612" lon="14.497222"><ele>99.0</ele><time>2026-04-13T08:57:08.86Z</time></trkpt><trkpt lat="40.6281047" lon="14.4972906"><ele>100.5</ele><time>2026-04-13T08:57:09.84Z</time></trkpt><trkpt lat="40.6280221" lon="14.4973028"><ele>102.0</ele><time>2026-04-13T08:57:10.857Z</time></trkpt><trkpt lat="40.6279365" lon="14.4972622"><ele>103.5</ele><time>2026-04-13T08:57:11.858Z</time></trkpt><trkpt lat="40.6278738" lon="14.4971737"><ele>105.0</ele><time>2026-04-13T08:57:12.863Z</time></trkpt><trkpt lat="40.6278002" lon="14.4970897"><ele>98.4</ele><time>2026-04-13T08:57:13.861Z</time></trkpt><trkpt lat="40.6277019" lon="14.4970326"><ele>91.8</ele><time>2026-04-13T08:57:14.855Z</time></trkpt><trkpt lat="40.6275899" lon="14.4970104"><ele>85.2</ele><time>2026-04-13T08:57:15.855Z</time></trkpt><trkpt lat="40.6274722" lon="14.4969995"><ele>78.6</ele><time>2026-04-13T08:57:16.85Z</time></trkpt><trkpt lat="40.6273659" lon="14.4969964"><ele>72.0</ele><time>2026-04-13T08:57:17.857Z</time></trkpt><trkpt lat="40.6272709" lon="14.4970022"><ele>72.0</ele><time>2026-04-13T08:57:18.862Z</time></trkpt><trkpt lat="40.627189" lon="14.4970205"><ele>72.0</ele><time>2026-04-13T08:57:19.853Z</time></trkpt><trkpt lat="40.6271137" lon="14.4970321"><ele>72.0</ele><time>2026-04-13T08:57:20.86Z</time></trkpt><trkpt lat="40.6270396" lon="14.4970446"><ele>72.0</ele><time>2026-04-13T08:57:21.839Z</time></trkpt><trkpt lat="40.6269648" lon="14.4970617"><ele>72.0</ele><time>2026-04-13T08:57:22.855Z</time></trkpt><trkpt lat="40.6268872" lon="14.497077"><ele>72.0</ele><time>2026-04-13T08:57:23.858Z</time></trkpt><trkpt lat="40.6268188" lon="14.4970572"><ele>47.0</ele><time>2026-04-13T08:57:54.852Z</time></trkpt><trkpt lat="40.6267503" lon="14.4970798"><ele>47.0</ele><time>2026-04-13T08:57:56.846Z</time></trkpt><trkpt lat="40.6266763" lon="14.4971287"><ele>84.0</ele><time>2026-04-13T08:57:58.842Z</time></trkpt><trkpt lat="40.62659" lon="14.497208"><ele>84.0</ele><time>2026-04-13T08:58:00.851Z</time></trkpt><trkpt lat="40.6264973" lon="14.4972822"><ele>84.0</ele><time>2026-04-13T08:58:02.861Z</time></trkpt></trkseg><trkseg><trkpt lat="40.6237478" lon="14.5037848"><ele>103.99999999999999</ele><time>2026-04-13T09:00:56.859Z</time></trkpt><trkpt lat="40.6236349" lon="14.5037973"><ele>98.0</ele><time>2026-04-13T09:00:57.854Z</time></trkpt><trkpt lat="40.6235524" lon="14.5038353"><ele>92.0</ele><time>2026-04-13T09:00:58.866Z</time></trkpt><trkpt lat="40.6235007" lon="14.5038966"><ele>86.0</ele><time>2026-04-13T09:00:59.861Z</time></trkpt><trkpt lat="40.6234521" lon="14.5039588"><ele>80.0</ele><time>2026-04-13T09:01:00.864Z</time></trkpt><trkpt lat="40.6234567" lon="14.5040524"><ele>74.0</ele><time>2026-04-13T09:01:01.871Z</time></trkpt><trkpt lat="40.6234769" lon="14.5041616"><ele>74.0</ele><time>2026-04-13T09:01:02.861Z</time></trkpt><trkpt lat="40.6235109" lon="14.5042875"><ele>74.0</ele><time>2026-04-13T09:01:03.852Z</time></trkpt><trkpt lat="40.6235528" lon="14.5044361"><ele>74.0</ele><time>2026-04-13T09:01:04.872Z</time></trkpt><trkpt lat="40.6236012" lon="14.5046067"><ele>74.0</ele><time>2026-04-13T09:01:05.86Z</time></trkpt><trkpt lat="40.6236485" lon="14.5047784"><ele>85.2</ele><time>2026-04-13T09:01:06.858Z</time></trkpt><trkpt lat="40.6236872" lon="14.5049261"><ele>96.4</ele><time>2026-04-13T09:01:07.857Z</time></trkpt><trkpt lat="40.6237052" lon="14.5050589"><ele>107.6</ele><time>2026-04-13T09:01:08.86Z</time></trkpt><trkpt lat="40.6237003" lon="14.5051911"><ele>118.8</ele><time>2026-04-13T09:01:09.864Z</time></trkpt><trkpt lat="40.6236858" lon="14.5053154"><ele>130.0</ele><time>2026-04-13T09:01:10.862Z</time></trkpt><trkpt lat="40.623669" lon="14.5054255"><ele>131.16666666666669</ele><time>2026-04-13T09:01:11.859Z</time></trkpt><trkpt lat="40.6236555" lon="14.5055343"><ele>132.33333333333334</ele><time>2026-04-13T09:01:12.864Z</time></trkpt><trkpt lat="40.6236489" lon="14.5056448"><ele>133.5</ele><time>2026-04-13T09:01:13.87Z</time></trkpt><trkpt lat="40.6236463" lon="14.5057616"><ele>134.66666666666666</ele><time>2026-04-13T09:01:14.868Z</time></trkpt><trkpt lat="40.6236507" lon="14.5058816"><ele>135.83333333333331</ele><time>2026-04-13T09:01:15.844Z</time></trkpt><trkpt lat="40.6236714" lon="14.5060103"><ele>137.0</ele><time>2026-04-13T09:01:16.861Z</time></trkpt><trkpt lat="40.6237106" lon="14.5061782"><ele>135.0</ele><time>2026-04-13T09:01:17.844Z</time></trkpt><trkpt lat="40.6237589" lon="14.5063826"><ele>133.0</ele><time>2026-04-13T09:01:18.871Z</time></trkpt><trkpt lat="40.6237992" lon="14.5065745"><ele>131.0</ele><time>2026-04-13T09:01:19.842Z</time></trkpt><trkpt lat="40.6238385" lon="14.50676"><ele>131.0</ele><time>2026-04-13T09:01:20.863Z</time></trkpt><trkpt lat="40.6238455" lon="14.5069488"><ele>131.0</ele><time>2026-04-13T09:01:21.858Z</time></trkpt><trkpt lat="40.6238378" lon="14.5071435"><ele>131.0</ele><time>2026-04-13T09:01:22.848Z</time></trkpt><trkpt lat="40.6238374" lon="14.5073246"><ele>131.0</ele><time>2026-04-13T09:01:23.859Z</time></trkpt><trkpt lat="40.6238584" lon="14.5075005"><ele>129.0</ele><time>2026-04-13T09:01:24.85Z</time></trkpt><trkpt lat="40.6238984" lon="14.5076628"><ele>127.0</ele><time>2026-04-13T09:01:25.853Z</time></trkpt><trkpt lat="40.6239509" lon="14.5077933"><ele>125.0</ele><time>2026-04-13T09:01:26.858Z</time></trkpt><trkpt lat="40.6240028" lon="14.5079179"><ele>123.0</ele><time>2026-04-13T09:01:27.866Z</time></trkpt><trkpt lat="40.6240942" lon="14.5080074"><ele>120.25</ele><time>2026-04-13T09:01:28.865Z</time></trkpt><trkpt lat="40.6242189" lon="14.508083"><ele>117.5</ele><time>2026-04-13T09:01:29.861Z</time></trkpt><trkpt lat="40.6243438" lon="14.5081347"><ele>114.75</ele><time>2026-04-13T09:01:30.863Z</time></trkpt><trkpt lat="40.6244789" lon="14.5081586"><ele>112.0</ele><time>2026-04-13T09:01:31.853Z</time></trkpt><trkpt lat="40.6246345" lon="14.5081731"><ele>112.0</ele><time>2026-04-13T09:01:32.859Z</time></trkpt><trkpt lat="40.6248041" lon="14.508205"><ele>112.0</ele><time>2026-04-13T09:01:33.853Z</time></trkpt><trkpt lat="40.6249766" lon="14.5082389"><ele>112.0</ele><time>2026-04-13T09:01:34.891Z</time></trkpt><trkpt lat="40.6251381" lon="14.5082808"><ele>112.0</ele><time>2026-04-13T09:01:35.857Z</time></trkpt><trkpt lat="40.6252942" lon="14.5083198"><ele>112.0</ele><time>2026-04-13T09:01:36.859Z</time></trkpt><trkpt lat="40.625406" lon="14.5083511"><ele>112.0</ele><time>2026-04-13T09:01:37.845Z</time></trkpt><trkpt lat="40.6254984" lon="14.5084014"><ele>112.0</ele><time>2026-04-13T09:01:38.854Z</time></trkpt><trkpt lat="40.6255674" lon="14.5084889"><ele>113.0</ele><time>2026-04-13T09:01:39.853Z</time></trkpt><trkpt lat="40.6256043" lon="14.5085969"><ele>113.99999999999999</ele><time>2026-04-13T09:01:40.867Z</time></trkpt><trkpt lat="40.6256018" lon="14.5087127"><ele>114.99999999999999</ele><time>2026-04-13T09:01:41.869Z</time></trkpt><trkpt lat="40.6255781" lon="14.5088068"><ele>116.0</ele><time>2026-04-13T09:01:42.87Z</time></trkpt><trkpt lat="40.625494" lon="14.508922"><ele>117.0</ele><time>2026-04-13T09:01:44.861Z</time></trkpt><trkpt lat="40.625405" lon="14.508967"><ele>116.39999999999999</ele><time>2026-04-13T09:01:45.847Z</time></trkpt><trkpt lat="40.6253013" lon="14.5090029"><ele>115.79999999999998</ele><time>2026-04-13T09:01:46.863Z</time></trkpt><trkpt lat="40.6252055" lon="14.5090345"><ele>115.2</ele><time>2026-04-13T09:01:47.854Z</time></trkpt><trkpt lat="40.6251362" lon="14.5090975"><ele>114.6</ele><time>2026-04-13T09:01:48.856Z</time></trkpt><trkpt lat="40.6251072" lon="14.5091801"><ele>114.0</ele><time>2026-04-13T09:01:49.851Z</time></trkpt><trkpt lat="40.625159" lon="14.5093129"><ele>114.0</ele><time>2026-04-13T09:01:51.863Z</time></trkpt><trkpt lat="40.6252244" lon="14.509356"><ele>113.99999999999999</ele><time>2026-04-13T09:01:52.866Z</time></trkpt><trkpt lat="40.6252995" lon="14.5094127"><ele>114.0</ele><time>2026-04-13T09:01:53.858Z</time></trkpt><trkpt lat="40.6253534" lon="14.509488"><ele>114.0</ele><time>2026-04-13T09:01:54.867Z</time></trkpt><trkpt lat="40.6253764" lon="14.5095738"><ele>113.99999999999999</ele><time>2026-04-13T09:01:55.849Z</time></trkpt><trkpt lat="40.6253622" lon="14.5096556"><ele>114.0</ele><time>2026-04-13T09:01:56.862Z</time></trkpt><trkpt lat="40.6253158" lon="14.509718"><ele>114.0</ele><time>2026-04-13T09:01:57.858Z</time></trkpt><trkpt lat="40.6252447" lon="14.5097448"><ele>125.5</ele><time>2026-04-13T09:01:58.856Z</time></trkpt><trkpt lat="40.6251688" lon="14.509771"><ele>137.0</ele><time>2026-04-13T09:01:59.862Z</time></trkpt><trkpt lat="40.6250393" lon="14.5097554"><ele>148.5</ele><time>2026-04-13T09:02:00.872Z</time></trkpt><trkpt lat="40.6248842" lon="14.5097353"><ele>160.0</ele><time>2026-04-13T09:02:01.846Z</time></trkpt><trkpt lat="40.624724" lon="14.5097027"><ele>160.0</ele><time>2026-04-13T09:02:02.863Z</time></trkpt><trkpt lat="40.6245831" lon="14.5096337"><ele>160.0</ele><time>2026-04-13T09:02:03.859Z</time></trkpt><trkpt lat="40.6244661" lon="14.5095211"><ele>160.0</ele><time>2026-04-13T09:02:04.866Z</time></trkpt><trkpt lat="40.6243542" lon="14.5094104"><ele>160.0</ele><time>2026-04-13T09:02:05.862Z</time></trkpt><trkpt lat="40.6242414" lon="14.5093019"><ele>147.25</ele><time>2026-04-13T09:02:06.856Z</time></trkpt><trkpt lat="40.6241301" lon="14.5092799"><ele>134.5</ele><time>2026-04-13T09:02:07.857Z</time></trkpt><trkpt lat="40.6240213" lon="14.5093044"><ele>121.75</ele><time>2026-04-13T09:02:08.851Z</time></trkpt><trkpt lat="40.6239017" lon="14.509367"><ele>109.0</ele><time>2026-04-13T09:02:09.88Z</time></trkpt><trkpt lat="40.6237807" lon="14.5094505"><ele>109.0</ele><time>2026-04-13T09:02:10.857Z</time></trkpt><trkpt lat="40.6236856" lon="14.5095371"><ele>109.0</ele><time>2026-04-13T09:02:11.854Z</time></trkpt><trkpt lat="40.6236296" lon="14.509636"><ele>109.0</ele><time>2026-04-13T09:02:12.874Z</time></trkpt><trkpt lat="40.623608" lon="14.5097455"><ele>109.0</ele><time>2026-04-13T09:02:13.86Z</time></trkpt><trkpt lat="40.6236148" lon="14.5098713"><ele>109.0</ele><time>2026-04-13T09:02:14.865Z</time></trkpt><trkpt lat="40.6236391" lon="14.5100105"><ele>112.0</ele><time>2026-04-13T09:02:15.855Z</time></trkpt><trkpt lat="40.6236524" lon="14.5101519"><ele>115.0</ele><time>2026-04-13T09:02:16.854Z</time></trkpt><trkpt lat="40.6236338" lon="14.5102845"><ele>118.0</ele><time>2026-04-13T09:02:17.846Z</time></trkpt><trkpt lat="40.623582" lon="14.5103888"><ele>121.0</ele><time>2026-04-13T09:02:18.863Z</time></trkpt><trkpt lat="40.6235068" lon="14.5104508"><ele>124.0</ele><time>2026-04-13T09:02:19.871Z</time></trkpt><trkpt lat="40.623426" lon="14.5104556"><ele>124.0</ele><time>2026-04-13T09:02:20.856Z</time></trkpt><trkpt lat="40.6233453" lon="14.510413"><ele>124.0</ele><time>2026-04-13T09:02:21.863Z</time></trkpt><trkpt lat="40.6232507" lon="14.5103631"><ele>124.0</ele><time>2026-04-13T09:02:22.844Z</time></trkpt><trkpt lat="40.6231413" lon="14.510334"><ele>124.0</ele><time>2026-04-13T09:02:23.863Z</time></trkpt><trkpt lat="40.6230411" lon="14.5102787"><ele>124.0</ele><time>2026-04-13T09:02:24.85Z</time></trkpt><trkpt lat="40.6229679" lon="14.5101866"><ele>124.0</ele><time>2026-04-13T09:02:25.859Z</time></trkpt><trkpt lat="40.6229078" lon="14.5100804"><ele>124.0</ele><time>2026-04-13T09:02:26.849Z</time></trkpt><trkpt lat="40.6228452" lon="14.5099731"><ele>124.0</ele><time>2026-04-13T09:02:27.863Z</time></trkpt><trkpt lat="40.6227283" lon="14.5098946"><ele>124.0</ele><time>2026-04-13T09:02:28.862Z</time></trkpt><trkpt lat="40.6226" lon="14.5098376"><ele>126.5</ele><time>2026-04-13T09:02:29.855Z</time></trkpt><trkpt lat="40.6224741" lon="14.5098162"><ele>129.0</ele><time>2026-04-13T09:02:30.868Z</time></trkpt><trkpt lat="40.622345" lon="14.5098414"><ele>131.5</ele><time>2026-04-13T09:02:31.852Z</time></trkpt><trkpt lat="40.6222134" lon="14.5098696"><ele>134.0</ele><time>2026-04-13T09:02:32.864Z</time></trkpt><trkpt lat="40.6220601" lon="14.5099799"><ele>140.66666666666666</ele><time>2026-04-13T09:02:33.864Z</time></trkpt><trkpt lat="40.6218972" lon="14.510116"><ele>147.33333333333334</ele><time>2026-04-13T09:02:34.854Z</time></trkpt><trkpt lat="40.6217224" lon="14.5102805"><ele>154.0</ele><time>2026-04-13T09:02:35.86Z</time></trkpt><trkpt lat="40.6215515" lon="14.5104468"><ele>154.0</ele><time>2026-04-13T09:02:36.861Z</time></trkpt><trkpt lat="40.6213925" lon="14.5105994"><ele>154.0</ele><time>2026-04-13T09:02:37.853Z</time></trkpt><trkpt lat="40.6212313" lon="14.5107561"><ele>154.0</ele><time>2026-04-13T09:02:38.863Z</time></trkpt><trkpt lat="40.621086" lon="14.5109387"><ele>153.33333333333334</ele><time>2026-04-13T09:02:39.874Z</time></trkpt><trkpt lat="40.6209464" lon="14.5111052"><ele>152.66666666666666</ele><time>2026-04-13T09:02:40.868Z</time></trkpt><trkpt lat="40.6208236" lon="14.5112666"><ele>152.0</ele><time>2026-04-13T09:02:41.854Z</time></trkpt><trkpt lat="40.6207205" lon="14.5114425"><ele>152.0</ele><time>2026-04-13T09:02:42.862Z</time></trkpt><trkpt lat="40.6206378" lon="14.5116377"><ele>152.0</ele><time>2026-04-13T09:02:43.857Z</time></trkpt><trkpt lat="40.6205672" lon="14.5118282"><ele>152.0</ele><time>2026-04-13T09:02:44.857Z</time></trkpt><trkpt lat="40.6204743" lon="14.5119633"><ele>147.5</ele><time>2026-04-13T09:02:45.863Z</time></trkpt><trkpt lat="40.6203772" lon="14.512081"><ele>143.0</ele><time>2026-04-13T09:02:46.876Z</time></trkpt><trkpt lat="40.6202772" lon="14.5121797"><ele>138.5</ele><time>2026-04-13T09:02:47.864Z</time></trkpt><trkpt lat="40.6201982" lon="14.5122863"><ele>134.0</ele><time>2026-04-13T09:02:48.852Z</time></trkpt><trkpt lat="40.6201503" lon="14.5124102"><ele>134.0</ele><time>2026-04-13T09:02:49.843Z</time></trkpt><trkpt lat="40.6201127" lon="14.5125244"><ele>134.0</ele><time>2026-04-13T09:02:50.857Z</time></trkpt><trkpt lat="40.6201208" lon="14.5126549"><ele>134.0</ele><time>2026-04-13T09:02:51.868Z</time></trkpt><trkpt lat="40.6201164" lon="14.5127731"><ele>134.0</ele><time>2026-04-13T09:02:52.854Z</time></trkpt><trkpt lat="40.6200893" lon="14.5128761"><ele>134.0</ele><time>2026-04-13T09:02:53.862Z</time></trkpt><trkpt lat="40.6200592" lon="14.5129674"><ele>134.0</ele><time>2026-04-13T09:02:54.859Z</time></trkpt><trkpt lat="40.6200117" lon="14.5130364"><ele>141.2</ele><time>2026-04-13T09:02:55.867Z</time></trkpt><trkpt lat="40.6199616" lon="14.5130952"><ele>148.4</ele><time>2026-04-13T09:02:56.865Z</time></trkpt><trkpt lat="40.6199072" lon="14.5131625"><ele>155.6</ele><time>2026-04-13T09:02:57.859Z</time></trkpt><trkpt lat="40.6198435" lon="14.5132595"><ele>162.8</ele><time>2026-04-13T09:02:58.867Z</time></trkpt><trkpt lat="40.6197611" lon="14.513389"><ele>170.0</ele><time>2026-04-13T09:02:59.847Z</time></trkpt><trkpt lat="40.6196699" lon="14.5135256"><ele>170.0</ele><time>2026-04-13T09:03:00.869Z</time></trkpt><trkpt lat="40.6195727" lon="14.513665"><ele>170.0</ele><time>2026-04-13T09:03:01.864Z</time></trkpt><trkpt lat="40.6194891" lon="14.5138012"><ele>170.0</ele><time>2026-04-13T09:03:02.867Z</time></trkpt><trkpt lat="40.6194043" lon="14.5139225"><ele>170.0</ele><time>2026-04-13T09:03:03.868Z</time></trkpt><trkpt lat="40.61933" lon="14.514025"><ele>165.0</ele><time>2026-04-13T09:03:04.863Z</time></trkpt><trkpt lat="40.6192643" lon="14.5141082"><ele>160.0</ele><time>2026-04-13T09:03:05.86Z</time></trkpt><trkpt lat="40.6192009" lon="14.5142268"><ele>155.0</ele><time>2026-04-13T09:03:07.867Z</time></trkpt><trkpt lat="40.619206" lon="14.5143322"><ele>150.0</ele><time>2026-04-13T09:03:09.866Z</time></trkpt><trkpt lat="40.6192987" lon="14.5144584"><ele>145.0</ele><time>2026-04-13T09:03:11.866Z</time></trkpt><trkpt lat="40.6193684" lon="14.5145322"><ele>146.8</ele><time>2026-04-13T09:03:12.873Z</time></trkpt><trkpt lat="40.619431" lon="14.5146312"><ele>148.6</ele><time>2026-04-13T09:03:13.847Z</time></trkpt><trkpt lat="40.6194872" lon="14.5147315"><ele>150.4</ele><time>2026-04-13T09:03:14.852Z</time></trkpt><trkpt lat="40.619534" lon="14.5148382"><ele>152.2</ele><time>2026-04-13T09:03:15.857Z</time></trkpt><trkpt lat="40.6195586" lon="14.5149476"><ele>154.0</ele><time>2026-04-13T09:03:16.857Z</time></trkpt><trkpt lat="40.6195486" lon="14.5150532"><ele>154.0</ele><time>2026-04-13T09:03:17.863Z</time></trkpt><trkpt lat="40.6195118" lon="14.5151392"><ele>154.0</ele><time>2026-04-13T09:03:18.859Z</time></trkpt><trkpt lat="40.6194531" lon="14.5152068"><ele>154.0</ele><time>2026-04-13T09:03:19.852Z</time></trkpt><trkpt lat="40.6193708" lon="14.5152752"><ele>154.0</ele><time>2026-04-13T09:03:20.86Z</time></trkpt><trkpt lat="40.6192812" lon="14.5153456"><ele>154.0</ele><time>2026-04-13T09:03:21.85Z</time></trkpt><trkpt lat="40.6191917" lon="14.5154042"><ele>159.5</ele><time>2026-04-13T09:03:22.852Z</time></trkpt><trkpt lat="40.6190963" lon="14.5154546"><ele>165.0</ele><time>2026-04-13T09:03:23.847Z</time></trkpt><trkpt lat="40.618988" lon="14.515501"><ele>170.5</ele><time>2026-04-13T09:03:24.861Z</time></trkpt><trkpt lat="40.618859" lon="14.5155438"><ele>176.0</ele><time>2026-04-13T09:03:25.849Z</time></trkpt><trkpt lat="40.6187237" lon="14.5155874"><ele>167.0</ele><time>2026-04-13T09:03:26.849Z</time></trkpt><trkpt lat="40.6185869" lon="14.5155866"><ele>158.0</ele><time>2026-04-13T09:03:27.85Z</time></trkpt><trkpt lat="40.6184761" lon="14.515587"><ele>149.0</ele><time>2026-04-13T09:03:28.852Z</time></trkpt><trkpt lat="40.6183879" lon="14.5155889"><ele>140.0</ele><time>2026-04-13T09:03:29.854Z</time></trkpt><trkpt lat="40.6183418" lon="14.515666"><ele>131.0</ele><time>2026-04-13T09:03:30.866Z</time></trkpt><trkpt lat="40.6183312" lon="14.5157642"><ele>131.0</ele><time>2026-04-13T09:03:31.884Z</time></trkpt><trkpt lat="40.6183439" lon="14.5158811"><ele>131.0</ele><time>2026-04-13T09:03:32.86Z</time></trkpt><trkpt lat="40.6183835" lon="14.5159973"><ele>131.0</ele><time>2026-04-13T09:03:33.847Z</time></trkpt><trkpt lat="40.6184254" lon="14.516105"><ele>131.0</ele><time>2026-04-13T09:03:34.846Z</time></trkpt><trkpt lat="40.6185046" lon="14.5161908"><ele>131.0</ele><time>2026-04-13T09:03:35.866Z</time></trkpt><trkpt lat="40.6185698" lon="14.5162994"><ele>134.5</ele><time>2026-04-13T09:03:36.855Z</time></trkpt><trkpt lat="40.6186084" lon="14.5164123"><ele>138.0</ele><time>2026-04-13T09:03:37.866Z</time></trkpt><trkpt lat="40.6186134" lon="14.5165121"><ele>141.5</ele><time>2026-04-13T09:03:38.874Z</time></trkpt><trkpt lat="40.6186095" lon="14.5165955"><ele>145.0</ele><time>2026-04-13T09:03:39.871Z</time></trkpt><trkpt lat="40.618541" lon="14.5166336"><ele>148.5</ele><time>2026-04-13T09:03:40.844Z</time></trkpt><trkpt lat="40.6184496" lon="14.516651"><ele>152.0</ele><time>2026-04-13T09:03:41.866Z</time></trkpt><trkpt lat="40.6183442" lon="14.5166662"><ele>152.0</ele><time>2026-04-13T09:03:42.858Z</time></trkpt><trkpt lat="40.6181994" lon="14.5166862"><ele>152.0</ele><time>2026-04-13T09:03:43.859Z</time></trkpt><trkpt lat="40.6180476" lon="14.5167146"><ele>152.0</ele><time>2026-04-13T09:03:44.854Z</time></trkpt><trkpt lat="40.6179405" lon="14.5167592"><ele>152.0</ele><time>2026-04-13T09:03:45.852Z</time></trkpt><trkpt lat="40.6178767" lon="14.516819"><ele>152.0</ele><time>2026-04-13T09:03:46.883Z</time></trkpt><trkpt lat="40.6178211" lon="14.516881"><ele>152.0</ele><time>2026-04-13T09:03:47.865Z</time></trkpt><trkpt lat="40.6178182" lon="14.5169849"><ele>152.0</ele><time>2026-04-13T09:03:48.862Z</time></trkpt><trkpt lat="40.6178399" lon="14.5170972"><ele>152.0</ele><time>2026-04-13T09:03:49.858Z</time></trkpt><trkpt lat="40.6178727" lon="14.5172354"><ele>152.0</ele><time>2026-04-13T09:03:50.861Z</time></trkpt><trkpt lat="40.6179529" lon="14.5173739"><ele>154.5</ele><time>2026-04-13T09:03:51.867Z</time></trkpt><trkpt lat="40.6180403" lon="14.5175238"><ele>157.0</ele><time>2026-04-13T09:03:52.864Z</time></trkpt><trkpt lat="40.6181104" lon="14.5176891"><ele>159.5</ele><time>2026-04-13T09:03:53.859Z</time></trkpt><trkpt lat="40.6181719" lon="14.5178666"><ele>162.0</ele><time>2026-04-13T09:03:54.842Z</time></trkpt><trkpt lat="40.6181913" lon="14.5180753"><ele>163.6</ele><time>2026-04-13T09:03:55.881Z</time></trkpt><trkpt lat="40.618208" lon="14.5182641"><ele>165.2</ele><time>2026-04-13T09:03:56.852Z</time></trkpt><trkpt lat="40.6182183" lon="14.5184127"><ele>166.8</ele><time>2026-04-13T09:03:57.861Z</time></trkpt><trkpt lat="40.618206" lon="14.5185277"><ele>168.4</ele><time>2026-04-13T09:03:58.859Z</time></trkpt><trkpt lat="40.6181662" lon="14.5186136"><ele>170.0</ele><time>2026-04-13T09:03:59.854Z</time></trkpt><trkpt lat="40.6180996" lon="14.5186789"><ele>171.8</ele><time>2026-04-13T09:04:00.867Z</time></trkpt><trkpt lat="40.6180217" lon="14.5187507"><ele>173.6</ele><time>2026-04-13T09:04:01.853Z</time></trkpt><trkpt lat="40.6179368" lon="14.5188548"><ele>175.39999999999998</ele><time>2026-04-13T09:04:02.856Z</time></trkpt><trkpt lat="40.6178819" lon="14.5189647"><ele>177.2</ele><time>2026-04-13T09:04:03.857Z</time></trkpt><trkpt lat="40.6178729" lon="14.5190598"><ele>179.0</ele><time>2026-04-13T09:04:04.854Z</time></trkpt><trkpt lat="40.6179336" lon="14.5191723"><ele>179.0</ele><time>2026-04-13T09:04:06.853Z</time></trkpt><trkpt lat="40.618016" lon="14.5192015"><ele>179.0</ele><time>2026-04-13T09:04:07.859Z</time></trkpt><trkpt lat="40.6181189" lon="14.5192098"><ele>179.0</ele><time>2026-04-13T09:04:08.844Z</time></trkpt><trkpt lat="40.6182278" lon="14.5192323"><ele>179.0</ele><time>2026-04-13T09:04:09.864Z</time></trkpt><trkpt lat="40.6183295" lon="14.5192958"><ele>179.0</ele><time>2026-04-13T09:04:10.858Z</time></trkpt><trkpt lat="40.6184281" lon="14.5193677"><ele>179.0</ele><time>2026-04-13T09:04:11.86Z</time></trkpt><trkpt lat="40.6185006" lon="14.5195092"><ele>179.0</ele><time>2026-04-13T09:04:12.87Z</time></trkpt><trkpt lat="40.6185673" lon="14.5196631"><ele>179.0</ele><time>2026-04-13T09:04:13.843Z</time></trkpt><trkpt lat="40.6186168" lon="14.5198031"><ele>179.0</ele><time>2026-04-13T09:04:14.881Z</time></trkpt><trkpt lat="40.6186319" lon="14.5199233"><ele>179.0</ele><time>2026-04-13T09:04:15.859Z</time></trkpt><trkpt lat="40.6186055" lon="14.5200272"><ele>179.0</ele><time>2026-04-13T09:04:16.865Z</time></trkpt><trkpt lat="40.618547" lon="14.5201047"><ele>179.0</ele><time>2026-04-13T09:04:17.865Z</time></trkpt><trkpt lat="40.6184659" lon="14.5201606"><ele>179.0</ele><time>2026-04-13T09:04:18.857Z</time></trkpt><trkpt lat="40.6183544" lon="14.5202065"><ele>179.0</ele><time>2026-04-13T09:04:19.853Z</time></trkpt><trkpt lat="40.6182187" lon="14.5202623"><ele>181.75</ele><time>2026-04-13T09:04:20.842Z</time></trkpt><trkpt lat="40.6180717" lon="14.5203336"><ele>184.5</ele><time>2026-04-13T09:04:21.873Z</time></trkpt><trkpt lat="40.6179356" lon="14.5204047"><ele>187.25</ele><time>2026-04-13T09:04:22.852Z</time></trkpt><trkpt lat="40.6178127" lon="14.5204485"><ele>190.0</ele><time>2026-04-13T09:04:23.855Z</time></trkpt><trkpt lat="40.6176932" lon="14.5204612"><ele>183.75</ele><time>2026-04-13T09:04:24.848Z</time></trkpt><trkpt lat="40.6175638" lon="14.5204562"><ele>177.5</ele><time>2026-04-13T09:04:25.862Z</time></trkpt><trkpt lat="40.6174183" lon="14.520429"><ele>171.25</ele><time>2026-04-13T09:04:26.855Z</time></trkpt><trkpt lat="40.617249" lon="14.520396"><ele>165.0</ele><time>2026-04-13T09:04:27.86Z</time></trkpt><trkpt lat="40.6170781" lon="14.5203507"><ele>154.66666666666666</ele><time>2026-04-13T09:04:28.858Z</time></trkpt><trkpt lat="40.6169164" lon="14.5203009"><ele>144.33333333333331</ele><time>2026-04-13T09:04:29.844Z</time></trkpt><trkpt lat="40.6167697" lon="14.5202473"><ele>134.0</ele><time>2026-04-13T09:04:30.867Z</time></trkpt><trkpt lat="40.6166416" lon="14.5201875"><ele>134.0</ele><time>2026-04-13T09:04:31.864Z</time></trkpt><trkpt lat="40.6165385" lon="14.5201343"><ele>134.0</ele><time>2026-04-13T09:04:32.864Z</time></trkpt><trkpt lat="40.6164495" lon="14.5201135"><ele>134.0</ele><time>2026-04-13T09:04:33.864Z</time></trkpt><trkpt lat="40.6163729" lon="14.5201379"><ele>134.0</ele><time>2026-04-13T09:04:34.859Z</time></trkpt><trkpt lat="40.6163002" lon="14.5202025"><ele>134.0</ele><time>2026-04-13T09:04:35.845Z</time></trkpt><trkpt lat="40.6162172" lon="14.5202941"><ele>131.25</ele><time>2026-04-13T09:04:36.858Z</time></trkpt><trkpt lat="40.6161363" lon="14.520412"><ele>128.5</ele><time>2026-04-13T09:04:37.862Z</time></trkpt><trkpt lat="40.6160743" lon="14.5205469"><ele>125.75</ele><time>2026-04-13T09:04:38.858Z</time></trkpt><trkpt lat="40.6160318" lon="14.5206803"><ele>123.0</ele><time>2026-04-13T09:04:39.862Z</time></trkpt><trkpt lat="40.6160156" lon="14.5208132"><ele>123.0</ele><time>2026-04-13T09:04:40.853Z</time></trkpt><trkpt lat="40.6160264" lon="14.5209462"><ele>123.0</ele><time>2026-04-13T09:04:41.864Z</time></trkpt><trkpt lat="40.6160628" lon="14.5210835"><ele>123.0</ele><time>2026-04-13T09:04:42.864Z</time></trkpt><trkpt lat="40.6161161" lon="14.5212294"><ele>123.0</ele><time>2026-04-13T09:04:43.86Z</time></trkpt><trkpt lat="40.6161725" lon="14.5213792"><ele>132.0</ele><time>2026-04-13T09:04:44.85Z</time></trkpt><trkpt lat="40.6162279" lon="14.5215223"><ele>141.0</ele><time>2026-04-13T09:04:45.857Z</time></trkpt><trkpt lat="40.6162722" lon="14.5216493"><ele>150.0</ele><time>2026-04-13T09:04:46.855Z</time></trkpt><trkpt lat="40.6163122" lon="14.5217709"><ele>159.0</ele><time>2026-04-13T09:04:47.85Z</time></trkpt><trkpt lat="40.6163491" lon="14.5218946"><ele>168.0</ele><time>2026-04-13T09:04:48.856Z</time></trkpt><trkpt lat="40.6163866" lon="14.5220454"><ele>167.5</ele><time>2026-04-13T09:04:49.865Z</time></trkpt><trkpt lat="40.6164244" lon="14.52221"><ele>167.0</ele><time>2026-04-13T09:04:50.85Z</time></trkpt><trkpt lat="40.6164571" lon="14.5223762"><ele>166.5</ele><time>2026-04-13T09:04:51.844Z</time></trkpt><trkpt lat="40.6164895" lon="14.5225235"><ele>166.0</ele><time>2026-04-13T09:04:52.842Z</time></trkpt><trkpt lat="40.6165168" lon="14.5226425"><ele>166.0</ele><time>2026-04-13T09:04:53.866Z</time></trkpt><trkpt lat="40.616539" lon="14.5227469"><ele>166.0</ele><time>2026-04-13T09:04:54.859Z</time></trkpt><trkpt lat="40.6165524" lon="14.5228405"><ele>166.0</ele><time>2026-04-13T09:04:55.857Z</time></trkpt><trkpt lat="40.6165448" lon="14.5229283"><ele>166.0</ele><time>2026-04-13T09:04:56.853Z</time></trkpt><trkpt lat="40.6164541" lon="14.5230361"><ele>166.0</ele><time>2026-04-13T09:04:58.839Z</time></trkpt><trkpt lat="40.6163828" lon="14.5230447"><ele>166.0</ele><time>2026-04-13T09:04:59.855Z</time></trkpt><trkpt lat="40.6163101" lon="14.5230469"><ele>162.75</ele><time>2026-04-13T09:05:00.861Z</time></trkpt><trkpt lat="40.6162108" lon="14.5230453"><ele>159.5</ele><time>2026-04-13T09:05:01.847Z</time></trkpt><trkpt lat="40.616085" lon="14.5230711"><ele>156.25</ele><time>2026-04-13T09:05:02.853Z</time></trkpt><trkpt lat="40.6159452" lon="14.5231042"><ele>153.0</ele><time>2026-04-13T09:05:03.856Z</time></trkpt><trkpt lat="40.6158136" lon="14.5231455"><ele>153.0</ele><time>2026-04-13T09:05:04.869Z</time></trkpt><trkpt lat="40.6156983" lon="14.5231949"><ele>153.0</ele><time>2026-04-13T09:05:05.863Z</time></trkpt><trkpt lat="40.6156016" lon="14.5232407"><ele>153.0</ele><time>2026-04-13T09:05:06.853Z</time></trkpt><trkpt lat="40.6155212" lon="14.5232742"><ele>153.0</ele><time>2026-04-13T09:05:07.847Z</time></trkpt><trkpt lat="40.6154559" lon="14.5232886"><ele>153.0</ele><time>2026-04-13T09:05:08.859Z</time></trkpt><trkpt lat="40.6153751" lon="14.523222"><ele>154.4</ele><time>2026-04-13T09:05:10.87Z</time></trkpt><trkpt lat="40.6153175" lon="14.5231044"><ele>155.8</ele><time>2026-04-13T09:05:12.86Z</time></trkpt><trkpt lat="40.6152763" lon="14.5230414"><ele>157.2</ele><time>2026-04-13T09:05:13.848Z</time></trkpt><trkpt lat="40.6152219" lon="14.5229842"><ele>158.6</ele><time>2026-04-13T09:05:14.854Z</time></trkpt><trkpt lat="40.6151367" lon="14.5229063"><ele>160.0</ele><time>2026-04-13T09:05:15.869Z</time></trkpt><trkpt lat="40.6150412" lon="14.5228066"><ele>153.4</ele><time>2026-04-13T09:05:16.86Z</time></trkpt><trkpt lat="40.6149652" lon="14.5226888"><ele>146.8</ele><time>2026-04-13T09:05:17.86Z</time></trkpt><trkpt lat="40.6149123" lon="14.5225558"><ele>140.2</ele><time>2026-04-13T09:05:18.845Z</time></trkpt><trkpt lat="40.6148656" lon="14.5224158"><ele>133.6</ele><time>2026-04-13T09:05:19.855Z</time></trkpt><trkpt lat="40.6148241" lon="14.522306"><ele>127.0</ele><time>2026-04-13T09:05:20.859Z</time></trkpt><trkpt lat="40.6147938" lon="14.522223"><ele>127.0</ele><time>2026-04-13T09:05:21.857Z</time></trkpt><trkpt lat="40.6147537" lon="14.5221543"><ele>126.99999999999999</ele><time>2026-04-13T09:05:22.846Z</time></trkpt><trkpt lat="40.6146868" lon="14.5221323"><ele>126.99999999999999</ele><time>2026-04-13T09:05:23.85Z</time></trkpt><trkpt lat="40.6145982" lon="14.5221748"><ele>127.0</ele><time>2026-04-13T09:05:24.852Z</time></trkpt><trkpt lat="40.6145033" lon="14.5222423"><ele>127.0</ele><time>2026-04-13T09:05:25.867Z</time></trkpt><trkpt lat="40.6143968" lon="14.5223008"><ele>127.6</ele><time>2026-04-13T09:05:26.862Z</time></trkpt><trkpt lat="40.6142827" lon="14.5223432"><ele>128.2</ele><time>2026-04-13T09:05:27.842Z</time></trkpt><trkpt lat="40.6141748" lon="14.5223814"><ele>128.8</ele><time>2026-04-13T09:05:28.857Z</time></trkpt><trkpt lat="40.61407" lon="14.5224127"><ele>129.4</ele><time>2026-04-13T09:05:29.875Z</time></trkpt><trkpt lat="40.6139851" lon="14.5224309"><ele>130.0</ele><time>2026-04-13T09:05:30.87Z</time></trkpt><trkpt lat="40.613879" lon="14.5224474"><ele>130.0</ele><time>2026-04-13T09:05:31.845Z</time></trkpt><trkpt lat="40.6137603" lon="14.5224405"><ele>130.0</ele><time>2026-04-13T09:05:32.86Z</time></trkpt><trkpt lat="40.6136445" lon="14.5224103"><ele>130.0</ele><time>2026-04-13T09:05:33.868Z</time></trkpt><trkpt lat="40.6135387" lon="14.5224227"><ele>130.0</ele><time>2026-04-13T09:05:34.853Z</time></trkpt><trkpt lat="40.6134265" lon="14.5224459"><ele>127.75</ele><time>2026-04-13T09:05:35.857Z</time></trkpt><trkpt lat="40.6133008" lon="14.5224755"><ele>125.5</ele><time>2026-04-13T09:05:36.861Z</time></trkpt><trkpt lat="40.6131731" lon="14.5225084"><ele>123.25</ele><time>2026-04-13T09:05:37.847Z</time></trkpt><trkpt lat="40.6130519" lon="14.5225541"><ele>121.0</ele><time>2026-04-13T09:05:38.868Z</time></trkpt><trkpt lat="40.6129299" lon="14.5225999"><ele>117.25</ele><time>2026-04-13T09:05:39.846Z</time></trkpt><trkpt lat="40.6128093" lon="14.5226482"><ele>113.5</ele><time>2026-04-13T09:05:40.86Z</time></trkpt><trkpt lat="40.6126954" lon="14.5226971"><ele>109.75</ele><time>2026-04-13T09:05:41.872Z</time></trkpt><trkpt lat="40.612589" lon="14.5227527"><ele>106.0</ele><time>2026-04-13T09:05:42.873Z</time></trkpt><trkpt lat="40.6124887" lon="14.5228112"><ele>106.0</ele><time>2026-04-13T09:05:43.866Z</time></trkpt><trkpt lat="40.612389" lon="14.5228723"><ele>106.0</ele><time>2026-04-13T09:05:44.856Z</time></trkpt><trkpt lat="40.6123005" lon="14.5229604"><ele>106.0</ele><time>2026-04-13T09:05:45.842Z</time></trkpt><trkpt lat="40.6122087" lon="14.5230573"><ele>106.0</ele><time>2026-04-13T09:05:46.862Z</time></trkpt><trkpt lat="40.6121259" lon="14.523152"><ele>106.0</ele><time>2026-04-13T09:05:47.855Z</time></trkpt><trkpt lat="40.612054" lon="14.5232222"><ele>105.71428571428572</ele><time>2026-04-13T09:05:48.849Z</time></trkpt><trkpt lat="40.6119926" lon="14.523263"><ele>105.42857142857142</ele><time>2026-04-13T09:05:49.857Z</time></trkpt><trkpt lat="40.6119271" lon="14.5233003"><ele>105.14285714285714</ele><time>2026-04-13T09:05:51.863Z</time></trkpt><trkpt lat="40.6118674" lon="14.5233531"><ele>104.85714285714286</ele><time>2026-04-13T09:06:12.86Z</time></trkpt><trkpt lat="40.6118095" lon="14.5234068"><ele>104.57142857142858</ele><time>2026-04-13T09:06:17.858Z</time></trkpt><trkpt lat="40.6117488" lon="14.5234691"><ele>104.28571428571428</ele><time>2026-04-13T09:06:28.855Z</time></trkpt><trkpt lat="40.6116842" lon="14.5235441"><ele>104.0</ele><time>2026-04-13T09:06:32.849Z</time></trkpt><trkpt lat="40.6116211" lon="14.5236304"><ele>103.99999999999999</ele><time>2026-04-13T09:06:34.856Z</time></trkpt><trkpt lat="40.6115669" lon="14.5237093"><ele>104.0</ele><time>2026-04-13T09:06:36.86Z</time></trkpt><trkpt lat="40.6115273" lon="14.5237759"><ele>104.0</ele><time>2026-04-13T09:06:40.867Z</time></trkpt><trkpt lat="40.6114831" lon="14.5238837"><ele>104.0</ele><time>2026-04-13T09:07:03.871Z</time></trkpt><trkpt lat="40.6114372" lon="14.5239832"><ele>103.99999999999999</ele><time>2026-04-13T09:07:05.868Z</time></trkpt><trkpt lat="40.6113709" lon="14.5240823"><ele>104.0</ele><time>2026-04-13T09:07:07.844Z</time></trkpt><trkpt lat="40.6112921" lon="14.5241658"><ele>102.99999999999999</ele><time>2026-04-13T09:07:09.859Z</time></trkpt><trkpt lat="40.6112248" lon="14.5242384"><ele>102.0</ele><time>2026-04-13T09:07:11.876Z</time></trkpt><trkpt lat="40.6111716" lon="14.5243003"><ele>101.0</ele><time>2026-04-13T09:07:14.861Z</time></trkpt><trkpt lat="40.6111329" lon="14.524369"><ele>100.0</ele><time>2026-04-13T09:07:28.858Z</time></trkpt><trkpt lat="40.6110766" lon="14.5244658"><ele>98.99999999999999</ele><time>2026-04-13T09:07:31.87Z</time></trkpt><trkpt lat="40.6110223" lon="14.5245221"><ele>98.0</ele><time>2026-04-13T09:07:33.857Z</time></trkpt><trkpt lat="40.6109459" lon="14.5245628"><ele>101.49999999999999</ele><time>2026-04-13T09:07:35.856Z</time></trkpt><trkpt lat="40.610868" lon="14.5246103"><ele>105.0</ele><time>2026-04-13T09:07:37.852Z</time></trkpt><trkpt lat="40.6108028" lon="14.5246545"><ele>108.5</ele><time>2026-04-13T09:07:39.843Z</time></trkpt><trkpt lat="40.6107386" lon="14.5247008"><ele>112.0</ele><time>2026-04-13T09:07:43.858Z</time></trkpt><trkpt lat="40.6106872" lon="14.524755"><ele>115.49999999999999</ele><time>2026-04-13T09:07:46.86Z</time></trkpt><trkpt lat="40.6106219" lon="14.5248231"><ele>119.0</ele><time>2026-04-13T09:07:49.85Z</time></trkpt><trkpt lat="40.610564" lon="14.5248816"><ele>119.0</ele><time>2026-04-13T09:07:52.864Z</time></trkpt><trkpt lat="40.6105001" lon="14.5249141"><ele>119.0</ele><time>2026-04-13T09:08:01.863Z</time></trkpt><trkpt lat="40.6104281" lon="14.5249484"><ele>119.0</ele><time>2026-04-13T09:08:05.848Z</time></trkpt><trkpt lat="40.6103458" lon="14.5249897"><ele>119.0</ele><time>2026-04-13T09:08:09.865Z</time></trkpt><trkpt lat="40.6102829" lon="14.5250222"><ele>119.0</ele><time>2026-04-13T09:08:11.863Z</time></trkpt><trkpt lat="40.6102182" lon="14.5250579"><ele>119.0</ele><time>2026-04-13T09:08:13.862Z</time></trkpt><trkpt lat="40.6101595" lon="14.5250919"><ele>119.0</ele><time>2026-04-13T09:08:16.86Z</time></trkpt><trkpt lat="40.6100959" lon="14.5251423"><ele>118.83333333333333</ele><time>2026-04-13T09:08:21.855Z</time></trkpt><trkpt lat="40.6100347" lon="14.5252054"><ele>118.66666666666666</ele><time>2026-04-13T09:08:25.856Z</time></trkpt><trkpt lat="40.609988" lon="14.5252822"><ele>118.5</ele><time>2026-04-13T09:08:36.855Z</time></trkpt><trkpt lat="40.6099362" lon="14.525351"><ele>118.33333333333334</ele><time>2026-04-13T09:08:40.859Z</time></trkpt><trkpt lat="40.60988" lon="14.5254001"><ele>118.16666666666667</ele><time>2026-04-13T09:08:48.865Z</time></trkpt><trkpt lat="40.6097951" lon="14.5254202"><ele>118.0</ele><time>2026-04-13T09:08:50.876Z</time></trkpt><trkpt lat="40.6097099" lon="14.5254548"><ele>118.0</ele><time>2026-04-13T09:08:52.863Z</time></trkpt><trkpt lat="40.609603" lon="14.525568"><ele>118.0</ele><time>2026-04-13T09:08:54.853Z</time></trkpt><trkpt lat="40.6095408" lon="14.5256637"><ele>118.0</ele><time>2026-04-13T09:08:55.865Z</time></trkpt><trkpt lat="40.6094667" lon="14.5257774"><ele>118.0</ele><time>2026-04-13T09:08:56.857Z</time></trkpt><trkpt lat="40.609388" lon="14.5259013"><ele>115.5</ele><time>2026-04-13T09:08:57.871Z</time></trkpt><trkpt lat="40.6092871" lon="14.5260325"><ele>113.0</ele><time>2026-04-13T09:08:58.852Z</time></trkpt><trkpt lat="40.609182" lon="14.5261618"><ele>110.5</ele><time>2026-04-13T09:08:59.866Z</time></trkpt><trkpt lat="40.609076" lon="14.526292"><ele>108.0</ele><time>2026-04-13T09:09:00.857Z</time></trkpt><trkpt lat="40.6089692" lon="14.5264264"><ele>108.0</ele><time>2026-04-13T09:09:01.86Z</time></trkpt><trkpt lat="40.6088609" lon="14.5265685"><ele>108.0</ele><time>2026-04-13T09:09:02.862Z</time></trkpt><trkpt lat="40.6087589" lon="14.5267052"><ele>108.0</ele><time>2026-04-13T09:09:03.858Z</time></trkpt><trkpt lat="40.6086676" lon="14.5268235"><ele>108.0</ele><time>2026-04-13T09:09:04.86Z</time></trkpt><trkpt lat="40.6085888" lon="14.5269269"><ele>97.66666666666667</ele><time>2026-04-13T09:09:05.85Z</time></trkpt><trkpt lat="40.6085259" lon="14.5270206"><ele>87.33333333333333</ele><time>2026-04-13T09:09:06.853Z</time></trkpt><trkpt lat="40.6084882" lon="14.5271118"><ele>77.0</ele><time>2026-04-13T09:09:07.87Z</time></trkpt><trkpt lat="40.6084794" lon="14.5272026"><ele>66.66666666666667</ele><time>2026-04-13T09:09:08.864Z</time></trkpt><trkpt lat="40.6084998" lon="14.5272931"><ele>56.333333333333336</ele><time>2026-04-13T09:09:09.866Z</time></trkpt><trkpt lat="40.6085473" lon="14.5273975"><ele>46.0</ele><time>2026-04-13T09:09:10.856Z</time></trkpt><trkpt lat="40.6085966" lon="14.5275067"><ele>34.5</ele><time>2026-04-13T09:09:11.86Z</time></trkpt><trkpt lat="40.6086464" lon="14.5276483"><ele>23.0</ele><time>2026-04-13T09:09:12.852Z</time></trkpt><trkpt lat="40.6086678" lon="14.5278058"><ele>11.5</ele><time>2026-04-13T09:09:13.851Z</time></trkpt><trkpt lat="40.6086567" lon="14.5279706"><ele>0.0</ele><time>2026-04-13T09:09:14.842Z</time></trkpt><trkpt lat="40.6086162" lon="14.5281505"><ele>0.0</ele><time>2026-04-13T09:09:15.86Z</time></trkpt><trkpt lat="40.6085649" lon="14.5283372"><ele>0.0</ele><time>2026-04-13T09:09:16.876Z</time></trkpt><trkpt lat="40.6085148" lon="14.5285196"><ele>0.0</ele><time>2026-04-13T09:09:17.855Z</time></trkpt><trkpt lat="40.6084541" lon="14.5286675"><ele>0.0</ele><time>2026-04-13T09:09:18.849Z</time></trkpt><trkpt lat="40.6083602" lon="14.5287734"><ele>31.666666666666668</ele><time>2026-04-13T09:09:19.857Z</time></trkpt><trkpt lat="40.6082697" lon="14.5288972"><ele>63.333333333333336</ele><time>2026-04-13T09:09:20.848Z</time></trkpt><trkpt lat="40.6081849" lon="14.5290359"><ele>95.0</ele><time>2026-04-13T09:09:21.851Z</time></trkpt><trkpt lat="40.6079942" lon="14.529632"><ele>95.0</ele><time>2026-04-13T09:09:25.833Z</time></trkpt><trkpt lat="40.6079868" lon="14.5297635"><ele>95.0</ele><time>2026-04-13T09:09:26.865Z</time></trkpt><trkpt lat="40.6080482" lon="14.529863"><ele>95.0</ele><time>2026-04-13T09:09:27.852Z</time></trkpt><trkpt lat="40.6081605" lon="14.5299495"><ele>95.0</ele><time>2026-04-13T09:09:28.858Z</time></trkpt><trkpt lat="40.6083018" lon="14.5300335"><ele>95.0</ele><time>2026-04-13T09:09:29.852Z</time></trkpt><trkpt lat="40.6084308" lon="14.5301492"><ele>95.0</ele><time>2026-04-13T09:09:30.866Z</time></trkpt><trkpt lat="40.6085443" lon="14.5303109"><ele>95.0</ele><time>2026-04-13T09:09:31.851Z</time></trkpt><trkpt lat="40.6086645" lon="14.5305084"><ele>95.66666666666667</ele><time>2026-04-13T09:09:32.864Z</time></trkpt><trkpt lat="40.6087766" lon="14.5307092"><ele>96.33333333333334</ele><time>2026-04-13T09:09:33.869Z</time></trkpt><trkpt lat="40.6088784" lon="14.5308819"><ele>97.0</ele><time>2026-04-13T09:09:34.871Z</time></trkpt><trkpt lat="40.6089839" lon="14.5310212"><ele>97.0</ele><time>2026-04-13T09:09:35.859Z</time></trkpt><trkpt lat="40.6090899" lon="14.5311549"><ele>97.0</ele><time>2026-04-13T09:09:36.862Z</time></trkpt><trkpt lat="40.6092342" lon="14.5312409"><ele>97.0</ele><time>2026-04-13T09:09:37.846Z</time></trkpt><trkpt lat="40.6093698" lon="14.5313279"><ele>97.25</ele><time>2026-04-13T09:09:38.854Z</time></trkpt><trkpt lat="40.6094865" lon="14.5314222"><ele>97.5</ele><time>2026-04-13T09:09:39.847Z</time></trkpt><trkpt lat="40.6095869" lon="14.5315483"><ele>97.75</ele><time>2026-04-13T09:09:40.863Z</time></trkpt><trkpt lat="40.6096846" lon="14.5317192"><ele>98.0</ele><time>2026-04-13T09:09:41.861Z</time></trkpt><trkpt lat="40.6097846" lon="14.5318959"><ele>92.0</ele><time>2026-04-13T09:09:42.859Z</time></trkpt><trkpt lat="40.6098649" lon="14.5320704"><ele>86.0</ele><time>2026-04-13T09:09:43.858Z</time></trkpt><trkpt lat="40.6099404" lon="14.532203"><ele>80.0</ele><time>2026-04-13T09:09:44.857Z</time></trkpt><trkpt lat="40.6100361" lon="14.5323093"><ele>74.0</ele><time>2026-04-13T09:09:45.858Z</time></trkpt><trkpt lat="40.6101414" lon="14.5324169"><ele>74.0</ele><time>2026-04-13T09:09:46.846Z</time></trkpt><trkpt lat="40.6102255" lon="14.5325266"><ele>74.0</ele><time>2026-04-13T09:09:47.865Z</time></trkpt><trkpt lat="40.6102732" lon="14.5326368"><ele>74.0</ele><time>2026-04-13T09:09:48.855Z</time></trkpt><trkpt lat="40.6102883" lon="14.5327572"><ele>74.0</ele><time>2026-04-13T09:09:49.862Z</time></trkpt><trkpt lat="40.6102845" lon="14.5328999"><ele>74.0</ele><time>2026-04-13T09:09:50.847Z</time></trkpt><trkpt lat="40.6102941" lon="14.5330622"><ele>84.0</ele><time>2026-04-13T09:09:51.866Z</time></trkpt><trkpt lat="40.6103321" lon="14.5332386"><ele>94.0</ele><time>2026-04-13T09:09:52.87Z</time></trkpt><trkpt lat="40.6103726" lon="14.5334219"><ele>104.0</ele><time>2026-04-13T09:09:53.869Z</time></trkpt><trkpt lat="40.6104401" lon="14.533635"><ele>96.75</ele><time>2026-04-13T09:09:54.863Z</time></trkpt><trkpt lat="40.6105032" lon="14.5338285"><ele>89.5</ele><time>2026-04-13T09:09:55.873Z</time></trkpt><trkpt lat="40.6105709" lon="14.533988"><ele>82.25</ele><time>2026-04-13T09:09:56.855Z</time></trkpt><trkpt lat="40.6106546" lon="14.5341283"><ele>75.0</ele><time>2026-04-13T09:09:57.866Z</time></trkpt><trkpt lat="40.6107521" lon="14.5342586"><ele>75.0</ele><time>2026-04-13T09:09:58.858Z</time></trkpt><trkpt lat="40.6108656" lon="14.5343722"><ele>75.0</ele><time>2026-04-13T09:09:59.87Z</time></trkpt><trkpt lat="40.6109828" lon="14.5344759"><ele>75.0</ele><time>2026-04-13T09:10:00.842Z</time></trkpt><trkpt lat="40.6110863" lon="14.5345687"><ele>75.0</ele><time>2026-04-13T09:10:01.86Z</time></trkpt><trkpt lat="40.6111638" lon="14.5346708"><ele>77.5</ele><time>2026-04-13T09:10:02.866Z</time></trkpt><trkpt lat="40.6112145" lon="14.5347948"><ele>80.0</ele><time>2026-04-13T09:10:03.862Z</time></trkpt><trkpt lat="40.6112561" lon="14.5349465"><ele>82.5</ele><time>2026-04-13T09:10:04.858Z</time></trkpt><trkpt lat="40.6113001" lon="14.535135"><ele>85.0</ele><time>2026-04-13T09:10:05.852Z</time></trkpt><trkpt lat="40.6113445" lon="14.5353397"><ele>84.0</ele><time>2026-04-13T09:10:06.862Z</time></trkpt><trkpt lat="40.6113875" lon="14.5355245"><ele>83.0</ele><time>2026-04-13T09:10:07.862Z</time></trkpt><trkpt lat="40.6114249" lon="14.5356903"><ele>82.0</ele><time>2026-04-13T09:10:08.868Z</time></trkpt><trkpt lat="40.6114412" lon="14.5358428"><ele>81.0</ele><time>2026-04-13T09:10:09.865Z</time></trkpt><trkpt lat="40.6114382" lon="14.5359973"><ele>81.0</ele><time>2026-04-13T09:10:10.872Z</time></trkpt><trkpt lat="40.611436" lon="14.5361608"><ele>81.0</ele><time>2026-04-13T09:10:11.855Z</time></trkpt><trkpt lat="40.6114719" lon="14.5363495"><ele>81.0</ele><time>2026-04-13T09:10:12.866Z</time></trkpt><trkpt lat="40.6115269" lon="14.5365651"><ele>81.0</ele><time>2026-04-13T09:10:13.849Z</time></trkpt><trkpt lat="40.6115879" lon="14.5368011"><ele>76.25</ele><time>2026-04-13T09:10:14.856Z</time></trkpt><trkpt lat="40.6116414" lon="14.5370149"><ele>71.5</ele><time>2026-04-13T09:10:15.862Z</time></trkpt><trkpt lat="40.6116889" lon="14.5371994"><ele>66.75</ele><time>2026-04-13T09:10:16.86Z</time></trkpt><trkpt lat="40.6117304" lon="14.5373401"><ele>62.0</ele><time>2026-04-13T09:10:17.856Z</time></trkpt><trkpt lat="40.6117804" lon="14.5374373"><ele>64.5</ele><time>2026-04-13T09:10:18.861Z</time></trkpt><trkpt lat="40.611849" lon="14.5374954"><ele>67.0</ele><time>2026-04-13T09:10:19.862Z</time></trkpt><trkpt lat="40.6119466" lon="14.5375288"><ele>69.5</ele><time>2026-04-13T09:10:20.872Z</time></trkpt><trkpt lat="40.6120618" lon="14.5375702"><ele>72.0</ele><time>2026-04-13T09:10:21.862Z</time></trkpt><trkpt lat="40.6122043" lon="14.537624"><ele>72.0</ele><time>2026-04-13T09:10:22.864Z</time></trkpt><trkpt lat="40.612329" lon="14.537745"><ele>72.0</ele><time>2026-04-13T09:10:23.843Z</time></trkpt><trkpt lat="40.612444" lon="14.5378575"><ele>72.0</ele><time>2026-04-13T09:10:24.856Z</time></trkpt><trkpt lat="40.612534" lon="14.5379332"><ele>72.0</ele><time>2026-04-13T09:10:25.858Z</time></trkpt><trkpt lat="40.6126123" lon="14.5379593"><ele>75.0</ele><time>2026-04-13T09:10:26.869Z</time></trkpt><trkpt lat="40.6126852" lon="14.5379768"><ele>78.0</ele><time>2026-04-13T09:10:27.851Z</time></trkpt><trkpt lat="40.6127566" lon="14.5379196"><ele>81.0</ele><time>2026-04-13T09:10:28.859Z</time></trkpt><trkpt lat="40.6128562" lon="14.5378833"><ele>84.0</ele><time>2026-04-13T09:10:29.853Z</time></trkpt><trkpt lat="40.6129692" lon="14.5378556"><ele>87.0</ele><time>2026-04-13T09:10:30.869Z</time></trkpt><trkpt lat="40.6131108" lon="14.5378873"><ele>86.0</ele><time>2026-04-13T09:10:31.865Z</time></trkpt><trkpt lat="40.6132546" lon="14.5379274"><ele>85.0</ele><time>2026-04-13T09:10:32.868Z</time></trkpt><trkpt lat="40.6133943" lon="14.5379684"><ele>84.0</ele><time>2026-04-13T09:10:33.856Z</time></trkpt><trkpt lat="40.6135333" lon="14.5380246"><ele>83.0</ele><time>2026-04-13T09:10:34.858Z</time></trkpt><trkpt lat="40.61368" lon="14.538108"><ele>83.0</ele><time>2026-04-13T09:10:35.854Z</time></trkpt><trkpt lat="40.6138386" lon="14.5381894"><ele>83.0</ele><time>2026-04-13T09:10:36.855Z</time></trkpt><trkpt lat="40.6142569" lon="14.5383725"><ele>83.0</ele><time>2026-04-13T09:10:39.853Z</time></trkpt><trkpt lat="40.6143781" lon="14.5384078"><ele>83.0</ele><time>2026-04-13T09:10:40.859Z</time></trkpt><trkpt lat="40.6144981" lon="14.5384609"><ele>83.0</ele><time>2026-04-13T09:10:41.857Z</time></trkpt><trkpt lat="40.6146136" lon="14.5384832"><ele>83.0</ele><time>2026-04-13T09:10:42.849Z</time></trkpt><trkpt lat="40.614716" lon="14.5385264"><ele>85.4</ele><time>2026-04-13T09:10:43.845Z</time></trkpt><trkpt lat="40.6147947" lon="14.5386013"><ele>87.80000000000001</ele><time>2026-04-13T09:10:44.871Z</time></trkpt><trkpt lat="40.6148821" lon="14.538729"><ele>90.2</ele><time>2026-04-13T09:10:45.858Z</time></trkpt><trkpt lat="40.6149599" lon="14.5388434"><ele>92.6</ele><time>2026-04-13T09:10:46.858Z</time></trkpt><trkpt lat="40.6149888" lon="14.5389345"><ele>95.0</ele><time>2026-04-13T09:10:47.861Z</time></trkpt><trkpt lat="40.6150139" lon="14.539026"><ele>95.0</ele><time>2026-04-13T09:10:48.866Z</time></trkpt><trkpt lat="40.6149297" lon="14.5391179"><ele>95.0</ele><time>2026-04-13T09:10:50.843Z</time></trkpt><trkpt lat="40.6148673" lon="14.5391608"><ele>95.0</ele><time>2026-04-13T09:10:51.844Z</time></trkpt><trkpt lat="40.6148168" lon="14.5392345"><ele>95.0</ele><time>2026-04-13T09:10:52.851Z</time></trkpt><trkpt lat="40.6147772" lon="14.5393367"><ele>95.0</ele><time>2026-04-13T09:10:53.857Z</time></trkpt><trkpt lat="40.6147325" lon="14.5394393"><ele>95.0</ele><time>2026-04-13T09:10:54.862Z</time></trkpt><trkpt lat="40.6146537" lon="14.5395047"><ele>89.6</ele><time>2026-04-13T09:10:55.853Z</time></trkpt><trkpt lat="40.6145548" lon="14.5395449"><ele>84.2</ele><time>2026-04-13T09:10:56.874Z</time></trkpt><trkpt lat="40.6144434" lon="14.5395794"><ele>78.8</ele><time>2026-04-13T09:10:57.843Z</time></trkpt><trkpt lat="40.6143291" lon="14.5396138"><ele>73.4</ele><time>2026-04-13T09:10:58.858Z</time></trkpt><trkpt lat="40.6142402" lon="14.5396345"><ele>68.0</ele><time>2026-04-13T09:10:59.85Z</time></trkpt><trkpt lat="40.6141778" lon="14.5396468"><ele>68.0</ele><time>2026-04-13T09:11:00.866Z</time></trkpt><trkpt lat="40.6141086" lon="14.5396583"><ele>68.0</ele><time>2026-04-13T09:11:03.85Z</time></trkpt><trkpt lat="40.6139611" lon="14.5397004"><ele>68.0</ele><time>2026-04-13T09:11:15.874Z</time></trkpt><trkpt lat="40.613855" lon="14.5397221"><ele>68.0</ele><time>2026-04-13T09:11:17.849Z</time></trkpt><trkpt lat="40.6137477" lon="14.5397636"><ele>68.0</ele><time>2026-04-13T09:11:19.877Z</time></trkpt><trkpt lat="40.613655" lon="14.5398495"><ele>62.199999999999996</ele><time>2026-04-13T09:11:21.856Z</time></trkpt><trkpt lat="40.6135867" lon="14.5400098"><ele>56.4</ele><time>2026-04-13T09:11:23.863Z</time></trkpt><trkpt lat="40.6135621" lon="14.5400934"><ele>50.599999999999994</ele><time>2026-04-13T09:11:24.853Z</time></trkpt><trkpt lat="40.6135603" lon="14.5401881"><ele>44.8</ele><time>2026-04-13T09:11:25.868Z</time></trkpt><trkpt lat="40.6135921" lon="14.5403033"><ele>39.0</ele><time>2026-04-13T09:11:26.853Z</time></trkpt><trkpt lat="40.6136277" lon="14.5404122"><ele>46.6</ele><time>2026-04-13T09:11:27.865Z</time></trkpt><trkpt lat="40.6136778" lon="14.5405146"><ele>54.2</ele><time>2026-04-13T09:11:28.856Z</time></trkpt><trkpt lat="40.6137261" lon="14.5406135"><ele>61.800000000000004</ele><time>2026-04-13T09:11:29.858Z</time></trkpt><trkpt lat="40.6137721" lon="14.5407156"><ele>69.4</ele><time>2026-04-13T09:11:30.859Z</time></trkpt><trkpt lat="40.6138054" lon="14.540803"><ele>77.0</ele><time>2026-04-13T09:11:31.855Z</time></trkpt><trkpt lat="40.61382" lon="14.5409608"><ele>77.0</ele><time>2026-04-13T09:11:33.859Z</time></trkpt><trkpt lat="40.6138076" lon="14.541111"><ele>77.0</ele><time>2026-04-13T09:11:35.867Z</time></trkpt><trkpt lat="40.6138053" lon="14.5411963"><ele>77.0</ele><time>2026-04-13T09:11:36.87Z</time></trkpt><trkpt lat="40.6138114" lon="14.5412915"><ele>77.0</ele><time>2026-04-13T09:11:37.864Z</time></trkpt><trkpt lat="40.6138193" lon="14.5413824"><ele>77.0</ele><time>2026-04-13T09:11:38.85Z</time></trkpt><trkpt lat="40.6138391" lon="14.5414636"><ele>77.0</ele><time>2026-04-13T09:11:39.858Z</time></trkpt><trkpt lat="40.6138664" lon="14.5415496"><ele>72.85714285714286</ele><time>2026-04-13T09:11:40.866Z</time></trkpt><trkpt lat="40.6138961" lon="14.5416412"><ele>68.71428571428571</ele><time>2026-04-13T09:11:41.867Z</time></trkpt><trkpt lat="40.6139114" lon="14.541728"><ele>64.57142857142857</ele><time>2026-04-13T09:11:42.873Z</time></trkpt><trkpt lat="40.6139124" lon="14.541812"><ele>60.42857142857143</ele><time>2026-04-13T09:11:43.878Z</time></trkpt><trkpt lat="40.6139206" lon="14.5418996"><ele>56.285714285714285</ele><time>2026-04-13T09:11:44.867Z</time></trkpt><trkpt lat="40.6139449" lon="14.5419802"><ele>52.14285714285714</ele><time>2026-04-13T09:11:45.86Z</time></trkpt><trkpt lat="40.6139883" lon="14.5420505"><ele>48.0</ele><time>2026-04-13T09:11:46.871Z</time></trkpt><trkpt lat="40.6140431" lon="14.5421151"><ele>48.0</ele><time>2026-04-13T09:11:47.875Z</time></trkpt><trkpt lat="40.614108" lon="14.5421925"><ele>48.0</ele><time>2026-04-13T09:11:48.862Z</time></trkpt><trkpt lat="40.6142174" lon="14.5422925"><ele>48.0</ele><time>2026-04-13T09:11:49.855Z</time></trkpt><trkpt lat="40.6143524" lon="14.5424112"><ele>48.0</ele><time>2026-04-13T09:11:50.866Z</time></trkpt><trkpt lat="40.614486" lon="14.542535"><ele>48.0</ele><time>2026-04-13T09:11:51.85Z</time></trkpt><trkpt lat="40.6146054" lon="14.5426293"><ele>48.0</ele><time>2026-04-13T09:11:52.858Z</time></trkpt><trkpt lat="40.6147051" lon="14.5427053"><ele>48.0</ele><time>2026-04-13T09:11:53.849Z</time></trkpt><trkpt lat="40.6147822" lon="14.5427725"><ele>48.0</ele><time>2026-04-13T09:11:54.877Z</time></trkpt><trkpt lat="40.6148329" lon="14.5428505"><ele>48.0</ele><time>2026-04-13T09:11:55.86Z</time></trkpt><trkpt lat="40.6148579" lon="14.5429403"><ele>48.0</ele><time>2026-04-13T09:11:56.852Z</time></trkpt><trkpt lat="40.6147978" lon="14.5430914"><ele>48.0</ele><time>2026-04-13T09:11:58.868Z</time></trkpt><trkpt lat="40.614709" lon="14.5431968"><ele>48.0</ele><time>2026-04-13T09:11:59.877Z</time></trkpt><trkpt lat="40.6146238" lon="14.5433271"><ele>48.0</ele><time>2026-04-13T09:12:00.86Z</time></trkpt><trkpt lat="40.6145245" lon="14.5434923"><ele>48.0</ele><time>2026-04-13T09:12:01.855Z</time></trkpt><trkpt lat="40.6144368" lon="14.5436568"><ele>48.0</ele><time>2026-04-13T09:12:02.861Z</time></trkpt><trkpt lat="40.6143716" lon="14.5438053"><ele>48.0</ele><time>2026-04-13T09:12:03.852Z</time></trkpt><trkpt lat="40.6143229" lon="14.5439676"><ele>48.0</ele><time>2026-04-13T09:12:04.872Z</time></trkpt><trkpt lat="40.6142782" lon="14.5441289"><ele>48.0</ele><time>2026-04-13T09:12:05.862Z</time></trkpt><trkpt lat="40.6142366" lon="14.544268"><ele>48.0</ele><time>2026-04-13T09:12:06.87Z</time></trkpt><trkpt lat="40.6142176" lon="14.5443748"><ele>48.0</ele><time>2026-04-13T09:12:07.847Z</time></trkpt><trkpt lat="40.6142026" lon="14.5444684"><ele>48.0</ele><time>2026-04-13T09:12:08.888Z</time></trkpt><trkpt lat="40.6142557" lon="14.5445368"><ele>48.0</ele><time>2026-04-13T09:12:09.856Z</time></trkpt><trkpt lat="40.6143379" lon="14.544609"><ele>48.0</ele><time>2026-04-13T09:12:10.851Z</time></trkpt><trkpt lat="40.6144521" lon="14.5447021"><ele>48.0</ele><time>2026-04-13T09:12:11.851Z</time></trkpt><trkpt lat="40.6145687" lon="14.5448023"><ele>48.0</ele><time>2026-04-13T09:12:12.866Z</time></trkpt><trkpt lat="40.6146779" lon="14.5448975"><ele>48.0</ele><time>2026-04-13T09:12:13.872Z</time></trkpt><trkpt lat="40.6147489" lon="14.5449776"><ele>48.0</ele><time>2026-04-13T09:12:14.861Z</time></trkpt><trkpt lat="40.614763" lon="14.5450705"><ele>48.0</ele><time>2026-04-13T09:12:15.849Z</time></trkpt><trkpt lat="40.6147491" lon="14.5451788"><ele>48.0</ele><time>2026-04-13T09:12:16.846Z</time></trkpt><trkpt lat="40.6147138" lon="14.545317"><ele>48.0</ele><time>2026-04-13T09:12:17.888Z</time></trkpt><trkpt lat="40.6146445" lon="14.5454732"><ele>48.0</ele><time>2026-04-13T09:12:18.855Z</time></trkpt><trkpt lat="40.6145631" lon="14.5456281"><ele>48.0</ele><time>2026-04-13T09:12:19.876Z</time></trkpt><trkpt lat="40.6144849" lon="14.5457793"><ele>38.4</ele><time>2026-04-13T09:12:20.845Z</time></trkpt><trkpt lat="40.6144012" lon="14.5458805"><ele>28.799999999999997</ele><time>2026-04-13T09:12:21.863Z</time></trkpt><trkpt lat="40.6143486" lon="14.5459804"><ele>19.2</ele><time>2026-04-13T09:12:22.872Z</time></trkpt><trkpt lat="40.6143292" lon="14.5460953"><ele>9.6</ele><time>2026-04-13T09:12:23.861Z</time></trkpt><trkpt lat="40.6143367" lon="14.5462354"><ele>0.0</ele><time>2026-04-13T09:12:24.888Z</time></trkpt><trkpt lat="40.6143626" lon="14.5464033"><ele>0.0</ele><time>2026-04-13T09:12:25.846Z</time></trkpt><trkpt lat="40.6144074" lon="14.5465946"><ele>0.0</ele><time>2026-04-13T09:12:26.867Z</time></trkpt><trkpt lat="40.6144532" lon="14.5467887"><ele>0.0</ele><time>2026-04-13T09:12:27.849Z</time></trkpt><trkpt lat="40.6145202" lon="14.5469727"><ele>0.0</ele><time>2026-04-13T09:12:28.869Z</time></trkpt><trkpt lat="40.6145653" lon="14.5471584"><ele>0.0</ele><time>2026-04-13T09:12:29.865Z</time></trkpt><trkpt lat="40.6145942" lon="14.5473537"><ele>0.0</ele><time>2026-04-13T09:12:30.86Z</time></trkpt><trkpt lat="40.6146148" lon="14.5475284"><ele>0.0</ele><time>2026-04-13T09:12:31.847Z</time></trkpt><trkpt lat="40.6146322" lon="14.5476923"><ele>0.0</ele><time>2026-04-13T09:12:32.876Z</time></trkpt><trkpt lat="40.6146148" lon="14.5478376"><ele>0.0</ele><time>2026-04-13T09:12:33.853Z</time></trkpt><trkpt lat="40.6145823" lon="14.5480146"><ele>0.0</ele><time>2026-04-13T09:12:34.866Z</time></trkpt><trkpt lat="40.6145546" lon="14.5482126"><ele>0.0</ele><time>2026-04-13T09:12:35.853Z</time></trkpt><trkpt lat="40.6145141" lon="14.5483968"><ele>0.0</ele><time>2026-04-13T09:12:36.85Z</time></trkpt><trkpt lat="40.614451" lon="14.5485646"><ele>0.0</ele><time>2026-04-13T09:12:37.858Z</time></trkpt><trkpt lat="40.614381" lon="14.5487387"><ele>0.0</ele><time>2026-04-13T09:12:38.862Z</time></trkpt><trkpt lat="40.6143178" lon="14.5488939"><ele>0.0</ele><time>2026-04-13T09:12:39.866Z</time></trkpt><trkpt lat="40.6142743" lon="14.5490235"><ele>0.0</ele><time>2026-04-13T09:12:40.855Z</time></trkpt><trkpt lat="40.6142578" lon="14.549137"><ele>0.0</ele><time>2026-04-13T09:12:41.862Z</time></trkpt><trkpt lat="40.6142676" lon="14.54924"><ele>0.0</ele><time>2026-04-13T09:12:42.859Z</time></trkpt><trkpt lat="40.6142789" lon="14.5493478"><ele>0.0</ele><time>2026-04-13T09:12:43.853Z</time></trkpt><trkpt lat="40.6142961" lon="14.5494877"><ele>0.0</ele><time>2026-04-13T09:12:44.866Z</time></trkpt><trkpt lat="40.61426" lon="14.5496437"><ele>0.0</ele><time>2026-04-13T09:12:45.868Z</time></trkpt><trkpt lat="40.6142155" lon="14.5497883"><ele>0.0</ele><time>2026-04-13T09:12:46.864Z</time></trkpt><trkpt lat="40.6141767" lon="14.5499109"><ele>0.0</ele><time>2026-04-13T09:12:47.862Z</time></trkpt><trkpt lat="40.614157" lon="14.5500104"><ele>0.0</ele><time>2026-04-13T09:12:48.863Z</time></trkpt><trkpt lat="40.6141574" lon="14.5501062"><ele>0.0</ele><time>2026-04-13T09:12:49.858Z</time></trkpt><trkpt lat="40.6141639" lon="14.550215"><ele>0.0</ele><time>2026-04-13T09:12:50.851Z</time></trkpt><trkpt lat="40.6142049" lon="14.5504478"><ele>0.0</ele><time>2026-04-13T09:12:52.864Z</time></trkpt><trkpt lat="40.6142374" lon="14.5505405"><ele>0.0</ele><time>2026-04-13T09:12:53.847Z</time></trkpt><trkpt lat="40.6142416" lon="14.5506455"><ele>0.0</ele><time>2026-04-13T09:12:54.87Z</time></trkpt><trkpt lat="40.6142192" lon="14.5507724"><ele>0.0</ele><time>2026-04-13T09:12:55.855Z</time></trkpt><trkpt lat="40.6141633" lon="14.5508918"><ele>0.0</ele><time>2026-04-13T09:12:56.853Z</time></trkpt><trkpt lat="40.6141003" lon="14.5509997"><ele>0.0</ele><time>2026-04-13T09:12:57.866Z</time></trkpt><trkpt lat="40.6140645" lon="14.5511447"><ele>0.0</ele><time>2026-04-13T09:12:58.855Z</time></trkpt><trkpt lat="40.6140418" lon="14.5513321"><ele>0.0</ele><time>2026-04-13T09:12:59.878Z</time></trkpt><trkpt lat="40.61402" lon="14.5515019"><ele>0.0</ele><time>2026-04-13T09:13:00.873Z</time></trkpt><trkpt lat="40.6140153" lon="14.5516324"><ele>0.0</ele><time>2026-04-13T09:13:01.858Z</time></trkpt><trkpt lat="40.6140522" lon="14.5517534"><ele>0.0</ele><time>2026-04-13T09:13:02.856Z</time></trkpt><trkpt lat="40.6141039" lon="14.5518982"><ele>0.0</ele><time>2026-04-13T09:13:03.843Z</time></trkpt><trkpt lat="40.6141436" lon="14.5520942"><ele>0.0</ele><time>2026-04-13T09:13:04.868Z</time></trkpt><trkpt lat="40.614168" lon="14.5523025"><ele>0.0</ele><time>2026-04-13T09:13:05.857Z</time></trkpt><trkpt lat="40.6141743" lon="14.5524908"><ele>0.0</ele><time>2026-04-13T09:13:06.863Z</time></trkpt><trkpt lat="40.6141627" lon="14.552668"><ele>0.0</ele><time>2026-04-13T09:13:07.855Z</time></trkpt><trkpt lat="40.6141443" lon="14.552813"><ele>0.0</ele><time>2026-04-13T09:13:08.869Z</time></trkpt><trkpt lat="40.6141016" lon="14.5529125"><ele>0.0</ele><time>2026-04-13T09:13:09.847Z</time></trkpt><trkpt lat="40.6140336" lon="14.5529683"><ele>0.0</ele><time>2026-04-13T09:13:10.853Z</time></trkpt><trkpt lat="40.6139437" lon="14.5529936"><ele>0.0</ele><time>2026-04-13T09:13:11.862Z</time></trkpt><trkpt lat="40.613862" lon="14.553038"><ele>0.0</ele><time>2026-04-13T09:13:12.86Z</time></trkpt><trkpt lat="40.6137867" lon="14.5530882"><ele>0.0</ele><time>2026-04-13T09:13:13.867Z</time></trkpt><trkpt lat="40.6137795" lon="14.5531952"><ele>4.5</ele><time>2026-04-13T09:13:14.861Z</time></trkpt><trkpt lat="40.613808" lon="14.5533353"><ele>9.0</ele><time>2026-04-13T09:13:15.87Z</time></trkpt><trkpt lat="40.6138406" lon="14.5534889"><ele>13.5</ele><time>2026-04-13T09:13:16.864Z</time></trkpt><trkpt lat="40.6138966" lon="14.5536835"><ele>18.0</ele><time>2026-04-13T09:13:17.854Z</time></trkpt><trkpt lat="40.6139246" lon="14.5538724"><ele>18.0</ele><time>2026-04-13T09:13:18.868Z</time></trkpt><trkpt lat="40.6139284" lon="14.5540262"><ele>18.0</ele><time>2026-04-13T09:13:19.856Z</time></trkpt><trkpt lat="40.61393" lon="14.5541713"><ele>18.0</ele><time>2026-04-13T09:13:20.846Z</time></trkpt><trkpt lat="40.6139344" lon="14.5542842"><ele>18.0</ele><time>2026-04-13T09:13:21.859Z</time></trkpt><trkpt lat="40.6139344" lon="14.5543827"><ele>18.0</ele><time>2026-04-13T09:13:22.864Z</time></trkpt><trkpt lat="40.6139286" lon="14.5545185"><ele>17.4</ele><time>2026-04-13T09:13:24.879Z</time></trkpt><trkpt lat="40.6139062" lon="14.5546181"><ele>16.8</ele><time>2026-04-13T09:13:26.86Z</time></trkpt><trkpt lat="40.6138453" lon="14.5547099"><ele>16.2</ele><time>2026-04-13T09:13:28.85Z</time></trkpt><trkpt lat="40.6138119" lon="14.5549218"><ele>15.6</ele><time>2026-04-13T09:13:31.869Z</time></trkpt><trkpt lat="40.6137817" lon="14.5550192"><ele>15.0</ele><time>2026-04-13T09:13:32.85Z</time></trkpt><trkpt lat="40.6137799" lon="14.5551268"><ele>15.0</ele><time>2026-04-13T09:13:33.867Z</time></trkpt><trkpt lat="40.61378" lon="14.555237"><ele>15.0</ele><time>2026-04-13T09:13:34.861Z</time></trkpt><trkpt lat="40.6137906" lon="14.5553446"><ele>15.0</ele><time>2026-04-13T09:13:35.868Z</time></trkpt><trkpt lat="40.6138102" lon="14.5554374"><ele>15.0</ele><time>2026-04-13T09:13:36.853Z</time></trkpt><trkpt lat="40.6138432" lon="14.5555406"><ele>15.0</ele><time>2026-04-13T09:13:37.86Z</time></trkpt><trkpt lat="40.6139244" lon="14.5557135"><ele>22.0</ele><time>2026-04-13T09:13:38.846Z</time></trkpt><trkpt lat="40.6140763" lon="14.5559506"><ele>29.0</ele><time>2026-04-13T09:13:39.87Z</time></trkpt><trkpt lat="40.6142554" lon="14.5562717"><ele>29.0</ele><time>2026-04-13T09:13:40.848Z</time></trkpt><trkpt lat="40.6144195" lon="14.5566078"><ele>29.0</ele><time>2026-04-13T09:13:41.862Z</time></trkpt><trkpt lat="40.6145619" lon="14.5569054"><ele>39.0</ele><time>2026-04-13T09:13:42.858Z</time></trkpt><trkpt lat="40.6146656" lon="14.5571637"><ele>49.0</ele><time>2026-04-13T09:13:43.843Z</time></trkpt><trkpt lat="40.6147614" lon="14.557416"><ele>59.0</ele><time>2026-04-13T09:13:44.871Z</time></trkpt><trkpt lat="40.6148515" lon="14.5576817"><ele>56.5</ele><time>2026-04-13T09:13:45.846Z</time></trkpt><trkpt lat="40.6149413" lon="14.5579529"><ele>54.0</ele><time>2026-04-13T09:13:46.857Z</time></trkpt><trkpt lat="40.6150211" lon="14.5582317"><ele>54.0</ele><time>2026-04-13T09:13:47.867Z</time></trkpt><trkpt lat="40.6150921" lon="14.5585002"><ele>54.0</ele><time>2026-04-13T09:13:48.856Z</time></trkpt><trkpt lat="40.615165" lon="14.5587681"><ele>54.0</ele><time>2026-04-13T09:13:49.876Z</time></trkpt><trkpt lat="40.6152384" lon="14.5590317"><ele>49.0</ele><time>2026-04-13T09:13:50.858Z</time></trkpt><trkpt lat="40.6153057" lon="14.5592715"><ele>44.0</ele><time>2026-04-13T09:13:51.857Z</time></trkpt><trkpt lat="40.6153653" lon="14.5594809"><ele>39.0</ele><time>2026-04-13T09:13:52.854Z</time></trkpt><trkpt lat="40.6154147" lon="14.5596761"><ele>39.0</ele><time>2026-04-13T09:13:53.856Z</time></trkpt><trkpt lat="40.6154445" lon="14.559869"><ele>39.0</ele><time>2026-04-13T09:13:54.852Z</time></trkpt><trkpt lat="40.615445" lon="14.5600622"><ele>39.0</ele><time>2026-04-13T09:13:55.861Z</time></trkpt><trkpt lat="40.6154204" lon="14.5602684"><ele>39.0</ele><time>2026-04-13T09:13:56.853Z</time></trkpt><trkpt lat="40.61537" lon="14.5604666"><ele>39.0</ele><time>2026-04-13T09:13:57.872Z</time></trkpt><trkpt lat="40.6152999" lon="14.5606485"><ele>39.0</ele><time>2026-04-13T09:13:58.857Z</time></trkpt><trkpt lat="40.6152096" lon="14.5608222"><ele>39.0</ele><time>2026-04-13T09:13:59.872Z</time></trkpt><trkpt lat="40.6151023" lon="14.5609857"><ele>39.0</ele><time>2026-04-13T09:14:00.869Z</time></trkpt><trkpt lat="40.6150009" lon="14.5611475"><ele>39.0</ele><time>2026-04-13T09:14:01.856Z</time></trkpt><trkpt lat="40.6149206" lon="14.5613179"><ele>39.0</ele><time>2026-04-13T09:14:02.877Z</time></trkpt><trkpt lat="40.6148598" lon="14.5614672"><ele>39.0</ele><time>2026-04-13T09:14:03.858Z</time></trkpt><trkpt lat="40.6148295" lon="14.5615937"><ele>39.0</ele><time>2026-04-13T09:14:04.849Z</time></trkpt><trkpt lat="40.6148346" lon="14.5617026"><ele>39.0</ele><time>2026-04-13T09:14:05.861Z</time></trkpt><trkpt lat="40.6148758" lon="14.561796"><ele>39.0</ele><time>2026-04-13T09:14:06.846Z</time></trkpt><trkpt lat="40.6149541" lon="14.5618934"><ele>26.0</ele><time>2026-04-13T09:14:07.853Z</time></trkpt><trkpt lat="40.6150614" lon="14.5620226"><ele>13.0</ele><time>2026-04-13T09:14:08.863Z</time></trkpt><trkpt lat="40.6152035" lon="14.5621686"><ele>0.0</ele><time>2026-04-13T09:14:09.844Z</time></trkpt><trkpt lat="40.6153414" lon="14.5623216"><ele>0.0</ele><time>2026-04-13T09:14:10.864Z</time></trkpt><trkpt lat="40.6154746" lon="14.5624772"><ele>0.0</ele><time>2026-04-13T09:14:11.844Z</time></trkpt><trkpt lat="40.6155727" lon="14.5625826"><ele>0.0</ele><time>2026-04-13T09:14:12.859Z</time></trkpt><trkpt lat="40.6156418" lon="14.5626546"><ele>0.0</ele><time>2026-04-13T09:14:13.848Z</time></trkpt><trkpt lat="40.6155903" lon="14.5625471"><ele>16.0</ele><time>2026-04-13T09:14:16.86Z</time></trkpt><trkpt lat="40.615621" lon="14.5627098"><ele>32.0</ele><time>2026-04-13T09:14:20.846Z</time></trkpt><trkpt lat="40.6156531" lon="14.5628504"><ele>48.0</ele><time>2026-04-13T09:14:21.855Z</time></trkpt><trkpt lat="40.6156805" lon="14.5629774"><ele>64.0</ele><time>2026-04-13T09:14:22.855Z</time></trkpt><trkpt lat="40.6156978" lon="14.5630795"><ele>80.0</ele><time>2026-04-13T09:14:23.858Z</time></trkpt><trkpt lat="40.6156935" lon="14.5631629"><ele>80.0</ele><time>2026-04-13T09:14:24.847Z</time></trkpt><trkpt lat="40.6157115" lon="14.5632497"><ele>80.0</ele><time>2026-04-13T09:14:25.854Z</time></trkpt><trkpt lat="40.6157513" lon="14.5633616"><ele>80.0</ele><time>2026-04-13T09:14:26.854Z</time></trkpt><trkpt lat="40.6157978" lon="14.563491"><ele>80.0</ele><time>2026-04-13T09:14:27.851Z</time></trkpt><trkpt lat="40.615846" lon="14.5636171"><ele>80.0</ele><time>2026-04-13T09:14:28.856Z</time></trkpt><trkpt lat="40.6158743" lon="14.5637043"><ele>75.8</ele><time>2026-04-13T09:14:29.856Z</time></trkpt><trkpt lat="40.6158761" lon="14.5638398"><ele>71.6</ele><time>2026-04-13T09:14:31.866Z</time></trkpt><trkpt lat="40.6158607" lon="14.563981"><ele>67.4</ele><time>2026-04-13T09:14:33.857Z</time></trkpt><trkpt lat="40.6158429" lon="14.5640726"><ele>63.2</ele><time>2026-04-13T09:14:34.858Z</time></trkpt><trkpt lat="40.6158423" lon="14.5641925"><ele>59.0</ele><time>2026-04-13T09:14:36.868Z</time></trkpt><trkpt lat="40.6159021" lon="14.5642999"><ele>59.0</ele><time>2026-04-13T09:14:38.849Z</time></trkpt><trkpt lat="40.615958" lon="14.564386"><ele>59.00000000000001</ele><time>2026-04-13T09:14:39.86Z</time></trkpt><trkpt lat="40.6160108" lon="14.5644654"><ele>59.00000000000001</ele><time>2026-04-13T09:14:40.866Z</time></trkpt><trkpt lat="40.6160737" lon="14.5645809"><ele>59.0</ele><time>2026-04-13T09:14:42.866Z</time></trkpt><trkpt lat="40.6161152" lon="14.5646811"><ele>59.0</ele><time>2026-04-13T09:14:44.861Z</time></trkpt><trkpt lat="40.6161194" lon="14.5648151"><ele>59.00000000000001</ele><time>2026-04-13T09:14:46.853Z</time></trkpt><trkpt lat="40.6160818" lon="14.5648856"><ele>59.0</ele><time>2026-04-13T09:14:47.885Z</time></trkpt><trkpt lat="40.6160288" lon="14.5649762"><ele>59.0</ele><time>2026-04-13T09:14:48.858Z</time></trkpt><trkpt lat="40.6159537" lon="14.5650682"><ele>59.0</ele><time>2026-04-13T09:14:49.859Z</time></trkpt><trkpt lat="40.6158776" lon="14.565152"><ele>59.00000000000001</ele><time>2026-04-13T09:14:50.867Z</time></trkpt><trkpt lat="40.615808" lon="14.5652208"><ele>59.0</ele><time>2026-04-13T09:14:51.862Z</time></trkpt><trkpt lat="40.6157492" lon="14.5652664"><ele>59.00000000000001</ele><time>2026-04-13T09:14:52.856Z</time></trkpt><trkpt lat="40.6156871" lon="14.5653051"><ele>59.0</ele><time>2026-04-13T09:14:53.861Z</time></trkpt><trkpt lat="40.6156328" lon="14.5653483"><ele>59.0</ele><time>2026-04-13T09:14:54.863Z</time></trkpt><trkpt lat="40.6155831" lon="14.5654035"><ele>59.0</ele><time>2026-04-13T09:14:55.864Z</time></trkpt><trkpt lat="40.6155411" lon="14.5654823"><ele>59.00000000000001</ele><time>2026-04-13T09:14:56.864Z</time></trkpt><trkpt lat="40.6154949" lon="14.5655973"><ele>59.0</ele><time>2026-04-13T09:14:57.864Z</time></trkpt><trkpt lat="40.6154544" lon="14.5657125"><ele>53.400000000000006</ele><time>2026-04-13T09:14:58.854Z</time></trkpt><trkpt lat="40.6154229" lon="14.5658139"><ele>47.800000000000004</ele><time>2026-04-13T09:14:59.863Z</time></trkpt><trkpt lat="40.6153919" lon="14.565897"><ele>42.2</ele><time>2026-04-13T09:15:00.863Z</time></trkpt><trkpt lat="40.6153167" lon="14.5660134"><ele>36.6</ele><time>2026-04-13T09:15:02.869Z</time></trkpt><trkpt lat="40.6152194" lon="14.5660814"><ele>31.0</ele><time>2026-04-13T09:15:04.849Z</time></trkpt><trkpt lat="40.6151166" lon="14.566123"><ele>31.0</ele><time>2026-04-13T09:15:06.852Z</time></trkpt><trkpt lat="40.6150234" lon="14.5661772"><ele>31.0</ele><time>2026-04-13T09:15:08.867Z</time></trkpt><trkpt lat="40.6149175" lon="14.5663191"><ele>31.0</ele><time>2026-04-13T09:15:10.861Z</time></trkpt><trkpt lat="40.6148475" lon="14.5664591"><ele>31.0</ele><time>2026-04-13T09:15:11.855Z</time></trkpt><trkpt lat="40.6148014" lon="14.5665824"><ele>30.0</ele><time>2026-04-13T09:15:12.863Z</time></trkpt><trkpt lat="40.6147945" lon="14.5666656"><ele>29.0</ele><time>2026-04-13T09:15:13.855Z</time></trkpt><trkpt lat="40.6148919" lon="14.566793"><ele>28.0</ele><time>2026-04-13T09:15:15.865Z</time></trkpt><trkpt lat="40.6150023" lon="14.5668868"><ele>27.0</ele><time>2026-04-13T09:15:16.869Z</time></trkpt><trkpt lat="40.6151822" lon="14.5669982"><ele>47.25</ele><time>2026-04-13T09:15:17.867Z</time></trkpt><trkpt lat="40.6153488" lon="14.5671124"><ele>67.5</ele><time>2026-04-13T09:15:18.858Z</time></trkpt><trkpt lat="40.6154647" lon="14.567188"><ele>87.75</ele><time>2026-04-13T09:15:19.844Z</time></trkpt><trkpt lat="40.615529" lon="14.5672403"><ele>108.0</ele><time>2026-04-13T09:15:20.863Z</time></trkpt><trkpt lat="40.6155733" lon="14.5673837"><ele>108.0</ele><time>2026-04-13T09:15:22.863Z</time></trkpt><trkpt lat="40.615556" lon="14.5675015"><ele>108.00000000000001</ele><time>2026-04-13T09:15:23.844Z</time></trkpt><trkpt lat="40.6155055" lon="14.5676179"><ele>108.00000000000001</ele><time>2026-04-13T09:15:24.854Z</time></trkpt><trkpt lat="40.6154285" lon="14.5677309"><ele>108.0</ele><time>2026-04-13T09:15:25.847Z</time></trkpt><trkpt lat="40.615366" lon="14.5678395"><ele>108.0</ele><time>2026-04-13T09:15:26.862Z</time></trkpt><trkpt lat="40.6153414" lon="14.5679455"><ele>103.60000000000001</ele><time>2026-04-13T09:15:27.865Z</time></trkpt><trkpt lat="40.6153521" lon="14.5680356"><ele>99.20000000000002</ele><time>2026-04-13T09:15:28.858Z</time></trkpt><trkpt lat="40.6153979" lon="14.5681096"><ele>94.8</ele><time>2026-04-13T09:15:29.861Z</time></trkpt><trkpt lat="40.6154535" lon="14.5681918"><ele>90.4</ele><time>2026-04-13T09:15:30.849Z</time></trkpt><trkpt lat="40.6155662" lon="14.5682553"><ele>86.0</ele><time>2026-04-13T09:15:31.863Z</time></trkpt><trkpt lat="40.6156863" lon="14.5682844"><ele>86.0</ele><time>2026-04-13T09:15:32.848Z</time></trkpt><trkpt lat="40.6157876" lon="14.5683066"><ele>86.0</ele><time>2026-04-13T09:15:33.86Z</time></trkpt><trkpt lat="40.6158787" lon="14.5683284"><ele>86.0</ele><time>2026-04-13T09:15:34.876Z</time></trkpt><trkpt lat="40.6159438" lon="14.5683857"><ele>86.0</ele><time>2026-04-13T09:15:35.861Z</time></trkpt><trkpt lat="40.6159482" lon="14.568495"><ele>86.0</ele><time>2026-04-13T09:15:36.849Z</time></trkpt><trkpt lat="40.615919" lon="14.5686146"><ele>87.8</ele><time>2026-04-13T09:15:37.863Z</time></trkpt><trkpt lat="40.6158794" lon="14.5687444"><ele>89.6</ele><time>2026-04-13T09:15:38.87Z</time></trkpt><trkpt lat="40.6158458" lon="14.5688675"><ele>91.4</ele><time>2026-04-13T09:15:39.859Z</time></trkpt><trkpt lat="40.6158736" lon="14.5689941"><ele>93.2</ele><time>2026-04-13T09:15:40.854Z</time></trkpt><trkpt lat="40.6159259" lon="14.5691503"><ele>95.0</ele><time>2026-04-13T09:15:41.858Z</time></trkpt><trkpt lat="40.6159855" lon="14.5693302"><ele>95.0</ele><time>2026-04-13T09:15:42.863Z</time></trkpt><trkpt lat="40.6160646" lon="14.5695333"><ele>95.0</ele><time>2026-04-13T09:15:43.87Z</time></trkpt><trkpt lat="40.6161283" lon="14.569712"><ele>95.0</ele><time>2026-04-13T09:15:44.873Z</time></trkpt><trkpt lat="40.6161791" lon="14.5698758"><ele>95.0</ele><time>2026-04-13T09:15:45.854Z</time></trkpt><trkpt lat="40.6161815" lon="14.5700397"><ele>95.0</ele><time>2026-04-13T09:15:46.85Z</time></trkpt><trkpt lat="40.6161659" lon="14.5702112"><ele>95.0</ele><time>2026-04-13T09:15:47.86Z</time></trkpt><trkpt lat="40.6161425" lon="14.5703736"><ele>95.0</ele><time>2026-04-13T09:15:48.862Z</time></trkpt><trkpt lat="40.6160767" lon="14.5705054"><ele>95.0</ele><time>2026-04-13T09:15:49.863Z</time></trkpt><trkpt lat="40.6160042" lon="14.57063"><ele>95.0</ele><time>2026-04-13T09:15:50.846Z</time></trkpt><trkpt lat="40.615897" lon="14.5707439"><ele>95.0</ele><time>2026-04-13T09:15:51.86Z</time></trkpt><trkpt lat="40.6157902" lon="14.5708405"><ele>95.0</ele><time>2026-04-13T09:15:52.856Z</time></trkpt><trkpt lat="40.6157221" lon="14.570967"><ele>95.0</ele><time>2026-04-13T09:15:53.869Z</time></trkpt><trkpt lat="40.6156848" lon="14.571116"><ele>95.0</ele><time>2026-04-13T09:15:54.884Z</time></trkpt><trkpt lat="40.6156629" lon="14.5712909"><ele>95.0</ele><time>2026-04-13T09:15:55.849Z</time></trkpt><trkpt lat="40.6156463" lon="14.5715045"><ele>95.0</ele><time>2026-04-13T09:15:56.858Z</time></trkpt><trkpt lat="40.6156282" lon="14.5717247"><ele>95.0</ele><time>2026-04-13T09:15:57.846Z</time></trkpt><trkpt lat="40.6156054" lon="14.5719175"><ele>95.0</ele><time>2026-04-13T09:15:58.865Z</time></trkpt><trkpt lat="40.6155622" lon="14.5720788"><ele>95.0</ele><time>2026-04-13T09:15:59.851Z</time></trkpt><trkpt lat="40.6154966" lon="14.5722394"><ele>95.0</ele><time>2026-04-13T09:16:00.854Z</time></trkpt><trkpt lat="40.6154246" lon="14.5724161"><ele>93.5</ele><time>2026-04-13T09:16:01.855Z</time></trkpt><trkpt lat="40.6153584" lon="14.5725763"><ele>92.0</ele><time>2026-04-13T09:16:02.86Z</time></trkpt><trkpt lat="40.6153007" lon="14.5727148"><ele>90.5</ele><time>2026-04-13T09:16:03.861Z</time></trkpt><trkpt lat="40.6152496" lon="14.5728381"><ele>89.0</ele><time>2026-04-13T09:16:04.865Z</time></trkpt><trkpt lat="40.6152042" lon="14.5729466"><ele>89.0</ele><time>2026-04-13T09:16:05.864Z</time></trkpt><trkpt lat="40.6151556" lon="14.5730279"><ele>89.0</ele><time>2026-04-13T09:16:06.861Z</time></trkpt><trkpt lat="40.6150987" lon="14.5730671"><ele>89.0</ele><time>2026-04-13T09:16:07.863Z</time></trkpt><trkpt lat="40.6150319" lon="14.5730731"><ele>89.0</ele><time>2026-04-13T09:16:08.864Z</time></trkpt><trkpt lat="40.6149491" lon="14.5730566"><ele>89.0</ele><time>2026-04-13T09:16:09.865Z</time></trkpt><trkpt lat="40.6148426" lon="14.5730185"><ele>89.0</ele><time>2026-04-13T09:16:10.845Z</time></trkpt><trkpt lat="40.6147183" lon="14.5729762"><ele>89.0</ele><time>2026-04-13T09:16:11.853Z</time></trkpt><trkpt lat="40.6145968" lon="14.5729379"><ele>89.0</ele><time>2026-04-13T09:16:12.855Z</time></trkpt><trkpt lat="40.614491" lon="14.5729302"><ele>89.0</ele><time>2026-04-13T09:16:13.859Z</time></trkpt><trkpt lat="40.6143912" lon="14.5729559"><ele>89.0</ele><time>2026-04-13T09:16:14.861Z</time></trkpt><trkpt lat="40.6142897" lon="14.5730074"><ele>89.0</ele><time>2026-04-13T09:16:15.861Z</time></trkpt><trkpt lat="40.6141994" lon="14.5730733"><ele>85.4</ele><time>2026-04-13T09:16:16.864Z</time></trkpt><trkpt lat="40.6141198" lon="14.5731355"><ele>81.80000000000001</ele><time>2026-04-13T09:16:17.863Z</time></trkpt><trkpt lat="40.6140868" lon="14.5732315"><ele>78.19999999999999</ele><time>2026-04-13T09:16:18.856Z</time></trkpt><trkpt lat="40.6140598" lon="14.5733574"><ele>74.6</ele><time>2026-04-13T09:16:19.861Z</time></trkpt><trkpt lat="40.6140076" lon="14.5734817"><ele>71.0</ele><time>2026-04-13T09:16:20.858Z</time></trkpt><trkpt lat="40.6139559" lon="14.573597"><ele>72.0</ele><time>2026-04-13T09:16:21.869Z</time></trkpt><trkpt lat="40.6139414" lon="14.5737109"><ele>73.0</ele><time>2026-04-13T09:16:22.859Z</time></trkpt><trkpt lat="40.6139642" lon="14.5738238"><ele>74.0</ele><time>2026-04-13T09:16:23.868Z</time></trkpt><trkpt lat="40.6140209" lon="14.5739335"><ele>75.0</ele><time>2026-04-13T09:16:24.855Z</time></trkpt><trkpt lat="40.6141181" lon="14.5740542"><ele>76.0</ele><time>2026-04-13T09:16:25.865Z</time></trkpt><trkpt lat="40.614226" lon="14.5741864"><ele>76.0</ele><time>2026-04-13T09:16:26.87Z</time></trkpt><trkpt lat="40.6143268" lon="14.5743106"><ele>76.0</ele><time>2026-04-13T09:16:27.846Z</time></trkpt><trkpt lat="40.6143742" lon="14.5744437"><ele>76.0</ele><time>2026-04-13T09:16:28.863Z</time></trkpt><trkpt lat="40.6143768" lon="14.5746109"><ele>76.0</ele><time>2026-04-13T09:16:29.855Z</time></trkpt><trkpt lat="40.6143829" lon="14.5747913"><ele>73.75</ele><time>2026-04-13T09:16:30.862Z</time></trkpt><trkpt lat="40.6144155" lon="14.5749606"><ele>71.5</ele><time>2026-04-13T09:16:31.855Z</time></trkpt><trkpt lat="40.6144771" lon="14.5751268"><ele>69.25</ele><time>2026-04-13T09:16:32.849Z</time></trkpt><trkpt lat="40.6145494" lon="14.5752791"><ele>67.0</ele><time>2026-04-13T09:16:33.852Z</time></trkpt><trkpt lat="40.6146247" lon="14.5753891"><ele>67.0</ele><time>2026-04-13T09:16:34.858Z</time></trkpt><trkpt lat="40.6147032" lon="14.5754792"><ele>67.0</ele><time>2026-04-13T09:16:35.866Z</time></trkpt><trkpt lat="40.6148008" lon="14.5755154"><ele>67.0</ele><time>2026-04-13T09:16:36.844Z</time></trkpt><trkpt lat="40.6149104" lon="14.5755192"><ele>67.0</ele><time>2026-04-13T09:16:37.862Z</time></trkpt><trkpt lat="40.6150363" lon="14.5755139"><ele>67.0</ele><time>2026-04-13T09:16:38.847Z</time></trkpt><trkpt lat="40.6151924" lon="14.5754425"><ele>64.33333333333333</ele><time>2026-04-13T09:16:39.854Z</time></trkpt><trkpt lat="40.6153499" lon="14.575361"><ele>61.66666666666667</ele><time>2026-04-13T09:16:40.853Z</time></trkpt><trkpt lat="40.6155137" lon="14.57531"><ele>59.0</ele><time>2026-04-13T09:16:41.86Z</time></trkpt><trkpt lat="40.615688" lon="14.5753002"><ele>59.0</ele><time>2026-04-13T09:16:42.857Z</time></trkpt><trkpt lat="40.615851" lon="14.5753043"><ele>59.0</ele><time>2026-04-13T09:16:43.852Z</time></trkpt><trkpt lat="40.6159964" lon="14.5753334"><ele>59.0</ele><time>2026-04-13T09:16:44.859Z</time></trkpt><trkpt lat="40.6161219" lon="14.5753866"><ele>59.0</ele><time>2026-04-13T09:16:45.868Z</time></trkpt><trkpt lat="40.6162445" lon="14.5754237"><ele>51.5</ele><time>2026-04-13T09:16:46.849Z</time></trkpt><trkpt lat="40.6163499" lon="14.5754033"><ele>44.0</ele><time>2026-04-13T09:16:47.858Z</time></trkpt><trkpt lat="40.616474" lon="14.5753659"><ele>36.5</ele><time>2026-04-13T09:16:48.868Z</time></trkpt><trkpt lat="40.6166296" lon="14.5753042"><ele>29.0</ele><time>2026-04-13T09:16:49.848Z</time></trkpt><trkpt lat="40.6167863" lon="14.5752436"><ele>46.25</ele><time>2026-04-13T09:16:50.853Z</time></trkpt><trkpt lat="40.6169287" lon="14.5751849"><ele>63.5</ele><time>2026-04-13T09:16:51.866Z</time></trkpt><trkpt lat="40.6170346" lon="14.5751033"><ele>80.75</ele><time>2026-04-13T09:16:52.855Z</time></trkpt><trkpt lat="40.6171381" lon="14.5750348"><ele>98.0</ele><time>2026-04-13T09:16:53.853Z</time></trkpt><trkpt lat="40.6172573" lon="14.5750141"><ele>103.25</ele><time>2026-04-13T09:16:54.858Z</time></trkpt><trkpt lat="40.6173906" lon="14.5749991"><ele>108.5</ele><time>2026-04-13T09:16:55.86Z</time></trkpt><trkpt lat="40.6175201" lon="14.5749892"><ele>113.75</ele><time>2026-04-13T09:16:56.874Z</time></trkpt><trkpt lat="40.6176387" lon="14.5749671"><ele>119.0</ele><time>2026-04-13T09:16:57.862Z</time></trkpt><trkpt lat="40.6177609" lon="14.5749685"><ele>118.0</ele><time>2026-04-13T09:16:58.856Z</time></trkpt><trkpt lat="40.6178295" lon="14.5750568"><ele>117.0</ele><time>2026-04-13T09:16:59.877Z</time></trkpt><trkpt lat="40.6179315" lon="14.5751833"><ele>116.0</ele><time>2026-04-13T09:17:00.845Z</time></trkpt><trkpt lat="40.618021" lon="14.575315"><ele>115.0</ele><time>2026-04-13T09:17:01.866Z</time></trkpt><trkpt lat="40.6181212" lon="14.5754025"><ele>115.00000000000001</ele><time>2026-04-13T09:17:02.86Z</time></trkpt><trkpt lat="40.6182007" lon="14.5754854"><ele>115.0</ele><time>2026-04-13T09:17:03.842Z</time></trkpt><trkpt lat="40.6182624" lon="14.5755606"><ele>115.0</ele><time>2026-04-13T09:17:04.861Z</time></trkpt><trkpt lat="40.618297" lon="14.5756408"><ele>115.0</ele><time>2026-04-13T09:17:05.848Z</time></trkpt><trkpt lat="40.6183217" lon="14.5757429"><ele>115.00000000000001</ele><time>2026-04-13T09:17:06.846Z</time></trkpt><trkpt lat="40.6183211" lon="14.575843"><ele>115.0</ele><time>2026-04-13T09:17:07.848Z</time></trkpt><trkpt lat="40.6183055" lon="14.575924"><ele>115.00000000000001</ele><time>2026-04-13T09:17:08.852Z</time></trkpt><trkpt lat="40.6182844" lon="14.5760504"><ele>115.0</ele><time>2026-04-13T09:17:10.859Z</time></trkpt><trkpt lat="40.6183121" lon="14.5761527"><ele>115.0</ele><time>2026-04-13T09:17:12.856Z</time></trkpt><trkpt lat="40.6183906" lon="14.5761828"><ele>115.0</ele><time>2026-04-13T09:17:14.841Z</time></trkpt><trkpt lat="40.6185008" lon="14.5761657"><ele>115.00000000000001</ele><time>2026-04-13T09:17:16.847Z</time></trkpt><trkpt lat="40.6185689" lon="14.5761653"><ele>115.0</ele><time>2026-04-13T09:17:17.856Z</time></trkpt><trkpt lat="40.6186439" lon="14.576189"><ele>114.2</ele><time>2026-04-13T09:17:18.872Z</time></trkpt><trkpt lat="40.6187294" lon="14.5762371"><ele>113.4</ele><time>2026-04-13T09:17:19.864Z</time></trkpt><trkpt lat="40.6188189" lon="14.5762941"><ele>112.6</ele><time>2026-04-13T09:17:20.856Z</time></trkpt><trkpt lat="40.6189277" lon="14.576358"><ele>111.8</ele><time>2026-04-13T09:17:21.851Z</time></trkpt><trkpt lat="40.6190372" lon="14.5764252"><ele>111.0</ele><time>2026-04-13T09:17:22.86Z</time></trkpt><trkpt lat="40.6191256" lon="14.5764912"><ele>111.0</ele><time>2026-04-13T09:17:23.874Z</time></trkpt><trkpt lat="40.6192176" lon="14.576544"><ele>111.0</ele><time>2026-04-13T09:17:24.859Z</time></trkpt><trkpt lat="40.6193055" lon="14.5766011"><ele>111.0</ele><time>2026-04-13T09:17:25.863Z</time></trkpt><trkpt lat="40.619372" lon="14.5766701"><ele>111.0</ele><time>2026-04-13T09:17:26.854Z</time></trkpt><trkpt lat="40.6194294" lon="14.5767544"><ele>111.0</ele><time>2026-04-13T09:17:27.865Z</time></trkpt><trkpt lat="40.6194585" lon="14.5768956"><ele>116.6</ele><time>2026-04-13T09:17:28.854Z</time></trkpt><trkpt lat="40.6194888" lon="14.5770478"><ele>122.19999999999999</ele><time>2026-04-13T09:17:29.857Z</time></trkpt><trkpt lat="40.6195344" lon="14.577185"><ele>127.80000000000001</ele><time>2026-04-13T09:17:30.855Z</time></trkpt><trkpt lat="40.61959" lon="14.5773047"><ele>133.4</ele><time>2026-04-13T09:17:31.865Z</time></trkpt><trkpt lat="40.6196449" lon="14.5773958"><ele>139.0</ele><time>2026-04-13T09:17:32.85Z</time></trkpt><trkpt lat="40.6196968" lon="14.5774811"><ele>139.0</ele><time>2026-04-13T09:17:33.878Z</time></trkpt><trkpt lat="40.6197467" lon="14.5775743"><ele>139.0</ele><time>2026-04-13T09:17:34.853Z</time></trkpt><trkpt lat="40.6197968" lon="14.5776667"><ele>139.0</ele><time>2026-04-13T09:17:35.865Z</time></trkpt><trkpt lat="40.6198533" lon="14.577774"><ele>139.0</ele><time>2026-04-13T09:17:36.849Z</time></trkpt><trkpt lat="40.6199396" lon="14.5779272"><ele>139.0</ele><time>2026-04-13T09:17:37.849Z</time></trkpt><trkpt lat="40.620035" lon="14.578103"><ele>128.0</ele><time>2026-04-13T09:17:38.848Z</time></trkpt><trkpt lat="40.6201401" lon="14.5782514"><ele>117.0</ele><time>2026-04-13T09:17:39.846Z</time></trkpt><trkpt lat="40.6202661" lon="14.5784079"><ele>106.0</ele><time>2026-04-13T09:17:40.843Z</time></trkpt><trkpt lat="40.6204132" lon="14.5785809"><ele>104.0</ele><time>2026-04-13T09:17:41.842Z</time></trkpt><trkpt lat="40.6205574" lon="14.5787566"><ele>102.0</ele><time>2026-04-13T09:17:42.85Z</time></trkpt><trkpt lat="40.6206872" lon="14.578908"><ele>100.0</ele><time>2026-04-13T09:17:43.86Z</time></trkpt><trkpt lat="40.6207786" lon="14.5790374"><ele>100.0</ele><time>2026-04-13T09:17:44.869Z</time></trkpt><trkpt lat="40.6208565" lon="14.5791506"><ele>100.0</ele><time>2026-04-13T09:17:45.85Z</time></trkpt><trkpt lat="40.6209256" lon="14.5792476"><ele>100.0</ele><time>2026-04-13T09:17:46.859Z</time></trkpt><trkpt lat="40.6209942" lon="14.5793359"><ele>100.0</ele><time>2026-04-13T09:17:47.845Z</time></trkpt><trkpt lat="40.6210618" lon="14.579393"><ele>100.0</ele><time>2026-04-13T09:17:48.87Z</time></trkpt><trkpt lat="40.6211244" lon="14.579411"><ele>101.66666666666667</ele><time>2026-04-13T09:17:49.846Z</time></trkpt><trkpt lat="40.6212406" lon="14.5793478"><ele>103.33333333333334</ele><time>2026-04-13T09:17:51.842Z</time></trkpt><trkpt lat="40.6213038" lon="14.5792592"><ele>105.0</ele><time>2026-04-13T09:17:52.846Z</time></trkpt><trkpt lat="40.6213657" lon="14.5791855"><ele>106.66666666666666</ele><time>2026-04-13T09:17:53.863Z</time></trkpt><trkpt lat="40.6214336" lon="14.5791502"><ele>108.33333333333333</ele><time>2026-04-13T09:17:54.842Z</time></trkpt><trkpt lat="40.6215042" lon="14.579157"><ele>110.0</ele><time>2026-04-13T09:17:55.851Z</time></trkpt><trkpt lat="40.6215702" lon="14.5792016"><ele>110.0</ele><time>2026-04-13T09:17:56.852Z</time></trkpt><trkpt lat="40.6216488" lon="14.579265"><ele>110.0</ele><time>2026-04-13T09:17:57.86Z</time></trkpt><trkpt lat="40.6217341" lon="14.5793678"><ele>110.0</ele><time>2026-04-13T09:17:58.861Z</time></trkpt><trkpt lat="40.6218225" lon="14.579472"><ele>110.0</ele><time>2026-04-13T09:17:59.863Z</time></trkpt><trkpt lat="40.6219066" lon="14.5795611"><ele>110.0</ele><time>2026-04-13T09:18:00.854Z</time></trkpt><trkpt lat="40.6219832" lon="14.5796489"><ele>109.99999999999999</ele><time>2026-04-13T09:18:01.863Z</time></trkpt><trkpt lat="40.622058" lon="14.5797272"><ele>110.0</ele><time>2026-04-13T09:18:02.851Z</time></trkpt><trkpt lat="40.6221257" lon="14.5797967"><ele>110.0</ele><time>2026-04-13T09:18:03.871Z</time></trkpt><trkpt lat="40.6221852" lon="14.5798644"><ele>110.0</ele><time>2026-04-13T09:18:04.856Z</time></trkpt><trkpt lat="40.6222351" lon="14.5799427"><ele>109.99999999999999</ele><time>2026-04-13T09:18:05.863Z</time></trkpt><trkpt lat="40.6222873" lon="14.5800334"><ele>110.0</ele><time>2026-04-13T09:18:06.855Z</time></trkpt><trkpt lat="40.622353" lon="14.5801408"><ele>110.0</ele><time>2026-04-13T09:18:07.835Z</time></trkpt><trkpt lat="40.622417" lon="14.5802607"><ele>110.0</ele><time>2026-04-13T09:18:08.867Z</time></trkpt><trkpt lat="40.6224668" lon="14.580374"><ele>110.0</ele><time>2026-04-13T09:18:09.851Z</time></trkpt><trkpt lat="40.6225007" lon="14.5804738"><ele>110.0</ele><time>2026-04-13T09:18:10.857Z</time></trkpt><trkpt lat="40.6225234" lon="14.5805624"><ele>110.0</ele><time>2026-04-13T09:18:11.855Z</time></trkpt><trkpt lat="40.6225512" lon="14.5806885"><ele>107.8</ele><time>2026-04-13T09:18:13.911Z</time></trkpt><trkpt lat="40.6225746" lon="14.5807994"><ele>105.6</ele><time>2026-04-13T09:18:16.842Z</time></trkpt><trkpt lat="40.6226085" lon="14.5809005"><ele>103.4</ele><time>2026-04-13T09:18:18.859Z</time></trkpt><trkpt lat="40.6226362" lon="14.5809905"><ele>101.2</ele><time>2026-04-13T09:18:19.863Z</time></trkpt><trkpt lat="40.6226594" lon="14.5811324"><ele>99.0</ele><time>2026-04-13T09:18:20.859Z</time></trkpt><trkpt lat="40.6226917" lon="14.5812853"><ele>102.75</ele><time>2026-04-13T09:18:21.863Z</time></trkpt><trkpt lat="40.6227472" lon="14.5814276"><ele>106.5</ele><time>2026-04-13T09:18:22.85Z</time></trkpt><trkpt lat="40.6228266" lon="14.581567"><ele>110.25</ele><time>2026-04-13T09:18:23.843Z</time></trkpt><trkpt lat="40.6229179" lon="14.5816967"><ele>114.0</ele><time>2026-04-13T09:18:24.853Z</time></trkpt><trkpt lat="40.6230259" lon="14.581821"><ele>114.0</ele><time>2026-04-13T09:18:25.871Z</time></trkpt><trkpt lat="40.6231612" lon="14.5819502"><ele>114.0</ele><time>2026-04-13T09:18:26.862Z</time></trkpt><trkpt lat="40.6233064" lon="14.5820874"><ele>114.0</ele><time>2026-04-13T09:18:27.869Z</time></trkpt><trkpt lat="40.6234507" lon="14.5822327"><ele>112.5</ele><time>2026-04-13T09:18:28.842Z</time></trkpt><trkpt lat="40.6235765" lon="14.5823672"><ele>111.0</ele><time>2026-04-13T09:18:29.852Z</time></trkpt><trkpt lat="40.6236874" lon="14.5824912"><ele>109.5</ele><time>2026-04-13T09:18:30.864Z</time></trkpt><trkpt lat="40.623776" lon="14.5825887"><ele>108.0</ele><time>2026-04-13T09:18:31.857Z</time></trkpt><trkpt lat="40.6238505" lon="14.5826552"><ele>108.0</ele><time>2026-04-13T09:18:32.869Z</time></trkpt><trkpt lat="40.6239314" lon="14.5826883"><ele>108.00000000000001</ele><time>2026-04-13T09:18:33.85Z</time></trkpt><trkpt lat="40.624041" lon="14.5826982"><ele>108.00000000000001</ele><time>2026-04-13T09:18:34.845Z</time></trkpt><trkpt lat="40.6241609" lon="14.582706"><ele>108.0</ele><time>2026-04-13T09:18:35.875Z</time></trkpt><trkpt lat="40.6242664" lon="14.5827134"><ele>108.0</ele><time>2026-04-13T09:18:36.845Z</time></trkpt><trkpt lat="40.6243401" lon="14.5827467"><ele>108.0</ele><time>2026-04-13T09:18:37.859Z</time></trkpt><trkpt lat="40.6243925" lon="14.5828136"><ele>108.0</ele><time>2026-04-13T09:18:38.87Z</time></trkpt><trkpt lat="40.6244226" lon="14.582908"><ele>108.0</ele><time>2026-04-13T09:18:39.864Z</time></trkpt><trkpt lat="40.6244519" lon="14.583012"><ele>108.0</ele><time>2026-04-13T09:18:40.86Z</time></trkpt><trkpt lat="40.6244316" lon="14.5831538"><ele>108.0</ele><time>2026-04-13T09:18:41.861Z</time></trkpt><trkpt lat="40.6244395" lon="14.5832879"><ele>108.0</ele><time>2026-04-13T09:18:42.845Z</time></trkpt><trkpt lat="40.6244775" lon="14.5833884"><ele>110.75</ele><time>2026-04-13T09:18:43.87Z</time></trkpt><trkpt lat="40.6245526" lon="14.583474"><ele>113.5</ele><time>2026-04-13T09:18:44.883Z</time></trkpt><trkpt lat="40.6246575" lon="14.5835763"><ele>116.25</ele><time>2026-04-13T09:18:45.856Z</time></trkpt><trkpt lat="40.6247904" lon="14.5836827"><ele>119.0</ele><time>2026-04-13T09:18:46.855Z</time></trkpt><trkpt lat="40.6249513" lon="14.5837805"><ele>116.0</ele><time>2026-04-13T09:18:47.85Z</time></trkpt><trkpt lat="40.62512" lon="14.5838673"><ele>113.0</ele><time>2026-04-13T09:18:48.849Z</time></trkpt><trkpt lat="40.6252687" lon="14.5839405"><ele>110.0</ele><time>2026-04-13T09:18:49.864Z</time></trkpt><trkpt lat="40.6253956" lon="14.5839953"><ele>110.0</ele><time>2026-04-13T09:18:50.868Z</time></trkpt><trkpt lat="40.6255005" lon="14.5840377"><ele>110.0</ele><time>2026-04-13T09:18:51.869Z</time></trkpt><trkpt lat="40.6255832" lon="14.5840382"><ele>110.0</ele><time>2026-04-13T09:18:52.86Z</time></trkpt><trkpt lat="40.6256711" lon="14.5840048"><ele>110.0</ele><time>2026-04-13T09:18:53.851Z</time></trkpt><trkpt lat="40.6257725" lon="14.5839341"><ele>110.0</ele><time>2026-04-13T09:18:54.848Z</time></trkpt><trkpt lat="40.6258622" lon="14.5838421"><ele>110.0</ele><time>2026-04-13T09:18:55.851Z</time></trkpt><trkpt lat="40.625965" lon="14.5837455"><ele>110.0</ele><time>2026-04-13T09:18:56.852Z</time></trkpt><trkpt lat="40.6260938" lon="14.5836356"><ele>110.0</ele><time>2026-04-13T09:18:57.873Z</time></trkpt><trkpt lat="40.6262342" lon="14.5835628"><ele>110.0</ele><time>2026-04-13T09:18:58.863Z</time></trkpt><trkpt lat="40.6263887" lon="14.5835242"><ele>112.66666666666666</ele><time>2026-04-13T09:18:59.846Z</time></trkpt><trkpt lat="40.6265458" lon="14.583514"><ele>115.33333333333334</ele><time>2026-04-13T09:19:00.859Z</time></trkpt><trkpt lat="40.6267098" lon="14.583524"><ele>118.0</ele><time>2026-04-13T09:19:01.857Z</time></trkpt><trkpt lat="40.6268443" lon="14.5835396"><ele>118.0</ele><time>2026-04-13T09:19:02.857Z</time></trkpt><trkpt lat="40.626946" lon="14.5835642"><ele>118.00000000000001</ele><time>2026-04-13T09:19:03.863Z</time></trkpt><trkpt lat="40.6270139" lon="14.5836213"><ele>118.00000000000001</ele><time>2026-04-13T09:19:04.861Z</time></trkpt><trkpt lat="40.6270503" lon="14.5837149"><ele>118.0</ele><time>2026-04-13T09:19:05.852Z</time></trkpt><trkpt lat="40.627054" lon="14.5838336"><ele>118.0</ele><time>2026-04-13T09:19:06.862Z</time></trkpt><trkpt lat="40.62702" lon="14.5839642"><ele>114.80000000000001</ele><time>2026-04-13T09:19:07.844Z</time></trkpt><trkpt lat="40.626957" lon="14.5840706"><ele>111.60000000000001</ele><time>2026-04-13T09:19:08.86Z</time></trkpt><trkpt lat="40.6268697" lon="14.5841269"><ele>108.4</ele><time>2026-04-13T09:19:09.852Z</time></trkpt><trkpt lat="40.6267694" lon="14.5841435"><ele>105.19999999999999</ele><time>2026-04-13T09:19:10.852Z</time></trkpt><trkpt lat="40.6266607" lon="14.5841705"><ele>102.0</ele><time>2026-04-13T09:19:11.862Z</time></trkpt><trkpt lat="40.6265471" lon="14.5842335"><ele>102.0</ele><time>2026-04-13T09:19:12.868Z</time></trkpt><trkpt lat="40.6264147" lon="14.5843333"><ele>102.0</ele><time>2026-04-13T09:19:13.851Z</time></trkpt><trkpt lat="40.6262494" lon="14.5844608"><ele>102.0</ele><time>2026-04-13T09:19:14.864Z</time></trkpt><trkpt lat="40.6260775" lon="14.5845924"><ele>103.66666666666666</ele><time>2026-04-13T09:19:15.869Z</time></trkpt><trkpt lat="40.6259278" lon="14.5847208"><ele>105.33333333333333</ele><time>2026-04-13T09:19:16.87Z</time></trkpt><trkpt lat="40.6258084" lon="14.5848622"><ele>107.0</ele><time>2026-04-13T09:19:17.851Z</time></trkpt><trkpt lat="40.6257165" lon="14.5850239"><ele>107.0</ele><time>2026-04-13T09:19:18.858Z</time></trkpt><trkpt lat="40.6256357" lon="14.5851941"><ele>107.0</ele><time>2026-04-13T09:19:19.863Z</time></trkpt><trkpt lat="40.6255598" lon="14.585353"><ele>107.0</ele><time>2026-04-13T09:19:20.86Z</time></trkpt><trkpt lat="40.6254887" lon="14.585472"><ele>107.0</ele><time>2026-04-13T09:19:21.857Z</time></trkpt><trkpt lat="40.6254457" lon="14.5855671"><ele>106.14285714285715</ele><time>2026-04-13T09:19:22.857Z</time></trkpt><trkpt lat="40.6254407" lon="14.5856522"><ele>105.28571428571429</ele><time>2026-04-13T09:19:23.862Z</time></trkpt><trkpt lat="40.6254554" lon="14.5857409"><ele>104.42857142857143</ele><time>2026-04-13T09:19:24.862Z</time></trkpt><trkpt lat="40.6254742" lon="14.5858312"><ele>103.57142857142858</ele><time>2026-04-13T09:19:25.85Z</time></trkpt><trkpt lat="40.6254914" lon="14.5859198"><ele>102.71428571428571</ele><time>2026-04-13T09:19:26.87Z</time></trkpt><trkpt lat="40.6255" lon="14.5860159"><ele>101.85714285714286</ele><time>2026-04-13T09:19:27.858Z</time></trkpt><trkpt lat="40.6255" lon="14.5861114"><ele>101.0</ele><time>2026-04-13T09:19:28.86Z</time></trkpt><trkpt lat="40.6255009" lon="14.5862081"><ele>94.75</ele><time>2026-04-13T09:19:29.866Z</time></trkpt><trkpt lat="40.6255079" lon="14.5862917"><ele>88.5</ele><time>2026-04-13T09:19:30.862Z</time></trkpt><trkpt lat="40.6255438" lon="14.5864164"><ele>82.25</ele><time>2026-04-13T09:19:32.861Z</time></trkpt><trkpt lat="40.6256306" lon="14.5865614"><ele>76.0</ele><time>2026-04-13T09:19:34.868Z</time></trkpt><trkpt lat="40.6257415" lon="14.5866861"><ele>76.0</ele><time>2026-04-13T09:19:35.865Z</time></trkpt><trkpt lat="40.6258647" lon="14.5867951"><ele>76.0</ele><time>2026-04-13T09:19:36.87Z</time></trkpt><trkpt lat="40.6259774" lon="14.5868829"><ele>76.0</ele><time>2026-04-13T09:19:37.86Z</time></trkpt><trkpt lat="40.6260638" lon="14.5869777"><ele>76.0</ele><time>2026-04-13T09:19:38.859Z</time></trkpt><trkpt lat="40.6261159" lon="14.5870932"><ele>85.5</ele><time>2026-04-13T09:19:39.852Z</time></trkpt><trkpt lat="40.6261602" lon="14.5872358"><ele>95.0</ele><time>2026-04-13T09:19:40.864Z</time></trkpt><trkpt lat="40.6262207" lon="14.5873779"><ele>104.5</ele><time>2026-04-13T09:19:41.859Z</time></trkpt><trkpt lat="40.626305" lon="14.5875137"><ele>114.0</ele><time>2026-04-13T09:19:42.861Z</time></trkpt><trkpt lat="40.6263926" lon="14.5876489"><ele>114.0</ele><time>2026-04-13T09:19:43.86Z</time></trkpt><trkpt lat="40.62646" lon="14.5877802"><ele>114.0</ele><time>2026-04-13T09:19:44.861Z</time></trkpt><trkpt lat="40.6265049" lon="14.5879244"><ele>114.0</ele><time>2026-04-13T09:19:45.863Z</time></trkpt><trkpt lat="40.6265348" lon="14.5880795"><ele>114.0</ele><time>2026-04-13T09:19:46.845Z</time></trkpt><trkpt lat="40.6265421" lon="14.5882255"><ele>107.80000000000001</ele><time>2026-04-13T09:19:47.862Z</time></trkpt><trkpt lat="40.6265475" lon="14.5883585"><ele>101.60000000000001</ele><time>2026-04-13T09:19:48.851Z</time></trkpt><trkpt lat="40.6265592" lon="14.5884705"><ele>95.4</ele><time>2026-04-13T09:19:49.856Z</time></trkpt><trkpt lat="40.6265965" lon="14.5885917"><ele>89.2</ele><time>2026-04-13T09:19:50.859Z</time></trkpt><trkpt lat="40.6266566" lon="14.5887264"><ele>83.0</ele><time>2026-04-13T09:19:51.853Z</time></trkpt><trkpt lat="40.6267151" lon="14.5888846"><ele>78.25</ele><time>2026-04-13T09:19:52.869Z</time></trkpt><trkpt lat="40.626771" lon="14.5890489"><ele>73.5</ele><time>2026-04-13T09:19:53.855Z</time></trkpt><trkpt lat="40.6268081" lon="14.5892264"><ele>68.75</ele><time>2026-04-13T09:19:54.859Z</time></trkpt><trkpt lat="40.62685" lon="14.5893792"><ele>64.0</ele><time>2026-04-13T09:19:55.861Z</time></trkpt><trkpt lat="40.6268955" lon="14.5895094"><ele>59.2</ele><time>2026-04-13T09:19:56.868Z</time></trkpt><trkpt lat="40.6269403" lon="14.5896258"><ele>54.400000000000006</ele><time>2026-04-13T09:19:57.854Z</time></trkpt><trkpt lat="40.6269824" lon="14.5897423"><ele>49.6</ele><time>2026-04-13T09:19:58.872Z</time></trkpt><trkpt lat="40.6270308" lon="14.589855"><ele>44.8</ele><time>2026-04-13T09:19:59.847Z</time></trkpt><trkpt lat="40.6271008" lon="14.5899858"><ele>40.0</ele><time>2026-04-13T09:20:00.861Z</time></trkpt><trkpt lat="40.6271979" lon="14.5901595"><ele>50.333333333333336</ele><time>2026-04-13T09:20:01.848Z</time></trkpt><trkpt lat="40.6273052" lon="14.5903367"><ele>60.66666666666667</ele><time>2026-04-13T09:20:02.873Z</time></trkpt><trkpt lat="40.6274123" lon="14.5905077"><ele>71.0</ele><time>2026-04-13T09:20:03.853Z</time></trkpt><trkpt lat="40.6274983" lon="14.5906737"><ele>71.0</ele><time>2026-04-13T09:20:04.864Z</time></trkpt><trkpt lat="40.6275756" lon="14.5908329"><ele>71.0</ele><time>2026-04-13T09:20:05.851Z</time></trkpt><trkpt lat="40.6276643" lon="14.590991"><ele>71.0</ele><time>2026-04-13T09:20:06.859Z</time></trkpt><trkpt lat="40.6277762" lon="14.5911484"><ele>72.0</ele><time>2026-04-13T09:20:07.844Z</time></trkpt><trkpt lat="40.6279039" lon="14.5913068"><ele>73.0</ele><time>2026-04-13T09:20:08.86Z</time></trkpt><trkpt lat="40.6280337" lon="14.5914612"><ele>74.0</ele><time>2026-04-13T09:20:09.855Z</time></trkpt><trkpt lat="40.6281603" lon="14.591607"><ele>74.0</ele><time>2026-04-13T09:20:10.847Z</time></trkpt><trkpt lat="40.6282835" lon="14.5917297"><ele>74.0</ele><time>2026-04-13T09:20:11.864Z</time></trkpt><trkpt lat="40.6284042" lon="14.5918192"><ele>74.0</ele><time>2026-04-13T09:20:12.848Z</time></trkpt><trkpt lat="40.6285344" lon="14.5918987"><ele>74.0</ele><time>2026-04-13T09:20:13.855Z</time></trkpt><trkpt lat="40.628667" lon="14.5919883"><ele>71.5</ele><time>2026-04-13T09:20:14.868Z</time></trkpt><trkpt lat="40.6287906" lon="14.5920605"><ele>69.0</ele><time>2026-04-13T09:20:15.868Z</time></trkpt><trkpt lat="40.6289054" lon="14.5921102"><ele>66.5</ele><time>2026-04-13T09:20:16.85Z</time></trkpt><trkpt lat="40.629015" lon="14.5921474"><ele>64.0</ele><time>2026-04-13T09:20:17.844Z</time></trkpt><trkpt lat="40.6291128" lon="14.5921933"><ele>63.99999999999999</ele><time>2026-04-13T09:20:18.874Z</time></trkpt><trkpt lat="40.6291923" lon="14.5922461"><ele>64.0</ele><time>2026-04-13T09:20:19.84Z</time></trkpt><trkpt lat="40.6292523" lon="14.5923129"><ele>64.0</ele><time>2026-04-13T09:20:20.872Z</time></trkpt><trkpt lat="40.6292996" lon="14.5923854"><ele>64.0</ele><time>2026-04-13T09:20:21.848Z</time></trkpt><trkpt lat="40.6293456" lon="14.5924495"><ele>63.99999999999999</ele><time>2026-04-13T09:20:22.859Z</time></trkpt><trkpt lat="40.6294053" lon="14.5925106"><ele>64.0</ele><time>2026-04-13T09:20:23.875Z</time></trkpt><trkpt lat="40.6294785" lon="14.5925771"><ele>66.16666666666666</ele><time>2026-04-13T09:20:24.862Z</time></trkpt><trkpt lat="40.6295381" lon="14.5926254"><ele>68.33333333333333</ele><time>2026-04-13T09:20:25.855Z</time></trkpt><trkpt lat="40.6296157" lon="14.5926757"><ele>70.5</ele><time>2026-04-13T09:20:27.848Z</time></trkpt><trkpt lat="40.6296806" lon="14.5926809"><ele>72.66666666666667</ele><time>2026-04-13T09:20:30.842Z</time></trkpt><trkpt lat="40.6297392" lon="14.5927397"><ele>74.83333333333334</ele><time>2026-04-13T09:20:32.855Z</time></trkpt><trkpt lat="40.62981" lon="14.5928166"><ele>77.0</ele><time>2026-04-13T09:20:34.849Z</time></trkpt><trkpt lat="40.6298408" lon="14.5929345"><ele>77.0</ele><time>2026-04-13T09:20:36.854Z</time></trkpt><trkpt lat="40.6298356" lon="14.5930972"><ele>77.0</ele><time>2026-04-13T09:20:38.84Z</time></trkpt><trkpt lat="40.6298309" lon="14.5931829"><ele>77.0</ele><time>2026-04-13T09:20:39.86Z</time></trkpt><trkpt lat="40.6298252" lon="14.5933372"><ele>77.0</ele><time>2026-04-13T09:20:41.862Z</time></trkpt><trkpt lat="40.6298427" lon="14.5934658"><ele>77.0</ele><time>2026-04-13T09:20:43.868Z</time></trkpt><trkpt lat="40.6298695" lon="14.5935449"><ele>77.0</ele><time>2026-04-13T09:20:44.859Z</time></trkpt><trkpt lat="40.6299112" lon="14.5936544"><ele>77.0</ele><time>2026-04-13T09:20:45.845Z</time></trkpt><trkpt lat="40.62996" lon="14.5938007"><ele>77.0</ele><time>2026-04-13T09:20:46.846Z</time></trkpt><trkpt lat="40.6300006" lon="14.5939477"><ele>77.0</ele><time>2026-04-13T09:20:47.864Z</time></trkpt><trkpt lat="40.6300425" lon="14.5940784"><ele>77.0</ele><time>2026-04-13T09:20:48.845Z</time></trkpt><trkpt lat="40.6300894" lon="14.5941913"><ele>73.2</ele><time>2026-04-13T09:20:49.889Z</time></trkpt><trkpt lat="40.6301451" lon="14.5942919"><ele>69.4</ele><time>2026-04-13T09:20:50.843Z</time></trkpt><trkpt lat="40.6302167" lon="14.5943734"><ele>65.6</ele><time>2026-04-13T09:20:51.859Z</time></trkpt><trkpt lat="40.6302987" lon="14.5944374"><ele>61.8</ele><time>2026-04-13T09:20:52.846Z</time></trkpt><trkpt lat="40.6303793" lon="14.594486"><ele>58.0</ele><time>2026-04-13T09:20:53.845Z</time></trkpt><trkpt lat="40.6304589" lon="14.5945318"><ele>58.0</ele><time>2026-04-13T09:20:54.844Z</time></trkpt><trkpt lat="40.6305238" lon="14.5945849"><ele>58.0</ele><time>2026-04-13T09:20:55.854Z</time></trkpt><trkpt lat="40.6305748" lon="14.594637"><ele>58.0</ele><time>2026-04-13T09:20:56.849Z</time></trkpt><trkpt lat="40.6306537" lon="14.5947325"><ele>58.0</ele><time>2026-04-13T09:20:58.847Z</time></trkpt><trkpt lat="40.6307463" lon="14.5948099"><ele>58.0</ele><time>2026-04-13T09:21:00.855Z</time></trkpt><trkpt lat="40.6308561" lon="14.5948627"><ele>58.0</ele><time>2026-04-13T09:21:02.842Z</time></trkpt><trkpt lat="40.6309742" lon="14.5949201"><ele>58.0</ele><time>2026-04-13T09:21:04.84Z</time></trkpt><trkpt lat="40.6310453" lon="14.5949645"><ele>58.0</ele><time>2026-04-13T09:21:05.856Z</time></trkpt><trkpt lat="40.6311168" lon="14.5950333"><ele>58.0</ele><time>2026-04-13T09:21:06.87Z</time></trkpt><trkpt lat="40.6311825" lon="14.5951163"><ele>58.0</ele><time>2026-04-13T09:21:07.854Z</time></trkpt><trkpt lat="40.6312564" lon="14.5952308"><ele>57.0</ele><time>2026-04-13T09:21:08.857Z</time></trkpt><trkpt lat="40.6313329" lon="14.595363"><ele>56.0</ele><time>2026-04-13T09:21:09.856Z</time></trkpt><trkpt lat="40.6313975" lon="14.5954906"><ele>55.0</ele><time>2026-04-13T09:21:10.867Z</time></trkpt><trkpt lat="40.6314531" lon="14.5956011"><ele>54.0</ele><time>2026-04-13T09:21:11.863Z</time></trkpt><trkpt lat="40.6314946" lon="14.5956936"><ele>53.0</ele><time>2026-04-13T09:21:12.84Z</time></trkpt><trkpt lat="40.631579" lon="14.5958071"><ele>53.0</ele><time>2026-04-13T09:21:14.852Z</time></trkpt><trkpt lat="40.6317159" lon="14.5958454"><ele>53.0</ele><time>2026-04-13T09:21:16.862Z</time></trkpt><trkpt lat="40.6318285" lon="14.5958533"><ele>53.0</ele><time>2026-04-13T09:21:17.85Z</time></trkpt><trkpt lat="40.6319412" lon="14.5958619"><ele>53.0</ele><time>2026-04-13T09:21:18.857Z</time></trkpt><trkpt lat="40.6320451" lon="14.5958554"><ele>62.66666666666667</ele><time>2026-04-13T09:21:19.852Z</time></trkpt><trkpt lat="40.6321362" lon="14.5958394"><ele>72.33333333333334</ele><time>2026-04-13T09:21:20.86Z</time></trkpt><trkpt lat="40.6322161" lon="14.5958152"><ele>82.0</ele><time>2026-04-13T09:21:21.863Z</time></trkpt><trkpt lat="40.63228" lon="14.5958678"><ele>91.66666666666667</ele><time>2026-04-13T09:21:22.857Z</time></trkpt><trkpt lat="40.6323278" lon="14.5959342"><ele>101.33333333333333</ele><time>2026-04-13T09:21:23.857Z</time></trkpt><trkpt lat="40.6323654" lon="14.5960404"><ele>111.0</ele><time>2026-04-13T09:21:24.845Z</time></trkpt><trkpt lat="40.6323685" lon="14.5961548"><ele>99.0</ele><time>2026-04-13T09:21:25.863Z</time></trkpt><trkpt lat="40.6323746" lon="14.5962775"><ele>87.0</ele><time>2026-04-13T09:21:26.854Z</time></trkpt><trkpt lat="40.6329126" lon="14.5974074"><ele>87.0</ele><time>2026-04-13T09:21:41.905Z</time></trkpt><trkpt lat="40.6329755" lon="14.5977938"><ele>87.0</ele><time>2026-04-13T09:21:42.867Z</time></trkpt><trkpt lat="40.6330525" lon="14.5979334"><ele>87.0</ele><time>2026-04-13T09:21:43.851Z</time></trkpt><trkpt lat="40.6331568" lon="14.5980193"><ele>75.25</ele><time>2026-04-13T09:21:44.841Z</time></trkpt><trkpt lat="40.6332545" lon="14.598113"><ele>63.5</ele><time>2026-04-13T09:21:45.847Z</time></trkpt><trkpt lat="40.6333283" lon="14.5982516"><ele>51.75</ele><time>2026-04-13T09:21:46.847Z</time></trkpt><trkpt lat="40.633394" lon="14.5983959"><ele>40.0</ele><time>2026-04-13T09:21:47.855Z</time></trkpt><trkpt lat="40.6334366" lon="14.5985351"><ele>38.0</ele><time>2026-04-13T09:21:48.844Z</time></trkpt><trkpt lat="40.6334476" lon="14.5986747"><ele>36.0</ele><time>2026-04-13T09:21:49.863Z</time></trkpt><trkpt lat="40.63345" lon="14.5988248"><ele>34.0</ele><time>2026-04-13T09:21:50.846Z</time></trkpt><trkpt lat="40.6334518" lon="14.5989811"><ele>32.0</ele><time>2026-04-13T09:21:51.865Z</time></trkpt><trkpt lat="40.6334743" lon="14.5991408"><ele>32.0</ele><time>2026-04-13T09:21:52.852Z</time></trkpt><trkpt lat="40.6335155" lon="14.5992976"><ele>32.0</ele><time>2026-04-13T09:21:53.857Z</time></trkpt><trkpt lat="40.6335631" lon="14.5994421"><ele>32.0</ele><time>2026-04-13T09:21:54.858Z</time></trkpt><trkpt lat="40.6336054" lon="14.5995815"><ele>32.0</ele><time>2026-04-13T09:21:55.858Z</time></trkpt><trkpt lat="40.6336281" lon="14.5997403"><ele>33.75</ele><time>2026-04-13T09:21:56.86Z</time></trkpt><trkpt lat="40.6336419" lon="14.59992"><ele>35.5</ele><time>2026-04-13T09:21:57.855Z</time></trkpt><trkpt lat="40.6336456" lon="14.6001198"><ele>37.25</ele><time>2026-04-13T09:21:58.853Z</time></trkpt><trkpt lat="40.6336502" lon="14.6003155"><ele>39.0</ele><time>2026-04-13T09:21:59.846Z</time></trkpt><trkpt lat="40.6336534" lon="14.6004859"><ele>39.0</ele><time>2026-04-13T09:22:00.849Z</time></trkpt><trkpt lat="40.6336514" lon="14.6006298"><ele>39.0</ele><time>2026-04-13T09:22:01.853Z</time></trkpt><trkpt lat="40.6336462" lon="14.6007668"><ele>39.0</ele><time>2026-04-13T09:22:02.851Z</time></trkpt><trkpt lat="40.6336557" lon="14.600894"><ele>39.0</ele><time>2026-04-13T09:22:03.85Z</time></trkpt><trkpt lat="40.6336597" lon="14.6010385"><ele>39.0</ele><time>2026-04-13T09:22:04.852Z</time></trkpt><trkpt lat="40.63369" lon="14.6014868"><ele>35.8</ele><time>2026-04-13T09:22:07.863Z</time></trkpt><trkpt lat="40.6337278" lon="14.6016183"><ele>32.599999999999994</ele><time>2026-04-13T09:22:08.842Z</time></trkpt><trkpt lat="40.6337491" lon="14.6017497"><ele>29.4</ele><time>2026-04-13T09:22:09.852Z</time></trkpt><trkpt lat="40.633787" lon="14.6018823"><ele>26.2</ele><time>2026-04-13T09:22:10.849Z</time></trkpt><trkpt lat="40.6338002" lon="14.6020064"><ele>23.0</ele><time>2026-04-13T09:22:11.862Z</time></trkpt><trkpt lat="40.6338136" lon="14.6020978"><ele>21.599999999999998</ele><time>2026-04-13T09:22:12.851Z</time></trkpt><trkpt lat="40.6338263" lon="14.6022229"><ele>20.2</ele><time>2026-04-13T09:22:14.847Z</time></trkpt><trkpt lat="40.6338172" lon="14.6023455"><ele>18.8</ele><time>2026-04-13T09:22:24.857Z</time></trkpt><trkpt lat="40.6337885" lon="14.6024716"><ele>17.4</ele><time>2026-04-13T09:22:26.856Z</time></trkpt><trkpt lat="40.633747" lon="14.6025839"><ele>16.0</ele><time>2026-04-13T09:22:27.861Z</time></trkpt><trkpt lat="40.6337178" lon="14.6027026"><ele>15.999999999999998</ele><time>2026-04-13T09:22:29.882Z</time></trkpt><trkpt lat="40.6337246" lon="14.6027943"><ele>16.0</ele><time>2026-04-13T09:22:31.859Z</time></trkpt><trkpt lat="40.6337695" lon="14.602909"><ele>16.0</ele><time>2026-04-13T09:22:33.855Z</time></trkpt><trkpt lat="40.6338056" lon="14.6029884"><ele>16.0</ele><time>2026-04-13T09:22:34.857Z</time></trkpt><trkpt lat="40.6338353" lon="14.6030952"><ele>15.999999999999998</ele><time>2026-04-13T09:22:35.855Z</time></trkpt><trkpt lat="40.6338596" lon="14.6032089"><ele>16.0</ele><time>2026-04-13T09:22:36.85Z</time></trkpt><trkpt lat="40.6338776" lon="14.6033162"><ele>16.0</ele><time>2026-04-13T09:22:37.855Z</time></trkpt><trkpt lat="40.6338987" lon="14.6034478"><ele>16.0</ele><time>2026-04-13T09:22:38.856Z</time></trkpt><trkpt lat="40.6339164" lon="14.6035968"><ele>16.0</ele><time>2026-04-13T09:22:39.865Z</time></trkpt><trkpt lat="40.6339347" lon="14.6037626"><ele>16.0</ele><time>2026-04-13T09:22:40.859Z</time></trkpt><trkpt lat="40.6339548" lon="14.6039297"><ele>17.0</ele><time>2026-04-13T09:22:41.865Z</time></trkpt><trkpt lat="40.6339733" lon="14.6040922"><ele>18.0</ele><time>2026-04-13T09:22:42.861Z</time></trkpt><trkpt lat="40.6339886" lon="14.604237"><ele>19.0</ele><time>2026-04-13T09:22:43.862Z</time></trkpt><trkpt lat="40.6339973" lon="14.6043588"><ele>20.0</ele><time>2026-04-13T09:22:44.856Z</time></trkpt><trkpt lat="40.633986" lon="14.604473"><ele>21.0</ele><time>2026-04-13T09:22:45.864Z</time></trkpt><trkpt lat="40.6339543" lon="14.6045867"><ele>19.833333333333332</ele><time>2026-04-13T09:22:46.853Z</time></trkpt><trkpt lat="40.6339069" lon="14.6046752"><ele>18.666666666666668</ele><time>2026-04-13T09:22:47.858Z</time></trkpt><trkpt lat="40.6338525" lon="14.6047446"><ele>17.5</ele><time>2026-04-13T09:22:48.86Z</time></trkpt><trkpt lat="40.633793" lon="14.6047883"><ele>16.333333333333336</ele><time>2026-04-13T09:22:49.87Z</time></trkpt><trkpt lat="40.6337303" lon="14.6048331"><ele>15.166666666666668</ele><time>2026-04-13T09:22:50.848Z</time></trkpt><trkpt lat="40.6336515" lon="14.6048732"><ele>14.0</ele><time>2026-04-13T09:22:51.863Z</time></trkpt><trkpt lat="40.6335771" lon="14.6049151"><ele>14.000000000000002</ele><time>2026-04-13T09:22:52.842Z</time></trkpt><trkpt lat="40.6335129" lon="14.6049601"><ele>14.0</ele><time>2026-04-13T09:22:53.861Z</time></trkpt><trkpt lat="40.6334639" lon="14.6050154"><ele>14.0</ele><time>2026-04-13T09:22:54.865Z</time></trkpt><trkpt lat="40.6334099" lon="14.605155"><ele>14.0</ele><time>2026-04-13T09:22:56.855Z</time></trkpt><trkpt lat="40.6334119" lon="14.6052622"><ele>14.000000000000002</ele><time>2026-04-13T09:22:57.853Z</time></trkpt><trkpt lat="40.6334139" lon="14.6053879"><ele>14.0</ele><time>2026-04-13T09:22:58.862Z</time></trkpt><trkpt lat="40.6333984" lon="14.6055573"><ele>18.5</ele><time>2026-04-13T09:22:59.846Z</time></trkpt><trkpt lat="40.6333748" lon="14.6057326"><ele>23.0</ele><time>2026-04-13T09:23:00.862Z</time></trkpt><trkpt lat="40.6333473" lon="14.6058947"><ele>27.5</ele><time>2026-04-13T09:23:01.849Z</time></trkpt><trkpt lat="40.6333242" lon="14.6060351"><ele>32.0</ele><time>2026-04-13T09:23:02.863Z</time></trkpt><trkpt lat="40.6333" lon="14.6061541"><ele>28.833333333333332</ele><time>2026-04-13T09:23:03.871Z</time></trkpt><trkpt lat="40.6332632" lon="14.6062623"><ele>25.666666666666664</ele><time>2026-04-13T09:23:04.85Z</time></trkpt><trkpt lat="40.633209" lon="14.6063578"><ele>22.5</ele><time>2026-04-13T09:23:05.855Z</time></trkpt><trkpt lat="40.6331447" lon="14.6064426"><ele>19.333333333333332</ele><time>2026-04-13T09:23:06.854Z</time></trkpt><trkpt lat="40.6330951" lon="14.6065354"><ele>16.166666666666664</ele><time>2026-04-13T09:23:07.858Z</time></trkpt><trkpt lat="40.6330617" lon="14.6066262"><ele>13.0</ele><time>2026-04-13T09:23:08.842Z</time></trkpt><trkpt lat="40.6330351" lon="14.6067068"><ele>13.0</ele><time>2026-04-13T09:23:09.867Z</time></trkpt><trkpt lat="40.633022" lon="14.6068538"><ele>13.0</ele><time>2026-04-13T09:23:11.859Z</time></trkpt><trkpt lat="40.6330937" lon="14.6069749"><ele>13.0</ele><time>2026-04-13T09:23:13.89Z</time></trkpt><trkpt lat="40.633163" lon="14.6070233"><ele>13.0</ele><time>2026-04-13T09:23:14.867Z</time></trkpt><trkpt lat="40.6332512" lon="14.6070687"><ele>13.0</ele><time>2026-04-13T09:23:15.856Z</time></trkpt><trkpt lat="40.6333428" lon="14.6070952"><ele>11.833333333333332</ele><time>2026-04-13T09:23:16.853Z</time></trkpt><trkpt lat="40.6334278" lon="14.6071169"><ele>10.666666666666666</ele><time>2026-04-13T09:23:17.858Z</time></trkpt><trkpt lat="40.6335038" lon="14.6071301"><ele>9.5</ele><time>2026-04-13T09:23:18.862Z</time></trkpt><trkpt lat="40.6336113" lon="14.6071225"><ele>8.333333333333332</ele><time>2026-04-13T09:23:20.852Z</time></trkpt><trkpt lat="40.6336984" lon="14.6071082"><ele>7.166666666666666</ele><time>2026-04-13T09:23:22.849Z</time></trkpt><trkpt lat="40.6337704" lon="14.6071003"><ele>6.0</ele><time>2026-04-13T09:23:24.884Z</time></trkpt><trkpt lat="40.6338547" lon="14.6071138"><ele>11.5</ele><time>2026-04-13T09:23:26.866Z</time></trkpt><trkpt lat="40.6339973" lon="14.6071414"><ele>17.0</ele><time>2026-04-13T09:23:28.849Z</time></trkpt><trkpt lat="40.6340982" lon="14.6071883"><ele>22.5</ele><time>2026-04-13T09:23:29.847Z</time></trkpt><trkpt lat="40.6341992" lon="14.6072461"><ele>28.0</ele><time>2026-04-13T09:23:30.871Z</time></trkpt><trkpt lat="40.6342854" lon="14.6073118"><ele>28.0</ele><time>2026-04-13T09:23:31.86Z</time></trkpt><trkpt lat="40.6343657" lon="14.6073773"><ele>28.0</ele><time>2026-04-13T09:23:32.854Z</time></trkpt><trkpt lat="40.6344307" lon="14.6074755"><ele>28.0</ele><time>2026-04-13T09:23:33.861Z</time></trkpt><trkpt lat="40.6349874" lon="14.608043"><ele>25.666666666666668</ele><time>2026-04-13T09:23:40.846Z</time></trkpt><trkpt lat="40.6349782" lon="14.6082842"><ele>23.333333333333336</ele><time>2026-04-13T09:23:41.841Z</time></trkpt><trkpt lat="40.6351085" lon="14.6083367"><ele>21.0</ele><time>2026-04-13T09:23:42.854Z</time></trkpt><trkpt lat="40.6352489" lon="14.6083785"><ele>21.4</ele><time>2026-04-13T09:23:43.882Z</time></trkpt><trkpt lat="40.6353887" lon="14.6084065"><ele>21.8</ele><time>2026-04-13T09:23:44.856Z</time></trkpt><trkpt lat="40.6354958" lon="14.6084484"><ele>22.2</ele><time>2026-04-13T09:23:45.853Z</time></trkpt><trkpt lat="40.6355825" lon="14.6085164"><ele>22.599999999999998</ele><time>2026-04-13T09:23:46.864Z</time></trkpt><trkpt lat="40.6356512" lon="14.6085983"><ele>23.0</ele><time>2026-04-13T09:23:47.869Z</time></trkpt><trkpt lat="40.635699" lon="14.6086947"><ele>20.599999999999998</ele><time>2026-04-13T09:23:48.85Z</time></trkpt><trkpt lat="40.6357332" lon="14.6088126"><ele>18.2</ele><time>2026-04-13T09:23:49.869Z</time></trkpt><trkpt lat="40.6357676" lon="14.6089566"><ele>15.8</ele><time>2026-04-13T09:23:50.854Z</time></trkpt><trkpt lat="40.6357962" lon="14.6091113"><ele>13.4</ele><time>2026-04-13T09:23:51.86Z</time></trkpt><trkpt lat="40.63582" lon="14.6092472"><ele>11.0</ele><time>2026-04-13T09:23:52.845Z</time></trkpt><trkpt lat="40.6358387" lon="14.6093656"><ele>11.0</ele><time>2026-04-13T09:23:53.87Z</time></trkpt><trkpt lat="40.6358502" lon="14.6094744"><ele>11.0</ele><time>2026-04-13T09:23:54.848Z</time></trkpt><trkpt lat="40.6358389" lon="14.6095689"><ele>11.0</ele><time>2026-04-13T09:23:55.866Z</time></trkpt><trkpt lat="40.6358021" lon="14.6096419"><ele>11.0</ele><time>2026-04-13T09:23:56.847Z</time></trkpt><trkpt lat="40.6357283" lon="14.6097487"><ele>11.0</ele><time>2026-04-13T09:23:58.86Z</time></trkpt><trkpt lat="40.6356811" lon="14.6098738"><ele>11.0</ele><time>2026-04-13T09:24:00.863Z</time></trkpt><trkpt lat="40.6356915" lon="14.6100336"><ele>10.5</ele><time>2026-04-13T09:24:02.857Z</time></trkpt><trkpt lat="40.6357493" lon="14.6101749"><ele>10.0</ele><time>2026-04-13T09:24:04.876Z</time></trkpt><trkpt lat="40.6358407" lon="14.6102489"><ele>9.5</ele><time>2026-04-13T09:24:06.865Z</time></trkpt><trkpt lat="40.635964" lon="14.6102763"><ele>9.0</ele><time>2026-04-13T09:24:08.866Z</time></trkpt><trkpt lat="40.636066" lon="14.6102811"><ele>17.0</ele><time>2026-04-13T09:24:09.852Z</time></trkpt><trkpt lat="40.6361943" lon="14.6102858"><ele>25.0</ele><time>2026-04-13T09:24:10.865Z</time></trkpt><trkpt lat="40.6363128" lon="14.6102814"><ele>33.0</ele><time>2026-04-13T09:24:11.844Z</time></trkpt><trkpt lat="40.6364088" lon="14.6102689"><ele>41.0</ele><time>2026-04-13T09:24:12.862Z</time></trkpt><trkpt lat="40.6364834" lon="14.6102532"><ele>49.0</ele><time>2026-04-13T09:24:13.849Z</time></trkpt><trkpt lat="40.6365939" lon="14.6102265"><ele>49.0</ele><time>2026-04-13T09:24:15.861Z</time></trkpt><trkpt lat="40.6367009" lon="14.6102317"><ele>49.0</ele><time>2026-04-13T09:24:17.847Z</time></trkpt><trkpt lat="40.6367978" lon="14.610267"><ele>49.0</ele><time>2026-04-13T09:24:19.855Z</time></trkpt><trkpt lat="40.636911" lon="14.6103536"><ele>49.0</ele><time>2026-04-13T09:24:21.864Z</time></trkpt><trkpt lat="40.6369782" lon="14.6104216"><ele>49.0</ele><time>2026-04-13T09:24:22.86Z</time></trkpt><trkpt lat="40.6370484" lon="14.6105025"><ele>54.0</ele><time>2026-04-13T09:24:23.849Z</time></trkpt><trkpt lat="40.637112" lon="14.6105832"><ele>59.0</ele><time>2026-04-13T09:24:24.848Z</time></trkpt><trkpt lat="40.6371755" lon="14.61066"><ele>64.0</ele><time>2026-04-13T09:24:25.858Z</time></trkpt><trkpt lat="40.6372517" lon="14.610762"><ele>69.0</ele><time>2026-04-13T09:24:27.858Z</time></trkpt><trkpt lat="40.6372994" lon="14.6108256"><ele>74.0</ele><time>2026-04-13T09:24:30.853Z</time></trkpt><trkpt lat="40.6373752" lon="14.6109404"><ele>74.0</ele><time>2026-04-13T09:24:36.845Z</time></trkpt><trkpt lat="40.637414" lon="14.6110275"><ele>74.0</ele><time>2026-04-13T09:24:37.869Z</time></trkpt><trkpt lat="40.6374399" lon="14.6111364"><ele>74.0</ele><time>2026-04-13T09:24:38.868Z</time></trkpt><trkpt lat="40.6374513" lon="14.6112559"><ele>74.0</ele><time>2026-04-13T09:24:39.866Z</time></trkpt><trkpt lat="40.6374499" lon="14.6113615"><ele>74.0</ele><time>2026-04-13T09:24:40.86Z</time></trkpt><trkpt lat="40.6374253" lon="14.6114435"><ele>74.0</ele><time>2026-04-13T09:24:41.845Z</time></trkpt><trkpt lat="40.6373769" lon="14.6115015"><ele>69.83333333333334</ele><time>2026-04-13T09:24:42.858Z</time></trkpt><trkpt lat="40.6373147" lon="14.6115574"><ele>65.66666666666667</ele><time>2026-04-13T09:24:43.861Z</time></trkpt><trkpt lat="40.6372495" lon="14.6116119"><ele>61.5</ele><time>2026-04-13T09:24:44.846Z</time></trkpt><trkpt lat="40.6371968" lon="14.6116636"><ele>57.33333333333333</ele><time>2026-04-13T09:24:45.855Z</time></trkpt><trkpt lat="40.6371683" lon="14.6117869"><ele>53.166666666666664</ele><time>2026-04-13T09:24:47.868Z</time></trkpt><trkpt lat="40.6372284" lon="14.6119378"><ele>49.0</ele><time>2026-04-13T09:24:49.853Z</time></trkpt><trkpt lat="40.6372805" lon="14.6120372"><ele>47.166666666666664</ele><time>2026-04-13T09:24:50.868Z</time></trkpt><trkpt lat="40.6373383" lon="14.612127"><ele>45.33333333333333</ele><time>2026-04-13T09:24:51.846Z</time></trkpt><trkpt lat="40.637395" lon="14.6122136"><ele>43.5</ele><time>2026-04-13T09:24:52.868Z</time></trkpt><trkpt lat="40.6375017" lon="14.6122925"><ele>41.666666666666664</ele><time>2026-04-13T09:24:54.853Z</time></trkpt><trkpt lat="40.6375583" lon="14.6123359"><ele>39.83333333333333</ele><time>2026-04-13T09:24:55.855Z</time></trkpt><trkpt lat="40.6376085" lon="14.6124018"><ele>38.0</ele><time>2026-04-13T09:24:56.859Z</time></trkpt><trkpt lat="40.6376583" lon="14.612484"><ele>38.0</ele><time>2026-04-13T09:24:57.862Z</time></trkpt><trkpt lat="40.6377146" lon="14.6125684"><ele>38.0</ele><time>2026-04-13T09:24:58.856Z</time></trkpt><trkpt lat="40.637779" lon="14.6126376"><ele>38.0</ele><time>2026-04-13T09:24:59.858Z</time></trkpt><trkpt lat="40.6378547" lon="14.6126887"><ele>38.0</ele><time>2026-04-13T09:25:00.865Z</time></trkpt><trkpt lat="40.6379412" lon="14.6127247"><ele>38.0</ele><time>2026-04-13T09:25:01.858Z</time></trkpt><trkpt lat="40.6380368" lon="14.6127495"><ele>38.0</ele><time>2026-04-13T09:25:02.852Z</time></trkpt><trkpt lat="40.6381429" lon="14.6127608"><ele>42.8</ele><time>2026-04-13T09:25:03.854Z</time></trkpt><trkpt lat="40.6382636" lon="14.6127638"><ele>47.599999999999994</ele><time>2026-04-13T09:25:04.85Z</time></trkpt><trkpt lat="40.638378" lon="14.6127641"><ele>52.400000000000006</ele><time>2026-04-13T09:25:05.857Z</time></trkpt><trkpt lat="40.6384881" lon="14.6127634"><ele>57.2</ele><time>2026-04-13T09:25:06.866Z</time></trkpt><trkpt lat="40.6385804" lon="14.6127654"><ele>62.0</ele><time>2026-04-13T09:25:07.849Z</time></trkpt><trkpt lat="40.6386411" lon="14.6128128"><ele>59.50000000000001</ele><time>2026-04-13T09:25:08.857Z</time></trkpt><trkpt lat="40.6387054" lon="14.612863"><ele>57.0</ele><time>2026-04-13T09:25:09.846Z</time></trkpt><trkpt lat="40.6387663" lon="14.6129275"><ele>54.5</ele><time>2026-04-13T09:25:10.857Z</time></trkpt><trkpt lat="40.6388334" lon="14.6129602"><ele>52.0</ele><time>2026-04-13T09:25:11.849Z</time></trkpt><trkpt lat="40.638913" lon="14.6129736"><ele>49.5</ele><time>2026-04-13T09:25:12.851Z</time></trkpt><trkpt lat="40.6389917" lon="14.6129774"><ele>47.0</ele><time>2026-04-13T09:25:13.867Z</time></trkpt><trkpt lat="40.6390592" lon="14.6129812"><ele>47.0</ele><time>2026-04-13T09:25:14.853Z</time></trkpt><trkpt lat="40.6391245" lon="14.6129882"><ele>47.0</ele><time>2026-04-13T09:25:17.86Z</time></trkpt><trkpt lat="40.6391972" lon="14.6130148"><ele>47.0</ele><time>2026-04-13T09:25:25.864Z</time></trkpt><trkpt lat="40.6392684" lon="14.613055"><ele>47.0</ele><time>2026-04-13T09:25:29.845Z</time></trkpt><trkpt lat="40.6393268" lon="14.6130956"><ele>47.0</ele><time>2026-04-13T09:25:32.852Z</time></trkpt><trkpt lat="40.6393907" lon="14.613164"><ele>47.0</ele><time>2026-04-13T09:25:40.843Z</time></trkpt><trkpt lat="40.6394461" lon="14.6132686"><ele>47.5</ele><time>2026-04-13T09:25:43.859Z</time></trkpt><trkpt lat="40.6394825" lon="14.6133471"><ele>48.0</ele><time>2026-04-13T09:25:45.863Z</time></trkpt><trkpt lat="40.6395545" lon="14.6134305"><ele>48.5</ele><time>2026-04-13T09:25:47.856Z</time></trkpt><trkpt lat="40.6396497" lon="14.6135187"><ele>49.0</ele><time>2026-04-13T09:25:49.873Z</time></trkpt><trkpt lat="40.6397028" lon="14.6135656"><ele>49.50000000000001</ele><time>2026-04-13T09:25:50.848Z</time></trkpt><trkpt lat="40.6397572" lon="14.6136212"><ele>50.0</ele><time>2026-04-13T09:25:51.845Z</time></trkpt><trkpt lat="40.6398021" lon="14.6136823"><ele>50.0</ele><time>2026-04-13T09:25:52.848Z</time></trkpt><trkpt lat="40.6398392" lon="14.6138141"><ele>50.0</ele><time>2026-04-13T09:25:54.86Z</time></trkpt><trkpt lat="40.6398137" lon="14.6139684"><ele>50.0</ele><time>2026-04-13T09:25:56.864Z</time></trkpt><trkpt lat="40.6397849" lon="14.6140598"><ele>50.0</ele><time>2026-04-13T09:25:57.855Z</time></trkpt><trkpt lat="40.6397741" lon="14.6141442"><ele>50.0</ele><time>2026-04-13T09:25:58.851Z</time></trkpt><trkpt lat="40.6397987" lon="14.614297"><ele>50.0</ele><time>2026-04-13T09:26:00.879Z</time></trkpt><trkpt lat="40.6398515" lon="14.6143602"><ele>50.0</ele><time>2026-04-13T09:26:01.865Z</time></trkpt><trkpt lat="40.639915" lon="14.6144304"><ele>50.0</ele><time>2026-04-13T09:26:02.86Z</time></trkpt><trkpt lat="40.6399862" lon="14.6145189"><ele>50.0</ele><time>2026-04-13T09:26:03.846Z</time></trkpt><trkpt lat="40.6400565" lon="14.6146339"><ele>50.0</ele><time>2026-04-13T09:26:04.864Z</time></trkpt><trkpt lat="40.6401156" lon="14.6147649"><ele>54.4</ele><time>2026-04-13T09:26:05.85Z</time></trkpt><trkpt lat="40.640157" lon="14.6149064"><ele>58.8</ele><time>2026-04-13T09:26:06.877Z</time></trkpt><trkpt lat="40.6402039" lon="14.6150385"><ele>63.2</ele><time>2026-04-13T09:26:07.878Z</time></trkpt><trkpt lat="40.6402615" lon="14.6151524"><ele>67.6</ele><time>2026-04-13T09:26:08.851Z</time></trkpt><trkpt lat="40.6403269" lon="14.6152306"><ele>72.0</ele><time>2026-04-13T09:26:09.858Z</time></trkpt><trkpt lat="40.6404044" lon="14.6152835"><ele>64.25</ele><time>2026-04-13T09:26:10.859Z</time></trkpt><trkpt lat="40.6405059" lon="14.615346"><ele>56.5</ele><time>2026-04-13T09:26:11.86Z</time></trkpt><trkpt lat="40.640623" lon="14.6154357"><ele>48.75</ele><time>2026-04-13T09:26:12.84Z</time></trkpt><trkpt lat="40.6407433" lon="14.6155535"><ele>41.0</ele><time>2026-04-13T09:26:13.846Z</time></trkpt><trkpt lat="40.6408771" lon="14.6156913"><ele>41.0</ele><time>2026-04-13T09:26:14.855Z</time></trkpt><trkpt lat="40.6410108" lon="14.6158243"><ele>41.0</ele><time>2026-04-13T09:26:15.861Z</time></trkpt><trkpt lat="40.6411511" lon="14.6159506"><ele>41.0</ele><time>2026-04-13T09:26:16.868Z</time></trkpt><trkpt lat="40.6412824" lon="14.6160672"><ele>41.75</ele><time>2026-04-13T09:26:17.864Z</time></trkpt><trkpt lat="40.6413897" lon="14.6161825"><ele>42.5</ele><time>2026-04-13T09:26:18.847Z</time></trkpt><trkpt lat="40.6414754" lon="14.6162916"><ele>43.25</ele><time>2026-04-13T09:26:19.852Z</time></trkpt><trkpt lat="40.641559" lon="14.6163721"><ele>44.0</ele><time>2026-04-13T09:26:20.857Z</time></trkpt><trkpt lat="40.6416453" lon="14.6164041"><ele>44.0</ele><time>2026-04-13T09:26:21.868Z</time></trkpt><trkpt lat="40.64173" lon="14.6163939"><ele>44.0</ele><time>2026-04-13T09:26:22.873Z</time></trkpt><trkpt lat="40.641807" lon="14.6163836"><ele>44.0</ele><time>2026-04-13T09:26:23.864Z</time></trkpt><trkpt lat="40.6418801" lon="14.6163752"><ele>44.0</ele><time>2026-04-13T09:26:24.85Z</time></trkpt><trkpt lat="40.641926" lon="14.6164484"><ele>44.0</ele><time>2026-04-13T09:26:25.847Z</time></trkpt><trkpt lat="40.6419607" lon="14.6165555"><ele>44.0</ele><time>2026-04-13T09:26:26.863Z</time></trkpt><trkpt lat="40.6419742" lon="14.6166703"><ele>44.0</ele><time>2026-04-13T09:26:27.848Z</time></trkpt><trkpt lat="40.6419561" lon="14.616785"><ele>44.0</ele><time>2026-04-13T09:26:28.863Z</time></trkpt><trkpt lat="40.6419371" lon="14.6169051"><ele>44.0</ele><time>2026-04-13T09:26:29.847Z</time></trkpt><trkpt lat="40.6419401" lon="14.617026"><ele>44.0</ele><time>2026-04-13T09:26:30.854Z</time></trkpt><trkpt lat="40.6419632" lon="14.6171619"><ele>44.0</ele><time>2026-04-13T09:26:31.85Z</time></trkpt><trkpt lat="40.6419963" lon="14.6173176"><ele>46.6</ele><time>2026-04-13T09:26:32.859Z</time></trkpt><trkpt lat="40.6420346" lon="14.6174741"><ele>49.2</ele><time>2026-04-13T09:26:33.86Z</time></trkpt><trkpt lat="40.6420712" lon="14.6176183"><ele>51.800000000000004</ele><time>2026-04-13T09:26:34.857Z</time></trkpt><trkpt lat="40.6421086" lon="14.6177521"><ele>54.400000000000006</ele><time>2026-04-13T09:26:35.85Z</time></trkpt><trkpt lat="40.642139" lon="14.6178663"><ele>57.0</ele><time>2026-04-13T09:26:36.852Z</time></trkpt><trkpt lat="40.6421634" lon="14.6179569"><ele>50.2</ele><time>2026-04-13T09:26:37.845Z</time></trkpt><trkpt lat="40.6422306" lon="14.6180731"><ele>43.400000000000006</ele><time>2026-04-13T09:26:39.858Z</time></trkpt><trkpt lat="40.6423425" lon="14.6181287"><ele>36.6</ele><time>2026-04-13T09:26:41.841Z</time></trkpt><trkpt lat="40.6424231" lon="14.6181467"><ele>29.799999999999997</ele><time>2026-04-13T09:26:42.851Z</time></trkpt><trkpt lat="40.6425046" lon="14.6181615"><ele>23.0</ele><time>2026-04-13T09:26:43.847Z</time></trkpt><trkpt lat="40.6425936" lon="14.6181762"><ele>23.0</ele><time>2026-04-13T09:26:44.853Z</time></trkpt><trkpt lat="40.6426803" lon="14.6181781"><ele>23.0</ele><time>2026-04-13T09:26:45.861Z</time></trkpt><trkpt lat="40.6427611" lon="14.6181593"><ele>23.0</ele><time>2026-04-13T09:26:46.839Z</time></trkpt><trkpt lat="40.6428441" lon="14.6181272"><ele>23.0</ele><time>2026-04-13T09:26:47.866Z</time></trkpt><trkpt lat="40.6429266" lon="14.6180917"><ele>23.0</ele><time>2026-04-13T09:26:48.845Z</time></trkpt><trkpt lat="40.6430078" lon="14.6180599"><ele>23.0</ele><time>2026-04-13T09:26:49.85Z</time></trkpt><trkpt lat="40.6430872" lon="14.6180245"><ele>23.166666666666668</ele><time>2026-04-13T09:26:50.861Z</time></trkpt><trkpt lat="40.6431621" lon="14.6179655"><ele>23.333333333333336</ele><time>2026-04-13T09:26:51.846Z</time></trkpt><trkpt lat="40.6432387" lon="14.6178855"><ele>23.5</ele><time>2026-04-13T09:26:52.84Z</time></trkpt><trkpt lat="40.6433073" lon="14.6178003"><ele>23.666666666666668</ele><time>2026-04-13T09:26:53.843Z</time></trkpt><trkpt lat="40.6433672" lon="14.6177226"><ele>23.833333333333332</ele><time>2026-04-13T09:26:54.854Z</time></trkpt><trkpt lat="40.6434138" lon="14.6176598"><ele>24.0</ele><time>2026-04-13T09:26:55.851Z</time></trkpt><trkpt lat="40.6435061" lon="14.617623"><ele>27.4</ele><time>2026-04-13T09:26:57.855Z</time></trkpt><trkpt lat="40.6435751" lon="14.6177228"><ele>30.799999999999997</ele><time>2026-04-13T09:26:59.856Z</time></trkpt><trkpt lat="40.6436023" lon="14.6178052"><ele>34.199999999999996</ele><time>2026-04-13T09:27:00.867Z</time></trkpt><trkpt lat="40.6436339" lon="14.6178813"><ele>37.599999999999994</ele><time>2026-04-13T09:27:01.845Z</time></trkpt><trkpt lat="40.6437271" lon="14.617982"><ele>41.0</ele><time>2026-04-13T09:27:03.856Z</time></trkpt><trkpt lat="40.6438483" lon="14.6179938"><ele>41.0</ele><time>2026-04-13T09:27:05.847Z</time></trkpt><trkpt lat="40.6439601" lon="14.6180127"><ele>41.0</ele><time>2026-04-13T09:27:07.851Z</time></trkpt><trkpt lat="40.6440309" lon="14.6181222"><ele>41.0</ele><time>2026-04-13T09:27:09.862Z</time></trkpt><trkpt lat="40.644067" lon="14.6182899"><ele>41.0</ele><time>2026-04-13T09:27:11.846Z</time></trkpt><trkpt lat="40.6440823" lon="14.6183805"><ele>41.0</ele><time>2026-04-13T09:27:12.862Z</time></trkpt><trkpt lat="40.6441037" lon="14.6184595"><ele>41.0</ele><time>2026-04-13T09:27:13.859Z</time></trkpt><trkpt lat="40.6441727" lon="14.6185701"><ele>41.0</ele><time>2026-04-13T09:27:15.851Z</time></trkpt><trkpt lat="40.6443128" lon="14.6185649"><ele>41.0</ele><time>2026-04-13T09:27:17.855Z</time></trkpt><trkpt lat="40.6444133" lon="14.6185389"><ele>41.0</ele><time>2026-04-13T09:27:18.847Z</time></trkpt><trkpt lat="40.644533" lon="14.6185314"><ele>44.599999999999994</ele><time>2026-04-13T09:27:19.849Z</time></trkpt><trkpt lat="40.6446528" lon="14.6185261"><ele>48.2</ele><time>2026-04-13T09:27:20.864Z</time></trkpt><trkpt lat="40.6447591" lon="14.6185392"><ele>51.800000000000004</ele><time>2026-04-13T09:27:21.856Z</time></trkpt><trkpt lat="40.6448486" lon="14.6185618"><ele>55.400000000000006</ele><time>2026-04-13T09:27:22.867Z</time></trkpt><trkpt lat="40.644929" lon="14.6186052"><ele>59.0</ele><time>2026-04-13T09:27:23.846Z</time></trkpt><trkpt lat="40.6449969" lon="14.6186711"><ele>54.333333333333336</ele><time>2026-04-13T09:27:24.862Z</time></trkpt><trkpt lat="40.6450556" lon="14.6187368"><ele>49.66666666666667</ele><time>2026-04-13T09:27:25.848Z</time></trkpt><trkpt lat="40.6451187" lon="14.6187895"><ele>45.0</ele><time>2026-04-13T09:27:26.871Z</time></trkpt><trkpt lat="40.6451832" lon="14.6188425"><ele>40.333333333333336</ele><time>2026-04-13T09:27:27.851Z</time></trkpt><trkpt lat="40.6452596" lon="14.6188751"><ele>35.66666666666667</ele><time>2026-04-13T09:27:28.868Z</time></trkpt><trkpt lat="40.6453324" lon="14.6188958"><ele>31.0</ele><time>2026-04-13T09:27:29.849Z</time></trkpt><trkpt lat="40.6453989" lon="14.6189097"><ele>31.000000000000004</ele><time>2026-04-13T09:27:30.867Z</time></trkpt><trkpt lat="40.6454676" lon="14.6189214"><ele>31.0</ele><time>2026-04-13T09:27:31.849Z</time></trkpt><trkpt lat="40.6455406" lon="14.6189267"><ele>31.0</ele><time>2026-04-13T09:27:32.846Z</time></trkpt><trkpt lat="40.6456129" lon="14.6189239"><ele>31.0</ele><time>2026-04-13T09:27:33.866Z</time></trkpt><trkpt lat="40.6456804" lon="14.6189155"><ele>31.000000000000004</ele><time>2026-04-13T09:27:34.853Z</time></trkpt><trkpt lat="40.6457428" lon="14.6188999"><ele>31.0</ele><time>2026-04-13T09:27:35.843Z</time></trkpt><trkpt lat="40.6458517" lon="14.6188329"><ele>31.0</ele><time>2026-04-13T09:27:37.87Z</time></trkpt><trkpt lat="40.6459519" lon="14.6187631"><ele>31.0</ele><time>2026-04-13T09:27:39.858Z</time></trkpt><trkpt lat="40.6460407" lon="14.6187109"><ele>31.0</ele><time>2026-04-13T09:27:41.846Z</time></trkpt><trkpt lat="40.6461112" lon="14.6187632"><ele>31.0</ele><time>2026-04-13T09:27:43.863Z</time></trkpt><trkpt lat="40.6461492" lon="14.6188952"><ele>31.0</ele><time>2026-04-13T09:27:45.844Z</time></trkpt><trkpt lat="40.6461466" lon="14.6189796"><ele>31.0</ele><time>2026-04-13T09:27:46.883Z</time></trkpt><trkpt lat="40.6461343" lon="14.6190611"><ele>31.0</ele><time>2026-04-13T09:27:47.848Z</time></trkpt><trkpt lat="40.6461008" lon="14.6191782"><ele>31.0</ele><time>2026-04-13T09:27:49.871Z</time></trkpt><trkpt lat="40.6460878" lon="14.6192945"><ele>31.0</ele><time>2026-04-13T09:27:51.852Z</time></trkpt><trkpt lat="40.6461313" lon="14.6194274"><ele>31.0</ele><time>2026-04-13T09:27:53.88Z</time></trkpt><trkpt lat="40.646245" lon="14.6195004"><ele>33.5</ele><time>2026-04-13T09:27:55.872Z</time></trkpt><trkpt lat="40.6463217" lon="14.6195163"><ele>36.0</ele><time>2026-04-13T09:27:56.866Z</time></trkpt><trkpt lat="40.6463946" lon="14.6195374"><ele>38.5</ele><time>2026-04-13T09:27:57.86Z</time></trkpt><trkpt lat="40.6464684" lon="14.6195856"><ele>41.0</ele><time>2026-04-13T09:27:58.849Z</time></trkpt><trkpt lat="40.6465434" lon="14.6196366"><ele>43.5</ele><time>2026-04-13T09:27:59.848Z</time></trkpt><trkpt lat="40.6466097" lon="14.6197387"><ele>46.0</ele><time>2026-04-13T09:28:00.859Z</time></trkpt><trkpt lat="40.6466509" lon="14.6198442"><ele>46.0</ele><time>2026-04-13T09:28:01.846Z</time></trkpt><trkpt lat="40.6466553" lon="14.6199519"><ele>46.0</ele><time>2026-04-13T09:28:02.853Z</time></trkpt><trkpt lat="40.6466235" lon="14.620058"><ele>46.0</ele><time>2026-04-13T09:28:03.872Z</time></trkpt><trkpt lat="40.6465699" lon="14.620177"><ele>46.0</ele><time>2026-04-13T09:28:04.847Z</time></trkpt><trkpt lat="40.6465272" lon="14.620309"><ele>46.0</ele><time>2026-04-13T09:28:05.867Z</time></trkpt><trkpt lat="40.646498" lon="14.620434"><ele>45.333333333333336</ele><time>2026-04-13T09:28:06.856Z</time></trkpt><trkpt lat="40.6464733" lon="14.6205441"><ele>44.66666666666667</ele><time>2026-04-13T09:28:07.858Z</time></trkpt><trkpt lat="40.6464475" lon="14.6206416"><ele>44.0</ele><time>2026-04-13T09:28:08.876Z</time></trkpt><trkpt lat="40.6464259" lon="14.6207414"><ele>43.333333333333336</ele><time>2026-04-13T09:28:09.862Z</time></trkpt><trkpt lat="40.6464141" lon="14.6208488"><ele>42.666666666666664</ele><time>2026-04-13T09:28:10.852Z</time></trkpt><trkpt lat="40.6464136" lon="14.6209524"><ele>42.0</ele><time>2026-04-13T09:28:11.849Z</time></trkpt><trkpt lat="40.6464221" lon="14.6210562"><ele>39.57142857142857</ele><time>2026-04-13T09:28:12.865Z</time></trkpt><trkpt lat="40.6464381" lon="14.6211579"><ele>37.142857142857146</ele><time>2026-04-13T09:28:13.844Z</time></trkpt><trkpt lat="40.6464585" lon="14.621252"><ele>34.714285714285715</ele><time>2026-04-13T09:28:14.865Z</time></trkpt><trkpt lat="40.6464818" lon="14.6213381"><ele>32.285714285714285</ele><time>2026-04-13T09:28:15.86Z</time></trkpt><trkpt lat="40.6465169" lon="14.6214149"><ele>29.857142857142858</ele><time>2026-04-13T09:28:16.872Z</time></trkpt><trkpt lat="40.6465647" lon="14.6214719"><ele>27.42857142857143</ele><time>2026-04-13T09:28:17.852Z</time></trkpt><trkpt lat="40.6466236" lon="14.6215045"><ele>25.0</ele><time>2026-04-13T09:28:18.865Z</time></trkpt><trkpt lat="40.6466875" lon="14.6215191"><ele>25.000000000000004</ele><time>2026-04-13T09:28:19.851Z</time></trkpt><trkpt lat="40.6467518" lon="14.6215335"><ele>25.0</ele><time>2026-04-13T09:28:20.855Z</time></trkpt><trkpt lat="40.6468155" lon="14.6215502"><ele>25.0</ele><time>2026-04-13T09:28:21.869Z</time></trkpt><trkpt lat="40.6468784" lon="14.6215671"><ele>25.0</ele><time>2026-04-13T09:28:22.86Z</time></trkpt><trkpt lat="40.6469431" lon="14.621586"><ele>25.0</ele><time>2026-04-13T09:28:23.868Z</time></trkpt><trkpt lat="40.6470216" lon="14.6216077"><ele>25.000000000000004</ele><time>2026-04-13T09:28:24.848Z</time></trkpt><trkpt lat="40.6471155" lon="14.6216419"><ele>25.0</ele><time>2026-04-13T09:28:25.871Z</time></trkpt><trkpt lat="40.6472197" lon="14.6216806"><ele>29.2</ele><time>2026-04-13T09:28:26.86Z</time></trkpt><trkpt lat="40.6473239" lon="14.6217534"><ele>33.4</ele><time>2026-04-13T09:28:27.856Z</time></trkpt><trkpt lat="40.6474057" lon="14.6218374"><ele>37.599999999999994</ele><time>2026-04-13T09:28:28.863Z</time></trkpt><trkpt lat="40.647464" lon="14.6219393"><ele>41.8</ele><time>2026-04-13T09:28:29.862Z</time></trkpt><trkpt lat="40.6475217" lon="14.6220477"><ele>46.0</ele><time>2026-04-13T09:28:30.857Z</time></trkpt><trkpt lat="40.6475636" lon="14.6221972"><ele>46.0</ele><time>2026-04-13T09:28:31.864Z</time></trkpt><trkpt lat="40.6476035" lon="14.622341"><ele>46.0</ele><time>2026-04-13T09:28:32.845Z</time></trkpt><trkpt lat="40.6476372" lon="14.6224738"><ele>46.0</ele><time>2026-04-13T09:28:33.876Z</time></trkpt><trkpt lat="40.6476706" lon="14.6225942"><ele>46.0</ele><time>2026-04-13T09:28:34.854Z</time></trkpt><trkpt lat="40.6477081" lon="14.6227056"><ele>46.0</ele><time>2026-04-13T09:28:35.867Z</time></trkpt><trkpt lat="40.6477536" lon="14.6228131"><ele>53.199999999999996</ele><time>2026-04-13T09:28:36.865Z</time></trkpt><trkpt lat="40.6478017" lon="14.6229203"><ele>60.39999999999999</ele><time>2026-04-13T09:28:37.848Z</time></trkpt><trkpt lat="40.6478534" lon="14.6230266"><ele>67.6</ele><time>2026-04-13T09:28:38.851Z</time></trkpt><trkpt lat="40.6478799" lon="14.6231435"><ele>74.8</ele><time>2026-04-13T09:28:39.853Z</time></trkpt><trkpt lat="40.6479002" lon="14.6232714"><ele>82.0</ele><time>2026-04-13T09:28:40.853Z</time></trkpt><trkpt lat="40.6479411" lon="14.6233929"><ele>82.0</ele><time>2026-04-13T09:28:41.848Z</time></trkpt><trkpt lat="40.6479927" lon="14.6235094"><ele>82.0</ele><time>2026-04-13T09:28:42.868Z</time></trkpt><trkpt lat="40.6480409" lon="14.6236149"><ele>82.0</ele><time>2026-04-13T09:28:43.85Z</time></trkpt><trkpt lat="40.6480612" lon="14.6237094"><ele>82.0</ele><time>2026-04-13T09:28:44.869Z</time></trkpt><trkpt lat="40.6480428" lon="14.6238033"><ele>82.0</ele><time>2026-04-13T09:28:45.875Z</time></trkpt><trkpt lat="40.6480186" lon="14.6239049"><ele>82.0</ele><time>2026-04-13T09:28:46.855Z</time></trkpt><trkpt lat="40.6479503" lon="14.6239997"><ele>78.0</ele><time>2026-04-13T09:28:47.863Z</time></trkpt><trkpt lat="40.6478868" lon="14.6240997"><ele>74.0</ele><time>2026-04-13T09:28:48.859Z</time></trkpt><trkpt lat="40.6478524" lon="14.6242106"><ele>70.0</ele><time>2026-04-13T09:28:49.853Z</time></trkpt><trkpt lat="40.6478346" lon="14.6243357"><ele>66.0</ele><time>2026-04-13T09:28:50.848Z</time></trkpt><trkpt lat="40.6478394" lon="14.6244557"><ele>62.0</ele><time>2026-04-13T09:28:51.862Z</time></trkpt><trkpt lat="40.6478704" lon="14.624563"><ele>58.8</ele><time>2026-04-13T09:28:52.847Z</time></trkpt><trkpt lat="40.6479275" lon="14.6246571"><ele>55.6</ele><time>2026-04-13T09:28:53.851Z</time></trkpt><trkpt lat="40.6480081" lon="14.6247298"><ele>52.4</ele><time>2026-04-13T09:28:54.857Z</time></trkpt><trkpt lat="40.6481042" lon="14.6247748"><ele>49.199999999999996</ele><time>2026-04-13T09:28:55.86Z</time></trkpt><trkpt lat="40.6481967" lon="14.6248254"><ele>46.0</ele><time>2026-04-13T09:28:56.849Z</time></trkpt><trkpt lat="40.6482862" lon="14.6248752"><ele>46.0</ele><time>2026-04-13T09:28:57.874Z</time></trkpt><trkpt lat="40.6483288" lon="14.6249576"><ele>46.0</ele><time>2026-04-13T09:28:58.848Z</time></trkpt><trkpt lat="40.6483447" lon="14.6250526"><ele>46.0</ele><time>2026-04-13T09:28:59.866Z</time></trkpt><trkpt lat="40.6483406" lon="14.6251619"><ele>46.0</ele><time>2026-04-13T09:29:00.844Z</time></trkpt><trkpt lat="40.6483298" lon="14.625284"><ele>46.0</ele><time>2026-04-13T09:29:01.86Z</time></trkpt><trkpt lat="40.6483251" lon="14.6254011"><ele>46.0</ele><time>2026-04-13T09:29:02.845Z</time></trkpt><trkpt lat="40.6483436" lon="14.6255038"><ele>44.4</ele><time>2026-04-13T09:29:03.857Z</time></trkpt><trkpt lat="40.6483853" lon="14.6255895"><ele>42.8</ele><time>2026-04-13T09:29:04.85Z</time></trkpt><trkpt lat="40.6484534" lon="14.6256577"><ele>41.199999999999996</ele><time>2026-04-13T09:29:05.871Z</time></trkpt><trkpt lat="40.6485454" lon="14.6257282"><ele>39.599999999999994</ele><time>2026-04-13T09:29:06.862Z</time></trkpt><trkpt lat="40.6486402" lon="14.6258002"><ele>38.0</ele><time>2026-04-13T09:29:07.856Z</time></trkpt><trkpt lat="40.6487424" lon="14.6258698"><ele>38.0</ele><time>2026-04-13T09:29:08.846Z</time></trkpt><trkpt lat="40.6488354" lon="14.6258941"><ele>38.0</ele><time>2026-04-13T09:29:09.862Z</time></trkpt><trkpt lat="40.648939" lon="14.6258982"><ele>38.0</ele><time>2026-04-13T09:29:10.856Z</time></trkpt><trkpt lat="40.6490475" lon="14.6259058"><ele>38.0</ele><time>2026-04-13T09:29:11.866Z</time></trkpt><trkpt lat="40.6491537" lon="14.6259204"><ele>38.0</ele><time>2026-04-13T09:29:12.847Z</time></trkpt><trkpt lat="40.6492402" lon="14.6259339"><ele>38.0</ele><time>2026-04-13T09:29:13.857Z</time></trkpt><trkpt lat="40.6493054" lon="14.6259244"><ele>38.0</ele><time>2026-04-13T09:29:14.861Z</time></trkpt><trkpt lat="40.6493535" lon="14.625842"><ele>38.0</ele><time>2026-04-13T09:29:15.861Z</time></trkpt><trkpt lat="40.6494168" lon="14.625741"><ele>38.0</ele><time>2026-04-13T09:29:16.871Z</time></trkpt><trkpt lat="40.6494821" lon="14.6256402"><ele>38.0</ele><time>2026-04-13T09:29:17.841Z</time></trkpt><trkpt lat="40.6495769" lon="14.6255643"><ele>35.0</ele><time>2026-04-13T09:29:18.854Z</time></trkpt><trkpt lat="40.6496704" lon="14.625509"><ele>31.999999999999996</ele><time>2026-04-13T09:29:19.864Z</time></trkpt><trkpt lat="40.6497468" lon="14.6254728"><ele>29.0</ele><time>2026-04-13T09:29:20.852Z</time></trkpt><trkpt lat="40.6498792" lon="14.6254679"><ele>26.0</ele><time>2026-04-13T09:29:22.867Z</time></trkpt><trkpt lat="40.6499707" lon="14.6255865"><ele>23.0</ele><time>2026-04-13T09:29:24.86Z</time></trkpt><trkpt lat="40.6500301" lon="14.625616"><ele>23.0</ele><time>2026-04-13T09:29:25.843Z</time></trkpt><trkpt lat="40.6500955" lon="14.6256105"><ele>23.0</ele><time>2026-04-13T09:29:26.862Z</time></trkpt><trkpt lat="40.6501632" lon="14.6256015"><ele>23.0</ele><time>2026-04-13T09:29:27.868Z</time></trkpt><trkpt lat="40.6502439" lon="14.6255606"><ele>23.0</ele><time>2026-04-13T09:29:28.862Z</time></trkpt><trkpt lat="40.6503383" lon="14.6255139"><ele>23.0</ele><time>2026-04-13T09:29:29.845Z</time></trkpt><trkpt lat="40.6504458" lon="14.6254596"><ele>23.0</ele><time>2026-04-13T09:29:30.878Z</time></trkpt><trkpt lat="40.6505575" lon="14.625408"><ele>22.2</ele><time>2026-04-13T09:29:31.86Z</time></trkpt><trkpt lat="40.6506695" lon="14.6253567"><ele>21.4</ele><time>2026-04-13T09:29:32.86Z</time></trkpt><trkpt lat="40.6507733" lon="14.6253223"><ele>20.599999999999998</ele><time>2026-04-13T09:29:33.86Z</time></trkpt><trkpt lat="40.6508605" lon="14.6253081"><ele>19.799999999999997</ele><time>2026-04-13T09:29:34.847Z</time></trkpt><trkpt lat="40.6509264" lon="14.6253178"><ele>19.0</ele><time>2026-04-13T09:29:35.866Z</time></trkpt><trkpt lat="40.6509785" lon="14.6254232"><ele>19.0</ele><time>2026-04-13T09:29:37.855Z</time></trkpt><trkpt lat="40.6509059" lon="14.6254995"><ele>19.0</ele><time>2026-04-13T09:29:39.863Z</time></trkpt><trkpt lat="40.6507774" lon="14.6255575"><ele>19.0</ele><time>2026-04-13T09:29:41.86Z</time></trkpt><trkpt lat="40.6506884" lon="14.6255982"><ele>19.0</ele><time>2026-04-13T09:29:42.851Z</time></trkpt><trkpt lat="40.6506011" lon="14.6256392"><ele>19.0</ele><time>2026-04-13T09:29:43.85Z</time></trkpt><trkpt lat="40.6505079" lon="14.6256856"><ele>19.0</ele><time>2026-04-13T09:29:44.857Z</time></trkpt><trkpt lat="40.6504049" lon="14.6257258"><ele>19.0</ele><time>2026-04-13T09:29:45.864Z</time></trkpt><trkpt lat="40.6502933" lon="14.6257679"><ele>19.0</ele><time>2026-04-13T09:29:46.846Z</time></trkpt><trkpt lat="40.6501703" lon="14.6258221"><ele>19.0</ele><time>2026-04-13T09:29:47.861Z</time></trkpt><trkpt lat="40.6500488" lon="14.6258797"><ele>19.799999999999997</ele><time>2026-04-13T09:29:48.856Z</time></trkpt><trkpt lat="40.6499317" lon="14.6259341"><ele>20.599999999999998</ele><time>2026-04-13T09:29:49.861Z</time></trkpt><trkpt lat="40.6498304" lon="14.6259819"><ele>21.4</ele><time>2026-04-13T09:29:50.858Z</time></trkpt><trkpt lat="40.6497599" lon="14.6260186"><ele>22.2</ele><time>2026-04-13T09:29:51.856Z</time></trkpt><trkpt lat="40.6496889" lon="14.6260527"><ele>23.0</ele><time>2026-04-13T09:29:52.866Z</time></trkpt><trkpt lat="40.6495954" lon="14.6261053"><ele>21.666666666666668</ele><time>2026-04-13T09:29:53.851Z</time></trkpt><trkpt lat="40.6494976" lon="14.6261531"><ele>20.333333333333336</ele><time>2026-04-13T09:29:54.852Z</time></trkpt><trkpt lat="40.6494071" lon="14.6262087"><ele>19.0</ele><time>2026-04-13T09:29:55.857Z</time></trkpt><trkpt lat="40.6493369" lon="14.6262788"><ele>17.666666666666668</ele><time>2026-04-13T09:29:56.85Z</time></trkpt><trkpt lat="40.6492926" lon="14.626367"><ele>16.333333333333332</ele><time>2026-04-13T09:29:57.868Z</time></trkpt><trkpt lat="40.6492798" lon="14.6264612"><ele>15.0</ele><time>2026-04-13T09:29:58.859Z</time></trkpt><trkpt lat="40.6492893" lon="14.6265593"><ele>14.4</ele><time>2026-04-13T09:29:59.847Z</time></trkpt><trkpt lat="40.6493104" lon="14.6266751"><ele>13.8</ele><time>2026-04-13T09:30:00.861Z</time></trkpt><trkpt lat="40.6493358" lon="14.6268028"><ele>13.2</ele><time>2026-04-13T09:30:01.861Z</time></trkpt><trkpt lat="40.6493569" lon="14.6269362"><ele>12.6</ele><time>2026-04-13T09:30:02.845Z</time></trkpt><trkpt lat="40.6493745" lon="14.6270588"><ele>12.0</ele><time>2026-04-13T09:30:03.866Z</time></trkpt><trkpt lat="40.6493881" lon="14.6271692"><ele>11.2</ele><time>2026-04-13T09:30:04.852Z</time></trkpt><trkpt lat="40.6493971" lon="14.6272708"><ele>10.399999999999999</ele><time>2026-04-13T09:30:05.871Z</time></trkpt><trkpt lat="40.649406" lon="14.6273788"><ele>9.600000000000001</ele><time>2026-04-13T09:30:06.844Z</time></trkpt><trkpt lat="40.6494191" lon="14.6274972"><ele>8.8</ele><time>2026-04-13T09:30:07.856Z</time></trkpt><trkpt lat="40.649436" lon="14.6276256"><ele>8.0</ele><time>2026-04-13T09:30:08.872Z</time></trkpt><trkpt lat="40.6494521" lon="14.6277581"><ele>8.75</ele><time>2026-04-13T09:30:09.853Z</time></trkpt><trkpt lat="40.6494706" lon="14.6279023"><ele>9.5</ele><time>2026-04-13T09:30:10.86Z</time></trkpt><trkpt lat="40.64949" lon="14.628049"><ele>10.25</ele><time>2026-04-13T09:30:11.844Z</time></trkpt><trkpt lat="40.6495092" lon="14.6281998"><ele>11.0</ele><time>2026-04-13T09:30:12.865Z</time></trkpt><trkpt lat="40.649527" lon="14.6283522"><ele>11.0</ele><time>2026-04-13T09:30:13.849Z</time></trkpt><trkpt lat="40.6495475" lon="14.6285021"><ele>11.0</ele><time>2026-04-13T09:30:14.852Z</time></trkpt><trkpt lat="40.6495653" lon="14.6286481"><ele>11.0</ele><time>2026-04-13T09:30:15.859Z</time></trkpt><trkpt lat="40.6495817" lon="14.6287882"><ele>11.0</ele><time>2026-04-13T09:30:16.859Z</time></trkpt><trkpt lat="40.6495884" lon="14.6289173"><ele>11.0</ele><time>2026-04-13T09:30:17.85Z</time></trkpt><trkpt lat="40.6495933" lon="14.6290443"><ele>12.0</ele><time>2026-04-13T09:30:18.845Z</time></trkpt><trkpt lat="40.6495449" lon="14.6291513"><ele>13.0</ele><time>2026-04-13T09:30:19.858Z</time></trkpt><trkpt lat="40.6494896" lon="14.6292654"><ele>14.0</ele><time>2026-04-13T09:30:20.857Z</time></trkpt><trkpt lat="40.6493922" lon="14.6293552"><ele>15.0</ele><time>2026-04-13T09:30:21.861Z</time></trkpt><trkpt lat="40.6492686" lon="14.6294512"><ele>27.666666666666668</ele><time>2026-04-13T09:30:22.867Z</time></trkpt><trkpt lat="40.6491164" lon="14.6295546"><ele>40.333333333333336</ele><time>2026-04-13T09:30:23.862Z</time></trkpt><trkpt lat="40.6489484" lon="14.6296606"><ele>53.0</ele><time>2026-04-13T09:30:24.851Z</time></trkpt><trkpt lat="40.6487973" lon="14.6297574"><ele>53.0</ele><time>2026-04-13T09:30:25.868Z</time></trkpt><trkpt lat="40.6486726" lon="14.6298399"><ele>53.0</ele><time>2026-04-13T09:30:26.839Z</time></trkpt><trkpt lat="40.6485614" lon="14.6299137"><ele>53.0</ele><time>2026-04-13T09:30:27.878Z</time></trkpt><trkpt lat="40.6484935" lon="14.6299941"><ele>53.0</ele><time>2026-04-13T09:30:28.863Z</time></trkpt><trkpt lat="40.6484484" lon="14.6300954"><ele>53.0</ele><time>2026-04-13T09:30:29.85Z</time></trkpt><trkpt lat="40.6484131" lon="14.6302284"><ele>45.25</ele><time>2026-04-13T09:30:30.857Z</time></trkpt><trkpt lat="40.6483769" lon="14.6303937"><ele>37.5</ele><time>2026-04-13T09:30:31.862Z</time></trkpt><trkpt lat="40.6483397" lon="14.6305796"><ele>29.75</ele><time>2026-04-13T09:30:32.866Z</time></trkpt><trkpt lat="40.6483118" lon="14.630779"><ele>22.0</ele><time>2026-04-13T09:30:33.856Z</time></trkpt><trkpt lat="40.6482978" lon="14.6309767"><ele>25.0</ele><time>2026-04-13T09:30:34.86Z</time></trkpt><trkpt lat="40.6482909" lon="14.631155"><ele>28.0</ele><time>2026-04-13T09:30:35.849Z</time></trkpt><trkpt lat="40.6482824" lon="14.6313194"><ele>31.0</ele><time>2026-04-13T09:30:36.864Z</time></trkpt><trkpt lat="40.648263" lon="14.6314577"><ele>34.0</ele><time>2026-04-13T09:30:37.853Z</time></trkpt><trkpt lat="40.6482426" lon="14.6315792"><ele>34.0</ele><time>2026-04-13T09:30:38.863Z</time></trkpt><trkpt lat="40.6482194" lon="14.6316851"><ele>34.0</ele><time>2026-04-13T09:30:39.855Z</time></trkpt><trkpt lat="40.6481961" lon="14.6317749"><ele>34.0</ele><time>2026-04-13T09:30:40.864Z</time></trkpt><trkpt lat="40.6481619" lon="14.6319314"><ele>34.0</ele><time>2026-04-13T09:30:42.854Z</time></trkpt><trkpt lat="40.6481363" lon="14.6320268"><ele>34.0</ele><time>2026-04-13T09:30:43.852Z</time></trkpt><trkpt lat="40.6481092" lon="14.6321231"><ele>34.0</ele><time>2026-04-13T09:30:44.861Z</time></trkpt><trkpt lat="40.6480711" lon="14.6322616"><ele>33.2</ele><time>2026-04-13T09:30:46.873Z</time></trkpt><trkpt lat="40.6480282" lon="14.6324193"><ele>32.4</ele><time>2026-04-13T09:30:48.844Z</time></trkpt><trkpt lat="40.6479948" lon="14.6325573"><ele>31.6</ele><time>2026-04-13T09:30:50.857Z</time></trkpt><trkpt lat="40.6479622" lon="14.6326311"><ele>30.8</ele><time>2026-04-13T09:30:53.861Z</time></trkpt><trkpt lat="40.6479511" lon="14.6327527"><ele>30.0</ele><time>2026-04-13T09:31:10.845Z</time></trkpt><trkpt lat="40.6479384" lon="14.6328715"><ele>30.0</ele><time>2026-04-13T09:31:11.847Z</time></trkpt><trkpt lat="40.6479196" lon="14.6330147"><ele>30.0</ele><time>2026-04-13T09:31:12.868Z</time></trkpt><trkpt lat="40.6478911" lon="14.6331532"><ele>30.0</ele><time>2026-04-13T09:31:13.868Z</time></trkpt><trkpt lat="40.6478649" lon="14.6332781"><ele>30.0</ele><time>2026-04-13T09:31:14.855Z</time></trkpt><trkpt lat="40.6478546" lon="14.6333847"><ele>30.0</ele><time>2026-04-13T09:31:15.852Z</time></trkpt><trkpt lat="40.6478659" lon="14.6334752"><ele>30.0</ele><time>2026-04-13T09:31:16.851Z</time></trkpt><trkpt lat="40.6478965" lon="14.6335645"><ele>30.0</ele><time>2026-04-13T09:31:17.864Z</time></trkpt><trkpt lat="40.6479383" lon="14.6336455"><ele>30.0</ele><time>2026-04-13T09:31:18.853Z</time></trkpt><trkpt lat="40.6479879" lon="14.6337079"><ele>30.0</ele><time>2026-04-13T09:31:19.866Z</time></trkpt><trkpt lat="40.6480362" lon="14.6337688"><ele>30.0</ele><time>2026-04-13T09:31:20.852Z</time></trkpt><trkpt lat="40.6481032" lon="14.6337706"><ele>30.0</ele><time>2026-04-13T09:31:21.868Z</time></trkpt><trkpt lat="40.6481771" lon="14.633742"><ele>30.0</ele><time>2026-04-13T09:31:22.861Z</time></trkpt><trkpt lat="40.6482566" lon="14.6336832"><ele>30.0</ele><time>2026-04-13T09:31:23.862Z</time></trkpt><trkpt lat="40.6483346" lon="14.6336169"><ele>30.0</ele><time>2026-04-13T09:31:24.869Z</time></trkpt><trkpt lat="40.6484059" lon="14.6335609"><ele>30.0</ele><time>2026-04-13T09:31:25.865Z</time></trkpt><trkpt lat="40.6484765" lon="14.6335067"><ele>30.0</ele><time>2026-04-13T09:31:26.842Z</time></trkpt><trkpt lat="40.6485571" lon="14.6334906"><ele>30.0</ele><time>2026-04-13T09:31:27.86Z</time></trkpt><trkpt lat="40.6486368" lon="14.6335392"><ele>30.0</ele><time>2026-04-13T09:31:28.867Z</time></trkpt><trkpt lat="40.648727" lon="14.633598"><ele>30.666666666666664</ele><time>2026-04-13T09:31:29.859Z</time></trkpt><trkpt lat="40.6488467" lon="14.633702"><ele>31.333333333333332</ele><time>2026-04-13T09:31:30.862Z</time></trkpt><trkpt lat="40.6489956" lon="14.6338367"><ele>32.0</ele><time>2026-04-13T09:31:31.853Z</time></trkpt><trkpt lat="40.6491296" lon="14.6339808"><ele>32.0</ele><time>2026-04-13T09:31:32.871Z</time></trkpt><trkpt lat="40.6492319" lon="14.6341205"><ele>32.0</ele><time>2026-04-13T09:31:33.87Z</time></trkpt><trkpt lat="40.649307" lon="14.634265"><ele>32.0</ele><time>2026-04-13T09:31:34.867Z</time></trkpt><trkpt lat="40.6493648" lon="14.6344254"><ele>32.0</ele><time>2026-04-13T09:31:35.865Z</time></trkpt><trkpt lat="40.6494039" lon="14.6346073"><ele>24.0</ele><time>2026-04-13T09:31:36.873Z</time></trkpt><trkpt lat="40.6494276" lon="14.6348061"><ele>16.0</ele><time>2026-04-13T09:31:37.869Z</time></trkpt><trkpt lat="40.6494395" lon="14.6350147"><ele>8.0</ele><time>2026-04-13T09:31:38.867Z</time></trkpt><trkpt lat="40.6494382" lon="14.635212"><ele>8.0</ele><time>2026-04-13T09:31:39.848Z</time></trkpt><trkpt lat="40.6494268" lon="14.635399"><ele>8.0</ele><time>2026-04-13T09:31:40.857Z</time></trkpt><trkpt lat="40.6494059" lon="14.6355876"><ele>8.0</ele><time>2026-04-13T09:31:41.851Z</time></trkpt><trkpt lat="40.6493836" lon="14.6357818"><ele>8.0</ele><time>2026-04-13T09:31:42.871Z</time></trkpt><trkpt lat="40.6493496" lon="14.6359949"><ele>8.666666666666666</ele><time>2026-04-13T09:31:43.863Z</time></trkpt><trkpt lat="40.6493143" lon="14.6362099"><ele>9.333333333333334</ele><time>2026-04-13T09:31:44.871Z</time></trkpt><trkpt lat="40.6492755" lon="14.6364231"><ele>10.0</ele><time>2026-04-13T09:31:45.851Z</time></trkpt><trkpt lat="40.6492346" lon="14.636635"><ele>10.0</ele><time>2026-04-13T09:31:46.86Z</time></trkpt><trkpt lat="40.6491964" lon="14.6368382"><ele>10.0</ele><time>2026-04-13T09:31:47.865Z</time></trkpt><trkpt lat="40.6491627" lon="14.63704"><ele>10.0</ele><time>2026-04-13T09:31:48.858Z</time></trkpt><trkpt lat="40.6491305" lon="14.6372354"><ele>10.25</ele><time>2026-04-13T09:31:49.861Z</time></trkpt><trkpt lat="40.6490981" lon="14.6374289"><ele>10.5</ele><time>2026-04-13T09:31:50.858Z</time></trkpt><trkpt lat="40.6490636" lon="14.6376157"><ele>10.75</ele><time>2026-04-13T09:31:51.866Z</time></trkpt><trkpt lat="40.6490289" lon="14.6378092"><ele>11.0</ele><time>2026-04-13T09:31:52.863Z</time></trkpt><trkpt lat="40.6489922" lon="14.6380102"><ele>12.0</ele><time>2026-04-13T09:31:53.859Z</time></trkpt><trkpt lat="40.6489548" lon="14.6382089"><ele>13.0</ele><time>2026-04-13T09:31:54.847Z</time></trkpt><trkpt lat="40.6489202" lon="14.6384086"><ele>14.0</ele><time>2026-04-13T09:31:55.875Z</time></trkpt><trkpt lat="40.6488863" lon="14.6386072"><ele>14.666666666666668</ele><time>2026-04-13T09:31:56.849Z</time></trkpt><trkpt lat="40.6488523" lon="14.6387998"><ele>15.333333333333332</ele><time>2026-04-13T09:31:57.866Z</time></trkpt><trkpt lat="40.6488111" lon="14.638992"><ele>16.0</ele><time>2026-04-13T09:31:58.864Z</time></trkpt><trkpt lat="40.6487577" lon="14.6391803"><ele>16.0</ele><time>2026-04-13T09:31:59.872Z</time></trkpt><trkpt lat="40.6487011" lon="14.6393663"><ele>16.0</ele><time>2026-04-13T09:32:00.856Z</time></trkpt><trkpt lat="40.6486377" lon="14.6395402"><ele>16.0</ele><time>2026-04-13T09:32:01.866Z</time></trkpt><trkpt lat="40.6485737" lon="14.6397088"><ele>16.0</ele><time>2026-04-13T09:32:02.872Z</time></trkpt><trkpt lat="40.6485143" lon="14.639873"><ele>15.25</ele><time>2026-04-13T09:32:03.877Z</time></trkpt><trkpt lat="40.6484549" lon="14.6400324"><ele>14.5</ele><time>2026-04-13T09:32:04.866Z</time></trkpt><trkpt lat="40.6483981" lon="14.6401847"><ele>13.75</ele><time>2026-04-13T09:32:05.865Z</time></trkpt><trkpt lat="40.6483416" lon="14.6403307"><ele>13.0</ele><time>2026-04-13T09:32:06.872Z</time></trkpt><trkpt lat="40.6482916" lon="14.6404673"><ele>12.999999999999998</ele><time>2026-04-13T09:32:07.85Z</time></trkpt><trkpt lat="40.6482432" lon="14.6405929"><ele>13.0</ele><time>2026-04-13T09:32:08.876Z</time></trkpt><trkpt lat="40.6482009" lon="14.6407067"><ele>13.0</ele><time>2026-04-13T09:32:09.866Z</time></trkpt><trkpt lat="40.6481693" lon="14.6407951"><ele>13.0</ele><time>2026-04-13T09:32:10.872Z</time></trkpt><trkpt lat="40.6481409" lon="14.6408906"><ele>12.999999999999998</ele><time>2026-04-13T09:32:12.852Z</time></trkpt><trkpt lat="40.6481144" lon="14.6409668"><ele>13.0</ele><time>2026-04-13T09:32:14.849Z</time></trkpt><trkpt lat="40.6480522" lon="14.6411351"><ele>12.8</ele><time>2026-04-13T09:32:16.869Z</time></trkpt><trkpt lat="40.6480081" lon="14.6412511"><ele>12.600000000000001</ele><time>2026-04-13T09:32:17.86Z</time></trkpt><trkpt lat="40.6479642" lon="14.6413686"><ele>12.399999999999999</ele><time>2026-04-13T09:32:18.859Z</time></trkpt><trkpt lat="40.6479159" lon="14.6414935"><ele>12.2</ele><time>2026-04-13T09:32:19.856Z</time></trkpt><trkpt lat="40.6478573" lon="14.6416342"><ele>12.0</ele><time>2026-04-13T09:32:20.856Z</time></trkpt><trkpt lat="40.647796" lon="14.6417891"><ele>11.25</ele><time>2026-04-13T09:32:21.866Z</time></trkpt><trkpt lat="40.6477418" lon="14.6419357"><ele>10.5</ele><time>2026-04-13T09:32:22.845Z</time></trkpt><trkpt lat="40.6476937" lon="14.6420679"><ele>9.75</ele><time>2026-04-13T09:32:23.874Z</time></trkpt><trkpt lat="40.6476441" lon="14.6422018"><ele>9.0</ele><time>2026-04-13T09:32:24.855Z</time></trkpt><trkpt lat="40.6475831" lon="14.6423512"><ele>9.0</ele><time>2026-04-13T09:32:25.866Z</time></trkpt><trkpt lat="40.6475129" lon="14.6425205"><ele>9.0</ele><time>2026-04-13T09:32:26.847Z</time></trkpt><trkpt lat="40.6474346" lon="14.6427077"><ele>9.0</ele><time>2026-04-13T09:32:27.855Z</time></trkpt><trkpt lat="40.647349" lon="14.642911"><ele>9.0</ele><time>2026-04-13T09:32:28.862Z</time></trkpt><trkpt lat="40.6472636" lon="14.643112"><ele>9.0</ele><time>2026-04-13T09:32:29.859Z</time></trkpt><trkpt lat="40.6471825" lon="14.6433034"><ele>9.0</ele><time>2026-04-13T09:32:30.872Z</time></trkpt><trkpt lat="40.6471008" lon="14.6434991"><ele>10.333333333333332</ele><time>2026-04-13T09:32:31.871Z</time></trkpt><trkpt lat="40.6470161" lon="14.6437048"><ele>11.666666666666666</ele><time>2026-04-13T09:32:32.865Z</time></trkpt><trkpt lat="40.6469302" lon="14.6439129"><ele>13.0</ele><time>2026-04-13T09:32:33.88Z</time></trkpt><trkpt lat="40.6468464" lon="14.6441103"><ele>11.25</ele><time>2026-04-13T09:32:34.857Z</time></trkpt><trkpt lat="40.6467685" lon="14.6442966"><ele>9.5</ele><time>2026-04-13T09:32:35.875Z</time></trkpt><trkpt lat="40.6466975" lon="14.644468"><ele>7.75</ele><time>2026-04-13T09:32:36.872Z</time></trkpt><trkpt lat="40.6466424" lon="14.644618"><ele>6.0</ele><time>2026-04-13T09:32:37.857Z</time></trkpt><trkpt lat="40.6465997" lon="14.6447554"><ele>6.0</ele><time>2026-04-13T09:32:38.87Z</time></trkpt><trkpt lat="40.6465823" lon="14.6448863"><ele>6.0</ele><time>2026-04-13T09:32:39.85Z</time></trkpt><trkpt lat="40.6465966" lon="14.6450092"><ele>6.0</ele><time>2026-04-13T09:32:40.856Z</time></trkpt><trkpt lat="40.646641" lon="14.6451229"><ele>6.0</ele><time>2026-04-13T09:32:41.86Z</time></trkpt><trkpt lat="40.6467053" lon="14.6452285"><ele>6.0</ele><time>2026-04-13T09:32:42.846Z</time></trkpt><trkpt lat="40.6467671" lon="14.6453505"><ele>9.0</ele><time>2026-04-13T09:32:43.867Z</time></trkpt><trkpt lat="40.6468032" lon="14.6454908"><ele>12.0</ele><time>2026-04-13T09:32:44.851Z</time></trkpt><trkpt lat="40.6467979" lon="14.6456321"><ele>15.000000000000002</ele><time>2026-04-13T09:32:45.866Z</time></trkpt><trkpt lat="40.6467554" lon="14.645751"><ele>18.0</ele><time>2026-04-13T09:32:46.862Z</time></trkpt><trkpt lat="40.6466782" lon="14.6458385"><ele>21.0</ele><time>2026-04-13T09:32:47.853Z</time></trkpt><trkpt lat="40.646581" lon="14.6458957"><ele>21.0</ele><time>2026-04-13T09:32:48.854Z</time></trkpt><trkpt lat="40.6464894" lon="14.6459209"><ele>21.0</ele><time>2026-04-13T09:32:49.859Z</time></trkpt><trkpt lat="40.6464001" lon="14.6459073"><ele>21.0</ele><time>2026-04-13T09:32:50.863Z</time></trkpt><trkpt lat="40.6463" lon="14.6458891"><ele>21.0</ele><time>2026-04-13T09:32:51.864Z</time></trkpt><trkpt lat="40.6461789" lon="14.6458788"><ele>21.0</ele><time>2026-04-13T09:32:52.875Z</time></trkpt><trkpt lat="40.646045" lon="14.6458962"><ele>16.75</ele><time>2026-04-13T09:32:53.86Z</time></trkpt><trkpt lat="40.6459173" lon="14.6459566"><ele>12.5</ele><time>2026-04-13T09:32:54.852Z</time></trkpt><trkpt lat="40.6457897" lon="14.6460243"><ele>8.25</ele><time>2026-04-13T09:32:55.85Z</time></trkpt><trkpt lat="40.6456599" lon="14.6461605"><ele>4.0</ele><time>2026-04-13T09:32:56.865Z</time></trkpt><trkpt lat="40.6455041" lon="14.646334"><ele>8.0</ele><time>2026-04-13T09:32:57.859Z</time></trkpt><trkpt lat="40.645332" lon="14.6465231"><ele>12.0</ele><time>2026-04-13T09:32:58.864Z</time></trkpt><trkpt lat="40.6451845" lon="14.6466702"><ele>16.0</ele><time>2026-04-13T09:32:59.85Z</time></trkpt><trkpt lat="40.645058" lon="14.6467906"><ele>16.0</ele><time>2026-04-13T09:33:00.86Z</time></trkpt><trkpt lat="40.6449491" lon="14.6469095"><ele>16.0</ele><time>2026-04-13T09:33:01.848Z</time></trkpt><trkpt lat="40.6448557" lon="14.6470522"><ele>16.0</ele><time>2026-04-13T09:33:02.848Z</time></trkpt><trkpt lat="40.6447573" lon="14.6472147"><ele>16.0</ele><time>2026-04-13T09:33:03.861Z</time></trkpt><trkpt lat="40.6446683" lon="14.6474198"><ele>18.0</ele><time>2026-04-13T09:33:04.846Z</time></trkpt><trkpt lat="40.6445658" lon="14.6476326"><ele>20.0</ele><time>2026-04-13T09:33:05.857Z</time></trkpt><trkpt lat="40.6444581" lon="14.647818"><ele>22.0</ele><time>2026-04-13T09:33:06.874Z</time></trkpt><trkpt lat="40.6443576" lon="14.6479873"><ele>22.0</ele><time>2026-04-13T09:33:07.861Z</time></trkpt><trkpt lat="40.6442797" lon="14.6481651"><ele>22.0</ele><time>2026-04-13T09:33:08.863Z</time></trkpt><trkpt lat="40.6442089" lon="14.6483463"><ele>22.0</ele><time>2026-04-13T09:33:09.859Z</time></trkpt><trkpt lat="40.6441376" lon="14.6485099"><ele>22.200000000000003</ele><time>2026-04-13T09:33:10.869Z</time></trkpt><trkpt lat="40.6440796" lon="14.6486602"><ele>22.4</ele><time>2026-04-13T09:33:11.863Z</time></trkpt><trkpt lat="40.6440329" lon="14.6487759"><ele>22.6</ele><time>2026-04-13T09:33:12.87Z</time></trkpt><trkpt lat="40.6440165" lon="14.6488844"><ele>22.799999999999997</ele><time>2026-04-13T09:33:13.857Z</time></trkpt><trkpt lat="40.6440301" lon="14.6489846"><ele>23.0</ele><time>2026-04-13T09:33:14.856Z</time></trkpt><trkpt lat="40.6440779" lon="14.6491279"><ele>23.0</ele><time>2026-04-13T09:33:16.851Z</time></trkpt><trkpt lat="40.6441127" lon="14.6492016"><ele>23.0</ele><time>2026-04-13T09:33:17.862Z</time></trkpt><trkpt lat="40.644149" lon="14.6492699"><ele>23.0</ele><time>2026-04-13T09:33:18.859Z</time></trkpt><trkpt lat="40.6441993" lon="14.6493248"><ele>23.0</ele><time>2026-04-13T09:33:19.871Z</time></trkpt><trkpt lat="40.6442622" lon="14.649349"><ele>23.0</ele><time>2026-04-13T09:33:20.865Z</time></trkpt><trkpt lat="40.64433" lon="14.6493456"><ele>23.0</ele><time>2026-04-13T09:33:21.867Z</time></trkpt><trkpt lat="40.6444081" lon="14.6493247"><ele>23.0</ele><time>2026-04-13T09:33:22.851Z</time></trkpt><trkpt lat="40.6445032" lon="14.649311"><ele>24.2</ele><time>2026-04-13T09:33:23.854Z</time></trkpt><trkpt lat="40.6446006" lon="14.6493133"><ele>25.4</ele><time>2026-04-13T09:33:24.876Z</time></trkpt><trkpt lat="40.6446896" lon="14.6493472"><ele>26.599999999999998</ele><time>2026-04-13T09:33:25.847Z</time></trkpt><trkpt lat="40.6447702" lon="14.6494104"><ele>27.799999999999997</ele><time>2026-04-13T09:33:26.863Z</time></trkpt><trkpt lat="40.644861" lon="14.6494745"><ele>29.0</ele><time>2026-04-13T09:33:27.861Z</time></trkpt><trkpt lat="40.6449651" lon="14.6495263"><ele>29.0</ele><time>2026-04-13T09:33:28.864Z</time></trkpt><trkpt lat="40.6450776" lon="14.6495681"><ele>29.0</ele><time>2026-04-13T09:33:29.856Z</time></trkpt><trkpt lat="40.6451866" lon="14.6496064"><ele>29.0</ele><time>2026-04-13T09:33:30.867Z</time></trkpt><trkpt lat="40.6452809" lon="14.6496492"><ele>29.0</ele><time>2026-04-13T09:33:31.852Z</time></trkpt><trkpt lat="40.645371" lon="14.6497291"><ele>29.0</ele><time>2026-04-13T09:33:32.854Z</time></trkpt><trkpt lat="40.645455" lon="14.6498378"><ele>36.4</ele><time>2026-04-13T09:33:33.855Z</time></trkpt><trkpt lat="40.6455378" lon="14.6499517"><ele>43.8</ele><time>2026-04-13T09:33:34.862Z</time></trkpt><trkpt lat="40.645601" lon="14.6500523"><ele>51.199999999999996</ele><time>2026-04-13T09:33:35.872Z</time></trkpt><trkpt lat="40.6456281" lon="14.6501504"><ele>58.599999999999994</ele><time>2026-04-13T09:33:36.86Z</time></trkpt><trkpt lat="40.6456191" lon="14.6502487"><ele>66.0</ele><time>2026-04-13T09:33:37.864Z</time></trkpt><trkpt lat="40.6455899" lon="14.6503526"><ele>66.0</ele><time>2026-04-13T09:33:38.859Z</time></trkpt><trkpt lat="40.6455553" lon="14.6504622"><ele>66.0</ele><time>2026-04-13T09:33:39.862Z</time></trkpt><trkpt lat="40.6455199" lon="14.650574"><ele>66.0</ele><time>2026-04-13T09:33:40.845Z</time></trkpt><trkpt lat="40.6454832" lon="14.6506789"><ele>66.0</ele><time>2026-04-13T09:33:41.864Z</time></trkpt><trkpt lat="40.6454495" lon="14.6507775"><ele>66.0</ele><time>2026-04-13T09:33:42.871Z</time></trkpt><trkpt lat="40.645417" lon="14.6508685"><ele>66.0</ele><time>2026-04-13T09:33:43.855Z</time></trkpt><trkpt lat="40.6453963" lon="14.6509547"><ele>66.0</ele><time>2026-04-13T09:33:44.862Z</time></trkpt><trkpt lat="40.6454018" lon="14.651042"><ele>66.0</ele><time>2026-04-13T09:33:45.864Z</time></trkpt><trkpt lat="40.6454393" lon="14.6511258"><ele>66.0</ele><time>2026-04-13T09:33:46.861Z</time></trkpt><trkpt lat="40.6454999" lon="14.6512"><ele>66.0</ele><time>2026-04-13T09:33:47.863Z</time></trkpt><trkpt lat="40.6455697" lon="14.6512709"><ele>66.0</ele><time>2026-04-13T09:33:48.868Z</time></trkpt><trkpt lat="40.6456304" lon="14.65133"><ele>66.0</ele><time>2026-04-13T09:33:49.864Z</time></trkpt><trkpt lat="40.6456921" lon="14.6513985"><ele>65.39999999999999</ele><time>2026-04-13T09:33:51.855Z</time></trkpt><trkpt lat="40.645748" lon="14.6514948"><ele>64.8</ele><time>2026-04-13T09:33:55.873Z</time></trkpt><trkpt lat="40.6457496" lon="14.6516026"><ele>64.19999999999999</ele><time>2026-04-13T09:33:57.863Z</time></trkpt><trkpt lat="40.6456914" lon="14.651755"><ele>63.599999999999994</ele><time>2026-04-13T09:33:59.855Z</time></trkpt><trkpt lat="40.6456337" lon="14.6518126"><ele>63.0</ele><time>2026-04-13T09:34:00.868Z</time></trkpt><trkpt lat="40.6455572" lon="14.6518374"><ele>63.0</ele><time>2026-04-13T09:34:01.852Z</time></trkpt><trkpt lat="40.6454626" lon="14.6518336"><ele>63.0</ele><time>2026-04-13T09:34:02.852Z</time></trkpt><trkpt lat="40.6453445" lon="14.6518137"><ele>63.0</ele><time>2026-04-13T09:34:03.871Z</time></trkpt><trkpt lat="40.6452181" lon="14.6517882"><ele>63.0</ele><time>2026-04-13T09:34:04.864Z</time></trkpt><trkpt lat="40.6451053" lon="14.6517528"><ele>63.75</ele><time>2026-04-13T09:34:05.85Z</time></trkpt><trkpt lat="40.6450023" lon="14.6516924"><ele>64.5</ele><time>2026-04-13T09:34:06.868Z</time></trkpt><trkpt lat="40.6449074" lon="14.6515977"><ele>65.25</ele><time>2026-04-13T09:34:07.867Z</time></trkpt><trkpt lat="40.6448224" lon="14.6514785"><ele>66.0</ele><time>2026-04-13T09:34:08.854Z</time></trkpt><trkpt lat="40.6447351" lon="14.6513357"><ele>66.0</ele><time>2026-04-13T09:34:09.863Z</time></trkpt><trkpt lat="40.6446522" lon="14.6511781"><ele>66.0</ele><time>2026-04-13T09:34:10.857Z</time></trkpt><trkpt lat="40.6445753" lon="14.6510335"><ele>66.0</ele><time>2026-04-13T09:34:11.877Z</time></trkpt><trkpt lat="40.6445127" lon="14.6509433"><ele>66.0</ele><time>2026-04-13T09:34:12.863Z</time></trkpt><trkpt lat="40.644436" lon="14.6509028"><ele>70.25</ele><time>2026-04-13T09:34:13.87Z</time></trkpt><trkpt lat="40.6443469" lon="14.6509072"><ele>74.5</ele><time>2026-04-13T09:34:14.878Z</time></trkpt><trkpt lat="40.6442536" lon="14.6509549"><ele>78.75</ele><time>2026-04-13T09:34:15.855Z</time></trkpt><trkpt lat="40.6441405" lon="14.6510506"><ele>83.0</ele><time>2026-04-13T09:34:16.86Z</time></trkpt><trkpt lat="40.644007" lon="14.6511614"><ele>83.0</ele><time>2026-04-13T09:34:17.865Z</time></trkpt><trkpt lat="40.6438743" lon="14.6512459"><ele>83.0</ele><time>2026-04-13T09:34:18.859Z</time></trkpt><trkpt lat="40.6437407" lon="14.6512928"><ele>83.0</ele><time>2026-04-13T09:34:19.863Z</time></trkpt><trkpt lat="40.6435974" lon="14.651312"><ele>83.0</ele><time>2026-04-13T09:34:20.863Z</time></trkpt><trkpt lat="40.6434744" lon="14.6513374"><ele>79.16666666666667</ele><time>2026-04-13T09:34:21.877Z</time></trkpt><trkpt lat="40.6433848" lon="14.6513743"><ele>75.33333333333334</ele><time>2026-04-13T09:34:22.862Z</time></trkpt><trkpt lat="40.643322" lon="14.6514328"><ele>71.5</ele><time>2026-04-13T09:34:23.858Z</time></trkpt><trkpt lat="40.6432935" lon="14.6515101"><ele>67.66666666666667</ele><time>2026-04-13T09:34:24.859Z</time></trkpt><trkpt lat="40.6432957" lon="14.6516047"><ele>63.833333333333336</ele><time>2026-04-13T09:34:25.863Z</time></trkpt><trkpt lat="40.6433139" lon="14.651735"><ele>60.0</ele><time>2026-04-13T09:34:26.852Z</time></trkpt><trkpt lat="40.6433346" lon="14.6518761"><ele>64.2</ele><time>2026-04-13T09:34:27.851Z</time></trkpt><trkpt lat="40.6433182" lon="14.6520161"><ele>68.4</ele><time>2026-04-13T09:34:28.851Z</time></trkpt><trkpt lat="40.6432699" lon="14.6521351"><ele>72.6</ele><time>2026-04-13T09:34:29.885Z</time></trkpt><trkpt lat="40.643197" lon="14.6522426"><ele>76.8</ele><time>2026-04-13T09:34:30.866Z</time></trkpt><trkpt lat="40.6431045" lon="14.6523437"><ele>81.0</ele><time>2026-04-13T09:34:31.865Z</time></trkpt><trkpt lat="40.6430247" lon="14.6524563"><ele>81.0</ele><time>2026-04-13T09:34:32.862Z</time></trkpt><trkpt lat="40.6429426" lon="14.6525878"><ele>81.0</ele><time>2026-04-13T09:34:33.857Z</time></trkpt><trkpt lat="40.6428742" lon="14.6527546"><ele>81.0</ele><time>2026-04-13T09:34:34.865Z</time></trkpt><trkpt lat="40.6428087" lon="14.6529123"><ele>81.0</ele><time>2026-04-13T09:34:35.865Z</time></trkpt><trkpt lat="40.6427627" lon="14.6530345"><ele>81.4</ele><time>2026-04-13T09:34:36.86Z</time></trkpt><trkpt lat="40.6427432" lon="14.6531393"><ele>81.8</ele><time>2026-04-13T09:34:37.867Z</time></trkpt><trkpt lat="40.642753" lon="14.6532483"><ele>82.2</ele><time>2026-04-13T09:34:38.867Z</time></trkpt><trkpt lat="40.642793" lon="14.65337"><ele>82.60000000000001</ele><time>2026-04-13T09:34:39.853Z</time></trkpt><trkpt lat="40.642852" lon="14.6535104"><ele>83.0</ele><time>2026-04-13T09:34:40.864Z</time></trkpt><trkpt lat="40.6429176" lon="14.6536437"><ele>83.0</ele><time>2026-04-13T09:34:41.854Z</time></trkpt><trkpt lat="40.6429982" lon="14.653759"><ele>83.0</ele><time>2026-04-13T09:34:42.868Z</time></trkpt><trkpt lat="40.6430782" lon="14.6538702"><ele>83.0</ele><time>2026-04-13T09:34:43.853Z</time></trkpt><trkpt lat="40.6431294" lon="14.6539848"><ele>83.0</ele><time>2026-04-13T09:34:44.863Z</time></trkpt><trkpt lat="40.6431492" lon="14.6540947"><ele>83.0</ele><time>2026-04-13T09:34:45.873Z</time></trkpt><trkpt lat="40.6431392" lon="14.6542031"><ele>83.0</ele><time>2026-04-13T09:34:46.865Z</time></trkpt><trkpt lat="40.6431058" lon="14.6543158"><ele>83.0</ele><time>2026-04-13T09:34:47.848Z</time></trkpt><trkpt lat="40.6430691" lon="14.6544545"><ele>83.0</ele><time>2026-04-13T09:34:48.843Z</time></trkpt><trkpt lat="40.6430329" lon="14.6545936"><ele>83.0</ele><time>2026-04-13T09:34:49.866Z</time></trkpt><trkpt lat="40.6429968" lon="14.6547213"><ele>83.0</ele><time>2026-04-13T09:34:50.868Z</time></trkpt><trkpt lat="40.6429456" lon="14.6548231"><ele>85.4</ele><time>2026-04-13T09:34:51.851Z</time></trkpt><trkpt lat="40.6429224" lon="14.6549266"><ele>87.80000000000001</ele><time>2026-04-13T09:34:52.857Z</time></trkpt><trkpt lat="40.642934" lon="14.6550408"><ele>90.2</ele><time>2026-04-13T09:34:53.868Z</time></trkpt><trkpt lat="40.6429718" lon="14.6551629"><ele>92.6</ele><time>2026-04-13T09:34:54.867Z</time></trkpt><trkpt lat="40.6430198" lon="14.6552989"><ele>95.0</ele><time>2026-04-13T09:34:55.85Z</time></trkpt><trkpt lat="40.6430472" lon="14.655427"><ele>95.0</ele><time>2026-04-13T09:34:56.853Z</time></trkpt><trkpt lat="40.6430701" lon="14.6555464"><ele>95.0</ele><time>2026-04-13T09:34:57.87Z</time></trkpt><trkpt lat="40.6430481" lon="14.6556724"><ele>95.0</ele><time>2026-04-13T09:34:58.851Z</time></trkpt><trkpt lat="40.6430309" lon="14.6558269"><ele>95.0</ele><time>2026-04-13T09:34:59.859Z</time></trkpt><trkpt lat="40.643026" lon="14.6559552"><ele>95.0</ele><time>2026-04-13T09:35:00.846Z</time></trkpt><trkpt lat="40.6430283" lon="14.656062"><ele>90.83333333333334</ele><time>2026-04-13T09:35:01.859Z</time></trkpt><trkpt lat="40.6430202" lon="14.656148"><ele>86.66666666666667</ele><time>2026-04-13T09:35:02.85Z</time></trkpt><trkpt lat="40.6429162" lon="14.6562358"><ele>82.5</ele><time>2026-04-13T09:35:04.859Z</time></trkpt><trkpt lat="40.6428476" lon="14.6562514"><ele>78.33333333333333</ele><time>2026-04-13T09:35:05.858Z</time></trkpt><trkpt lat="40.6427826" lon="14.6562872"><ele>74.16666666666666</ele><time>2026-04-13T09:35:06.844Z</time></trkpt><trkpt lat="40.6427217" lon="14.6563475"><ele>70.0</ele><time>2026-04-13T09:35:07.855Z</time></trkpt><trkpt lat="40.6426669" lon="14.6564092"><ele>70.0</ele><time>2026-04-13T09:35:08.866Z</time></trkpt><trkpt lat="40.6426459" lon="14.656491"><ele>70.0</ele><time>2026-04-13T09:35:09.854Z</time></trkpt><trkpt lat="40.6426541" lon="14.6566337"><ele>70.0</ele><time>2026-04-13T09:35:11.861Z</time></trkpt><trkpt lat="40.6426485" lon="14.6567696"><ele>70.0</ele><time>2026-04-13T09:35:13.867Z</time></trkpt><trkpt lat="40.6426016" lon="14.6569131"><ele>70.0</ele><time>2026-04-13T09:35:15.862Z</time></trkpt><trkpt lat="40.6425348" lon="14.6570606"><ele>74.0</ele><time>2026-04-13T09:35:17.858Z</time></trkpt><trkpt lat="40.6424788" lon="14.65719"><ele>78.0</ele><time>2026-04-13T09:35:19.866Z</time></trkpt><trkpt lat="40.642469" lon="14.6573639"><ele>82.0</ele><time>2026-04-13T09:35:21.866Z</time></trkpt><trkpt lat="40.6424645" lon="14.6574895"><ele>86.0</ele><time>2026-04-13T09:35:22.861Z</time></trkpt><trkpt lat="40.6424774" lon="14.6576952"><ele>85.0</ele><time>2026-04-13T09:35:23.87Z</time></trkpt><trkpt lat="40.6424905" lon="14.6578625"><ele>84.0</ele><time>2026-04-13T09:35:24.842Z</time></trkpt><trkpt lat="40.6425258" lon="14.65799"><ele>83.0</ele><time>2026-04-13T09:35:25.866Z</time></trkpt><trkpt lat="40.6425865" lon="14.6581157"><ele>82.0</ele><time>2026-04-13T09:35:26.849Z</time></trkpt><trkpt lat="40.6426729" lon="14.6582597"><ele>82.0</ele><time>2026-04-13T09:35:27.858Z</time></trkpt><trkpt lat="40.6427644" lon="14.6583956"><ele>82.0</ele><time>2026-04-13T09:35:28.854Z</time></trkpt><trkpt lat="40.6428082" lon="14.6585098"><ele>82.0</ele><time>2026-04-13T09:35:29.848Z</time></trkpt><trkpt lat="40.6428255" lon="14.6586308"><ele>82.0</ele><time>2026-04-13T09:35:30.857Z</time></trkpt><trkpt lat="40.6428242" lon="14.658768"><ele>82.0</ele><time>2026-04-13T09:35:31.864Z</time></trkpt><trkpt lat="40.6428436" lon="14.6588954"><ele>89.39999999999999</ele><time>2026-04-13T09:35:32.853Z</time></trkpt><trkpt lat="40.6428946" lon="14.6590087"><ele>96.8</ele><time>2026-04-13T09:35:33.849Z</time></trkpt><trkpt lat="40.6429707" lon="14.6591098"><ele>104.2</ele><time>2026-04-13T09:35:34.852Z</time></trkpt><trkpt lat="40.6430543" lon="14.6591981"><ele>111.6</ele><time>2026-04-13T09:35:35.844Z</time></trkpt><trkpt lat="40.6431448" lon="14.6592433"><ele>119.0</ele><time>2026-04-13T09:35:36.874Z</time></trkpt><trkpt lat="40.6432002" lon="14.6593113"><ele>118.99999999999999</ele><time>2026-04-13T09:35:37.863Z</time></trkpt><trkpt lat="40.6432128" lon="14.6594038"><ele>119.0</ele><time>2026-04-13T09:35:38.871Z</time></trkpt><trkpt lat="40.6431836" lon="14.6594891"><ele>119.0</ele><time>2026-04-13T09:35:39.841Z</time></trkpt><trkpt lat="40.6431198" lon="14.6595471"><ele>119.0</ele><time>2026-04-13T09:35:40.868Z</time></trkpt><trkpt lat="40.6430253" lon="14.6595799"><ele>118.99999999999999</ele><time>2026-04-13T09:35:41.854Z</time></trkpt><trkpt lat="40.6429264" lon="14.6596095"><ele>119.0</ele><time>2026-04-13T09:35:42.863Z</time></trkpt><trkpt lat="40.642846" lon="14.6596797"><ele>111.25</ele><time>2026-04-13T09:35:43.859Z</time></trkpt><trkpt lat="40.6427694" lon="14.659793"><ele>103.5</ele><time>2026-04-13T09:35:44.87Z</time></trkpt><trkpt lat="40.6426851" lon="14.6599271"><ele>95.75</ele><time>2026-04-13T09:35:45.848Z</time></trkpt><trkpt lat="40.6426173" lon="14.6600873"><ele>88.0</ele><time>2026-04-13T09:35:46.858Z</time></trkpt><trkpt lat="40.6425757" lon="14.6602418"><ele>86.66666666666666</ele><time>2026-04-13T09:35:47.859Z</time></trkpt><trkpt lat="40.642563" lon="14.6603768"><ele>85.33333333333333</ele><time>2026-04-13T09:35:48.865Z</time></trkpt><trkpt lat="40.6425763" lon="14.6604864"><ele>84.0</ele><time>2026-04-13T09:35:49.862Z</time></trkpt><trkpt lat="40.6425955" lon="14.6605869"><ele>82.66666666666667</ele><time>2026-04-13T09:35:50.863Z</time></trkpt><trkpt lat="40.6426653" lon="14.6606298"><ele>81.33333333333334</ele><time>2026-04-13T09:35:51.852Z</time></trkpt><trkpt lat="40.6427506" lon="14.6606393"><ele>80.0</ele><time>2026-04-13T09:35:52.86Z</time></trkpt><trkpt lat="40.6428559" lon="14.660626"><ele>90.4</ele><time>2026-04-13T09:35:53.847Z</time></trkpt><trkpt lat="40.6429643" lon="14.660621"><ele>100.8</ele><time>2026-04-13T09:35:54.874Z</time></trkpt><trkpt lat="40.6430724" lon="14.6606172"><ele>111.19999999999999</ele><time>2026-04-13T09:35:55.861Z</time></trkpt><trkpt lat="40.6431444" lon="14.6606777"><ele>121.6</ele><time>2026-04-13T09:35:56.869Z</time></trkpt><trkpt lat="40.6431965" lon="14.6607711"><ele>132.0</ele><time>2026-04-13T09:35:57.868Z</time></trkpt><trkpt lat="40.6432247" lon="14.6608859"><ele>132.0</ele><time>2026-04-13T09:35:58.858Z</time></trkpt><trkpt lat="40.643215" lon="14.6609968"><ele>132.0</ele><time>2026-04-13T09:35:59.843Z</time></trkpt><trkpt lat="40.6431714" lon="14.6611106"><ele>132.0</ele><time>2026-04-13T09:36:00.863Z</time></trkpt><trkpt lat="40.6431028" lon="14.6612509"><ele>132.0</ele><time>2026-04-13T09:36:01.851Z</time></trkpt><trkpt lat="40.6430241" lon="14.6614057"><ele>132.0</ele><time>2026-04-13T09:36:02.854Z</time></trkpt><trkpt lat="40.6429227" lon="14.6615572"><ele>135.5</ele><time>2026-04-13T09:36:03.844Z</time></trkpt><trkpt lat="40.6428251" lon="14.6616751"><ele>139.0</ele><time>2026-04-13T09:36:04.848Z</time></trkpt><trkpt lat="40.642721" lon="14.6617643"><ele>142.5</ele><time>2026-04-13T09:36:05.857Z</time></trkpt><trkpt lat="40.6426198" lon="14.6618488"><ele>146.0</ele><time>2026-04-13T09:36:06.854Z</time></trkpt><trkpt lat="40.6425422" lon="14.6619133"><ele>141.83333333333331</ele><time>2026-04-13T09:36:07.857Z</time></trkpt><trkpt lat="40.6424802" lon="14.6619824"><ele>137.66666666666666</ele><time>2026-04-13T09:36:08.859Z</time></trkpt><trkpt lat="40.6424473" lon="14.6620646"><ele>133.5</ele><time>2026-04-13T09:36:09.861Z</time></trkpt><trkpt lat="40.6424189" lon="14.6621478"><ele>129.33333333333334</ele><time>2026-04-13T09:36:10.858Z</time></trkpt><trkpt lat="40.6424329" lon="14.6622655"><ele>125.16666666666667</ele><time>2026-04-13T09:36:11.855Z</time></trkpt><trkpt lat="40.6424511" lon="14.6623952"><ele>121.0</ele><time>2026-04-13T09:36:13.858Z</time></trkpt><trkpt lat="40.6424568" lon="14.6625251"><ele>121.0</ele><time>2026-04-13T09:36:16.859Z</time></trkpt><trkpt lat="40.6424493" lon="14.6626306"><ele>121.0</ele><time>2026-04-13T09:36:17.86Z</time></trkpt><trkpt lat="40.6424313" lon="14.6627602"><ele>121.0</ele><time>2026-04-13T09:36:18.849Z</time></trkpt><trkpt lat="40.642394" lon="14.6629007"><ele>121.0</ele><time>2026-04-13T09:36:19.867Z</time></trkpt><trkpt lat="40.6423388" lon="14.6630448"><ele>121.0</ele><time>2026-04-13T09:36:20.848Z</time></trkpt><trkpt lat="40.6422664" lon="14.6631811"><ele>125.75</ele><time>2026-04-13T09:36:21.86Z</time></trkpt><trkpt lat="40.6421774" lon="14.6632955"><ele>130.5</ele><time>2026-04-13T09:36:22.844Z</time></trkpt><trkpt lat="40.6420701" lon="14.663379"><ele>135.25</ele><time>2026-04-13T09:36:23.858Z</time></trkpt><trkpt lat="40.6419533" lon="14.6634413"><ele>140.0</ele><time>2026-04-13T09:36:24.862Z</time></trkpt><trkpt lat="40.6418517" lon="14.6635028"><ele>140.0</ele><time>2026-04-13T09:36:25.864Z</time></trkpt><trkpt lat="40.6417723" lon="14.6635934"><ele>140.0</ele><time>2026-04-13T09:36:26.864Z</time></trkpt><trkpt lat="40.6416903" lon="14.6636923"><ele>140.0</ele><time>2026-04-13T09:36:27.863Z</time></trkpt><trkpt lat="40.6416432" lon="14.6638363"><ele>140.0</ele><time>2026-04-13T09:36:28.863Z</time></trkpt><trkpt lat="40.6415833" lon="14.6639477"><ele>140.0</ele><time>2026-04-13T09:36:29.872Z</time></trkpt><trkpt lat="40.6414995" lon="14.6640191"><ele>140.8</ele><time>2026-04-13T09:36:30.864Z</time></trkpt><trkpt lat="40.6414019" lon="14.6640491"><ele>141.6</ele><time>2026-04-13T09:36:31.85Z</time></trkpt><trkpt lat="40.6413025" lon="14.6640356"><ele>142.4</ele><time>2026-04-13T09:36:32.866Z</time></trkpt><trkpt lat="40.6412104" lon="14.663973"><ele>143.2</ele><time>2026-04-13T09:36:33.864Z</time></trkpt><trkpt lat="40.6411146" lon="14.6638704"><ele>144.0</ele><time>2026-04-13T09:36:34.864Z</time></trkpt><trkpt lat="40.6410148" lon="14.6637665"><ele>144.0</ele><time>2026-04-13T09:36:35.866Z</time></trkpt><trkpt lat="40.6409053" lon="14.6636632"><ele>144.0</ele><time>2026-04-13T09:36:36.862Z</time></trkpt><trkpt lat="40.6407828" lon="14.6636047"><ele>144.0</ele><time>2026-04-13T09:36:37.851Z</time></trkpt><trkpt lat="40.6406661" lon="14.663553"><ele>144.0</ele><time>2026-04-13T09:36:38.85Z</time></trkpt><trkpt lat="40.6405601" lon="14.663581"><ele>144.0</ele><time>2026-04-13T09:36:39.85Z</time></trkpt><trkpt lat="40.6404588" lon="14.6636546"><ele>144.0</ele><time>2026-04-13T09:36:40.861Z</time></trkpt><trkpt lat="40.6403777" lon="14.6637682"><ele>144.0</ele><time>2026-04-13T09:36:41.85Z</time></trkpt><trkpt lat="40.6403008" lon="14.6638812"><ele>144.0</ele><time>2026-04-13T09:36:42.865Z</time></trkpt><trkpt lat="40.6402693" lon="14.6640305"><ele>144.0</ele><time>2026-04-13T09:36:43.859Z</time></trkpt><trkpt lat="40.6402884" lon="14.6642021"><ele>144.0</ele><time>2026-04-13T09:36:44.864Z</time></trkpt><trkpt lat="40.6403009" lon="14.6644005"><ele>144.0</ele><time>2026-04-13T09:36:45.845Z</time></trkpt><trkpt lat="40.6403141" lon="14.6646235"><ele>132.66666666666666</ele><time>2026-04-13T09:36:46.857Z</time></trkpt><trkpt lat="40.6402866" lon="14.6648678"><ele>121.33333333333333</ele><time>2026-04-13T09:36:47.868Z</time></trkpt><trkpt lat="40.640262" lon="14.6650913"><ele>110.0</ele><time>2026-04-13T09:36:48.848Z</time></trkpt><trkpt lat="40.6402453" lon="14.6652996"><ele>107.2</ele><time>2026-04-13T09:36:49.862Z</time></trkpt><trkpt lat="40.6402481" lon="14.6654846"><ele>104.4</ele><time>2026-04-13T09:36:50.853Z</time></trkpt><trkpt lat="40.640266" lon="14.6656359"><ele>101.6</ele><time>2026-04-13T09:36:51.864Z</time></trkpt><trkpt lat="40.6402976" lon="14.6657513"><ele>98.8</ele><time>2026-04-13T09:36:52.855Z</time></trkpt><trkpt lat="40.6403531" lon="14.665822"><ele>96.0</ele><time>2026-04-13T09:36:53.859Z</time></trkpt><trkpt lat="40.6404279" lon="14.6658511"><ele>103.0</ele><time>2026-04-13T09:36:54.864Z</time></trkpt><trkpt lat="40.6405288" lon="14.665856"><ele>110.0</ele><time>2026-04-13T09:36:55.868Z</time></trkpt><trkpt lat="40.6406439" lon="14.6658612"><ele>117.0</ele><time>2026-04-13T09:36:56.853Z</time></trkpt><trkpt lat="40.6407453" lon="14.6658639"><ele>124.0</ele><time>2026-04-13T09:36:57.841Z</time></trkpt><trkpt lat="40.6408358" lon="14.6658622"><ele>131.0</ele><time>2026-04-13T09:36:58.853Z</time></trkpt><trkpt lat="40.6409149" lon="14.6658449"><ele>131.0</ele><time>2026-04-13T09:36:59.863Z</time></trkpt><trkpt lat="40.640978" lon="14.665766"><ele>131.0</ele><time>2026-04-13T09:37:00.846Z</time></trkpt><trkpt lat="40.6410499" lon="14.6657058"><ele>131.0</ele><time>2026-04-13T09:37:01.854Z</time></trkpt><trkpt lat="40.6411151" lon="14.6656454"><ele>131.0</ele><time>2026-04-13T09:37:02.853Z</time></trkpt><trkpt lat="40.6411997" lon="14.6656589"><ele>131.0</ele><time>2026-04-13T09:37:03.863Z</time></trkpt><trkpt lat="40.6412827" lon="14.6657185"><ele>131.0</ele><time>2026-04-13T09:37:04.856Z</time></trkpt><trkpt lat="40.6413719" lon="14.6658067"><ele>130.0</ele><time>2026-04-13T09:37:05.867Z</time></trkpt><trkpt lat="40.6414651" lon="14.6659028"><ele>129.0</ele><time>2026-04-13T09:37:06.852Z</time></trkpt><trkpt lat="40.6415701" lon="14.6660345"><ele>128.0</ele><time>2026-04-13T09:37:07.858Z</time></trkpt><trkpt lat="40.6416668" lon="14.6661915"><ele>127.0</ele><time>2026-04-13T09:37:08.845Z</time></trkpt><trkpt lat="40.641763" lon="14.6663325"><ele>127.0</ele><time>2026-04-13T09:37:09.873Z</time></trkpt><trkpt lat="40.6418502" lon="14.6664722"><ele>127.0</ele><time>2026-04-13T09:37:10.864Z</time></trkpt><trkpt lat="40.6419293" lon="14.6665953"><ele>127.0</ele><time>2026-04-13T09:37:11.863Z</time></trkpt><trkpt lat="40.642001" lon="14.6667062"><ele>127.0</ele><time>2026-04-13T09:37:12.843Z</time></trkpt><trkpt lat="40.642061" lon="14.6668114"><ele>135.25</ele><time>2026-04-13T09:37:13.858Z</time></trkpt><trkpt lat="40.6421" lon="14.6669271"><ele>143.5</ele><time>2026-04-13T09:37:14.857Z</time></trkpt><trkpt lat="40.6421163" lon="14.6670658"><ele>151.75</ele><time>2026-04-13T09:37:15.863Z</time></trkpt><trkpt lat="40.6421071" lon="14.667222"><ele>160.0</ele><time>2026-04-13T09:37:16.869Z</time></trkpt><trkpt lat="40.6420754" lon="14.6673915"><ele>160.0</ele><time>2026-04-13T09:37:17.861Z</time></trkpt><trkpt lat="40.6420367" lon="14.667557"><ele>160.0</ele><time>2026-04-13T09:37:18.85Z</time></trkpt><trkpt lat="40.6420034" lon="14.6677077"><ele>160.0</ele><time>2026-04-13T09:37:19.84Z</time></trkpt><trkpt lat="40.6419769" lon="14.6678342"><ele>160.0</ele><time>2026-04-13T09:37:20.866Z</time></trkpt><trkpt lat="40.6419526" lon="14.6679411"><ele>160.0</ele><time>2026-04-13T09:37:21.865Z</time></trkpt><trkpt lat="40.6419273" lon="14.6680351"><ele>160.5</ele><time>2026-04-13T09:37:22.86Z</time></trkpt><trkpt lat="40.6418897" lon="14.6681143"><ele>161.0</ele><time>2026-04-13T09:37:23.862Z</time></trkpt><trkpt lat="40.6418323" lon="14.6681666"><ele>161.5</ele><time>2026-04-13T09:37:24.855Z</time></trkpt><trkpt lat="40.6417604" lon="14.6681754"><ele>162.0</ele><time>2026-04-13T09:37:25.859Z</time></trkpt><trkpt lat="40.6416833" lon="14.6681452"><ele>162.5</ele><time>2026-04-13T09:37:26.846Z</time></trkpt><trkpt lat="40.6415979" lon="14.6681087"><ele>163.0</ele><time>2026-04-13T09:37:27.867Z</time></trkpt><trkpt lat="40.6415163" lon="14.6680212"><ele>163.0</ele><time>2026-04-13T09:37:28.845Z</time></trkpt><trkpt lat="40.6414358" lon="14.6679044"><ele>163.0</ele><time>2026-04-13T09:37:29.859Z</time></trkpt><trkpt lat="40.6413543" lon="14.6677894"><ele>163.0</ele><time>2026-04-13T09:37:30.841Z</time></trkpt><trkpt lat="40.6412834" lon="14.6676778"><ele>163.0</ele><time>2026-04-13T09:37:31.86Z</time></trkpt><trkpt lat="40.6412264" lon="14.6675843"><ele>163.0</ele><time>2026-04-13T09:37:32.845Z</time></trkpt><trkpt lat="40.6411818" lon="14.6675158"><ele>158.0</ele><time>2026-04-13T09:37:33.861Z</time></trkpt><trkpt lat="40.6411285" lon="14.6674672"><ele>153.0</ele><time>2026-04-13T09:37:34.864Z</time></trkpt><trkpt lat="40.6410614" lon="14.6674496"><ele>148.0</ele><time>2026-04-13T09:37:35.852Z</time></trkpt><trkpt lat="40.6409831" lon="14.667455"><ele>143.0</ele><time>2026-04-13T09:37:36.875Z</time></trkpt><trkpt lat="40.640898" lon="14.6674816"><ele>138.0</ele><time>2026-04-13T09:37:37.85Z</time></trkpt><trkpt lat="40.6408157" lon="14.667511"><ele>133.0</ele><time>2026-04-13T09:37:38.863Z</time></trkpt><trkpt lat="40.6407311" lon="14.6675919"><ele>133.0</ele><time>2026-04-13T09:37:39.866Z</time></trkpt><trkpt lat="40.6406324" lon="14.6676625"><ele>133.0</ele><time>2026-04-13T09:37:40.861Z</time></trkpt><trkpt lat="40.6405339" lon="14.6677117"><ele>133.0</ele><time>2026-04-13T09:37:41.86Z</time></trkpt><trkpt lat="40.6404399" lon="14.667747"><ele>133.0</ele><time>2026-04-13T09:37:42.853Z</time></trkpt><trkpt lat="40.6403494" lon="14.6677814"><ele>133.0</ele><time>2026-04-13T09:37:43.861Z</time></trkpt><trkpt lat="40.6402629" lon="14.6678143"><ele>137.6</ele><time>2026-04-13T09:37:44.856Z</time></trkpt><trkpt lat="40.6401781" lon="14.6678651"><ele>142.20000000000002</ele><time>2026-04-13T09:37:45.869Z</time></trkpt><trkpt lat="40.6401046" lon="14.6679536"><ele>146.8</ele><time>2026-04-13T09:37:46.865Z</time></trkpt><trkpt lat="40.6400405" lon="14.6680516"><ele>151.4</ele><time>2026-04-13T09:37:47.858Z</time></trkpt><trkpt lat="40.6399819" lon="14.6681397"><ele>156.0</ele><time>2026-04-13T09:37:48.858Z</time></trkpt><trkpt lat="40.6399271" lon="14.6682125"><ele>156.0</ele><time>2026-04-13T09:37:49.86Z</time></trkpt><trkpt lat="40.6398691" lon="14.6682761"><ele>156.0</ele><time>2026-04-13T09:37:50.871Z</time></trkpt><trkpt lat="40.6398074" lon="14.6683322"><ele>156.0</ele><time>2026-04-13T09:37:51.87Z</time></trkpt><trkpt lat="40.6397446" lon="14.668384"><ele>156.0</ele><time>2026-04-13T09:37:52.851Z</time></trkpt><trkpt lat="40.6396736" lon="14.6684232"><ele>156.0</ele><time>2026-04-13T09:37:53.865Z</time></trkpt><trkpt lat="40.6396015" lon="14.6684419"><ele>156.0</ele><time>2026-04-13T09:37:54.845Z</time></trkpt><trkpt lat="40.6395282" lon="14.6684514"><ele>156.0</ele><time>2026-04-13T09:37:55.862Z</time></trkpt><trkpt lat="40.6394502" lon="14.6684568"><ele>155.66666666666666</ele><time>2026-04-13T09:37:56.843Z</time></trkpt><trkpt lat="40.6393675" lon="14.6684659"><ele>155.33333333333334</ele><time>2026-04-13T09:37:57.859Z</time></trkpt><trkpt lat="40.6392808" lon="14.6684793"><ele>155.0</ele><time>2026-04-13T09:37:58.859Z</time></trkpt><trkpt lat="40.6391947" lon="14.6684924"><ele>154.66666666666669</ele><time>2026-04-13T09:37:59.851Z</time></trkpt><trkpt lat="40.639115" lon="14.6685316"><ele>154.33333333333334</ele><time>2026-04-13T09:38:00.864Z</time></trkpt><trkpt lat="40.6390422" lon="14.6685967"><ele>154.0</ele><time>2026-04-13T09:38:01.852Z</time></trkpt><trkpt lat="40.6389857" lon="14.6686886"><ele>154.0</ele><time>2026-04-13T09:38:02.853Z</time></trkpt><trkpt lat="40.6389394" lon="14.668804"><ele>154.0</ele><time>2026-04-13T09:38:03.854Z</time></trkpt><trkpt lat="40.6389016" lon="14.6689197"><ele>154.0</ele><time>2026-04-13T09:38:04.872Z</time></trkpt><trkpt lat="40.6388703" lon="14.6690377"><ele>154.0</ele><time>2026-04-13T09:38:05.867Z</time></trkpt><trkpt lat="40.6388474" lon="14.6691504"><ele>154.0</ele><time>2026-04-13T09:38:06.865Z</time></trkpt><trkpt lat="40.6388243" lon="14.6692591"><ele>154.0</ele><time>2026-04-13T09:38:07.86Z</time></trkpt><trkpt lat="40.6388285" lon="14.6693742"><ele>154.0</ele><time>2026-04-13T09:38:08.855Z</time></trkpt><trkpt lat="40.6388354" lon="14.6694931"><ele>154.0</ele><time>2026-04-13T09:38:09.867Z</time></trkpt><trkpt lat="40.6388532" lon="14.6696091"><ele>154.0</ele><time>2026-04-13T09:38:10.858Z</time></trkpt><trkpt lat="40.6388708" lon="14.6697289"><ele>154.0</ele><time>2026-04-13T09:38:11.863Z</time></trkpt><trkpt lat="40.6389009" lon="14.6698464"><ele>154.0</ele><time>2026-04-13T09:38:12.867Z</time></trkpt><trkpt lat="40.638946" lon="14.669958"><ele>154.0</ele><time>2026-04-13T09:38:13.874Z</time></trkpt><trkpt lat="40.6390003" lon="14.6700562"><ele>154.0</ele><time>2026-04-13T09:38:14.859Z</time></trkpt><trkpt lat="40.6390639" lon="14.6701458"><ele>154.0</ele><time>2026-04-13T09:38:15.855Z</time></trkpt><trkpt lat="40.6391273" lon="14.670229"><ele>154.0</ele><time>2026-04-13T09:38:16.858Z</time></trkpt><trkpt lat="40.6391901" lon="14.6703134"><ele>154.0</ele><time>2026-04-13T09:38:17.867Z</time></trkpt><trkpt lat="40.6392469" lon="14.670395"><ele>154.0</ele><time>2026-04-13T09:38:18.866Z</time></trkpt><trkpt lat="40.6392652" lon="14.6705031"><ele>154.0</ele><time>2026-04-13T09:38:19.869Z</time></trkpt><trkpt lat="40.6392574" lon="14.670615"><ele>154.0</ele><time>2026-04-13T09:38:20.855Z</time></trkpt><trkpt lat="40.6392388" lon="14.6707372"><ele>154.0</ele><time>2026-04-13T09:38:21.859Z</time></trkpt><trkpt lat="40.6392165" lon="14.6708577"><ele>154.0</ele><time>2026-04-13T09:38:22.857Z</time></trkpt><trkpt lat="40.6391932" lon="14.6709877"><ele>158.0</ele><time>2026-04-13T09:38:23.871Z</time></trkpt><trkpt lat="40.6391689" lon="14.6711411"><ele>162.0</ele><time>2026-04-13T09:38:24.852Z</time></trkpt><trkpt lat="40.639145" lon="14.6713069"><ele>166.0</ele><time>2026-04-13T09:38:25.865Z</time></trkpt><trkpt lat="40.6391052" lon="14.6715174"><ele>170.0</ele><time>2026-04-13T09:38:26.884Z</time></trkpt><trkpt lat="40.6390744" lon="14.6717016"><ele>170.0</ele><time>2026-04-13T09:38:27.861Z</time></trkpt><trkpt lat="40.6390669" lon="14.6718463"><ele>170.0</ele><time>2026-04-13T09:38:28.862Z</time></trkpt><trkpt lat="40.6390581" lon="14.6719779"><ele>170.0</ele><time>2026-04-13T09:38:29.85Z</time></trkpt><trkpt lat="40.6390279" lon="14.6720543"><ele>170.0</ele><time>2026-04-13T09:38:30.862Z</time></trkpt><trkpt lat="40.6389592" lon="14.6720926"><ele>170.0</ele><time>2026-04-13T09:38:31.852Z</time></trkpt><trkpt lat="40.638859" lon="14.6720896"><ele>173.8</ele><time>2026-04-13T09:38:32.859Z</time></trkpt><trkpt lat="40.63874" lon="14.6720589"><ele>177.6</ele><time>2026-04-13T09:38:33.874Z</time></trkpt><trkpt lat="40.63862" lon="14.6720583"><ele>181.39999999999998</ele><time>2026-04-13T09:38:34.854Z</time></trkpt><trkpt lat="40.6385227" lon="14.6720917"><ele>185.2</ele><time>2026-04-13T09:38:35.853Z</time></trkpt><trkpt lat="40.6384578" lon="14.6721661"><ele>189.0</ele><time>2026-04-13T09:38:36.856Z</time></trkpt><trkpt lat="40.6384303" lon="14.6722698"><ele>182.25</ele><time>2026-04-13T09:38:37.861Z</time></trkpt><trkpt lat="40.638431" lon="14.6723999"><ele>175.5</ele><time>2026-04-13T09:38:38.849Z</time></trkpt><trkpt lat="40.6384406" lon="14.6725775"><ele>168.75</ele><time>2026-04-13T09:38:39.86Z</time></trkpt><trkpt lat="40.6384473" lon="14.672814"><ele>162.0</ele><time>2026-04-13T09:38:40.853Z</time></trkpt><trkpt lat="40.6384515" lon="14.6730575"><ele>162.0</ele><time>2026-04-13T09:38:41.852Z</time></trkpt><trkpt lat="40.6384576" lon="14.6732878"><ele>162.0</ele><time>2026-04-13T09:38:42.856Z</time></trkpt><trkpt lat="40.6384499" lon="14.6734475"><ele>162.0</ele><time>2026-04-13T09:38:43.856Z</time></trkpt><trkpt lat="40.6384172" lon="14.6735635"><ele>162.0</ele><time>2026-04-13T09:38:44.868Z</time></trkpt><trkpt lat="40.6383832" lon="14.6736659"><ele>167.8</ele><time>2026-04-13T09:38:45.86Z</time></trkpt><trkpt lat="40.6383072" lon="14.6736745"><ele>173.6</ele><time>2026-04-13T09:38:46.857Z</time></trkpt><trkpt lat="40.6382074" lon="14.6736656"><ele>179.4</ele><time>2026-04-13T09:38:47.866Z</time></trkpt><trkpt lat="40.6380803" lon="14.6736466"><ele>185.20000000000002</ele><time>2026-04-13T09:38:48.858Z</time></trkpt><trkpt lat="40.6379477" lon="14.6736408"><ele>191.0</ele><time>2026-04-13T09:38:49.844Z</time></trkpt><trkpt lat="40.6378207" lon="14.6736799"><ele>186.5</ele><time>2026-04-13T09:38:50.86Z</time></trkpt><trkpt lat="40.6376998" lon="14.6737659"><ele>182.0</ele><time>2026-04-13T09:38:51.857Z</time></trkpt><trkpt lat="40.6375746" lon="14.6738555"><ele>177.5</ele><time>2026-04-13T09:38:52.857Z</time></trkpt><trkpt lat="40.6374438" lon="14.6738939"><ele>173.0</ele><time>2026-04-13T09:38:53.852Z</time></trkpt><trkpt lat="40.6373184" lon="14.6739097"><ele>173.0</ele><time>2026-04-13T09:38:54.858Z</time></trkpt><trkpt lat="40.6372203" lon="14.6739499"><ele>173.0</ele><time>2026-04-13T09:38:55.866Z</time></trkpt><trkpt lat="40.6371574" lon="14.6740327"><ele>173.0</ele><time>2026-04-13T09:38:56.851Z</time></trkpt><trkpt lat="40.6370977" lon="14.6741165"><ele>173.0</ele><time>2026-04-13T09:38:57.862Z</time></trkpt><trkpt lat="40.6370918" lon="14.6742676"><ele>173.0</ele><time>2026-04-13T09:38:58.85Z</time></trkpt><trkpt lat="40.6371057" lon="14.6744497"><ele>176.25</ele><time>2026-04-13T09:38:59.859Z</time></trkpt><trkpt lat="40.6371239" lon="14.6746345"><ele>179.5</ele><time>2026-04-13T09:39:00.859Z</time></trkpt><trkpt lat="40.6371938" lon="14.6748216"><ele>182.75</ele><time>2026-04-13T09:39:01.867Z</time></trkpt><trkpt lat="40.6372379" lon="14.6750086"><ele>186.0</ele><time>2026-04-13T09:39:02.86Z</time></trkpt><trkpt lat="40.6372557" lon="14.675213"><ele>184.0</ele><time>2026-04-13T09:39:03.864Z</time></trkpt><trkpt lat="40.6372668" lon="14.6754422"><ele>182.0</ele><time>2026-04-13T09:39:04.851Z</time></trkpt><trkpt lat="40.6372791" lon="14.6756846"><ele>180.0</ele><time>2026-04-13T09:39:05.879Z</time></trkpt><trkpt lat="40.6372873" lon="14.6759292"><ele>181.0</ele><time>2026-04-13T09:39:06.847Z</time></trkpt><trkpt lat="40.6372879" lon="14.6761729"><ele>182.0</ele><time>2026-04-13T09:39:07.859Z</time></trkpt><trkpt lat="40.6372882" lon="14.6763976"><ele>183.0</ele><time>2026-04-13T09:39:08.847Z</time></trkpt><trkpt lat="40.6372882" lon="14.6765894"><ele>183.0</ele><time>2026-04-13T09:39:09.852Z</time></trkpt><trkpt lat="40.6372755" lon="14.6767401"><ele>183.0</ele><time>2026-04-13T09:39:10.864Z</time></trkpt><trkpt lat="40.6372318" lon="14.676852"><ele>183.0</ele><time>2026-04-13T09:39:11.854Z</time></trkpt><trkpt lat="40.6371561" lon="14.6769437"><ele>183.0</ele><time>2026-04-13T09:39:12.87Z</time></trkpt><trkpt lat="40.6370602" lon="14.6770525"><ele>183.0</ele><time>2026-04-13T09:39:13.86Z</time></trkpt><trkpt lat="40.6369599" lon="14.677197"><ele>181.25</ele><time>2026-04-13T09:39:14.859Z</time></trkpt><trkpt lat="40.6368669" lon="14.6773646"><ele>179.5</ele><time>2026-04-13T09:39:15.847Z</time></trkpt><trkpt lat="40.6367928" lon="14.6775268"><ele>177.75</ele><time>2026-04-13T09:39:16.872Z</time></trkpt><trkpt lat="40.6367452" lon="14.6776741"><ele>176.0</ele><time>2026-04-13T09:39:17.862Z</time></trkpt><trkpt lat="40.6367337" lon="14.6778152"><ele>176.0</ele><time>2026-04-13T09:39:18.867Z</time></trkpt><trkpt lat="40.6367498" lon="14.677969"><ele>176.0</ele><time>2026-04-13T09:39:19.866Z</time></trkpt><trkpt lat="40.6367671" lon="14.6781249"><ele>176.0</ele><time>2026-04-13T09:39:20.858Z</time></trkpt><trkpt lat="40.6367725" lon="14.6782682"><ele>176.0</ele><time>2026-04-13T09:39:21.858Z</time></trkpt><trkpt lat="40.6367498" lon="14.6783827"><ele>176.0</ele><time>2026-04-13T09:39:22.855Z</time></trkpt><trkpt lat="40.6366931" lon="14.6784679"><ele>176.0</ele><time>2026-04-13T09:39:23.858Z</time></trkpt><trkpt lat="40.6366299" lon="14.6785551"><ele>176.0</ele><time>2026-04-13T09:39:24.867Z</time></trkpt><trkpt lat="40.6365244" lon="14.6785761"><ele>176.0</ele><time>2026-04-13T09:39:25.869Z</time></trkpt><trkpt lat="40.636398" lon="14.6785554"><ele>176.0</ele><time>2026-04-13T09:39:26.855Z</time></trkpt><trkpt lat="40.6362534" lon="14.6785277"><ele>176.0</ele><time>2026-04-13T09:39:27.841Z</time></trkpt><trkpt lat="40.6361076" lon="14.6784417"><ele>176.0</ele><time>2026-04-13T09:39:28.847Z</time></trkpt><trkpt lat="40.635983" lon="14.6783443"><ele>176.0</ele><time>2026-04-13T09:39:29.863Z</time></trkpt><trkpt lat="40.6358779" lon="14.6782609"><ele>176.0</ele><time>2026-04-13T09:39:30.86Z</time></trkpt><trkpt lat="40.6357812" lon="14.6782089"><ele>176.0</ele><time>2026-04-13T09:39:31.847Z</time></trkpt><trkpt lat="40.6356908" lon="14.6782138"><ele>176.0</ele><time>2026-04-13T09:39:32.859Z</time></trkpt><trkpt lat="40.6356039" lon="14.6782672"><ele>176.0</ele><time>2026-04-13T09:39:33.845Z</time></trkpt><trkpt lat="40.6355243" lon="14.6783698"><ele>176.0</ele><time>2026-04-13T09:39:34.858Z</time></trkpt><trkpt lat="40.6354404" lon="14.6785035"><ele>176.0</ele><time>2026-04-13T09:39:35.86Z</time></trkpt><trkpt lat="40.6353281" lon="14.6786248"><ele>174.0</ele><time>2026-04-13T09:39:36.858Z</time></trkpt><trkpt lat="40.6351868" lon="14.6787209"><ele>172.0</ele><time>2026-04-13T09:39:37.841Z</time></trkpt><trkpt lat="40.6350456" lon="14.6788114"><ele>170.0</ele><time>2026-04-13T09:39:38.871Z</time></trkpt><trkpt lat="40.6349126" lon="14.6788904"><ele>170.0</ele><time>2026-04-13T09:39:39.847Z</time></trkpt><trkpt lat="40.634799" lon="14.6789895"><ele>170.0</ele><time>2026-04-13T09:39:40.869Z</time></trkpt><trkpt lat="40.6347103" lon="14.6790933"><ele>170.0</ele><time>2026-04-13T09:39:41.859Z</time></trkpt><trkpt lat="40.6346572" lon="14.6792091"><ele>170.0</ele><time>2026-04-13T09:39:42.868Z</time></trkpt><trkpt lat="40.6346146" lon="14.6793119"><ele>170.0</ele><time>2026-04-13T09:39:43.856Z</time></trkpt><trkpt lat="40.6346496" lon="14.6794176"><ele>167.5</ele><time>2026-04-13T09:39:44.862Z</time></trkpt><trkpt lat="40.6347247" lon="14.6795124"><ele>165.0</ele><time>2026-04-13T09:39:45.857Z</time></trkpt><trkpt lat="40.6348328" lon="14.6796007"><ele>162.5</ele><time>2026-04-13T09:39:46.86Z</time></trkpt><trkpt lat="40.6349464" lon="14.6797026"><ele>160.0</ele><time>2026-04-13T09:39:47.863Z</time></trkpt><trkpt lat="40.6350471" lon="14.6798373"><ele>160.0</ele><time>2026-04-13T09:39:48.87Z</time></trkpt><trkpt lat="40.6351255" lon="14.6800108"><ele>160.0</ele><time>2026-04-13T09:39:49.859Z</time></trkpt><trkpt lat="40.6351765" lon="14.6802117"><ele>160.0</ele><time>2026-04-13T09:39:50.88Z</time></trkpt><trkpt lat="40.6351975" lon="14.6804291"><ele>160.0</ele><time>2026-04-13T09:39:51.868Z</time></trkpt><trkpt lat="40.6351856" lon="14.6806485"><ele>160.0</ele><time>2026-04-13T09:39:52.856Z</time></trkpt><trkpt lat="40.6351373" lon="14.6808441"><ele>160.0</ele><time>2026-04-13T09:39:53.862Z</time></trkpt><trkpt lat="40.6350546" lon="14.6809984"><ele>164.0</ele><time>2026-04-13T09:39:54.871Z</time></trkpt><trkpt lat="40.6349515" lon="14.68111"><ele>168.0</ele><time>2026-04-13T09:39:55.849Z</time></trkpt><trkpt lat="40.6348505" lon="14.6812195"><ele>172.0</ele><time>2026-04-13T09:39:56.863Z</time></trkpt><trkpt lat="40.6347649" lon="14.6813355"><ele>176.0</ele><time>2026-04-13T09:39:57.861Z</time></trkpt><trkpt lat="40.6347151" lon="14.6814647"><ele>176.0</ele><time>2026-04-13T09:39:58.857Z</time></trkpt><trkpt lat="40.6347091" lon="14.6816011"><ele>176.0</ele><time>2026-04-13T09:39:59.864Z</time></trkpt><trkpt lat="40.6347387" lon="14.6817505"><ele>176.0</ele><time>2026-04-13T09:40:00.856Z</time></trkpt><trkpt lat="40.6347918" lon="14.6819306"><ele>176.0</ele><time>2026-04-13T09:40:01.861Z</time></trkpt><trkpt lat="40.6348462" lon="14.6821188"><ele>174.0</ele><time>2026-04-13T09:40:02.857Z</time></trkpt><trkpt lat="40.6349243" lon="14.6823489"><ele>172.0</ele><time>2026-04-13T09:40:03.852Z</time></trkpt><trkpt lat="40.6351964" lon="14.68302"><ele>171.0</ele><time>2026-04-13T09:40:06.848Z</time></trkpt><trkpt lat="40.6352713" lon="14.6831712"><ele>170.0</ele><time>2026-04-13T09:40:07.854Z</time></trkpt><trkpt lat="40.6353108" lon="14.683381"><ele>169.0</ele><time>2026-04-13T09:40:08.85Z</time></trkpt><trkpt lat="40.6352999" lon="14.6835718"><ele>168.0</ele><time>2026-04-13T09:40:09.864Z</time></trkpt><trkpt lat="40.6352243" lon="14.6837563"><ele>168.0</ele><time>2026-04-13T09:40:10.845Z</time></trkpt><trkpt lat="40.6351255" lon="14.6838925"><ele>168.0</ele><time>2026-04-13T09:40:11.844Z</time></trkpt><trkpt lat="40.6350124" lon="14.6840483"><ele>168.0</ele><time>2026-04-13T09:40:12.863Z</time></trkpt><trkpt lat="40.6349138" lon="14.6842125"><ele>168.0</ele><time>2026-04-13T09:40:13.854Z</time></trkpt><trkpt lat="40.6348194" lon="14.6843589"><ele>168.0</ele><time>2026-04-13T09:40:14.872Z</time></trkpt><trkpt lat="40.6347726" lon="14.6844856"><ele>168.0</ele><time>2026-04-13T09:40:15.846Z</time></trkpt><trkpt lat="40.6347315" lon="14.6846088"><ele>168.0</ele><time>2026-04-13T09:40:16.868Z</time></trkpt><trkpt lat="40.6347449" lon="14.684748"><ele>169.5</ele><time>2026-04-13T09:40:17.853Z</time></trkpt><trkpt lat="40.6347378" lon="14.6849085"><ele>171.0</ele><time>2026-04-13T09:40:18.85Z</time></trkpt><trkpt lat="40.6346891" lon="14.6850767"><ele>172.5</ele><time>2026-04-13T09:40:19.858Z</time></trkpt><trkpt lat="40.6346347" lon="14.6852458"><ele>174.0</ele><time>2026-04-13T09:40:20.862Z</time></trkpt><trkpt lat="40.6345711" lon="14.6854154"><ele>174.0</ele><time>2026-04-13T09:40:21.862Z</time></trkpt><trkpt lat="40.6345174" lon="14.6855751"><ele>174.0</ele><time>2026-04-13T09:40:22.847Z</time></trkpt><trkpt lat="40.6345186" lon="14.6856943"><ele>174.0</ele><time>2026-04-13T09:40:23.857Z</time></trkpt><trkpt lat="40.6345519" lon="14.6857947"><ele>174.0</ele><time>2026-04-13T09:40:24.858Z</time></trkpt><trkpt lat="40.6345896" lon="14.6858936"><ele>174.0</ele><time>2026-04-13T09:40:25.857Z</time></trkpt><trkpt lat="40.634662" lon="14.6859982"><ele>176.2</ele><time>2026-04-13T09:40:26.86Z</time></trkpt><trkpt lat="40.6347098" lon="14.6861188"><ele>178.39999999999998</ele><time>2026-04-13T09:40:27.863Z</time></trkpt><trkpt lat="40.6347086" lon="14.6862451"><ele>180.6</ele><time>2026-04-13T09:40:28.844Z</time></trkpt><trkpt lat="40.6346621" lon="14.6863661"><ele>182.8</ele><time>2026-04-13T09:40:29.844Z</time></trkpt><trkpt lat="40.6345748" lon="14.6864692"><ele>185.0</ele><time>2026-04-13T09:40:30.848Z</time></trkpt><trkpt lat="40.6344564" lon="14.6865487"><ele>185.0</ele><time>2026-04-13T09:40:31.852Z</time></trkpt><trkpt lat="40.6343453" lon="14.686628"><ele>185.0</ele><time>2026-04-13T09:40:32.873Z</time></trkpt><trkpt lat="40.634253" lon="14.6867371"><ele>185.0</ele><time>2026-04-13T09:40:33.862Z</time></trkpt><trkpt lat="40.6341783" lon="14.686875"><ele>185.0</ele><time>2026-04-13T09:40:34.87Z</time></trkpt><trkpt lat="40.6341292" lon="14.6870366"><ele>185.0</ele><time>2026-04-13T09:40:35.863Z</time></trkpt><trkpt lat="40.6341092" lon="14.6872191"><ele>185.0</ele><time>2026-04-13T09:40:36.848Z</time></trkpt><trkpt lat="40.6341119" lon="14.687417"><ele>185.0</ele><time>2026-04-13T09:40:37.862Z</time></trkpt><trkpt lat="40.6341028" lon="14.6876042"><ele>185.0</ele><time>2026-04-13T09:40:38.864Z</time></trkpt><trkpt lat="40.6340769" lon="14.6877669"><ele>185.0</ele><time>2026-04-13T09:40:39.849Z</time></trkpt><trkpt lat="40.6340521" lon="14.6879196"><ele>185.0</ele><time>2026-04-13T09:40:40.859Z</time></trkpt><trkpt lat="40.6340528" lon="14.688044"><ele>185.0</ele><time>2026-04-13T09:40:41.84Z</time></trkpt><trkpt lat="40.6341171" lon="14.6881665"><ele>185.0</ele><time>2026-04-13T09:40:42.861Z</time></trkpt><trkpt lat="40.6341888" lon="14.6882909"><ele>185.0</ele><time>2026-04-13T09:40:43.867Z</time></trkpt><trkpt lat="40.6342712" lon="14.6884578"><ele>171.66666666666666</ele><time>2026-04-13T09:40:44.866Z</time></trkpt><trkpt lat="40.6343525" lon="14.6886269"><ele>158.33333333333334</ele><time>2026-04-13T09:40:45.85Z</time></trkpt><trkpt lat="40.6344541" lon="14.6887821"><ele>145.0</ele><time>2026-04-13T09:40:46.86Z</time></trkpt><trkpt lat="40.634583" lon="14.6889204"><ele>145.0</ele><time>2026-04-13T09:40:47.859Z</time></trkpt><trkpt lat="40.6347051" lon="14.6890768"><ele>145.0</ele><time>2026-04-13T09:40:48.857Z</time></trkpt><trkpt lat="40.6348055" lon="14.6892403"><ele>145.0</ele><time>2026-04-13T09:40:49.848Z</time></trkpt><trkpt lat="40.6348811" lon="14.6894177"><ele>140.66666666666669</ele><time>2026-04-13T09:40:50.852Z</time></trkpt><trkpt lat="40.6349249" lon="14.6896156"><ele>136.33333333333334</ele><time>2026-04-13T09:40:51.866Z</time></trkpt><trkpt lat="40.6349414" lon="14.6898232"><ele>132.0</ele><time>2026-04-13T09:40:52.868Z</time></trkpt><trkpt lat="40.6349656" lon="14.6900174"><ele>132.0</ele><time>2026-04-13T09:40:53.845Z</time></trkpt><trkpt lat="40.6350218" lon="14.6901948"><ele>132.0</ele><time>2026-04-13T09:40:54.846Z</time></trkpt><trkpt lat="40.6351045" lon="14.6903797"><ele>132.0</ele><time>2026-04-13T09:40:55.85Z</time></trkpt><trkpt lat="40.6351873" lon="14.6905905"><ele>135.0</ele><time>2026-04-13T09:40:56.857Z</time></trkpt><trkpt lat="40.6352569" lon="14.6908028"><ele>138.0</ele><time>2026-04-13T09:40:57.852Z</time></trkpt><trkpt lat="40.6353197" lon="14.6909974"><ele>141.0</ele><time>2026-04-13T09:40:58.855Z</time></trkpt><trkpt lat="40.6353794" lon="14.6911637"><ele>130.5</ele><time>2026-04-13T09:40:59.861Z</time></trkpt><trkpt lat="40.6354467" lon="14.6912906"><ele>120.0</ele><time>2026-04-13T09:41:00.845Z</time></trkpt><trkpt lat="40.6355309" lon="14.6913714"><ele>109.5</ele><time>2026-04-13T09:41:01.86Z</time></trkpt><trkpt lat="40.6356292" lon="14.6914099"><ele>99.0</ele><time>2026-04-13T09:41:02.86Z</time></trkpt><trkpt lat="40.6357529" lon="14.6914388"><ele>99.0</ele><time>2026-04-13T09:41:03.851Z</time></trkpt><trkpt lat="40.6359051" lon="14.6914945"><ele>99.0</ele><time>2026-04-13T09:41:04.878Z</time></trkpt><trkpt lat="40.6360768" lon="14.691574"><ele>99.0</ele><time>2026-04-13T09:41:05.855Z</time></trkpt><trkpt lat="40.6362452" lon="14.6916483"><ele>101.0</ele><time>2026-04-13T09:41:06.868Z</time></trkpt><trkpt lat="40.63639" lon="14.6917005"><ele>103.0</ele><time>2026-04-13T09:41:07.89Z</time></trkpt><trkpt lat="40.6365166" lon="14.6917219"><ele>105.0</ele><time>2026-04-13T09:41:08.865Z</time></trkpt><trkpt lat="40.6366273" lon="14.6917031"><ele>107.0</ele><time>2026-04-13T09:41:09.867Z</time></trkpt><trkpt lat="40.6367248" lon="14.691648"><ele>107.0</ele><time>2026-04-13T09:41:10.859Z</time></trkpt><trkpt lat="40.6368089" lon="14.6915539"><ele>107.0</ele><time>2026-04-13T09:41:11.859Z</time></trkpt><trkpt lat="40.6368669" lon="14.6914301"><ele>107.0</ele><time>2026-04-13T09:41:12.854Z</time></trkpt><trkpt lat="40.636891" lon="14.6912828"><ele>107.0</ele><time>2026-04-13T09:41:13.868Z</time></trkpt><trkpt lat="40.636916" lon="14.6911179"><ele>101.33333333333333</ele><time>2026-04-13T09:41:14.868Z</time></trkpt><trkpt lat="40.6369715" lon="14.6909502"><ele>95.66666666666666</ele><time>2026-04-13T09:41:15.848Z</time></trkpt><trkpt lat="40.6370457" lon="14.6907758"><ele>90.0</ele><time>2026-04-13T09:41:16.862Z</time></trkpt><trkpt lat="40.6371273" lon="14.6905881"><ele>90.0</ele><time>2026-04-13T09:41:17.856Z</time></trkpt><trkpt lat="40.6371964" lon="14.6904084"><ele>90.0</ele><time>2026-04-13T09:41:18.862Z</time></trkpt><trkpt lat="40.6372725" lon="14.6902551"><ele>90.0</ele><time>2026-04-13T09:41:19.865Z</time></trkpt><trkpt lat="40.6373665" lon="14.6901336"><ele>90.0</ele><time>2026-04-13T09:41:20.865Z</time></trkpt><trkpt lat="40.6374566" lon="14.6900448"><ele>91.2</ele><time>2026-04-13T09:41:21.859Z</time></trkpt><trkpt lat="40.6375487" lon="14.6899926"><ele>92.4</ele><time>2026-04-13T09:41:22.858Z</time></trkpt><trkpt lat="40.6376466" lon="14.6899837"><ele>93.6</ele><time>2026-04-13T09:41:23.863Z</time></trkpt><trkpt lat="40.637761" lon="14.6900141"><ele>94.8</ele><time>2026-04-13T09:41:24.857Z</time></trkpt><trkpt lat="40.6378894" lon="14.6900567"><ele>96.0</ele><time>2026-04-13T09:41:25.856Z</time></trkpt><trkpt lat="40.638026" lon="14.6900986"><ele>96.0</ele><time>2026-04-13T09:41:26.863Z</time></trkpt><trkpt lat="40.6381471" lon="14.6901457"><ele>96.0</ele><time>2026-04-13T09:41:27.867Z</time></trkpt><trkpt lat="40.6382512" lon="14.6901653"><ele>96.0</ele><time>2026-04-13T09:41:28.854Z</time></trkpt><trkpt lat="40.6383399" lon="14.6901626"><ele>96.0</ele><time>2026-04-13T09:41:29.866Z</time></trkpt><trkpt lat="40.6384089" lon="14.6901082"><ele>96.0</ele><time>2026-04-13T09:41:30.868Z</time></trkpt><trkpt lat="40.6384816" lon="14.6899993"><ele>96.0</ele><time>2026-04-13T09:41:31.859Z</time></trkpt><trkpt lat="40.6385671" lon="14.6898845"><ele>96.0</ele><time>2026-04-13T09:41:32.858Z</time></trkpt><trkpt lat="40.6386727" lon="14.6897531"><ele>96.0</ele><time>2026-04-13T09:41:33.848Z</time></trkpt><trkpt lat="40.6387816" lon="14.689628"><ele>96.0</ele><time>2026-04-13T09:41:34.865Z</time></trkpt><trkpt lat="40.6388789" lon="14.6895251"><ele>98.75</ele><time>2026-04-13T09:41:35.869Z</time></trkpt><trkpt lat="40.6389836" lon="14.6894594"><ele>101.5</ele><time>2026-04-13T09:41:36.853Z</time></trkpt><trkpt lat="40.6391001" lon="14.6894376"><ele>104.25</ele><time>2026-04-13T09:41:37.843Z</time></trkpt><trkpt lat="40.6392242" lon="14.6894236"><ele>107.0</ele><time>2026-04-13T09:41:38.846Z</time></trkpt><trkpt lat="40.6393464" lon="14.6894045"><ele>100.0</ele><time>2026-04-13T09:41:39.875Z</time></trkpt><trkpt lat="40.6394722" lon="14.6893497"><ele>93.0</ele><time>2026-04-13T09:41:40.859Z</time></trkpt><trkpt lat="40.6395896" lon="14.6892422"><ele>86.0</ele><time>2026-04-13T09:41:41.864Z</time></trkpt><trkpt lat="40.6397101" lon="14.6891253"><ele>79.0</ele><time>2026-04-13T09:41:42.867Z</time></trkpt><trkpt lat="40.6398514" lon="14.6890195"><ele>79.0</ele><time>2026-04-13T09:41:43.859Z</time></trkpt><trkpt lat="40.6399886" lon="14.6889368"><ele>79.0</ele><time>2026-04-13T09:41:44.869Z</time></trkpt><trkpt lat="40.6401205" lon="14.6888833"><ele>79.0</ele><time>2026-04-13T09:41:45.856Z</time></trkpt><trkpt lat="40.640243" lon="14.6888555"><ele>79.0</ele><time>2026-04-13T09:41:46.871Z</time></trkpt><trkpt lat="40.6403456" lon="14.6888115"><ele>78.2</ele><time>2026-04-13T09:41:47.855Z</time></trkpt><trkpt lat="40.64042" lon="14.6887259"><ele>77.4</ele><time>2026-04-13T09:41:48.842Z</time></trkpt><trkpt lat="40.6404657" lon="14.6886086"><ele>76.6</ele><time>2026-04-13T09:41:49.855Z</time></trkpt><trkpt lat="40.640509" lon="14.6884701"><ele>75.8</ele><time>2026-04-13T09:41:50.863Z</time></trkpt><trkpt lat="40.6405249" lon="14.6883127"><ele>75.0</ele><time>2026-04-13T09:41:51.861Z</time></trkpt><trkpt lat="40.6405363" lon="14.6881875"><ele>77.6</ele><time>2026-04-13T09:41:52.876Z</time></trkpt><trkpt lat="40.6405737" lon="14.6881125"><ele>80.2</ele><time>2026-04-13T09:41:53.852Z</time></trkpt><trkpt lat="40.6406778" lon="14.688069"><ele>82.80000000000001</ele><time>2026-04-13T09:41:55.856Z</time></trkpt><trkpt lat="40.6407632" lon="14.6880976"><ele>85.4</ele><time>2026-04-13T09:41:56.866Z</time></trkpt><trkpt lat="40.6408866" lon="14.6881389"><ele>88.0</ele><time>2026-04-13T09:41:57.857Z</time></trkpt><trkpt lat="40.6409997" lon="14.6881879"><ele>88.0</ele><time>2026-04-13T09:41:58.855Z</time></trkpt><trkpt lat="40.6410824" lon="14.6882659"><ele>88.0</ele><time>2026-04-13T09:41:59.864Z</time></trkpt><trkpt lat="40.641147" lon="14.6883747"><ele>88.0</ele><time>2026-04-13T09:42:00.866Z</time></trkpt><trkpt lat="40.641197" lon="14.6885112"><ele>88.0</ele><time>2026-04-13T09:42:01.847Z</time></trkpt><trkpt lat="40.641229" lon="14.6886719"><ele>88.0</ele><time>2026-04-13T09:42:02.869Z</time></trkpt><trkpt lat="40.641258" lon="14.688854"><ele>85.4</ele><time>2026-04-13T09:42:03.855Z</time></trkpt><trkpt lat="40.6412548" lon="14.689032"><ele>82.80000000000001</ele><time>2026-04-13T09:42:04.86Z</time></trkpt><trkpt lat="40.6412517" lon="14.6891887"><ele>80.2</ele><time>2026-04-13T09:42:05.854Z</time></trkpt><trkpt lat="40.64121" lon="14.689288"><ele>77.6</ele><time>2026-04-13T09:42:06.849Z</time></trkpt><trkpt lat="40.6411484" lon="14.6893501"><ele>75.0</ele><time>2026-04-13T09:42:07.865Z</time></trkpt><trkpt lat="40.6410699" lon="14.6893832"><ele>79.5</ele><time>2026-04-13T09:42:08.843Z</time></trkpt><trkpt lat="40.6409832" lon="14.6894458"><ele>84.0</ele><time>2026-04-13T09:42:09.853Z</time></trkpt><trkpt lat="40.6408972" lon="14.6895353"><ele>88.5</ele><time>2026-04-13T09:42:10.87Z</time></trkpt><trkpt lat="40.640804" lon="14.6896506"><ele>93.0</ele><time>2026-04-13T09:42:11.862Z</time></trkpt><trkpt lat="40.6407124" lon="14.689791"><ele>93.0</ele><time>2026-04-13T09:42:12.859Z</time></trkpt><trkpt lat="40.6406283" lon="14.6899571"><ele>93.0</ele><time>2026-04-13T09:42:13.862Z</time></trkpt><trkpt lat="40.6405551" lon="14.6901339"><ele>93.0</ele><time>2026-04-13T09:42:14.872Z</time></trkpt><trkpt lat="40.6405038" lon="14.6903055"><ele>93.0</ele><time>2026-04-13T09:42:15.856Z</time></trkpt><trkpt lat="40.6404741" lon="14.6904664"><ele>88.0</ele><time>2026-04-13T09:42:16.866Z</time></trkpt><trkpt lat="40.6404551" lon="14.6906036"><ele>83.0</ele><time>2026-04-13T09:42:17.857Z</time></trkpt><trkpt lat="40.6404184" lon="14.6907022"><ele>78.0</ele><time>2026-04-13T09:42:18.864Z</time></trkpt><trkpt lat="40.6403563" lon="14.6907537"><ele>73.0</ele><time>2026-04-13T09:42:19.867Z</time></trkpt><trkpt lat="40.6402749" lon="14.6907637"><ele>68.0</ele><time>2026-04-13T09:42:20.866Z</time></trkpt><trkpt lat="40.6401848" lon="14.6907836"><ele>63.0</ele><time>2026-04-13T09:42:21.864Z</time></trkpt><trkpt lat="40.640109" lon="14.690845"><ele>63.0</ele><time>2026-04-13T09:42:22.859Z</time></trkpt><trkpt lat="40.6400519" lon="14.6909487"><ele>63.0</ele><time>2026-04-13T09:42:23.869Z</time></trkpt><trkpt lat="40.6400044" lon="14.6910922"><ele>63.0</ele><time>2026-04-13T09:42:24.872Z</time></trkpt><trkpt lat="40.639949" lon="14.6912655"><ele>63.0</ele><time>2026-04-13T09:42:25.872Z</time></trkpt><trkpt lat="40.6398671" lon="14.6914484"><ele>72.0</ele><time>2026-04-13T09:42:26.857Z</time></trkpt><trkpt lat="40.6397826" lon="14.6916364"><ele>81.0</ele><time>2026-04-13T09:42:27.871Z</time></trkpt><trkpt lat="40.6397209" lon="14.6918441"><ele>90.0</ele><time>2026-04-13T09:42:28.848Z</time></trkpt><trkpt lat="40.6396617" lon="14.6920415"><ele>92.25</ele><time>2026-04-13T09:42:29.852Z</time></trkpt><trkpt lat="40.6396228" lon="14.6922128"><ele>94.5</ele><time>2026-04-13T09:42:30.852Z</time></trkpt><trkpt lat="40.6396341" lon="14.692366"><ele>96.75</ele><time>2026-04-13T09:42:31.845Z</time></trkpt><trkpt lat="40.6396544" lon="14.6925206"><ele>99.0</ele><time>2026-04-13T09:42:32.855Z</time></trkpt><trkpt lat="40.6396909" lon="14.6926736"><ele>99.80000000000001</ele><time>2026-04-13T09:42:33.864Z</time></trkpt><trkpt lat="40.639688" lon="14.6928108"><ele>100.60000000000001</ele><time>2026-04-13T09:42:34.878Z</time></trkpt><trkpt lat="40.6396447" lon="14.6929186"><ele>101.4</ele><time>2026-04-13T09:42:35.847Z</time></trkpt><trkpt lat="40.6395976" lon="14.6930191"><ele>102.2</ele><time>2026-04-13T09:42:36.862Z</time></trkpt><trkpt lat="40.6395469" lon="14.6931156"><ele>103.0</ele><time>2026-04-13T09:42:37.861Z</time></trkpt><trkpt lat="40.6395266" lon="14.6932595"><ele>103.0</ele><time>2026-04-13T09:42:38.858Z</time></trkpt><trkpt lat="40.639495" lon="14.6934172"><ele>103.0</ele><time>2026-04-13T09:42:39.857Z</time></trkpt><trkpt lat="40.6394316" lon="14.6935832"><ele>103.0</ele><time>2026-04-13T09:42:40.864Z</time></trkpt><trkpt lat="40.6393608" lon="14.6937252"><ele>103.0</ele><time>2026-04-13T09:42:41.855Z</time></trkpt><trkpt lat="40.6392975" lon="14.6938589"><ele>94.5</ele><time>2026-04-13T09:42:42.86Z</time></trkpt><trkpt lat="40.63923" lon="14.6939827"><ele>86.0</ele><time>2026-04-13T09:42:43.857Z</time></trkpt><trkpt lat="40.6391325" lon="14.6941031"><ele>77.5</ele><time>2026-04-13T09:42:44.892Z</time></trkpt><trkpt lat="40.6390079" lon="14.6942329"><ele>69.0</ele><time>2026-04-13T09:42:45.859Z</time></trkpt><trkpt lat="40.638867" lon="14.6943656"><ele>71.25</ele><time>2026-04-13T09:42:46.859Z</time></trkpt><trkpt lat="40.6387416" lon="14.6944938"><ele>73.5</ele><time>2026-04-13T09:42:47.86Z</time></trkpt><trkpt lat="40.6386401" lon="14.6946165"><ele>75.75</ele><time>2026-04-13T09:42:48.865Z</time></trkpt><trkpt lat="40.6385686" lon="14.6947421"><ele>78.0</ele><time>2026-04-13T09:42:49.864Z</time></trkpt><trkpt lat="40.638528" lon="14.6948685"><ele>74.0</ele><time>2026-04-13T09:42:50.863Z</time></trkpt><trkpt lat="40.6385082" lon="14.6949842"><ele>70.0</ele><time>2026-04-13T09:42:51.872Z</time></trkpt><trkpt lat="40.638554" lon="14.6950803"><ele>66.0</ele><time>2026-04-13T09:42:52.864Z</time></trkpt><trkpt lat="40.6386261" lon="14.6951581"><ele>62.0</ele><time>2026-04-13T09:42:53.871Z</time></trkpt><trkpt lat="40.6387287" lon="14.6952586"><ele>58.0</ele><time>2026-04-13T09:42:54.858Z</time></trkpt><trkpt lat="40.6388328" lon="14.6953962"><ele>58.0</ele><time>2026-04-13T09:42:55.863Z</time></trkpt><trkpt lat="40.6389127" lon="14.6955529"><ele>58.0</ele><time>2026-04-13T09:42:56.844Z</time></trkpt><trkpt lat="40.6389725" lon="14.6957065"><ele>58.0</ele><time>2026-04-13T09:42:57.856Z</time></trkpt><trkpt lat="40.6390273" lon="14.6958349"><ele>58.0</ele><time>2026-04-13T09:42:58.849Z</time></trkpt><trkpt lat="40.639096" lon="14.6959482"><ele>58.0</ele><time>2026-04-13T09:42:59.89Z</time></trkpt><trkpt lat="40.6391795" lon="14.6959918"><ele>58.0</ele><time>2026-04-13T09:43:00.843Z</time></trkpt><trkpt lat="40.6392663" lon="14.6959853"><ele>58.0</ele><time>2026-04-13T09:43:01.866Z</time></trkpt><trkpt lat="40.6393612" lon="14.6959405"><ele>58.0</ele><time>2026-04-13T09:43:02.851Z</time></trkpt><trkpt lat="40.6394715" lon="14.6958659"><ele>58.0</ele><time>2026-04-13T09:43:03.885Z</time></trkpt><trkpt lat="40.6395988" lon="14.6957676"><ele>56.25</ele><time>2026-04-13T09:43:04.846Z</time></trkpt><trkpt lat="40.6397309" lon="14.6956601"><ele>54.5</ele><time>2026-04-13T09:43:05.861Z</time></trkpt><trkpt lat="40.6398547" lon="14.6955353"><ele>52.75</ele><time>2026-04-13T09:43:06.864Z</time></trkpt><trkpt lat="40.6399741" lon="14.6954529"><ele>51.0</ele><time>2026-04-13T09:43:07.864Z</time></trkpt><trkpt lat="40.6401177" lon="14.6953921"><ele>51.0</ele><time>2026-04-13T09:43:08.848Z</time></trkpt><trkpt lat="40.6402651" lon="14.6953531"><ele>51.0</ele><time>2026-04-13T09:43:09.85Z</time></trkpt><trkpt lat="40.6404023" lon="14.6953228"><ele>51.0</ele><time>2026-04-13T09:43:10.88Z</time></trkpt><trkpt lat="40.6405396" lon="14.6953173"><ele>51.0</ele><time>2026-04-13T09:43:11.857Z</time></trkpt><trkpt lat="40.6406877" lon="14.6953578"><ele>52.75</ele><time>2026-04-13T09:43:12.861Z</time></trkpt><trkpt lat="40.6407925" lon="14.6954845"><ele>54.5</ele><time>2026-04-13T09:43:13.856Z</time></trkpt><trkpt lat="40.6408731" lon="14.6956059"><ele>56.25</ele><time>2026-04-13T09:43:14.863Z</time></trkpt><trkpt lat="40.6409419" lon="14.6957173"><ele>58.0</ele><time>2026-04-13T09:43:15.855Z</time></trkpt><trkpt lat="40.6410217" lon="14.69578"><ele>57.99999999999999</ele><time>2026-04-13T09:43:16.861Z</time></trkpt><trkpt lat="40.6410996" lon="14.6958208"><ele>58.0</ele><time>2026-04-13T09:43:17.92Z</time></trkpt><trkpt lat="40.6411597" lon="14.6958666"><ele>58.0</ele><time>2026-04-13T09:43:18.862Z</time></trkpt><trkpt lat="40.6411717" lon="14.6959686"><ele>58.0</ele><time>2026-04-13T09:43:19.868Z</time></trkpt><trkpt lat="40.641181" lon="14.69606"><ele>57.99999999999999</ele><time>2026-04-13T09:43:20.862Z</time></trkpt><trkpt lat="40.6411653" lon="14.6961444"><ele>58.0</ele><time>2026-04-13T09:43:21.86Z</time></trkpt><trkpt lat="40.6410833" lon="14.696246"><ele>56.25</ele><time>2026-04-13T09:43:22.86Z</time></trkpt><trkpt lat="40.6409828" lon="14.6963535"><ele>54.5</ele><time>2026-04-13T09:43:23.854Z</time></trkpt><trkpt lat="40.6408662" lon="14.6965013"><ele>52.75</ele><time>2026-04-13T09:43:24.861Z</time></trkpt><trkpt lat="40.6407415" lon="14.6965743"><ele>51.0</ele><time>2026-04-13T09:43:25.849Z</time></trkpt><trkpt lat="40.6406196" lon="14.6966086"><ele>51.0</ele><time>2026-04-13T09:43:26.855Z</time></trkpt><trkpt lat="40.6405372" lon="14.6967038"><ele>51.0</ele><time>2026-04-13T09:43:27.856Z</time></trkpt><trkpt lat="40.6404793" lon="14.6968369"><ele>51.0</ele><time>2026-04-13T09:43:28.863Z</time></trkpt><trkpt lat="40.6404106" lon="14.6969899"><ele>51.0</ele><time>2026-04-13T09:43:29.856Z</time></trkpt><trkpt lat="40.6403363" lon="14.6971428"><ele>48.8</ele><time>2026-04-13T09:43:30.852Z</time></trkpt><trkpt lat="40.6402794" lon="14.6972836"><ele>46.599999999999994</ele><time>2026-04-13T09:43:31.845Z</time></trkpt><trkpt lat="40.6402593" lon="14.697407"><ele>44.4</ele><time>2026-04-13T09:43:32.874Z</time></trkpt><trkpt lat="40.6402608" lon="14.697518"><ele>42.2</ele><time>2026-04-13T09:43:33.854Z</time></trkpt><trkpt lat="40.6403219" lon="14.6975889"><ele>40.0</ele><time>2026-04-13T09:43:34.864Z</time></trkpt><trkpt lat="40.6403985" lon="14.6976164"><ele>40.0</ele><time>2026-04-13T09:43:35.861Z</time></trkpt><trkpt lat="40.6404909" lon="14.6976141"><ele>40.0</ele><time>2026-04-13T09:43:36.866Z</time></trkpt><trkpt lat="40.6406007" lon="14.6975745"><ele>40.0</ele><time>2026-04-13T09:43:37.854Z</time></trkpt><trkpt lat="40.6407198" lon="14.6975154"><ele>40.0</ele><time>2026-04-13T09:43:38.863Z</time></trkpt><trkpt lat="40.6408505" lon="14.6974398"><ele>40.0</ele><time>2026-04-13T09:43:39.862Z</time></trkpt><trkpt lat="40.6409952" lon="14.6973542"><ele>40.0</ele><time>2026-04-13T09:43:40.86Z</time></trkpt><trkpt lat="40.6411478" lon="14.697274"><ele>40.0</ele><time>2026-04-13T09:43:41.855Z</time></trkpt><trkpt lat="40.641306" lon="14.6972229"><ele>40.0</ele><time>2026-04-13T09:43:42.87Z</time></trkpt><trkpt lat="40.6414655" lon="14.6972192"><ele>40.0</ele><time>2026-04-13T09:43:43.859Z</time></trkpt><trkpt lat="40.641626" lon="14.6972296"><ele>40.0</ele><time>2026-04-13T09:43:44.868Z</time></trkpt><trkpt lat="40.6417761" lon="14.6972291"><ele>40.0</ele><time>2026-04-13T09:43:45.881Z</time></trkpt><trkpt lat="40.6419012" lon="14.6972285"><ele>40.0</ele><time>2026-04-13T09:43:46.855Z</time></trkpt><trkpt lat="40.642002" lon="14.6972471"><ele>40.0</ele><time>2026-04-13T09:43:47.855Z</time></trkpt><trkpt lat="40.6420733" lon="14.6972988"><ele>40.0</ele><time>2026-04-13T09:43:48.842Z</time></trkpt><trkpt lat="40.6421041" lon="14.6973743"><ele>40.0</ele><time>2026-04-13T09:43:49.868Z</time></trkpt><trkpt lat="40.6420607" lon="14.6975615"><ele>37.5</ele><time>2026-04-13T09:43:51.859Z</time></trkpt><trkpt lat="40.6420287" lon="14.6976824"><ele>35.0</ele><time>2026-04-13T09:43:52.855Z</time></trkpt><trkpt lat="40.6420191" lon="14.6977972"><ele>32.5</ele><time>2026-04-13T09:43:53.867Z</time></trkpt><trkpt lat="40.642045" lon="14.6978926"><ele>30.0</ele><time>2026-04-13T09:43:54.863Z</time></trkpt><trkpt lat="40.6421032" lon="14.697957"><ele>27.500000000000004</ele><time>2026-04-13T09:43:55.876Z</time></trkpt><trkpt lat="40.642195" lon="14.6980095"><ele>25.0</ele><time>2026-04-13T09:43:56.869Z</time></trkpt><trkpt lat="40.6423243" lon="14.69807"><ele>25.0</ele><time>2026-04-13T09:43:57.854Z</time></trkpt><trkpt lat="40.6424788" lon="14.698141"><ele>25.0</ele><time>2026-04-13T09:43:58.861Z</time></trkpt><trkpt lat="40.6426272" lon="14.6981997"><ele>25.0</ele><time>2026-04-13T09:43:59.861Z</time></trkpt><trkpt lat="40.6427642" lon="14.6982232"><ele>26.0</ele><time>2026-04-13T09:44:00.863Z</time></trkpt><trkpt lat="40.6428947" lon="14.6982121"><ele>27.0</ele><time>2026-04-13T09:44:01.848Z</time></trkpt><trkpt lat="40.6430257" lon="14.6981658"><ele>28.0</ele><time>2026-04-13T09:44:02.868Z</time></trkpt><trkpt lat="40.6431617" lon="14.6980779"><ele>29.0</ele><time>2026-04-13T09:44:03.859Z</time></trkpt><trkpt lat="40.6432972" lon="14.6979649"><ele>29.0</ele><time>2026-04-13T09:44:04.871Z</time></trkpt><trkpt lat="40.6434259" lon="14.6978714"><ele>29.0</ele><time>2026-04-13T09:44:05.877Z</time></trkpt><trkpt lat="40.6435429" lon="14.6978051"><ele>29.0</ele><time>2026-04-13T09:44:06.858Z</time></trkpt><trkpt lat="40.6436403" lon="14.6977675"><ele>29.0</ele><time>2026-04-13T09:44:07.877Z</time></trkpt><trkpt lat="40.6437292" lon="14.6977796"><ele>32.5</ele><time>2026-04-13T09:44:08.87Z</time></trkpt><trkpt lat="40.6438126" lon="14.6978367"><ele>36.0</ele><time>2026-04-13T09:44:09.86Z</time></trkpt><trkpt lat="40.6439133" lon="14.697915"><ele>39.5</ele><time>2026-04-13T09:44:10.856Z</time></trkpt><trkpt lat="40.6440181" lon="14.6980586"><ele>43.0</ele><time>2026-04-13T09:44:11.847Z</time></trkpt><trkpt lat="40.6441378" lon="14.6982612"><ele>43.0</ele><time>2026-04-13T09:44:12.846Z</time></trkpt><trkpt lat="40.6442694" lon="14.6985285"><ele>43.0</ele><time>2026-04-13T09:44:13.856Z</time></trkpt><trkpt lat="40.6444365" lon="14.6988046"><ele>52.5</ele><time>2026-04-13T09:44:14.852Z</time></trkpt><trkpt lat="40.6445988" lon="14.6991079"><ele>62.0</ele><time>2026-04-13T09:44:15.862Z</time></trkpt><trkpt lat="40.6447452" lon="14.6993945"><ele>52.0</ele><time>2026-04-13T09:44:16.846Z</time></trkpt><trkpt lat="40.6448767" lon="14.6996516"><ele>42.0</ele><time>2026-04-13T09:44:17.841Z</time></trkpt><trkpt lat="40.6449833" lon="14.6998946"><ele>32.0</ele><time>2026-04-13T09:44:18.857Z</time></trkpt><trkpt lat="40.6450788" lon="14.7001395"><ele>24.333333333333332</ele><time>2026-04-13T09:44:19.861Z</time></trkpt><trkpt lat="40.6451552" lon="14.7003634"><ele>16.666666666666664</ele><time>2026-04-13T09:44:20.85Z</time></trkpt><trkpt lat="40.6452207" lon="14.700574"><ele>9.0</ele><time>2026-04-13T09:44:21.868Z</time></trkpt><trkpt lat="40.6452757" lon="14.7007654"><ele>8.75</ele><time>2026-04-13T09:44:22.856Z</time></trkpt><trkpt lat="40.6453263" lon="14.7009133"><ele>8.5</ele><time>2026-04-13T09:44:23.862Z</time></trkpt><trkpt lat="40.6453872" lon="14.7010253"><ele>8.25</ele><time>2026-04-13T09:44:24.849Z</time></trkpt><trkpt lat="40.6454745" lon="14.7010993"><ele>8.0</ele><time>2026-04-13T09:44:25.855Z</time></trkpt><trkpt lat="40.6455858" lon="14.7011552"><ele>8.0</ele><time>2026-04-13T09:44:26.846Z</time></trkpt><trkpt lat="40.6456916" lon="14.7012314"><ele>8.0</ele><time>2026-04-13T09:44:27.869Z</time></trkpt><trkpt lat="40.6457843" lon="14.7013211"><ele>8.0</ele><time>2026-04-13T09:44:28.869Z</time></trkpt><trkpt lat="40.6458437" lon="14.7014278"><ele>8.0</ele><time>2026-04-13T09:44:29.873Z</time></trkpt><trkpt lat="40.6459169" lon="14.70149"><ele>8.0</ele><time>2026-04-13T09:44:30.837Z</time></trkpt><trkpt lat="40.6459948" lon="14.7015059"><ele>8.0</ele><time>2026-04-13T09:44:31.855Z</time></trkpt><trkpt lat="40.646072" lon="14.7014885"><ele>8.0</ele><time>2026-04-13T09:44:32.86Z</time></trkpt><trkpt lat="40.6461379" lon="14.701429"><ele>8.0</ele><time>2026-04-13T09:44:33.872Z</time></trkpt><trkpt lat="40.6462149" lon="14.7013366"><ele>8.0</ele><time>2026-04-13T09:44:34.872Z</time></trkpt><trkpt lat="40.6462794" lon="14.7011982"><ele>8.0</ele><time>2026-04-13T09:44:35.867Z</time></trkpt><trkpt lat="40.6463498" lon="14.70104"><ele>12.75</ele><time>2026-04-13T09:44:36.856Z</time></trkpt><trkpt lat="40.6464477" lon="14.7009005"><ele>17.5</ele><time>2026-04-13T09:44:37.868Z</time></trkpt><trkpt lat="40.6465617" lon="14.7007748"><ele>22.25</ele><time>2026-04-13T09:44:38.852Z</time></trkpt><trkpt lat="40.6466732" lon="14.7006586"><ele>27.0</ele><time>2026-04-13T09:44:39.866Z</time></trkpt><trkpt lat="40.6467987" lon="14.7005804"><ele>27.0</ele><time>2026-04-13T09:44:40.87Z</time></trkpt><trkpt lat="40.646919" lon="14.7005111"><ele>27.0</ele><time>2026-04-13T09:44:41.853Z</time></trkpt><trkpt lat="40.6470417" lon="14.7004588"><ele>27.0</ele><time>2026-04-13T09:44:42.862Z</time></trkpt><trkpt lat="40.6471433" lon="14.7004199"><ele>27.0</ele><time>2026-04-13T09:44:43.865Z</time></trkpt><trkpt lat="40.6472473" lon="14.7003899"><ele>25.8</ele><time>2026-04-13T09:44:44.861Z</time></trkpt><trkpt lat="40.6473392" lon="14.7003691"><ele>24.6</ele><time>2026-04-13T09:44:45.86Z</time></trkpt><trkpt lat="40.6474077" lon="14.700365"><ele>23.400000000000002</ele><time>2026-04-13T09:44:46.855Z</time></trkpt><trkpt lat="40.6474809" lon="14.7003975"><ele>22.200000000000003</ele><time>2026-04-13T09:44:47.871Z</time></trkpt><trkpt lat="40.647562" lon="14.7004798"><ele>21.0</ele><time>2026-04-13T09:44:48.873Z</time></trkpt><trkpt lat="40.6476456" lon="14.7005789"><ele>21.0</ele><time>2026-04-13T09:44:49.854Z</time></trkpt><trkpt lat="40.6477188" lon="14.7006705"><ele>21.0</ele><time>2026-04-13T09:44:50.855Z</time></trkpt><trkpt lat="40.6477524" lon="14.7007467"><ele>21.0</ele><time>2026-04-13T09:44:51.86Z</time></trkpt><trkpt lat="40.6477571" lon="14.7008918"><ele>21.0</ele><time>2026-04-13T09:44:53.865Z</time></trkpt><trkpt lat="40.6477005" lon="14.7009878"><ele>21.0</ele><time>2026-04-13T09:44:54.847Z</time></trkpt><trkpt lat="40.6476312" lon="14.7011302"><ele>23.25</ele><time>2026-04-13T09:44:55.872Z</time></trkpt><trkpt lat="40.6475602" lon="14.7012909"><ele>25.5</ele><time>2026-04-13T09:44:56.86Z</time></trkpt><trkpt lat="40.6474869" lon="14.7014745"><ele>27.75</ele><time>2026-04-13T09:44:57.86Z</time></trkpt><trkpt lat="40.6474207" lon="14.7016227"><ele>30.0</ele><time>2026-04-13T09:44:58.85Z</time></trkpt><trkpt lat="40.6473573" lon="14.7017621"><ele>30.0</ele><time>2026-04-13T09:44:59.845Z</time></trkpt><trkpt lat="40.6472956" lon="14.7018985"><ele>30.0</ele><time>2026-04-13T09:45:00.856Z</time></trkpt><trkpt lat="40.6472391" lon="14.7020629"><ele>30.0</ele><time>2026-04-13T09:45:01.855Z</time></trkpt><trkpt lat="40.6472196" lon="14.7022323"><ele>30.0</ele><time>2026-04-13T09:45:02.862Z</time></trkpt><trkpt lat="40.6472116" lon="14.7023891"><ele>30.25</ele><time>2026-04-13T09:45:03.86Z</time></trkpt><trkpt lat="40.6471795" lon="14.7025417"><ele>30.5</ele><time>2026-04-13T09:45:04.851Z</time></trkpt><trkpt lat="40.6471146" lon="14.7026986"><ele>30.75</ele><time>2026-04-13T09:45:05.875Z</time></trkpt><trkpt lat="40.6470636" lon="14.7028512"><ele>31.0</ele><time>2026-04-13T09:45:06.87Z</time></trkpt><trkpt lat="40.6470411" lon="14.7029938"><ele>31.0</ele><time>2026-04-13T09:45:07.864Z</time></trkpt><trkpt lat="40.6470447" lon="14.7031449"><ele>31.0</ele><time>2026-04-13T09:45:08.851Z</time></trkpt><trkpt lat="40.6470609" lon="14.7032986"><ele>31.0</ele><time>2026-04-13T09:45:09.844Z</time></trkpt><trkpt lat="40.6471045" lon="14.7034435"><ele>31.0</ele><time>2026-04-13T09:45:10.85Z</time></trkpt><trkpt lat="40.6471709" lon="14.7035706"><ele>25.75</ele><time>2026-04-13T09:45:11.873Z</time></trkpt><trkpt lat="40.6472611" lon="14.7036768"><ele>20.5</ele><time>2026-04-13T09:45:12.865Z</time></trkpt><trkpt lat="40.6473693" lon="14.7037602"><ele>15.25</ele><time>2026-04-13T09:45:13.859Z</time></trkpt><trkpt lat="40.6474778" lon="14.7038361"><ele>10.0</ele><time>2026-04-13T09:45:14.848Z</time></trkpt><trkpt lat="40.6475858" lon="14.7038494"><ele>10.0</ele><time>2026-04-13T09:45:15.846Z</time></trkpt><trkpt lat="40.6476852" lon="14.7038277"><ele>10.0</ele><time>2026-04-13T09:45:16.873Z</time></trkpt><trkpt lat="40.6477812" lon="14.7037631"><ele>10.0</ele><time>2026-04-13T09:45:17.843Z</time></trkpt><trkpt lat="40.647876" lon="14.7036667"><ele>10.0</ele><time>2026-04-13T09:45:18.862Z</time></trkpt><trkpt lat="40.647983" lon="14.7035683"><ele>22.75</ele><time>2026-04-13T09:45:19.849Z</time></trkpt><trkpt lat="40.6481074" lon="14.7034857"><ele>35.5</ele><time>2026-04-13T09:45:20.847Z</time></trkpt><trkpt lat="40.6482355" lon="14.7034311"><ele>48.25</ele><time>2026-04-13T09:45:21.853Z</time></trkpt><trkpt lat="40.6483571" lon="14.7033987"><ele>61.0</ele><time>2026-04-13T09:45:22.855Z</time></trkpt><trkpt lat="40.6484657" lon="14.7033807"><ele>60.99999999999999</ele><time>2026-04-13T09:45:23.848Z</time></trkpt><trkpt lat="40.6485629" lon="14.7033789"><ele>61.0</ele><time>2026-04-13T09:45:24.865Z</time></trkpt><trkpt lat="40.6486458" lon="14.7034041"><ele>61.0</ele><time>2026-04-13T09:45:25.849Z</time></trkpt><trkpt lat="40.6487089" lon="14.7034553"><ele>61.0</ele><time>2026-04-13T09:45:26.846Z</time></trkpt><trkpt lat="40.6487583" lon="14.703531"><ele>60.99999999999999</ele><time>2026-04-13T09:45:27.844Z</time></trkpt><trkpt lat="40.6487921" lon="14.7036308"><ele>61.0</ele><time>2026-04-13T09:45:28.852Z</time></trkpt><trkpt lat="40.6488235" lon="14.7037446"><ele>55.8</ele><time>2026-04-13T09:45:29.863Z</time></trkpt><trkpt lat="40.6488595" lon="14.7038523"><ele>50.599999999999994</ele><time>2026-04-13T09:45:30.846Z</time></trkpt><trkpt lat="40.6488977" lon="14.7039419"><ele>45.4</ele><time>2026-04-13T09:45:31.857Z</time></trkpt><trkpt lat="40.6489438" lon="14.7040192"><ele>40.2</ele><time>2026-04-13T09:45:32.842Z</time></trkpt><trkpt lat="40.6490137" lon="14.7040944"><ele>35.0</ele><time>2026-04-13T09:45:33.853Z</time></trkpt><trkpt lat="40.6491153" lon="14.7041819"><ele>35.0</ele><time>2026-04-13T09:45:34.849Z</time></trkpt><trkpt lat="40.6492102" lon="14.7042485"><ele>35.0</ele><time>2026-04-13T09:45:35.845Z</time></trkpt><trkpt lat="40.6492874" lon="14.7042886"><ele>35.0</ele><time>2026-04-13T09:45:36.867Z</time></trkpt><trkpt lat="40.649358" lon="14.7042999"><ele>35.0</ele><time>2026-04-13T09:45:37.853Z</time></trkpt><trkpt lat="40.6494416" lon="14.7043112"><ele>35.0</ele><time>2026-04-13T09:45:38.872Z</time></trkpt><trkpt lat="40.6495374" lon="14.7043512"><ele>35.0</ele><time>2026-04-13T09:45:39.857Z</time></trkpt><trkpt lat="40.6496469" lon="14.7044097"><ele>32.0</ele><time>2026-04-13T09:45:40.846Z</time></trkpt><trkpt lat="40.6497596" lon="14.7044414"><ele>29.0</ele><time>2026-04-13T09:45:41.845Z</time></trkpt><trkpt lat="40.6498723" lon="14.7044313"><ele>26.0</ele><time>2026-04-13T09:45:42.858Z</time></trkpt><trkpt lat="40.6499912" lon="14.7043794"><ele>23.0</ele><time>2026-04-13T09:45:43.862Z</time></trkpt><trkpt lat="40.6501209" lon="14.7043104"><ele>31.75</ele><time>2026-04-13T09:45:44.856Z</time></trkpt><trkpt lat="40.6502505" lon="14.7042557"><ele>40.5</ele><time>2026-04-13T09:45:45.862Z</time></trkpt><trkpt lat="40.6503706" lon="14.7042057"><ele>49.25</ele><time>2026-04-13T09:45:46.854Z</time></trkpt><trkpt lat="40.6504771" lon="14.7041623"><ele>58.0</ele><time>2026-04-13T09:45:47.859Z</time></trkpt><trkpt lat="40.6505712" lon="14.7041443"><ele>55.599999999999994</ele><time>2026-04-13T09:45:48.86Z</time></trkpt><trkpt lat="40.6506501" lon="14.7041649"><ele>53.199999999999996</ele><time>2026-04-13T09:45:49.841Z</time></trkpt><trkpt lat="40.6507214" lon="14.704186"><ele>50.8</ele><time>2026-04-13T09:45:50.848Z</time></trkpt><trkpt lat="40.6507069" lon="14.7043886"><ele>48.4</ele><time>2026-04-13T09:45:52.857Z</time></trkpt><trkpt lat="40.6506531" lon="14.704503"><ele>46.0</ele><time>2026-04-13T09:45:53.863Z</time></trkpt><trkpt lat="40.6506278" lon="14.7045999"><ele>46.0</ele><time>2026-04-13T09:45:54.868Z</time></trkpt><trkpt lat="40.6506414" lon="14.7047153"><ele>46.0</ele><time>2026-04-13T09:45:55.852Z</time></trkpt><trkpt lat="40.6506951" lon="14.7048118"><ele>46.0</ele><time>2026-04-13T09:45:56.861Z</time></trkpt><trkpt lat="40.6507823" lon="14.7048866"><ele>46.0</ele><time>2026-04-13T09:45:57.847Z</time></trkpt><trkpt lat="40.6509031" lon="14.7049629"><ele>46.0</ele><time>2026-04-13T09:45:58.855Z</time></trkpt><trkpt lat="40.6510463" lon="14.7050494"><ele>58.25</ele><time>2026-04-13T09:45:59.851Z</time></trkpt><trkpt lat="40.6511824" lon="14.7051139"><ele>70.5</ele><time>2026-04-13T09:46:00.845Z</time></trkpt><trkpt lat="40.6513062" lon="14.7051478"><ele>82.75</ele><time>2026-04-13T09:46:01.85Z</time></trkpt><trkpt lat="40.6514222" lon="14.7051778"><ele>95.0</ele><time>2026-04-13T09:46:02.876Z</time></trkpt><trkpt lat="40.6514917" lon="14.7052364"><ele>87.0</ele><time>2026-04-13T09:46:03.866Z</time></trkpt><trkpt lat="40.6515506" lon="14.7052986"><ele>79.0</ele><time>2026-04-13T09:46:04.863Z</time></trkpt><trkpt lat="40.6515447" lon="14.7054094"><ele>71.0</ele><time>2026-04-13T09:46:05.845Z</time></trkpt><trkpt lat="40.651546" lon="14.7055336"><ele>63.0</ele><time>2026-04-13T09:46:06.872Z</time></trkpt><trkpt lat="40.6515803" lon="14.7056671"><ele>55.0</ele><time>2026-04-13T09:46:07.859Z</time></trkpt><trkpt lat="40.6516196" lon="14.705805"><ele>55.0</ele><time>2026-04-13T09:46:08.854Z</time></trkpt><trkpt lat="40.6517087" lon="14.7059182"><ele>55.0</ele><time>2026-04-13T09:46:09.865Z</time></trkpt><trkpt lat="40.6518185" lon="14.7059903"><ele>55.0</ele><time>2026-04-13T09:46:10.853Z</time></trkpt><trkpt lat="40.6519406" lon="14.7060156"><ele>55.0</ele><time>2026-04-13T09:46:11.868Z</time></trkpt><trkpt lat="40.6520659" lon="14.7060381"><ele>51.75</ele><time>2026-04-13T09:46:12.845Z</time></trkpt><trkpt lat="40.6521962" lon="14.7060732"><ele>48.5</ele><time>2026-04-13T09:46:13.873Z</time></trkpt><trkpt lat="40.6523136" lon="14.7061422"><ele>45.25</ele><time>2026-04-13T09:46:14.851Z</time></trkpt><trkpt lat="40.6524254" lon="14.7062069"><ele>42.0</ele><time>2026-04-13T09:46:15.853Z</time></trkpt><trkpt lat="40.6525447" lon="14.7062452"><ele>42.0</ele><time>2026-04-13T09:46:16.92Z</time></trkpt><trkpt lat="40.6526404" lon="14.7063181"><ele>42.0</ele><time>2026-04-13T09:46:17.865Z</time></trkpt><trkpt lat="40.6527221" lon="14.7064364"><ele>42.0</ele><time>2026-04-13T09:46:18.861Z</time></trkpt><trkpt lat="40.6528162" lon="14.7065808"><ele>42.0</ele><time>2026-04-13T09:46:19.855Z</time></trkpt><trkpt lat="40.6529192" lon="14.7067287"><ele>40.0</ele><time>2026-04-13T09:46:20.868Z</time></trkpt><trkpt lat="40.6530045" lon="14.7068564"><ele>38.0</ele><time>2026-04-13T09:46:21.854Z</time></trkpt><trkpt lat="40.6530866" lon="14.7069511"><ele>36.0</ele><time>2026-04-13T09:46:22.874Z</time></trkpt><trkpt lat="40.6531787" lon="14.7069976"><ele>34.0</ele><time>2026-04-13T09:46:23.859Z</time></trkpt><trkpt lat="40.6533003" lon="14.7070224"><ele>34.0</ele><time>2026-04-13T09:46:24.872Z</time></trkpt><trkpt lat="40.6534482" lon="14.7070468"><ele>34.0</ele><time>2026-04-13T09:46:25.854Z</time></trkpt><trkpt lat="40.6535903" lon="14.7070713"><ele>34.0</ele><time>2026-04-13T09:46:26.85Z</time></trkpt><trkpt lat="40.6537239" lon="14.7070947"><ele>34.0</ele><time>2026-04-13T09:46:27.852Z</time></trkpt><trkpt lat="40.6538262" lon="14.7071193"><ele>42.5</ele><time>2026-04-13T09:46:28.864Z</time></trkpt><trkpt lat="40.6538968" lon="14.7071651"><ele>51.0</ele><time>2026-04-13T09:46:29.847Z</time></trkpt><trkpt lat="40.6539139" lon="14.7073541"><ele>59.5</ele><time>2026-04-13T09:46:31.85Z</time></trkpt><trkpt lat="40.6539371" lon="14.7074882"><ele>68.0</ele><time>2026-04-13T09:46:32.847Z</time></trkpt><trkpt lat="40.6539999" lon="14.7076288"><ele>68.0</ele><time>2026-04-13T09:46:33.862Z</time></trkpt><trkpt lat="40.6540868" lon="14.7077288"><ele>68.0</ele><time>2026-04-13T09:46:34.843Z</time></trkpt><trkpt lat="40.6541943" lon="14.7077929"><ele>68.0</ele><time>2026-04-13T09:46:35.87Z</time></trkpt><trkpt lat="40.6543132" lon="14.7078417"><ele>68.0</ele><time>2026-04-13T09:46:36.852Z</time></trkpt><trkpt lat="40.654435" lon="14.7078908"><ele>65.8</ele><time>2026-04-13T09:46:37.867Z</time></trkpt><trkpt lat="40.6545415" lon="14.7079482"><ele>63.599999999999994</ele><time>2026-04-13T09:46:38.848Z</time></trkpt><trkpt lat="40.6546313" lon="14.7080069"><ele>61.400000000000006</ele><time>2026-04-13T09:46:39.856Z</time></trkpt><trkpt lat="40.6547295" lon="14.7080481"><ele>59.2</ele><time>2026-04-13T09:46:40.878Z</time></trkpt><trkpt lat="40.6548457" lon="14.7080828"><ele>57.0</ele><time>2026-04-13T09:46:41.856Z</time></trkpt><trkpt lat="40.6549498" lon="14.7081296"><ele>57.0</ele><time>2026-04-13T09:46:42.854Z</time></trkpt><trkpt lat="40.6550374" lon="14.7081957"><ele>57.0</ele><time>2026-04-13T09:46:43.855Z</time></trkpt><trkpt lat="40.6551201" lon="14.7082455"><ele>57.0</ele><time>2026-04-13T09:46:44.871Z</time></trkpt><trkpt lat="40.6551952" lon="14.7082864"><ele>57.0</ele><time>2026-04-13T09:46:45.841Z</time></trkpt><trkpt lat="40.6552629" lon="14.7083031"><ele>57.0</ele><time>2026-04-13T09:46:46.859Z</time></trkpt><trkpt lat="40.6553319" lon="14.7083061"><ele>57.0</ele><time>2026-04-13T09:46:47.873Z</time></trkpt><trkpt lat="40.6553979" lon="14.7083121"><ele>59.333333333333336</ele><time>2026-04-13T09:46:48.874Z</time></trkpt><trkpt lat="40.6554646" lon="14.7083274"><ele>61.66666666666667</ele><time>2026-04-13T09:46:49.872Z</time></trkpt><trkpt lat="40.6555413" lon="14.7083513"><ele>64.0</ele><time>2026-04-13T09:46:50.854Z</time></trkpt><trkpt lat="40.6556181" lon="14.7083756"><ele>66.33333333333334</ele><time>2026-04-13T09:46:51.865Z</time></trkpt><trkpt lat="40.655692" lon="14.708386"><ele>68.66666666666667</ele><time>2026-04-13T09:46:52.847Z</time></trkpt><trkpt lat="40.655762" lon="14.7083932"><ele>71.0</ele><time>2026-04-13T09:46:53.866Z</time></trkpt><trkpt lat="40.6558498" lon="14.7083509"><ele>71.0</ele><time>2026-04-13T09:46:54.842Z</time></trkpt><trkpt lat="40.655942" lon="14.7083013"><ele>71.0</ele><time>2026-04-13T09:46:55.863Z</time></trkpt><trkpt lat="40.6560272" lon="14.7082751"><ele>71.0</ele><time>2026-04-13T09:46:56.852Z</time></trkpt><trkpt lat="40.6561079" lon="14.7082722"><ele>71.0</ele><time>2026-04-13T09:46:57.874Z</time></trkpt><trkpt lat="40.6561703" lon="14.7082991"><ele>71.0</ele><time>2026-04-13T09:46:58.866Z</time></trkpt><trkpt lat="40.6562235" lon="14.7083546"><ele>71.0</ele><time>2026-04-13T09:46:59.86Z</time></trkpt><trkpt lat="40.656258" lon="14.7084317"><ele>68.66666666666667</ele><time>2026-04-13T09:47:00.863Z</time></trkpt><trkpt lat="40.6562757" lon="14.7085238"><ele>66.33333333333334</ele><time>2026-04-13T09:47:01.847Z</time></trkpt><trkpt lat="40.6562903" lon="14.7086195"><ele>64.0</ele><time>2026-04-13T09:47:02.836Z</time></trkpt><trkpt lat="40.6563182" lon="14.7087077"><ele>61.66666666666667</ele><time>2026-04-13T09:47:03.851Z</time></trkpt><trkpt lat="40.6563587" lon="14.7087737"><ele>59.333333333333336</ele><time>2026-04-13T09:47:04.852Z</time></trkpt><trkpt lat="40.6564559" lon="14.7088589"><ele>57.0</ele><time>2026-04-13T09:47:06.868Z</time></trkpt><trkpt lat="40.6565219" lon="14.7088989"><ele>57.0</ele><time>2026-04-13T09:47:07.859Z</time></trkpt><trkpt lat="40.6565971" lon="14.7089434"><ele>56.99999999999999</ele><time>2026-04-13T09:47:08.862Z</time></trkpt><trkpt lat="40.6566666" lon="14.7089845"><ele>57.0</ele><time>2026-04-13T09:47:09.861Z</time></trkpt><trkpt lat="40.6567339" lon="14.7090223"><ele>57.0</ele><time>2026-04-13T09:47:10.85Z</time></trkpt><trkpt lat="40.6568022" lon="14.7090571"><ele>56.99999999999999</ele><time>2026-04-13T09:47:11.863Z</time></trkpt><trkpt lat="40.6568658" lon="14.7090826"><ele>57.0</ele><time>2026-04-13T09:47:12.861Z</time></trkpt><trkpt lat="40.6569355" lon="14.7091114"><ele>57.0</ele><time>2026-04-13T09:47:13.845Z</time></trkpt><trkpt lat="40.6570115" lon="14.7091545"><ele>58.400000000000006</ele><time>2026-04-13T09:47:14.851Z</time></trkpt><trkpt lat="40.6570907" lon="14.7092183"><ele>59.800000000000004</ele><time>2026-04-13T09:47:15.853Z</time></trkpt><trkpt lat="40.6571678" lon="14.7092955"><ele>61.2</ele><time>2026-04-13T09:47:16.862Z</time></trkpt><trkpt lat="40.6572379" lon="14.7093842"><ele>62.6</ele><time>2026-04-13T09:47:17.848Z</time></trkpt><trkpt lat="40.6573205" lon="14.7095067"><ele>64.0</ele><time>2026-04-13T09:47:18.854Z</time></trkpt><trkpt lat="40.6574114" lon="14.7096543"><ele>64.0</ele><time>2026-04-13T09:47:19.848Z</time></trkpt><trkpt lat="40.6574957" lon="14.7097954"><ele>64.0</ele><time>2026-04-13T09:47:20.871Z</time></trkpt><trkpt lat="40.6575786" lon="14.7099318"><ele>64.0</ele><time>2026-04-13T09:47:21.851Z</time></trkpt><trkpt lat="40.6576614" lon="14.7100456"><ele>64.0</ele><time>2026-04-13T09:47:22.863Z</time></trkpt><trkpt lat="40.6577568" lon="14.7101273"><ele>65.5</ele><time>2026-04-13T09:47:23.871Z</time></trkpt><trkpt lat="40.657859" lon="14.7101742"><ele>67.0</ele><time>2026-04-13T09:47:24.842Z</time></trkpt><trkpt lat="40.6579541" lon="14.7101995"><ele>68.5</ele><time>2026-04-13T09:47:25.862Z</time></trkpt><trkpt lat="40.6580345" lon="14.7102201"><ele>70.0</ele><time>2026-04-13T09:47:26.845Z</time></trkpt><trkpt lat="40.6581064" lon="14.7102387"><ele>71.5</ele><time>2026-04-13T09:47:27.866Z</time></trkpt><trkpt lat="40.6581687" lon="14.7102654"><ele>73.0</ele><time>2026-04-13T09:47:28.891Z</time></trkpt><trkpt lat="40.6582294" lon="14.710314"><ele>73.0</ele><time>2026-04-13T09:47:29.851Z</time></trkpt><trkpt lat="40.6582877" lon="14.7103664"><ele>73.0</ele><time>2026-04-13T09:47:30.858Z</time></trkpt><trkpt lat="40.6583122" lon="14.7104561"><ele>73.0</ele><time>2026-04-13T09:47:31.852Z</time></trkpt><trkpt lat="40.6583127" lon="14.7105557"><ele>73.0</ele><time>2026-04-13T09:47:32.866Z</time></trkpt><trkpt lat="40.6582943" lon="14.710651"><ele>73.0</ele><time>2026-04-13T09:47:33.874Z</time></trkpt><trkpt lat="40.65826" lon="14.7107363"><ele>73.0</ele><time>2026-04-13T09:47:34.86Z</time></trkpt><trkpt lat="40.658222" lon="14.7108143"><ele>73.0</ele><time>2026-04-13T09:47:35.872Z</time></trkpt><trkpt lat="40.658189" lon="14.7108949"><ele>73.0</ele><time>2026-04-13T09:47:36.849Z</time></trkpt><trkpt lat="40.6581675" lon="14.7109747"><ele>73.0</ele><time>2026-04-13T09:47:37.872Z</time></trkpt><trkpt lat="40.6581625" lon="14.7110609"><ele>73.0</ele><time>2026-04-13T09:47:38.862Z</time></trkpt><trkpt lat="40.6581779" lon="14.7111464"><ele>73.0</ele><time>2026-04-13T09:47:39.843Z</time></trkpt><trkpt lat="40.6581943" lon="14.7112309"><ele>73.0</ele><time>2026-04-13T09:47:40.861Z</time></trkpt><trkpt lat="40.6582506" lon="14.7112879"><ele>73.0</ele><time>2026-04-13T09:47:41.857Z</time></trkpt><trkpt lat="40.6583214" lon="14.7113227"><ele>73.0</ele><time>2026-04-13T09:47:42.863Z</time></trkpt><trkpt lat="40.6583982" lon="14.711331"><ele>72.66666666666666</ele><time>2026-04-13T09:47:43.854Z</time></trkpt><trkpt lat="40.6584813" lon="14.7113222"><ele>72.33333333333333</ele><time>2026-04-13T09:47:44.851Z</time></trkpt><trkpt lat="40.6585657" lon="14.7113086"><ele>72.0</ele><time>2026-04-13T09:47:45.868Z</time></trkpt><trkpt lat="40.6586535" lon="14.7112896"><ele>71.66666666666667</ele><time>2026-04-13T09:47:46.855Z</time></trkpt><trkpt lat="40.658746" lon="14.7112693"><ele>71.33333333333334</ele><time>2026-04-13T09:47:47.856Z</time></trkpt><trkpt lat="40.6588408" lon="14.7112627"><ele>71.0</ele><time>2026-04-13T09:47:48.864Z</time></trkpt><trkpt lat="40.6589321" lon="14.7112856"><ele>71.0</ele><time>2026-04-13T09:47:49.852Z</time></trkpt><trkpt lat="40.6590194" lon="14.7113394"><ele>71.0</ele><time>2026-04-13T09:47:50.856Z</time></trkpt><trkpt lat="40.6591069" lon="14.7113956"><ele>71.0</ele><time>2026-04-13T09:47:51.871Z</time></trkpt><trkpt lat="40.6591798" lon="14.7114765"><ele>71.0</ele><time>2026-04-13T09:47:52.859Z</time></trkpt><trkpt lat="40.6592439" lon="14.7115489"><ele>71.0</ele><time>2026-04-13T09:47:53.859Z</time></trkpt><trkpt lat="40.6593208" lon="14.7116168"><ele>71.0</ele><time>2026-04-13T09:47:54.857Z</time></trkpt><trkpt lat="40.6593968" lon="14.7116989"><ele>71.0</ele><time>2026-04-13T09:47:55.874Z</time></trkpt><trkpt lat="40.6594985" lon="14.7117872"><ele>71.0</ele><time>2026-04-13T09:47:56.838Z</time></trkpt><trkpt lat="40.6596455" lon="14.7118993"><ele>71.0</ele><time>2026-04-13T09:47:57.851Z</time></trkpt><trkpt lat="40.6597851" lon="14.711998"><ele>68.66666666666667</ele><time>2026-04-13T09:47:58.847Z</time></trkpt><trkpt lat="40.659939" lon="14.7120487"><ele>66.33333333333333</ele><time>2026-04-13T09:47:59.866Z</time></trkpt><trkpt lat="40.660115" lon="14.7120772"><ele>64.0</ele><time>2026-04-13T09:48:00.85Z</time></trkpt><trkpt lat="40.660298" lon="14.7121296"><ele>64.0</ele><time>2026-04-13T09:48:01.843Z</time></trkpt><trkpt lat="40.6604615" lon="14.7121884"><ele>64.0</ele><time>2026-04-13T09:48:02.847Z</time></trkpt><trkpt lat="40.660602" lon="14.7122421"><ele>64.0</ele><time>2026-04-13T09:48:03.875Z</time></trkpt><trkpt lat="40.6607178" lon="14.7122833"><ele>64.0</ele><time>2026-04-13T09:48:04.872Z</time></trkpt><trkpt lat="40.6608208" lon="14.7123206"><ele>63.99999999999999</ele><time>2026-04-13T09:48:05.864Z</time></trkpt><trkpt lat="40.6609103" lon="14.7123498"><ele>64.0</ele><time>2026-04-13T09:48:06.849Z</time></trkpt><trkpt lat="40.660994" lon="14.7123727"><ele>64.0</ele><time>2026-04-13T09:48:07.86Z</time></trkpt><trkpt lat="40.6610716" lon="14.7123943"><ele>64.0</ele><time>2026-04-13T09:48:08.881Z</time></trkpt><trkpt lat="40.6611774" lon="14.7124268"><ele>63.99999999999999</ele><time>2026-04-13T09:48:10.868Z</time></trkpt><trkpt lat="40.661248" lon="14.712464"><ele>64.0</ele><time>2026-04-13T09:48:38.853Z</time></trkpt><trkpt lat="40.6613767" lon="14.7125185"><ele>67.2</ele><time>2026-04-13T09:48:40.866Z</time></trkpt><trkpt lat="40.6614645" lon="14.7125294"><ele>70.4</ele><time>2026-04-13T09:48:41.853Z</time></trkpt><trkpt lat="40.6615509" lon="14.7125045"><ele>73.6</ele><time>2026-04-13T09:48:42.867Z</time></trkpt><trkpt lat="40.6616296" lon="14.7124422"><ele>76.8</ele><time>2026-04-13T09:48:43.855Z</time></trkpt><trkpt lat="40.6617097" lon="14.7123447"><ele>80.0</ele><time>2026-04-13T09:48:44.885Z</time></trkpt><trkpt lat="40.6617927" lon="14.7122408"><ele>80.0</ele><time>2026-04-13T09:48:45.846Z</time></trkpt><trkpt lat="40.6618661" lon="14.7121186"><ele>80.0</ele><time>2026-04-13T09:48:46.873Z</time></trkpt><trkpt lat="40.6619368" lon="14.7120114"><ele>80.0</ele><time>2026-04-13T09:48:47.857Z</time></trkpt><trkpt lat="40.6620112" lon="14.7119565"><ele>80.0</ele><time>2026-04-13T09:48:48.853Z</time></trkpt><trkpt lat="40.6620914" lon="14.7119453"><ele>80.0</ele><time>2026-04-13T09:48:49.859Z</time></trkpt><trkpt lat="40.6621611" lon="14.7119837"><ele>83.8</ele><time>2026-04-13T09:48:50.84Z</time></trkpt><trkpt lat="40.6622075" lon="14.7120621"><ele>87.6</ele><time>2026-04-13T09:48:51.86Z</time></trkpt><trkpt lat="40.6622349" lon="14.7121735"><ele>91.4</ele><time>2026-04-13T09:48:52.859Z</time></trkpt><trkpt lat="40.6622624" lon="14.7122965"><ele>95.2</ele><time>2026-04-13T09:48:53.86Z</time></trkpt><trkpt lat="40.6622862" lon="14.712488"><ele>99.0</ele><time>2026-04-13T09:48:54.856Z</time></trkpt><trkpt lat="40.6623121" lon="14.7127068"><ele>92.0</ele><time>2026-04-13T09:48:55.868Z</time></trkpt><trkpt lat="40.6623375" lon="14.7129348"><ele>85.0</ele><time>2026-04-13T09:48:56.862Z</time></trkpt><trkpt lat="40.6623576" lon="14.7131354"><ele>78.0</ele><time>2026-04-13T09:48:57.858Z</time></trkpt><trkpt lat="40.662381" lon="14.7132929"><ele>78.0</ele><time>2026-04-13T09:48:58.867Z</time></trkpt><trkpt lat="40.6624218" lon="14.7134118"><ele>78.0</ele><time>2026-04-13T09:48:59.86Z</time></trkpt><trkpt lat="40.6624833" lon="14.7134839"><ele>78.0</ele><time>2026-04-13T09:49:00.865Z</time></trkpt><trkpt lat="40.6625632" lon="14.7135145"><ele>78.0</ele><time>2026-04-13T09:49:01.863Z</time></trkpt><trkpt lat="40.6626585" lon="14.7135498"><ele>78.0</ele><time>2026-04-13T09:49:02.86Z</time></trkpt><trkpt lat="40.6627748" lon="14.7135936"><ele>73.75</ele><time>2026-04-13T09:49:03.849Z</time></trkpt><trkpt lat="40.6628793" lon="14.7136768"><ele>69.5</ele><time>2026-04-13T09:49:04.851Z</time></trkpt><trkpt lat="40.6629637" lon="14.7137959"><ele>65.25</ele><time>2026-04-13T09:49:05.844Z</time></trkpt><trkpt lat="40.6630393" lon="14.7139245"><ele>61.0</ele><time>2026-04-13T09:49:06.86Z</time></trkpt><trkpt lat="40.6631254" lon="14.7140242"><ele>61.0</ele><time>2026-04-13T09:49:07.864Z</time></trkpt><trkpt lat="40.663207" lon="14.7141137"><ele>61.0</ele><time>2026-04-13T09:49:08.845Z</time></trkpt><trkpt lat="40.6633171" lon="14.7141233"><ele>61.0</ele><time>2026-04-13T09:49:09.871Z</time></trkpt><trkpt lat="40.6634316" lon="14.7141335"><ele>61.0</ele><time>2026-04-13T09:49:10.887Z</time></trkpt><trkpt lat="40.6635723" lon="14.7140951"><ele>59.5</ele><time>2026-04-13T09:49:11.847Z</time></trkpt><trkpt lat="40.6637168" lon="14.714053"><ele>58.0</ele><time>2026-04-13T09:49:12.863Z</time></trkpt><trkpt lat="40.6638424" lon="14.7139965"><ele>56.5</ele><time>2026-04-13T09:49:13.851Z</time></trkpt><trkpt lat="40.663946" lon="14.7139055"><ele>55.0</ele><time>2026-04-13T09:49:14.861Z</time></trkpt><trkpt lat="40.6640329" lon="14.713773"><ele>55.0</ele><time>2026-04-13T09:49:15.84Z</time></trkpt><trkpt lat="40.6641212" lon="14.713632"><ele>55.0</ele><time>2026-04-13T09:49:16.874Z</time></trkpt><trkpt lat="40.6642155" lon="14.7134785"><ele>55.0</ele><time>2026-04-13T09:49:17.854Z</time></trkpt><trkpt lat="40.6643383" lon="14.713361"><ele>55.0</ele><time>2026-04-13T09:49:18.86Z</time></trkpt><trkpt lat="40.6644925" lon="14.7132755"><ele>57.666666666666664</ele><time>2026-04-13T09:49:19.839Z</time></trkpt><trkpt lat="40.6646315" lon="14.7131562"><ele>60.33333333333333</ele><time>2026-04-13T09:49:20.858Z</time></trkpt><trkpt lat="40.6647619" lon="14.7129981"><ele>63.0</ele><time>2026-04-13T09:49:21.862Z</time></trkpt><trkpt lat="40.664893" lon="14.7128214"><ele>69.75</ele><time>2026-04-13T09:49:22.864Z</time></trkpt><trkpt lat="40.6650211" lon="14.7126555"><ele>76.5</ele><time>2026-04-13T09:49:23.864Z</time></trkpt><trkpt lat="40.6651179" lon="14.7125357"><ele>83.25</ele><time>2026-04-13T09:49:24.857Z</time></trkpt><trkpt lat="40.6651902" lon="14.7124619"><ele>90.0</ele><time>2026-04-13T09:49:25.865Z</time></trkpt><trkpt lat="40.6652716" lon="14.7124522"><ele>89.0</ele><time>2026-04-13T09:49:26.841Z</time></trkpt><trkpt lat="40.6653719" lon="14.7125148"><ele>88.0</ele><time>2026-04-13T09:49:27.876Z</time></trkpt><trkpt lat="40.6654842" lon="14.7125961"><ele>87.0</ele><time>2026-04-13T09:49:28.846Z</time></trkpt><trkpt lat="40.66559" lon="14.7126619"><ele>86.0</ele><time>2026-04-13T09:49:29.853Z</time></trkpt><trkpt lat="40.6656621" lon="14.7127476"><ele>86.0</ele><time>2026-04-13T09:49:30.857Z</time></trkpt><trkpt lat="40.6656966" lon="14.7128613"><ele>86.0</ele><time>2026-04-13T09:49:31.868Z</time></trkpt><trkpt lat="40.6657018" lon="14.7130017"><ele>86.0</ele><time>2026-04-13T09:49:32.857Z</time></trkpt><trkpt lat="40.6656731" lon="14.7131668"><ele>86.0</ele><time>2026-04-13T09:49:33.862Z</time></trkpt><trkpt lat="40.6656389" lon="14.7133501"><ele>95.0</ele><time>2026-04-13T09:49:34.868Z</time></trkpt><trkpt lat="40.6655556" lon="14.7135996"><ele>104.0</ele><time>2026-04-13T09:49:35.859Z</time></trkpt><trkpt lat="40.6654419" lon="14.7139125"><ele>104.0</ele><time>2026-04-13T09:49:36.864Z</time></trkpt><trkpt lat="40.6653149" lon="14.7142803"><ele>104.0</ele><time>2026-04-13T09:49:37.843Z</time></trkpt><trkpt lat="40.6651724" lon="14.7146694"><ele>93.0</ele><time>2026-04-13T09:49:38.866Z</time></trkpt><trkpt lat="40.6650332" lon="14.7150197"><ele>82.0</ele><time>2026-04-13T09:49:39.858Z</time></trkpt><trkpt lat="40.6649018" lon="14.715334"><ele>82.0</ele><time>2026-04-13T09:49:40.867Z</time></trkpt><trkpt lat="40.664785" lon="14.7155938"><ele>82.0</ele><time>2026-04-13T09:49:41.885Z</time></trkpt><trkpt lat="40.6646919" lon="14.7158006"><ele>82.0</ele><time>2026-04-13T09:49:42.86Z</time></trkpt><trkpt lat="40.6646201" lon="14.7159769"><ele>78.75</ele><time>2026-04-13T09:49:43.845Z</time></trkpt><trkpt lat="40.6645664" lon="14.7161317"><ele>75.5</ele><time>2026-04-13T09:49:44.858Z</time></trkpt><trkpt lat="40.6645815" lon="14.7162869"><ele>72.25</ele><time>2026-04-13T09:49:45.86Z</time></trkpt><trkpt lat="40.6646289" lon="14.7164428"><ele>69.0</ele><time>2026-04-13T09:49:46.877Z</time></trkpt><trkpt lat="40.6647143" lon="14.71658"><ele>69.0</ele><time>2026-04-13T09:49:47.847Z</time></trkpt><trkpt lat="40.6648056" lon="14.7167259"><ele>69.0</ele><time>2026-04-13T09:49:48.859Z</time></trkpt><trkpt lat="40.6649561" lon="14.7168405"><ele>69.0</ele><time>2026-04-13T09:49:49.86Z</time></trkpt><trkpt lat="40.6651442" lon="14.7169566"><ele>67.5</ele><time>2026-04-13T09:49:50.853Z</time></trkpt><trkpt lat="40.6653817" lon="14.7171331"><ele>66.0</ele><time>2026-04-13T09:49:51.85Z</time></trkpt><trkpt lat="40.6656294" lon="14.7172825"><ele>66.0</ele><time>2026-04-13T09:49:52.858Z</time></trkpt><trkpt lat="40.6658537" lon="14.7174123"><ele>66.0</ele><time>2026-04-13T09:49:53.862Z</time></trkpt><trkpt lat="40.6660738" lon="14.7175201"><ele>62.0</ele><time>2026-04-13T09:49:54.863Z</time></trkpt><trkpt lat="40.6662852" lon="14.7176195"><ele>58.0</ele><time>2026-04-13T09:49:55.881Z</time></trkpt><trkpt lat="40.6664667" lon="14.7177135"><ele>54.0</ele><time>2026-04-13T09:49:56.853Z</time></trkpt><trkpt lat="40.6666269" lon="14.7178063"><ele>54.0</ele><time>2026-04-13T09:49:57.856Z</time></trkpt><trkpt lat="40.6667573" lon="14.7179242"><ele>54.0</ele><time>2026-04-13T09:49:58.855Z</time></trkpt><trkpt lat="40.6668536" lon="14.718062"><ele>54.0</ele><time>2026-04-13T09:49:59.872Z</time></trkpt><trkpt lat="40.6669355" lon="14.7181903"><ele>54.0</ele><time>2026-04-13T09:50:00.864Z</time></trkpt><trkpt lat="40.6670301" lon="14.7182675"><ele>60.25</ele><time>2026-04-13T09:50:01.858Z</time></trkpt><trkpt lat="40.6671453" lon="14.7183001"><ele>66.5</ele><time>2026-04-13T09:50:02.867Z</time></trkpt><trkpt lat="40.6672701" lon="14.7183318"><ele>72.75</ele><time>2026-04-13T09:50:03.863Z</time></trkpt><trkpt lat="40.6674004" lon="14.7183892"><ele>79.0</ele><time>2026-04-13T09:50:04.869Z</time></trkpt><trkpt lat="40.6675048" lon="14.7184915"><ele>77.60000000000001</ele><time>2026-04-13T09:50:05.871Z</time></trkpt><trkpt lat="40.667572" lon="14.7186359"><ele>76.2</ele><time>2026-04-13T09:50:06.859Z</time></trkpt><trkpt lat="40.6676412" lon="14.7187647"><ele>74.80000000000001</ele><time>2026-04-13T09:50:07.865Z</time></trkpt><trkpt lat="40.6677234" lon="14.7188357"><ele>73.4</ele><time>2026-04-13T09:50:08.846Z</time></trkpt><trkpt lat="40.6678181" lon="14.7188545"><ele>72.0</ele><time>2026-04-13T09:50:09.881Z</time></trkpt><trkpt lat="40.6679144" lon="14.7188583"><ele>72.0</ele><time>2026-04-13T09:50:10.848Z</time></trkpt><trkpt lat="40.6680518" lon="14.7189019"><ele>72.0</ele><time>2026-04-13T09:50:11.864Z</time></trkpt><trkpt lat="40.6681886" lon="14.7189861"><ele>72.0</ele><time>2026-04-13T09:50:12.848Z</time></trkpt><trkpt lat="40.6683139" lon="14.7190847"><ele>72.0</ele><time>2026-04-13T09:50:13.87Z</time></trkpt><trkpt lat="40.6684297" lon="14.7191541"><ele>72.0</ele><time>2026-04-13T09:50:14.844Z</time></trkpt><trkpt lat="40.6685343" lon="14.719208"><ele>72.0</ele><time>2026-04-13T09:50:15.866Z</time></trkpt><trkpt lat="40.6686223" lon="14.7192703"><ele>72.0</ele><time>2026-04-13T09:50:16.843Z</time></trkpt><trkpt lat="40.6686858" lon="14.7193434"><ele>72.0</ele><time>2026-04-13T09:50:17.855Z</time></trkpt><trkpt lat="40.6687293" lon="14.7194309"><ele>72.0</ele><time>2026-04-13T09:50:18.865Z</time></trkpt><trkpt lat="40.6687598" lon="14.7195473"><ele>70.8</ele><time>2026-04-13T09:50:19.844Z</time></trkpt><trkpt lat="40.6687709" lon="14.7196761"><ele>69.6</ele><time>2026-04-13T09:50:20.866Z</time></trkpt><trkpt lat="40.6687562" lon="14.7198191"><ele>68.39999999999999</ele><time>2026-04-13T09:50:21.862Z</time></trkpt><trkpt lat="40.6687359" lon="14.719967"><ele>67.2</ele><time>2026-04-13T09:50:22.853Z</time></trkpt><trkpt lat="40.6687188" lon="14.7201126"><ele>66.0</ele><time>2026-04-13T09:50:23.863Z</time></trkpt><trkpt lat="40.668728" lon="14.7202374"><ele>66.0</ele><time>2026-04-13T09:50:24.858Z</time></trkpt><trkpt lat="40.6687643" lon="14.7203511"><ele>66.0</ele><time>2026-04-13T09:50:25.85Z</time></trkpt><trkpt lat="40.6688136" lon="14.7204523"><ele>66.0</ele><time>2026-04-13T09:50:26.86Z</time></trkpt><trkpt lat="40.6688584" lon="14.720536"><ele>66.0</ele><time>2026-04-13T09:50:27.865Z</time></trkpt><trkpt lat="40.6688972" lon="14.7206145"><ele>66.0</ele><time>2026-04-13T09:50:28.855Z</time></trkpt><trkpt lat="40.6689413" lon="14.7207171"><ele>66.0</ele><time>2026-04-13T09:50:29.854Z</time></trkpt><trkpt lat="40.668984" lon="14.72083"><ele>66.0</ele><time>2026-04-13T09:50:30.865Z</time></trkpt><trkpt lat="40.6690319" lon="14.7209278"><ele>66.0</ele><time>2026-04-13T09:50:31.854Z</time></trkpt><trkpt lat="40.6690848" lon="14.721004"><ele>66.0</ele><time>2026-04-13T09:50:32.864Z</time></trkpt><trkpt lat="40.6691437" lon="14.7210484"><ele>66.0</ele><time>2026-04-13T09:50:33.86Z</time></trkpt><trkpt lat="40.6692523" lon="14.7210818"><ele>66.0</ele><time>2026-04-13T09:50:35.873Z</time></trkpt><trkpt lat="40.6693609" lon="14.7211091"><ele>67.2</ele><time>2026-04-13T09:50:37.862Z</time></trkpt><trkpt lat="40.6694575" lon="14.7212083"><ele>68.39999999999999</ele><time>2026-04-13T09:50:39.863Z</time></trkpt><trkpt lat="40.6695225" lon="14.7213293"><ele>69.6</ele><time>2026-04-13T09:50:41.865Z</time></trkpt><trkpt lat="40.6696032" lon="14.7214638"><ele>70.8</ele><time>2026-04-13T09:50:43.868Z</time></trkpt><trkpt lat="40.669668" lon="14.7215209"><ele>72.0</ele><time>2026-04-13T09:50:44.856Z</time></trkpt><trkpt lat="40.6697293" lon="14.7215735"><ele>72.0</ele><time>2026-04-13T09:50:45.87Z</time></trkpt><trkpt lat="40.6697951" lon="14.7215916"><ele>72.0</ele><time>2026-04-13T09:50:46.855Z</time></trkpt><trkpt lat="40.6698663" lon="14.7215931"><ele>72.0</ele><time>2026-04-13T09:50:47.857Z</time></trkpt><trkpt lat="40.6699444" lon="14.7216161"><ele>72.0</ele><time>2026-04-13T09:50:48.848Z</time></trkpt><trkpt lat="40.6700177" lon="14.7216675"><ele>72.0</ele><time>2026-04-13T09:50:49.872Z</time></trkpt><trkpt lat="40.6700789" lon="14.7217469"><ele>72.0</ele><time>2026-04-13T09:50:50.855Z</time></trkpt><trkpt lat="40.6701275" lon="14.7218376"><ele>70.83333333333333</ele><time>2026-04-13T09:50:51.875Z</time></trkpt><trkpt lat="40.6701665" lon="14.7219335"><ele>69.66666666666667</ele><time>2026-04-13T09:50:52.873Z</time></trkpt><trkpt lat="40.6701969" lon="14.7220227"><ele>68.5</ele><time>2026-04-13T09:50:53.856Z</time></trkpt><trkpt lat="40.6702579" lon="14.722138"><ele>67.33333333333334</ele><time>2026-04-13T09:50:55.852Z</time></trkpt><trkpt lat="40.6703569" lon="14.7221933"><ele>66.16666666666667</ele><time>2026-04-13T09:50:57.844Z</time></trkpt><trkpt lat="40.670421" lon="14.7221938"><ele>65.0</ele><time>2026-04-13T09:50:58.86Z</time></trkpt><trkpt lat="40.6704916" lon="14.7221752"><ele>65.00000000000001</ele><time>2026-04-13T09:50:59.847Z</time></trkpt><trkpt lat="40.6705575" lon="14.7221446"><ele>65.0</ele><time>2026-04-13T09:51:00.872Z</time></trkpt><trkpt lat="40.6706288" lon="14.7221094"><ele>65.0</ele><time>2026-04-13T09:51:01.85Z</time></trkpt><trkpt lat="40.6706951" lon="14.7220684"><ele>65.0</ele><time>2026-04-13T09:51:02.855Z</time></trkpt><trkpt lat="40.670761" lon="14.7220156"><ele>65.0</ele><time>2026-04-13T09:51:03.856Z</time></trkpt><trkpt lat="40.6708193" lon="14.7219429"><ele>65.00000000000001</ele><time>2026-04-13T09:51:04.855Z</time></trkpt><trkpt lat="40.6708659" lon="14.7218722"><ele>65.0</ele><time>2026-04-13T09:51:05.852Z</time></trkpt><trkpt lat="40.6709036" lon="14.7217974"><ele>67.28571428571429</ele><time>2026-04-13T09:51:06.863Z</time></trkpt><trkpt lat="40.670944" lon="14.7217121"><ele>69.57142857142857</ele><time>2026-04-13T09:51:07.862Z</time></trkpt><trkpt lat="40.6709954" lon="14.7216329"><ele>71.85714285714286</ele><time>2026-04-13T09:51:08.863Z</time></trkpt><trkpt lat="40.6710697" lon="14.7215771"><ele>74.14285714285714</ele><time>2026-04-13T09:51:09.865Z</time></trkpt><trkpt lat="40.6711386" lon="14.721552"><ele>76.42857142857143</ele><time>2026-04-13T09:51:10.848Z</time></trkpt><trkpt lat="40.6712063" lon="14.7215611"><ele>78.71428571428572</ele><time>2026-04-13T09:51:11.844Z</time></trkpt><trkpt lat="40.6712611" lon="14.7216067"><ele>81.0</ele><time>2026-04-13T09:51:12.861Z</time></trkpt><trkpt lat="40.6713021" lon="14.7216808"><ele>83.16666666666667</ele><time>2026-04-13T09:51:13.851Z</time></trkpt><trkpt lat="40.6713322" lon="14.7217746"><ele>85.33333333333333</ele><time>2026-04-13T09:51:14.87Z</time></trkpt><trkpt lat="40.6713505" lon="14.7218911"><ele>87.5</ele><time>2026-04-13T09:51:15.861Z</time></trkpt><trkpt lat="40.6713583" lon="14.7220009"><ele>89.66666666666666</ele><time>2026-04-13T09:51:16.845Z</time></trkpt><trkpt lat="40.6713548" lon="14.7221054"><ele>91.83333333333333</ele><time>2026-04-13T09:51:17.851Z</time></trkpt><trkpt lat="40.6713334" lon="14.7222144"><ele>94.0</ele><time>2026-04-13T09:51:18.873Z</time></trkpt><trkpt lat="40.6712917" lon="14.7223316"><ele>94.0</ele><time>2026-04-13T09:51:19.856Z</time></trkpt><trkpt lat="40.671234" lon="14.7224794"><ele>94.0</ele><time>2026-04-13T09:51:20.864Z</time></trkpt><trkpt lat="40.6711601" lon="14.7226417"><ele>94.0</ele><time>2026-04-13T09:51:21.846Z</time></trkpt><trkpt lat="40.6710841" lon="14.7227754"><ele>94.0</ele><time>2026-04-13T09:51:22.861Z</time></trkpt><trkpt lat="40.6709892" lon="14.722883"><ele>88.75</ele><time>2026-04-13T09:51:23.861Z</time></trkpt><trkpt lat="40.6708699" lon="14.7229837"><ele>83.5</ele><time>2026-04-13T09:51:24.862Z</time></trkpt><trkpt lat="40.6707469" lon="14.723058"><ele>78.25</ele><time>2026-04-13T09:51:25.858Z</time></trkpt><trkpt lat="40.6706418" lon="14.7231142"><ele>73.0</ele><time>2026-04-13T09:51:26.842Z</time></trkpt><trkpt lat="40.6705491" lon="14.7231703"><ele>73.0</ele><time>2026-04-13T09:51:27.861Z</time></trkpt><trkpt lat="40.6705093" lon="14.7232661"><ele>73.0</ele><time>2026-04-13T09:51:28.846Z</time></trkpt><trkpt lat="40.6705037" lon="14.7233649"><ele>73.0</ele><time>2026-04-13T09:51:29.863Z</time></trkpt><trkpt lat="40.670501" lon="14.7234639"><ele>73.0</ele><time>2026-04-13T09:51:30.852Z</time></trkpt><trkpt lat="40.6705359" lon="14.723594"><ele>73.0</ele><time>2026-04-13T09:51:31.866Z</time></trkpt><trkpt lat="40.6705971" lon="14.7237664"><ele>70.66666666666666</ele><time>2026-04-13T09:51:32.866Z</time></trkpt><trkpt lat="40.6706957" lon="14.7239858"><ele>68.33333333333333</ele><time>2026-04-13T09:51:33.842Z</time></trkpt><trkpt lat="40.6707936" lon="14.7242084"><ele>66.0</ele><time>2026-04-13T09:51:34.853Z</time></trkpt><trkpt lat="40.6708665" lon="14.7243865"><ele>66.6</ele><time>2026-04-13T09:51:35.847Z</time></trkpt><trkpt lat="40.6709265" lon="14.7245344"><ele>67.19999999999999</ele><time>2026-04-13T09:51:36.862Z</time></trkpt><trkpt lat="40.670976" lon="14.7246584"><ele>67.80000000000001</ele><time>2026-04-13T09:51:37.847Z</time></trkpt><trkpt lat="40.6710149" lon="14.7247561"><ele>68.4</ele><time>2026-04-13T09:51:38.868Z</time></trkpt><trkpt lat="40.671046" lon="14.7248357"><ele>69.0</ele><time>2026-04-13T09:51:39.861Z</time></trkpt><trkpt lat="40.6711326" lon="14.7249507"><ele>69.0</ele><time>2026-04-13T09:51:41.861Z</time></trkpt><trkpt lat="40.6711881" lon="14.7250033"><ele>69.0</ele><time>2026-04-13T09:51:42.859Z</time></trkpt><trkpt lat="40.6712698" lon="14.7250135"><ele>69.0</ele><time>2026-04-13T09:51:43.867Z</time></trkpt><trkpt lat="40.6713559" lon="14.7250099"><ele>69.0</ele><time>2026-04-13T09:51:44.874Z</time></trkpt><trkpt lat="40.6714361" lon="14.7250014"><ele>69.0</ele><time>2026-04-13T09:51:45.857Z</time></trkpt><trkpt lat="40.6715152" lon="14.7249986"><ele>69.0</ele><time>2026-04-13T09:51:46.864Z</time></trkpt><trkpt lat="40.6715964" lon="14.7250143"><ele>69.0</ele><time>2026-04-13T09:51:47.857Z</time></trkpt><trkpt lat="40.6716804" lon="14.7250503"><ele>69.0</ele><time>2026-04-13T09:51:48.865Z</time></trkpt><trkpt lat="40.6717579" lon="14.7251029"><ele>69.0</ele><time>2026-04-13T09:51:49.864Z</time></trkpt><trkpt lat="40.6718308" lon="14.7251626"><ele>69.0</ele><time>2026-04-13T09:51:50.838Z</time></trkpt><trkpt lat="40.6718979" lon="14.7252058"><ele>69.0</ele><time>2026-04-13T09:51:51.86Z</time></trkpt><trkpt lat="40.6719599" lon="14.7252426"><ele>69.0</ele><time>2026-04-13T09:51:52.851Z</time></trkpt><trkpt lat="40.6720313" lon="14.7252279"><ele>69.25</ele><time>2026-04-13T09:51:53.868Z</time></trkpt><trkpt lat="40.6721096" lon="14.7252084"><ele>69.5</ele><time>2026-04-13T09:51:54.861Z</time></trkpt><trkpt lat="40.6722391" lon="14.7251213"><ele>69.75</ele><time>2026-04-13T09:51:55.859Z</time></trkpt><trkpt lat="40.6723884" lon="14.7250335"><ele>70.0</ele><time>2026-04-13T09:51:56.859Z</time></trkpt><trkpt lat="40.6725448" lon="14.7249604"><ele>70.0</ele><time>2026-04-13T09:51:57.846Z</time></trkpt><trkpt lat="40.6727268" lon="14.7249066"><ele>70.0</ele><time>2026-04-13T09:51:58.863Z</time></trkpt><trkpt lat="40.6729243" lon="14.7248595"><ele>70.0</ele><time>2026-04-13T09:51:59.842Z</time></trkpt><trkpt lat="40.6731091" lon="14.7248166"><ele>66.25</ele><time>2026-04-13T09:52:00.861Z</time></trkpt><trkpt lat="40.6732793" lon="14.7247781"><ele>62.5</ele><time>2026-04-13T09:52:01.861Z</time></trkpt><trkpt lat="40.6734277" lon="14.724751"><ele>58.75</ele><time>2026-04-13T09:52:02.869Z</time></trkpt><trkpt lat="40.6735471" lon="14.724745"><ele>55.0</ele><time>2026-04-13T09:52:03.846Z</time></trkpt><trkpt lat="40.6736477" lon="14.7247777"><ele>53.0</ele><time>2026-04-13T09:52:04.865Z</time></trkpt><trkpt lat="40.6737227" lon="14.7248552"><ele>51.0</ele><time>2026-04-13T09:52:05.858Z</time></trkpt><trkpt lat="40.6737817" lon="14.7249704"><ele>49.0</ele><time>2026-04-13T09:52:06.856Z</time></trkpt><trkpt lat="40.6738401" lon="14.7251156"><ele>47.0</ele><time>2026-04-13T09:52:07.846Z</time></trkpt><trkpt lat="40.6739009" lon="14.7252625"><ele>52.166666666666664</ele><time>2026-04-13T09:52:08.861Z</time></trkpt><trkpt lat="40.6739528" lon="14.725384"><ele>57.33333333333333</ele><time>2026-04-13T09:52:09.854Z</time></trkpt><trkpt lat="40.6739916" lon="14.72548"><ele>62.5</ele><time>2026-04-13T09:52:10.862Z</time></trkpt><trkpt lat="40.6740161" lon="14.7255646"><ele>67.66666666666667</ele><time>2026-04-13T09:52:11.843Z</time></trkpt><trkpt lat="40.6740384" lon="14.7256466"><ele>72.83333333333333</ele><time>2026-04-13T09:52:12.868Z</time></trkpt><trkpt lat="40.6740127" lon="14.7257234"><ele>78.0</ele><time>2026-04-13T09:52:13.858Z</time></trkpt><trkpt lat="40.6739612" lon="14.7258033"><ele>78.0</ele><time>2026-04-13T09:52:14.859Z</time></trkpt><trkpt lat="40.6738944" lon="14.7258768"><ele>78.0</ele><time>2026-04-13T09:52:15.852Z</time></trkpt><trkpt lat="40.6738348" lon="14.7259609"><ele>78.0</ele><time>2026-04-13T09:52:16.863Z</time></trkpt><trkpt lat="40.6737746" lon="14.7260463"><ele>78.0</ele><time>2026-04-13T09:52:17.849Z</time></trkpt><trkpt lat="40.6737174" lon="14.7261748"><ele>78.0</ele><time>2026-04-13T09:52:18.859Z</time></trkpt><trkpt lat="40.6736547" lon="14.7263403"><ele>78.0</ele><time>2026-04-13T09:52:19.848Z</time></trkpt><trkpt lat="40.6735932" lon="14.7265114"><ele>78.0</ele><time>2026-04-13T09:52:20.855Z</time></trkpt><trkpt lat="40.6735333" lon="14.7266787"><ele>78.0</ele><time>2026-04-13T09:52:21.863Z</time></trkpt><trkpt lat="40.673476" lon="14.7268372"><ele>78.0</ele><time>2026-04-13T09:52:22.849Z</time></trkpt><trkpt lat="40.6734241" lon="14.7269828"><ele>78.0</ele><time>2026-04-13T09:52:23.855Z</time></trkpt><trkpt lat="40.6733814" lon="14.7271027"><ele>78.0</ele><time>2026-04-13T09:52:24.859Z</time></trkpt><trkpt lat="40.6733431" lon="14.7272049"><ele>78.0</ele><time>2026-04-13T09:52:25.86Z</time></trkpt><trkpt lat="40.6733083" lon="14.7273086"><ele>78.0</ele><time>2026-04-13T09:52:26.843Z</time></trkpt><trkpt lat="40.673272" lon="14.7274139"><ele>78.0</ele><time>2026-04-13T09:52:27.864Z</time></trkpt><trkpt lat="40.6732395" lon="14.7275069"><ele>78.0</ele><time>2026-04-13T09:52:28.875Z</time></trkpt><trkpt lat="40.6731936" lon="14.727627"><ele>78.0</ele><time>2026-04-13T09:52:30.858Z</time></trkpt><trkpt lat="40.673152" lon="14.7277062"><ele>78.0</ele><time>2026-04-13T09:52:33.877Z</time></trkpt></trkseg></trk></gpx>